
Distance (Route):
Temperature : 5.1°C
Humidity : 90.3%
Pressure : 779.5hPa| Receiver | Frames | First received | Last received |
|---|---|---|---|
| AA1-15 | 393 | 2026-09-03 23:14:34 | 2026-09-04 01:10:45 |
| DF8AY | 320 | 2026-09-03 23:39:51 | 2026-09-04 01:08:36 |
| BIOWL1-15 | 244 | 2026-09-03 23:38:52 | 2026-09-04 01:09:19 |
| KRY50SP-1 | 239 | 2026-09-03 23:16:50 | 2026-09-04 01:21:45 |
| DM0DOS-11 | 190 | 2026-09-03 23:39:31 | 2026-09-04 01:08:08 |
| DB0DAN | 124 | 2026-09-03 23:03:40 | 2026-09-04 01:10:40 |
| EDDB2-12 | 100 | 2026-09-03 22:59:02 | 2026-09-04 01:26:00 |
| EDDB2-11 | 95 | 2026-09-03 22:59:17 | 2026-09-04 01:23:05 |
| SONDE2-11 | 90 | 2026-09-03 22:59:15 | 2026-09-04 01:25:44 |
| DAC517 | 76 | 2026-09-03 23:04:23 | 2026-09-04 01:16:16 |
| DL1XH-west | 74 | 2026-09-03 23:59:36 | 2026-09-04 01:03:54 |
| 13BRC | 71 | 2026-09-03 23:03:31 | 2026-09-04 00:51:29 |
| DO3MHA-11 | 70 | 2026-09-03 23:49:19 | 2026-09-04 01:08:02 |
| HSKMA3-T | 66 | 2026-09-04 00:09:18 | 2026-09-04 01:03:50 |
| S3001 | 55 | 2026-09-03 23:12:16 | 2026-09-04 01:14:55 |
| SP3WXH-11 | 54 | 2026-09-03 23:26:06 | 2026-09-04 01:21:57 |
| SONCRA | 39 | 2026-09-03 23:21:48 | 2026-09-04 01:11:05 |
| DL2RXE-15 | 36 | 2026-09-03 23:06:45 | 2026-09-04 01:15:34 |
| OE3JTB-15 | 34 | 2026-09-03 23:37:28 | 2026-09-04 01:18:31 |
| OK1SLM-15 | 34 | 2026-09-03 23:37:42 | 2026-09-04 00:39:11 |
| SQ6EMJ | 34 | 2026-09-04 00:51:39 | 2026-09-04 01:15:07 |
| SP3BTT-10 | 33 | 2026-09-03 23:04:36 | 2026-09-04 01:10:19 |
| SP6BVK | 32 | 2026-09-03 23:18:07 | 2026-09-04 00:39:14 |
| DB0NH | 29 | 2026-09-03 23:36:39 | 2026-09-04 01:14:03 |
| DL1XH1-15 | 20 | 2026-09-03 23:59:42 | 2026-09-04 01:03:35 |
| DO2SHX-10 | 19 | 2026-09-04 00:39:15 | 2026-09-04 01:00:36 |
| BIOWL9-15 | 18 | 2026-09-03 23:42:46 | 2026-09-04 01:02:29 |
| PG1ADW-2 | 16 | 2026-09-04 00:04:18 | 2026-09-04 01:05:18 |
| DB6KT-10 | 11 | 2026-09-04 00:07:04 | 2026-09-04 00:59:58 |
| AM1SDL-15 | 9 | 2026-09-03 23:37:10 | 2026-09-04 00:06:59 |
| OE5MMP-10 | 9 | 2026-09-04 00:02:08 | 2026-09-04 00:53:33 |
| NBG1-10 | 8 | 2026-09-03 23:40:43 | 2026-09-04 01:12:26 |
| OE5DRO-10 | 7 | 2026-09-04 00:10:20 | 2026-09-04 01:04:48 |
| DL1JEZ-13 | 6 | 2026-09-04 00:00:34 | 2026-09-04 00:05:39 |
| DL1ZP-14 | 5 | 2026-09-04 00:15:46 | 2026-09-04 00:54:36 |
| OE5DXL-15 | 4 | 2026-09-04 00:07:30 | 2026-09-04 00:51:25 |
| PETON7-10 | 4 | 2026-09-04 00:15:19 | 2026-09-04 00:49:29 |
| POL2MAQ | 4 | 2026-09-04 01:10:10 | 2026-09-04 01:12:19 |
| DB0UT-7 | 3 | 2026-09-04 00:01:53 | 2026-09-04 00:39:12 |
| DB0ND-19 | 2 | 2026-09-03 23:57:22 | 2026-09-03 23:57:53 |
| DF8AY-15 | 2 | 2026-09-04 00:13:43 | 2026-09-04 00:48:43 |
| DL1XH-15 | 2 | 2026-09-04 00:54:33 | 2026-09-04 00:54:48 |
| DF7PN | 1 | 2026-09-04 00:08:10 | 2026-09-04 00:08:10 |
| S52SK | 1 | 2026-09-04 00:20:25 | 2026-09-04 00:20:25 |
| DJ2DS-15 | 1 | 2026-09-04 00:37:46 | 2026-09-04 00:37:46 |
| DK5PH-5 | 1 | 2026-09-04 00:46:52 | 2026-09-04 00:46:52 |
| Receiver | Date | Latitude | Longitude | Direction | Speed | Altitude | Climb | Temperature | Humidity | Pressure | Voltage | Killtimer | Uptime | BKT | XDATA |
|---|---|---|---|---|---|---|---|---|---|---|---|---|---|---|---|
| EDDB2-12 | 2026-09-04 01:26:00 | 51.42922 | 15.85502 | 97° | 62km/h | 2249m | -5.5m/s | 5.1°C | 90.3% | 779.5hPa | 2.6V | 00:00:00 | 00:00:00 | 00:00:00 | |
| SONDE2-11 | 2026-09-04 01:25:44 | 51.42922 | 15.85502 | 97° | 62km/h | 2249m | -5.5m/s | 5.1°C | 90.3% | 779.5hPa | 2.6V | 00:00:00 | 00:00:00 | 00:00:00 | |
| EDDB2-12 | 2026-09-04 01:25:28 | 51.42936 | 15.85346 | 99° | 66km/h | 2281m | -5.5m/s | 4.8°C | 91.0% | 776.4hPa | 2.6V | 00:00:00 | 00:00:00 | 00:00:00 | |
| SONDE2-11 | 2026-09-04 01:25:13 | 51.43011 | 15.84577 | 99° | 68km/h | 2426m | -5.1m/s | 3.4°C | 98.8% | 762.8hPa | 2.6V | 00:00:00 | 00:00:00 | 00:00:00 | |
| EDDB2-12 | 2026-09-04 01:24:57 | 51.43014 | 15.84550 | 99° | 66km/h | 2431m | -5.2m/s | 3.3°C | 98.9% | 762.1hPa | 2.6V | 00:00:00 | 00:00:00 | 00:00:00 | |
| SONDE2-11 | 2026-09-04 01:24:42 | 51.43060 | 15.84145 | 98° | 64km/h | 2517m | -5.2m/s | 2.8°C | 92.9% | 754.4hPa | 2.6V | 00:00:00 | 00:00:00 | 00:00:00 | |
| EDDB2-12 | 2026-09-04 01:24:26 | 51.43103 | 15.83769 | 101° | 60km/h | 2597m | -5.3m/s | 3.5°C | 47.8% | 746.7hPa | 2.6V | 00:00:00 | 00:00:00 | 00:00:00 | |
| SONDE2-11 | 2026-09-04 01:24:10 | 51.43158 | 15.83381 | 104° | 60km/h | 2683m | -5.5m/s | 3.5°C | 37.7% | 739.1hPa | 2.6V | 00:00:00 | 00:00:00 | 00:00:00 | |
| EDDB2-12 | 2026-09-04 01:23:55 | 51.43220 | 15.83011 | 105° | 64km/h | 2761m | -5.2m/s | 3.3°C | 35.2% | 731.9hPa | 2.6V | 00:00:00 | 00:00:00 | 00:00:00 | |
| SONDE2-11 | 2026-09-04 01:23:39 | 51.43299 | 15.82621 | 107° | 62km/h | 2847m | -5.4m/s | 3.9°C | 22.0% | 724.0hPa | 2.6V | 00:00:00 | 00:00:00 | 00:00:00 | |
| EDDB2-12 | 2026-09-04 01:23:24 | 51.43376 | 15.82240 | 107° | 66km/h | 2930m | -5.6m/s | 3.7°C | 22.3% | 716.8hPa | 2.6V | 00:00:00 | 00:00:00 | 00:00:00 | |
| SONDE2-11 | 2026-09-04 01:23:08 | 51.43465 | 15.81844 | 109° | 64km/h | 3049m | -6.6m/s | 3.3°C | 17.7% | 706.6hPa | 2.6V | 00:00:00 | 00:00:00 | 00:00:00 | |
| EDDB2-11 | 2026-09-04 01:23:05 | 51.43482 | 15.81768 | 109° | 64km/h | 3070m | -6.2m/s | 3.3°C | 14.7% | 704.7hPa | 2.6V | 00:00:00 | 00:00:00 | 00:00:00 | |
| EDDB2-12 | 2026-09-04 01:22:53 | 51.43550 | 15.81470 | 109° | 68km/h | 3152m | -8.5m/s | 3.0°C | 12.8% | 697.6hPa | 2.6V | 00:00:00 | 00:00:00 | 00:00:00 | |
| SONDE2-11 | 2026-09-04 01:22:37 | 51.43648 | 15.81049 | 110° | 69km/h | 3263m | -6.6m/s | 2.7°C | 18.6% | 688.0hPa | 2.6V | 00:00:00 | 00:00:00 | 00:00:00 | |
| EDDB2-11 | 2026-09-04 01:22:34 | 51.43667 | 15.80968 | 109° | 71km/h | 3282m | -7.3m/s | 2.6°C | 16.7% | 686.3hPa | 2.6V | 00:00:00 | 00:00:00 | 00:00:00 | |
| EDDB2-12 | 2026-09-04 01:22:22 | 51.43744 | 15.80630 | 111° | 75km/h | 3361m | -5.7m/s | 1.9°C | 19.6% | 679.4hPa | 2.6V | 00:00:00 | 00:00:00 | 00:00:00 | |
| SONDE2-11 | 2026-09-04 01:22:06 | 51.43860 | 15.80171 | 113° | 77km/h | 3478m | -7.8m/s | 0.7°C | 20.1% | 669.6hPa | 2.6V | 00:00:00 | 00:00:00 | 00:00:00 | |
| EDDB2-11 | 2026-09-04 01:22:03 | 51.43884 | 15.80084 | 112° | 75km/h | 3509m | -10.1m/s | 0.4°C | 23.2% | 667.3hPa | 2.6V | 00:00:00 | 00:00:00 | 00:00:00 | |
| SP3WXH-11 | 2026-09-04 01:21:57 | 51.43930 | 15.79911 | 113° | 77km/h | 3559m | -8.0m/s | -0.1°C | 25.4% | 662.9hPa | 2.6V | 00:00:00 | 00:00:00 | 00:00:00 | |
| EDDB2-12 | 2026-09-04 01:21:51 | 51.43978 | 15.79733 | 112° | 78km/h | 3603m | -7.2m/s | -0.6°C | 34.8% | 659.1hPa | 2.6V | 00:00:00 | 00:00:00 | 00:00:00 | |
| KRY50SP-1 | 2026-09-04 01:21:45 | 51.44020 | 15.79584 | 116° | 82km/h | 3644m | -9.2m/s | -1.0°C | 38.3% | 655.9hPa | 2.6V | 08:04:00 | 00:00:00 | 00:00:00 | |
| KRY50SP-1 | 2026-09-04 01:21:40 | 51.44061 | 15.79434 | 114° | 80km/h | 3683m | -8.4m/s | -1.3°C | 30.7% | 652.7hPa | 2.6V | 08:04:00 | 00:00:00 | 00:00:00 | |
| SONDE2-11 | 2026-09-04 01:21:35 | 51.44111 | 15.79251 | 114° | 82km/h | 3731m | -8.6m/s | -1.9°C | 39.7% | 648.6hPa | 2.6V | 00:00:00 | 00:00:00 | 00:00:00 | |
| KRY50SP-1 | 2026-09-04 01:21:34 | 51.44111 | 15.79251 | 116° | 84km/h | 3731m | -8.6m/s | -1.9°C | 39.7% | 648.6hPa | 2.6V | 08:04:00 | 00:00:00 | 00:00:00 | |
| EDDB2-11 | 2026-09-04 01:21:32 | 51.44138 | 15.79156 | 114° | 84km/h | 3754m | -7.9m/s | -2.1°C | 41.0% | 646.6hPa | 2.6V | 00:00:00 | 00:00:00 | 00:00:00 | |
| KRY50SP-1 | 2026-09-04 01:21:24 | 51.44199 | 15.78934 | 114° | 84km/h | 3808m | -8.5m/s | -2.6°C | 53.6% | 642.3hPa | 2.6V | 08:04:00 | 00:00:00 | 00:00:00 | |
| EDDB2-12 | 2026-09-04 01:21:20 | 51.44243 | 15.78775 | 113° | 84km/h | 3849m | -8.7m/s | -3.0°C | 60.0% | 638.9hPa | 2.6V | 00:00:00 | 00:00:00 | 00:00:00 | |
| KRY50SP-1 | 2026-09-04 01:21:19 | 51.44243 | 15.78775 | 114° | 86km/h | 3849m | -8.7m/s | -3.0°C | 60.0% | 638.9hPa | 2.6V | 08:04:00 | 00:00:00 | 00:00:00 | |
| KRY50SP-1 | 2026-09-04 01:21:13 | 51.44295 | 15.78583 | 114° | 82km/h | 3919m | -11.9m/s | -3.7°C | 70.8% | 633.7hPa | 2.6V | 08:04:00 | 00:00:00 | 00:00:00 | |
| KRY50SP-1 | 2026-09-04 01:21:07 | 51.44347 | 15.78399 | 117° | 80km/h | 3991m | -11.6m/s | -4.3°C | 74.5% | 628.1hPa | 2.6V | 08:04:00 | 00:00:00 | 00:00:00 | |
| SONDE2-11 | 2026-09-04 01:21:04 | 51.44381 | 15.78281 | 115° | 78km/h | 4038m | -12.4m/s | -4.8°C | 76.4% | 624.4hPa | 2.6V | 00:00:00 | 00:00:00 | 00:00:00 | |
| KRY50SP-1 | 2026-09-04 01:21:02 | 51.44389 | 15.78252 | 115° | 78km/h | 4051m | -12.5m/s | -4.9°C | 77.0% | 623.4hPa | 2.6V | 08:04:00 | 00:00:00 | 00:00:00 | |
| EDDB2-11 | 2026-09-04 01:21:01 | 51.44406 | 15.78194 | 117° | 77km/h | 4075m | -10.9m/s | -5.1°C | 78.5% | 621.5hPa | 2.6V | 00:00:00 | 00:00:00 | 00:00:00 | |
| SP3WXH-11 | 2026-09-04 01:20:55 | 51.44460 | 15.78031 | 117° | 75km/h | 4145m | -12.5m/s | -5.5°C | 86.8% | 615.9hPa | 2.6V | 00:00:00 | 00:00:00 | 00:00:00 | |
| EDDB2-12 | 2026-09-04 01:20:49 | 51.44516 | 15.77866 | 117° | 78km/h | 4216m | -11.5m/s | -5.2°C | 90.3% | 610.4hPa | 2.6V | 00:00:00 | 00:00:00 | 00:00:00 | |
| KRY50SP-1 | 2026-09-04 01:20:47 | 51.44534 | 15.77805 | 117° | 86km/h | 4239m | -11.7m/s | -4.8°C | 94.3% | 608.4hPa | 2.6V | 08:05:00 | 00:00:00 | 00:00:00 | |
| KRY50SP-1 | 2026-09-04 01:20:40 | 51.44588 | 15.77616 | 115° | 86km/h | 4309m | -12.2m/s | -4.3°C | 98.8% | 603.1hPa | 2.6V | 08:05:00 | 00:00:00 | 00:00:00 | |
| KRY50SP-1 | 2026-09-04 01:20:36 | 51.44632 | 15.77453 | 113° | 86km/h | 4367m | -12.3m/s | -3.9°C | 99.3% | 598.6hPa | 2.6V | 08:05:00 | 00:00:00 | 00:00:00 | |
| SONDE2-11 | 2026-09-04 01:20:33 | 51.44658 | 15.77354 | 110° | 88km/h | 4402m | -12.9m/s | -3.9°C | 98.2% | 595.9hPa | 2.6V | 00:00:00 | 00:00:00 | 00:00:00 | |
| EDDB2-11 | 2026-09-04 01:20:30 | 51.44683 | 15.77256 | 111° | 86km/h | 4438m | -12.6m/s | -4.1°C | 98.8% | 593.1hPa | 2.6V | 00:00:00 | 00:00:00 | 00:00:00 | |
| KRY50SP-1 | 2026-09-04 01:20:29 | 51.44683 | 15.77256 | 113° | 86km/h | 4439m | -12.6m/s | -4.1°C | 98.8% | 593.1hPa | 2.6V | 08:05:00 | 00:00:00 | 00:00:00 | |
| SP3WXH-11 | 2026-09-04 01:20:24 | 51.44733 | 15.77059 | 111° | 82km/h | 4512m | -12.9m/s | -4.1°C | 95.1% | 587.7hPa | 2.6V | 00:00:00 | 00:00:00 | 00:00:00 | |
| KRY50SP-1 | 2026-09-04 01:20:23 | 51.44733 | 15.77059 | 113° | 84km/h | 4513m | -12.9m/s | -4.1°C | 95.1% | 587.7hPa | 2.6V | 08:05:00 | 00:00:00 | 00:00:00 | |
| EDDB2-12 | 2026-09-04 01:20:18 | 51.44783 | 15.76867 | 111° | 84km/h | 4585m | -12.5m/s | -4.4°C | 91.9% | 582.2hPa | 2.6V | 00:00:00 | 00:00:00 | 00:00:00 | |
| KRY50SP-1 | 2026-09-04 01:20:12 | 51.44825 | 15.76710 | 115° | 80km/h | 4645m | -13.1m/s | -4.7°C | 93.7% | 577.9hPa | 2.6V | 08:05:00 | 00:00:00 | 00:00:00 | |
| KRY50SP-1 | 2026-09-04 01:20:06 | 51.44876 | 15.76529 | 114° | 82km/h | 4719m | -12.1m/s | -5.1°C | 92.7% | 572.4hPa | 2.6V | 08:06:00 | 00:00:00 | 00:00:00 | |
| SONDE2-11 | 2026-09-04 01:20:02 | 51.44919 | 15.76377 | 115° | 80km/h | 4779m | -12.8m/s | -5.5°C | 94.2% | 568.2hPa | 2.6V | 00:00:00 | 00:00:00 | 00:00:00 | |
| SP3WXH-11 | 2026-09-04 01:19:53 | 51.44999 | 15.76108 | 115° | 84km/h | 4886m | -13.3m/s | -6.1°C | 90.3% | 560.2hPa | 2.6V | 00:00:00 | 00:00:00 | 00:00:00 | |
| EDDB2-12 | 2026-09-04 01:19:47 | 51.45054 | 15.75926 | 115° | 86km/h | 4961m | -13.2m/s | -6.6°C | 89.2% | 554.9hPa | 2.6V | 00:00:00 | 00:00:00 | 00:00:00 | |
| KRY50SP-1 | 2026-09-04 01:19:43 | 51.45082 | 15.75834 | 117° | 86km/h | 4998m | -13.0m/s | -6.7°C | 88.6% | 552.3hPa | 2.6V | 08:06:00 | 00:00:00 | 00:00:00 | |
| KRY50SP-1 | 2026-09-04 01:19:37 | 51.45138 | 15.75649 | 116° | 86km/h | 5073m | -12.5m/s | -7.2°C | 86.3% | 547.2hPa | 2.6V | 08:06:00 | 00:00:00 | 00:00:00 | |
| SONDE2-11 | 2026-09-04 01:19:31 | 51.45204 | 15.75435 | 116° | 80km/h | 5162m | -13.2m/s | -7.8°C | 88.4% | 541.0hPa | 2.6V | 00:00:00 | 00:00:00 | 00:00:00 | |
| EDDB2-11 | 2026-09-04 01:19:28 | 51.45232 | 15.75342 | 116° | 82km/h | 5200m | -13.3m/s | -8.1°C | 89.2% | 538.4hPa | 2.6V | 00:00:00 | 00:00:00 | 00:00:00 | |
| KRY50SP-1 | 2026-09-04 01:19:25 | 51.45251 | 15.75281 | 117° | 88km/h | 5226m | -13.1m/s | -8.3°C | 89.0% | 536.6hPa | 2.6V | 08:06:00 | 00:00:00 | 00:00:00 | |
| SP3WXH-11 | 2026-09-04 01:19:22 | 51.45288 | 15.75159 | 116° | 86km/h | 5275m | -12.3m/s | -8.6°C | 89.0% | 533.1hPa | 2.6V | 00:00:00 | 00:00:00 | 00:00:00 | |
| KRY50SP-1 | 2026-09-04 01:19:19 | 51.45306 | 15.75096 | 116° | 88km/h | 5299m | -12.7m/s | -8.7°C | 89.1% | 531.4hPa | 2.6V | 08:06:00 | 00:00:00 | 00:00:00 | |
| EDDB2-12 | 2026-09-04 01:19:16 | 51.45342 | 15.74970 | 114° | 86km/h | 5346m | -13.0m/s | -9.1°C | 90.1% | 528.0hPa | 2.6V | 00:00:00 | 00:00:00 | 00:00:00 | |
| KRY50SP-1 | 2026-09-04 01:19:14 | 51.45351 | 15.74939 | 115° | 84km/h | 5359m | -12.9m/s | -9.2°C | 90.2% | 527.3hPa | 2.6V | 08:07:00 | 00:00:00 | 00:00:00 | |
| KRY50SP-1 | 2026-09-04 01:19:08 | 51.45406 | 15.74745 | 115° | 89km/h | 5431m | -12.2m/s | -9.6°C | 90.4% | 522.5hPa | 2.6V | 08:07:00 | 00:00:00 | 00:00:00 | |
| KRY50SP-1 | 2026-09-04 01:19:02 | 51.45464 | 15.74550 | 117° | 93km/h | 5503m | -12.8m/s | -10.0°C | 91.8% | 517.6hPa | 2.6V | 08:07:00 | 00:00:00 | 00:00:00 | |
| SONDE2-11 | 2026-09-04 01:19:00 | 51.45507 | 15.74419 | 117° | 93km/h | 5551m | -12.9m/s | -10.3°C | 90.0% | 514.4hPa | 2.6V | 00:00:00 | 00:00:00 | 00:00:00 | |
| EDDB2-11 | 2026-09-04 01:18:57 | 51.45540 | 15.74320 | 119° | 95km/h | 5587m | -12.1m/s | -10.3°C | 88.6% | 511.9hPa | 2.6V | 00:00:00 | 00:00:00 | 00:00:00 | |
| SP3WXH-11 | 2026-09-04 01:18:51 | 51.45599 | 15.74151 | 119° | 97km/h | 5646m | -12.8m/s | -10.6°C | 87.1% | 507.9hPa | 2.6V | 00:00:00 | 00:00:00 | 00:00:00 | |
| KRY50SP-1 | 2026-09-04 01:18:46 | 51.45646 | 15.74016 | 119° | 97km/h | 5694m | -12.8m/s | -10.8°C | 86.1% | 504.7hPa | 2.6V | 08:07:00 | 00:00:00 | 00:00:00 | |
| EDDB2-12 | 2026-09-04 01:18:45 | 51.45681 | 15.73914 | 119° | 91km/h | 5730m | -12.6m/s | -11.0°C | 86.6% | 502.3hPa | 2.6V | 00:00:00 | 00:00:00 | 00:00:00 | |
| KRY50SP-1 | 2026-09-04 01:18:40 | 51.45717 | 15.73814 | 122° | 95km/h | 5767m | -12.8m/s | -11.1°C | 86.2% | 500.0hPa | 2.6V | 08:07:00 | 00:00:00 | 00:00:00 | |
| KRY50SP-1 | 2026-09-04 01:18:34 | 51.45789 | 15.73617 | 121° | 91km/h | 5841m | -13.0m/s | -11.4°C | 84.0% | 495.3hPa | 2.6V | 08:07:00 | 00:00:00 | 00:00:00 | |
| OE3JTB-15 | 2026-09-04 01:18:31 | 51.45839 | 15.73487 | 123° | 99km/h | 5891m | -13.0m/s | -11.4°C | 84.4% | 492.0hPa | 2.6V | 00:00:00 | 02:40:41 | 00:00:00 | |
| SONDE2-11 | 2026-09-04 01:18:29 | 51.45864 | 15.73421 | 121° | 91km/h | 5914m | -12.7m/s | -11.5°C | 82.4% | 490.5hPa | 2.6V | 00:00:00 | 00:00:00 | 00:00:00 | |
| EDDB2-11 | 2026-09-04 01:18:26 | 51.45915 | 15.73290 | 122° | 91km/h | 5963m | -12.6m/s | -11.9°C | 83.5% | 487.4hPa | 2.6V | 00:00:00 | 00:00:00 | 00:00:00 | |
| KRY50SP-1 | 2026-09-04 01:18:23 | 51.45928 | 15.73258 | 122° | 97km/h | 5975m | -12.9m/s | -12.0°C | 83.7% | 486.7hPa | 2.6V | 08:08:00 | 00:00:00 | 00:00:00 | |
| SP3WXH-11 | 2026-09-04 01:18:20 | 51.45980 | 15.73125 | 122° | 99km/h | 6025m | -12.7m/s | -12.3°C | 84.1% | 483.5hPa | 2.6V | 00:00:00 | 00:00:00 | 00:00:00 | |
| KRY50SP-1 | 2026-09-04 01:18:17 | 51.46007 | 15.73059 | 124° | 100km/h | 6049m | -12.8m/s | -12.5°C | 83.4% | 482.0hPa | 2.6V | 08:08:00 | 00:00:00 | 00:00:00 | |
| EDDB2-12 | 2026-09-04 01:18:14 | 51.46075 | 15.72892 | 122° | 97km/h | 6111m | -12.6m/s | -12.8°C | 82.9% | 478.0hPa | 2.6V | 00:00:00 | 00:00:00 | 00:00:00 | |
| KRY50SP-1 | 2026-09-04 01:18:12 | 51.46075 | 15.72892 | 124° | 97km/h | 6112m | -12.6m/s | -12.8°C | 82.9% | 478.0hPa | 2.6V | 08:08:00 | 00:00:00 | 00:00:00 | |
| KRY50SP-1 | 2026-09-04 01:18:06 | 51.46157 | 15.72690 | 124° | 97km/h | 6184m | -11.9m/s | -13.4°C | 83.6% | 473.6hPa | 2.6V | 08:08:00 | 00:00:00 | 00:00:00 | |
| SONDE2-11 | 2026-09-04 01:17:58 | 51.46294 | 15.72350 | 123° | 97km/h | 6307m | -12.9m/s | -14.3°C | 86.8% | 466.1hPa | 2.6V | 00:00:00 | 00:00:00 | 00:00:00 | |
| EDDB2-11 | 2026-09-04 01:17:55 | 51.46335 | 15.72247 | 122° | 97km/h | 6344m | -12.5m/s | -14.6°C | 86.4% | 463.8hPa | 2.6V | 00:00:00 | 00:00:00 | 00:00:00 | |
| SP3WXH-11 | 2026-09-04 01:17:49 | 51.46418 | 15.72040 | 122° | 102km/h | 6416m | -12.2m/s | -15.0°C | 86.3% | 459.4hPa | 2.6V | 00:00:00 | 00:00:00 | 00:00:00 | |
| KRY50SP-1 | 2026-09-04 01:17:48 | 51.46404 | 15.72075 | 123° | 99km/h | 6404m | -12.9m/s | -14.9°C | 86.8% | 459.9hPa | 2.6V | 08:08:00 | 00:00:00 | 00:00:00 | |
| KRY50SP-1 | 2026-09-04 01:17:42 | 51.46488 | 15.71862 | 123° | 102km/h | 6477m | -12.7m/s | -15.3°C | 85.0% | 455.7hPa | 2.6V | 08:08:00 | 00:00:00 | 00:00:00 | |
| KRY50SP-1 | 2026-09-04 01:17:37 | 51.46559 | 15.71682 | 124° | 104km/h | 6539m | -13.1m/s | -15.6°C | 84.1% | 452.1hPa | 2.6V | 08:08:00 | 00:00:00 | 00:00:00 | |
| KRY50SP-1 | 2026-09-04 01:17:32 | 51.46632 | 15.71501 | 124° | 106km/h | 6601m | -12.6m/s | -16.1°C | 85.2% | 448.3hPa | 2.6V | 08:08:00 | 00:00:00 | 00:00:00 | |
| OE3JTB-15 | 2026-09-04 01:17:30 | 51.46676 | 15.71394 | 123° | 106km/h | 6639m | -12.7m/s | -16.3°C | 88.4% | 446.0hPa | 2.6V | 00:00:00 | 00:00:00 | 00:00:00 | |
| SONDE2-11 | 2026-09-04 01:17:27 | 51.46736 | 15.71252 | 124° | 102km/h | 6689m | -12.6m/s | -16.7°C | 83.1% | 443.2hPa | 2.6V | 00:00:00 | 00:00:00 | 00:00:00 | |
| EDDB2-11 | 2026-09-04 01:17:24 | 51.46781 | 15.71147 | 123° | 104km/h | 6725m | -13.4m/s | -17.0°C | 84.8% | 440.9hPa | 2.6V | 00:00:00 | 00:00:00 | 00:00:00 | |
| KRY50SP-1 | 2026-09-04 01:17:21 | 51.46796 | 15.71111 | 125° | 108km/h | 6739m | -14.2m/s | -17.1°C | 84.7% | 440.2hPa | 2.6V | 08:08:00 | 00:00:00 | 00:00:00 | |
| SP3WXH-11 | 2026-09-04 01:17:18 | 51.46872 | 15.70935 | 124° | 108km/h | 6803m | -13.4m/s | -17.5°C | 82.9% | 436.4hPa | 2.6V | 00:00:00 | 00:00:00 | 00:00:00 | |
| KRY50SP-1 | 2026-09-04 01:17:16 | 51.46872 | 15.70935 | 126° | 110km/h | 6803m | -13.4m/s | -17.5°C | 82.9% | 436.4hPa | 2.6V | 08:08:00 | 00:00:00 | 00:00:00 | |
| EDDB2-12 | 2026-09-04 01:17:12 | 51.46966 | 15.70723 | 126° | 104km/h | 6880m | -13.7m/s | -18.1°C | 82.8% | 431.9hPa | 2.6V | 00:00:00 | 00:00:00 | 00:00:00 | |
| KRY50SP-1 | 2026-09-04 01:17:10 | 51.46966 | 15.70723 | 127° | 106km/h | 6880m | -13.7m/s | -18.1°C | 82.8% | 431.9hPa | 2.6V | 08:08:00 | 00:00:00 | 00:00:00 | |
| KRY50SP-1 | 2026-09-04 01:17:04 | 51.47062 | 15.70509 | 126° | 108km/h | 6954m | -11.5m/s | -18.6°C | 82.1% | 427.6hPa | 2.6V | 08:08:00 | 00:00:00 | 00:00:00 | |
| SONDE2-11 | 2026-09-04 01:16:56 | 51.47224 | 15.70151 | 125° | 106km/h | 7078m | -14.1m/s | -19.4°C | 80.9% | 420.5hPa | 2.6V | 00:00:00 | 00:00:00 | 00:00:00 | |
| EDDB2-11 | 2026-09-04 01:16:53 | 51.47272 | 15.70043 | 125° | 110km/h | 7119m | -13.5m/s | -19.7°C | 79.3% | 418.3hPa | 2.6V | 00:00:00 | 00:00:00 | 00:00:00 | |
| SP3WXH-11 | 2026-09-04 01:16:47 | 51.47371 | 15.69827 | 126° | 106km/h | 7194m | -13.6m/s | -20.2°C | 78.4% | 414.0hPa | 2.6V | 00:00:00 | 00:00:00 | 00:00:00 | |
| KRY50SP-1 | 2026-09-04 01:16:44 | 51.47404 | 15.69755 | 128° | 108km/h | 7221m | -13.6m/s | -20.4°C | 78.2% | 412.6hPa | 2.6V | 08:09:00 | 00:00:00 | 00:00:00 | |
| EDDB2-12 | 2026-09-04 01:16:41 | 51.47470 | 15.69612 | 125° | 111km/h | 7274m | -13.4m/s | -20.7°C | 77.9% | 409.8hPa | 2.6V | 00:00:00 | 00:00:00 | 00:00:00 | |
| KRY50SP-1 | 2026-09-04 01:16:38 | 51.47503 | 15.69541 | 127° | 110km/h | 7300m | -12.8m/s | -20.9°C | 77.8% | 408.4hPa | 2.6V | 08:09:00 | 00:00:00 | 00:00:00 | |
| OE3JTB-15 | 2026-09-04 01:16:32 | 51.47603 | 15.69328 | 129° | 120km/h | 7376m | -12.3m/s | -21.4°C | 80.4% | 404.2hPa | 2.6V | 08:09:00 | 00:00:00 | 00:00:00 | |
| KRY50SP-1 | 2026-09-04 01:16:27 | 51.47673 | 15.69186 | 129° | 111km/h | 7423m | -11.8m/s | -21.8°C | 79.6% | 401.5hPa | 2.6V | 08:09:00 | 00:00:00 | 00:00:00 | |
| SONDE2-11 | 2026-09-04 01:16:25 | 51.47744 | 15.69043 | 128° | 110km/h | 7473m | -12.4m/s | -22.2°C | 79.2% | 398.9hPa | 2.6V | 00:00:00 | 00:00:00 | 00:00:00 | |
| KRY50SP-1 | 2026-09-04 01:16:22 | 51.47762 | 15.69007 | 129° | 113km/h | 7486m | -13.3m/s | -22.3°C | 78.6% | 398.2hPa | 2.6V | 08:09:00 | 00:00:00 | 00:00:00 | |
| EDDB2-11 | 2026-09-04 01:16:21 | 51.47798 | 15.68935 | 128° | 115km/h | 7511m | -12.1m/s | -22.5°C | 78.8% | 396.7hPa | 2.6V | 00:00:00 | 00:00:00 | 00:00:00 | |
| KRY50SP-1 | 2026-09-04 01:16:17 | 51.47851 | 15.68825 | 130° | 117km/h | 7546m | -12.4m/s | -22.8°C | 78.9% | 394.8hPa | 2.6V | 08:09:00 | 00:00:00 | 00:00:00 | |
| DAC517 | 2026-09-04 01:16:16 | 51.47905 | 15.68715 | 128° | 117km/h | 7583m | -12.5m/s | -23.0°C | 78.5% | 392.9hPa | 2.6V | 08:09:00 | 00:00:00 | 00:00:00 | |
| KRY50SP-1 | 2026-09-04 01:16:12 | 51.47959 | 15.68604 | 129° | 113km/h | 7618m | -12.6m/s | -23.3°C | 78.0% | 391.0hPa | 2.6V | 08:09:00 | 00:00:00 | 00:00:00 | |
| EDDB2-12 | 2026-09-04 01:16:10 | 51.48013 | 15.68494 | 128° | 113km/h | 7654m | -11.7m/s | -23.5°C | 75.2% | 388.9hPa | 2.6V | 00:00:00 | 00:00:00 | 00:00:00 | |
| KRY50SP-1 | 2026-09-04 01:16:05 | 51.48067 | 15.68382 | 129° | 117km/h | 7689m | -12.6m/s | -23.7°C | 74.5% | 387.0hPa | 2.6V | 08:09:00 | 00:00:00 | 00:00:00 | |
| SONDE2-11 | 2026-09-04 01:15:53 | 51.48299 | 15.67903 | 128° | 115km/h | 7850m | -11.7m/s | -25.0°C | 75.0% | 378.8hPa | 2.6V | 00:00:00 | 00:00:00 | 00:00:00 | |
| EDDB2-11 | 2026-09-04 01:15:50 | 51.48352 | 15.67791 | 126° | 117km/h | 7887m | -13.1m/s | -25.3°C | 73.2% | 376.9hPa | 2.6V | 00:00:00 | 00:00:00 | 00:00:00 | |
| KRY50SP-1 | 2026-09-04 01:15:48 | 51.48370 | 15.67753 | 128° | 115km/h | 7900m | -13.1m/s | -25.4°C | 72.3% | 376.2hPa | 2.6V | 08:10:00 | 00:00:00 | 00:00:00 | |
| SP3WXH-11 | 2026-09-04 01:15:45 | 51.48460 | 15.67565 | 128° | 117km/h | 7962m | -13.3m/s | -25.8°C | 70.7% | 373.0hPa | 2.6V | 00:00:00 | 00:00:00 | 00:00:00 | |
| KRY50SP-1 | 2026-09-04 01:15:42 | 51.48478 | 15.67527 | 127° | 119km/h | 7975m | -12.5m/s | -25.9°C | 70.5% | 372.3hPa | 2.6V | 08:10:00 | 00:00:00 | 00:00:00 | |
| EDDB2-12 | 2026-09-04 01:15:39 | 51.48570 | 15.67333 | 125° | 120km/h | 8038m | -13.8m/s | -26.3°C | 70.2% | 369.1hPa | 2.6V | 00:00:00 | 00:00:00 | 00:00:00 | |
| KRY50SP-1 | 2026-09-04 01:15:37 | 51.48569 | 15.67333 | 127° | 122km/h | 8038m | -13.8m/s | -26.3°C | 70.2% | 369.1hPa | 2.6V | 08:10:00 | 00:00:00 | 00:00:00 | |
| DL2RXE-15 | 2026-09-04 01:15:34 | 51.48625 | 15.67216 | 128° | 124km/h | 8077m | -13.6m/s | -26.6°C | 69.9% | 367.1hPa | 2.6V | 00:00:00 | 00:00:00 | 00:00:00 | |
| DAC517 | 2026-09-04 01:15:31 | 51.48681 | 15.67096 | 127° | 124km/h | 8116m | -13.2m/s | -26.9°C | 71.1% | 365.0hPa | 2.6V | 08:10:00 | 00:00:00 | 00:00:00 | |
| SONDE2-11 | 2026-09-04 01:15:22 | 51.48872 | 15.66692 | 127° | 124km/h | 8234m | -13.0m/s | -27.9°C | 71.5% | 359.1hPa | 2.6V | 00:00:00 | 00:00:00 | 00:00:00 | |
| KRY50SP-1 | 2026-09-04 01:15:19 | 51.48910 | 15.66609 | 128° | 124km/h | 8260m | -14.7m/s | -28.0°C | 71.9% | 357.9hPa | 2.6V | 08:10:00 | 00:00:00 | 00:00:00 | |
| SP3WXH-11 | 2026-09-04 01:15:14 | 51.49050 | 15.66321 | 128° | 130km/h | 8352m | -13.2m/s | -28.8°C | 73.0% | 353.1hPa | 2.6V | 00:00:00 | 00:00:00 | 00:00:00 | |
| DAC517 | 2026-09-04 01:15:10 | 51.49110 | 15.66198 | 128° | 131km/h | 8393m | -13.1m/s | -29.1°C | 73.9% | 351.3hPa | 2.6V | 08:10:00 | 00:00:00 | 00:00:00 | |
| KRY50SP-1 | 2026-09-04 01:15:09 | 51.49110 | 15.66198 | 128° | 131km/h | 8393m | -13.1m/s | -29.1°C | 73.9% | 351.3hPa | 2.6V | 08:10:00 | 00:00:00 | 00:00:00 | |
| SQ6EMJ | 2026-09-04 01:15:07 | 51.49150 | 15.66117 | 130° | 128km/h | 8418m | -14.3m/s | -29.3°C | 74.0% | 350.1hPa | 2.6V | 00:00:00 | 00:00:00 | 00:00:00 | |
| DL2RXE-15 | 2026-09-04 01:15:05 | 51.49212 | 15.65995 | 130° | 130km/h | 8457m | -14.1m/s | -29.5°C | 71.6% | 348.2hPa | 2.6V | 08:10:00 | 00:00:00 | 00:00:00 | |
| KRY50SP-1 | 2026-09-04 01:15:03 | 51.49232 | 15.65955 | 130° | 126km/h | 8470m | -13.7m/s | -29.7°C | 71.9% | 347.5hPa | 2.6V | 08:11:00 | 00:00:00 | 00:00:00 | |
| S3001 | 2026-09-04 01:14:55 | 51.49478 | 15.65483 | 128° | 126km/h | 8633m | -12.3m/s | -31.0°C | 65.2% | 339.7hPa | 2.6V | 00:00:00 | 00:00:00 | 00:00:00 | |
| SONDE2-11 | 2026-09-04 01:14:51 | 51.49498 | 15.65443 | 129° | 126km/h | 8644m | -11.2m/s | -31.1°C | 64.9% | 339.1hPa | 2.6V | 00:00:00 | 00:00:00 | 00:00:00 | |
| EDDB2-11 | 2026-09-04 01:14:48 | 51.49559 | 15.65325 | 129° | 128km/h | 8679m | -12.8m/s | -31.3°C | 63.7% | 337.5hPa | 2.6V | 00:00:00 | 00:00:00 | 00:00:00 | |
| KRY50SP-1 | 2026-09-04 01:14:47 | 51.49559 | 15.65325 | 131° | 130km/h | 8679m | -12.8m/s | -31.3°C | 63.7% | 337.5hPa | 2.6V | 08:11:00 | 00:00:00 | 00:00:00 | |
| OE3JTB-15 | 2026-09-04 01:14:44 | 51.49642 | 15.65169 | 132° | 148km/h | 8732m | -13.2m/s | -31.6°C | 65.9% | 334.9hPa | 2.6V | 00:00:00 | 00:00:00 | 00:00:00 | |
| SQ6EMJ | 2026-09-04 01:14:42 | 51.49664 | 15.65131 | 132° | 130km/h | 8745m | -13.6m/s | -31.8°C | 61.8% | 334.4hPa | 2.6V | 08:11:00 | 00:00:00 | 00:00:00 | |
| KRY50SP-1 | 2026-09-04 01:14:38 | 51.49769 | 15.64937 | 133° | 128km/h | 8812m | -13.4m/s | -32.2°C | 58.1% | 331.2hPa | 2.6V | 08:11:00 | 00:00:00 | 00:00:00 | |
| EDDB2-12 | 2026-09-04 01:14:36 | 51.49813 | 15.64858 | 130° | 128km/h | 8838m | -13.7m/s | -32.4°C | 57.7% | 330.0hPa | 2.6V | 00:00:00 | 00:00:00 | 00:00:00 | |
| DL2RXE-15 | 2026-09-04 01:14:32 | 51.49878 | 15.64741 | 132° | 130km/h | 8878m | -12.6m/s | -32.7°C | 57.7% | 328.0hPa | 2.6V | 08:11:00 | 00:00:00 | 00:00:00 | |
| SQ6EMJ | 2026-09-04 01:14:30 | 51.49922 | 15.64661 | 132° | 131km/h | 8904m | -14.0m/s | -32.9°C | 56.7% | 326.9hPa | 2.6V | 08:11:00 | 00:00:00 | 00:00:00 | |
| DAC517 | 2026-09-04 01:14:29 | 51.49943 | 15.64621 | 132° | 131km/h | 8918m | -13.6m/s | -33.0°C | 57.0% | 326.3hPa | 2.6V | 00:00:00 | 00:00:00 | 00:00:00 | |
| KRY50SP-1 | 2026-09-04 01:14:27 | 51.50011 | 15.64500 | 133° | 133km/h | 8959m | -14.0m/s | -33.3°C | 58.6% | 324.4hPa | 2.6V | 08:11:00 | 00:00:00 | 00:00:00 | |
| SQ6EMJ | 2026-09-04 01:14:26 | 51.50034 | 15.64460 | 134° | 133km/h | 8973m | -14.2m/s | -33.4°C | 58.9% | 323.7hPa | 2.6V | 08:11:00 | 00:00:00 | 00:00:00 | |
| KRY50SP-1 | 2026-09-04 01:14:21 | 51.50127 | 15.64295 | 134° | 137km/h | 9030m | -15.2m/s | -33.7°C | 59.9% | 321.1hPa | 2.6V | 08:11:00 | 00:00:00 | 00:00:00 | |
| SONDE2-11 | 2026-09-04 01:14:20 | 51.50175 | 15.64213 | 132° | 137km/h | 9060m | -14.7m/s | -33.9°C | 59.9% | 319.8hPa | 2.6V | 00:00:00 | 00:00:00 | 00:00:00 | |
| SQ6EMJ | 2026-09-04 01:14:19 | 51.50199 | 15.64171 | 134° | 139km/h | 9074m | -14.4m/s | -34.0°C | 59.7% | 319.2hPa | 2.6V | 08:11:00 | 00:00:00 | 00:00:00 | |
| KRY50SP-1 | 2026-09-04 01:14:16 | 51.50272 | 15.64047 | 134° | 141km/h | 9118m | -15.4m/s | -34.3°C | 58.8% | 317.2hPa | 2.6V | 08:11:00 | 00:00:00 | 00:00:00 | |
| SQ6EMJ | 2026-09-04 01:14:13 | 51.50321 | 15.63965 | 134° | 141km/h | 9148m | -15.4m/s | -34.5°C | 58.0% | 315.9hPa | 2.6V | 08:11:00 | 00:00:00 | 00:00:00 | |
| DL2RXE-15 | 2026-09-04 01:14:11 | 51.50371 | 15.63883 | 135° | 142km/h | 9177m | -14.7m/s | -34.7°C | 57.6% | 314.5hPa | 2.6V | 00:00:00 | 00:00:00 | 00:00:00 | |
| KRY50SP-1 | 2026-09-04 01:14:10 | 51.50395 | 15.63842 | 135° | 141km/h | 9192m | -14.4m/s | -34.9°C | 57.3% | 313.9hPa | 2.6V | 08:12:00 | 00:00:00 | 00:00:00 | |
| SQ6EMJ | 2026-09-04 01:14:08 | 51.50469 | 15.63720 | 136° | 139km/h | 9235m | -14.4m/s | -35.2°C | 56.4% | 312.0hPa | 2.6V | 08:12:00 | 00:00:00 | 00:00:00 | |
| DAC517 | 2026-09-04 01:14:07 | 51.50469 | 15.63720 | 136° | 139km/h | 9235m | -14.4m/s | -35.2°C | 56.4% | 312.0hPa | 2.6V | 00:00:00 | 00:00:00 | 00:00:00 | |
| EDDB2-12 | 2026-09-04 01:14:05 | 51.50545 | 15.63597 | 135° | 141km/h | 9278m | -14.3m/s | -35.6°C | 55.9% | 310.1hPa | 2.6V | 00:00:00 | 00:00:00 | 00:00:00 | |
| DB0NH | 2026-09-04 01:14:03 | 51.50595 | 15.63515 | 136° | 146km/h | 9306m | -13.9m/s | -35.8°C | 60.6% | 308.7hPa | 2.6V | 00:00:00 | 02:36:13 | 00:00:00 | |
| SQ6EMJ | 2026-09-04 01:14:02 | 51.50595 | 15.63515 | 136° | 141km/h | 9306m | -13.9m/s | -35.8°C | 56.4% | 308.7hPa | 2.6V | 08:12:00 | 00:00:00 | 00:00:00 | |
| SONDE2-11 | 2026-09-04 01:13:49 | 51.50958 | 15.62944 | 136° | 146km/h | 9507m | -15.1m/s | -37.6°C | 59.3% | 299.9hPa | 2.6V | 00:00:00 | 00:00:00 | 00:00:00 | |
| EDDB2-11 | 2026-09-04 01:13:46 | 51.51039 | 15.62823 | 136° | 144km/h | 9550m | -14.6m/s | -38.0°C | 58.8% | 298.0hPa | 2.6V | 00:00:00 | 00:00:00 | 00:00:00 | |
| SQ6EMJ | 2026-09-04 01:13:45 | 51.51065 | 15.62784 | 139° | 144km/h | 9565m | -14.7m/s | -38.1°C | 58.9% | 297.5hPa | 2.6V | 08:12:00 | 00:00:00 | 00:00:00 | |
| KRY50SP-1 | 2026-09-04 01:13:42 | 51.51119 | 15.62703 | 138° | 144km/h | 9593m | -15.1m/s | -38.4°C | 59.6% | 296.2hPa | 2.6V | 08:12:00 | 00:00:00 | 00:00:00 | |
| SP3WXH-11 | 2026-09-04 01:13:41 | 51.51202 | 15.62582 | 137° | 144km/h | 9638m | -16.2m/s | -38.8°C | 59.5% | 294.3hPa | 2.6V | 00:00:00 | 00:00:00 | 00:00:00 | |
| SQ6EMJ | 2026-09-04 01:13:40 | 51.51201 | 15.62582 | 139° | 146km/h | 9638m | -16.2m/s | -38.8°C | 59.5% | 294.3hPa | 2.6V | 08:12:00 | 00:00:00 | 00:00:00 | |
| KRY50SP-1 | 2026-09-04 01:13:36 | 51.51285 | 15.62462 | 138° | 150km/h | 9684m | -15.1m/s | -39.2°C | 60.2% | 292.3hPa | 2.6V | 08:12:00 | 00:00:00 | 00:00:00 | |
| SQ6EMJ | 2026-09-04 01:13:35 | 51.51341 | 15.62382 | 139° | 151km/h | 9713m | -15.6m/s | -39.4°C | 60.3% | 291.0hPa | 2.6V | 08:12:00 | 00:00:00 | 00:00:00 | |
| EDDB2-12 | 2026-09-04 01:13:34 | 51.51369 | 15.62341 | 137° | 148km/h | 9729m | -16.4m/s | -39.5°C | 60.1% | 290.5hPa | 2.6V | 00:00:00 | 00:00:00 | 00:00:00 | |
| DB0NH | 2026-09-04 01:13:33 | 51.51398 | 15.62301 | 139° | 157km/h | 9744m | -15.0m/s | -39.6°C | 64.8% | 289.8hPa | 2.6V | 08:12:00 | 02:35:43 | 00:00:00 | |
| KRY50SP-1 | 2026-09-04 01:13:30 | 51.51455 | 15.62219 | 139° | 153km/h | 9774m | -14.1m/s | -39.9°C | 58.9% | 288.4hPa | 2.6V | 08:12:00 | 00:00:00 | 00:00:00 | |
| SQ6EMJ | 2026-09-04 01:13:28 | 51.51513 | 15.62138 | 141° | 153km/h | 9802m | -15.2m/s | -40.2°C | 59.0% | 287.3hPa | 2.6V | 08:12:00 | 00:00:00 | 00:00:00 | |
| DL2RXE-15 | 2026-09-04 01:13:26 | 51.51571 | 15.62057 | 141° | 151km/h | 9832m | -15.1m/s | -40.4°C | 59.2% | 286.1hPa | 2.6V | 00:00:00 | 00:00:00 | 00:00:00 | |
| DAC517 | 2026-09-04 01:13:24 | 51.51631 | 15.61975 | 140° | 153km/h | 9861m | -15.5m/s | -40.6°C | 59.2% | 284.8hPa | 2.6V | 00:00:00 | 00:00:00 | 00:00:00 | |
| SQ6EMJ | 2026-09-04 01:13:23 | 51.51661 | 15.61935 | 141° | 153km/h | 9876m | -15.4m/s | -40.8°C | 59.2% | 284.2hPa | 2.6V | 08:12:00 | 00:00:00 | 00:00:00 | |
| SONDE2-11 | 2026-09-04 01:13:18 | 51.51843 | 15.61690 | 140° | 153km/h | 9968m | -15.7m/s | -41.5°C | 58.5% | 280.4hPa | 2.6V | 00:00:00 | 00:00:00 | 00:00:00 | |
| SQ6EMJ | 2026-09-04 01:13:17 | 51.51842 | 15.61690 | 142° | 155km/h | 9968m | -15.7m/s | -41.5°C | 58.5% | 280.3hPa | 2.6V | 00:00:00 | 00:00:00 | 00:00:00 | |
| OE3JTB-15 | 2026-09-04 01:13:15 | 51.51934 | 15.61567 | 140° | 159km/h | 10015m | -14.9m/s | -41.9°C | 62.9% | 278.4hPa | 2.6V | 00:00:00 | 02:35:25 | 00:00:00 | |
| KRY50SP-1 | 2026-09-04 01:13:14 | 51.51965 | 15.61525 | 141° | 157km/h | 10029m | -15.1m/s | -42.0°C | 57.3% | 277.8hPa | 2.6V | 08:13:00 | 00:00:00 | 00:00:00 | |
| SQ6EMJ | 2026-09-04 01:13:12 | 51.51996 | 15.61484 | 141° | 161km/h | 10044m | -16.0m/s | -42.2°C | 57.2% | 277.2hPa | 2.6V | 00:00:00 | 00:00:00 | 00:00:00 | |
| SP3WXH-11 | 2026-09-04 01:13:10 | 51.52120 | 15.61318 | 140° | 157km/h | 10105m | -15.2m/s | -42.7°C | 56.3% | 274.7hPa | 2.6V | 00:00:00 | 00:00:00 | 00:00:00 | |
| KRY50SP-1 | 2026-09-04 01:13:08 | 51.52120 | 15.61318 | 141° | 157km/h | 10105m | -15.2m/s | -42.7°C | 56.3% | 274.7hPa | 2.6V | 08:13:00 | 00:00:00 | 00:00:00 | |
| SQ6EMJ | 2026-09-04 01:13:07 | 51.52151 | 15.61277 | 141° | 161km/h | 10120m | -15.9m/s | -42.8°C | 56.1% | 274.1hPa | 2.6V | 00:00:00 | 00:00:00 | 00:00:00 | |
| EDDB2-12 | 2026-09-04 01:13:03 | 51.52305 | 15.61071 | 140° | 161km/h | 10198m | -16.3m/s | -43.5°C | 54.5% | 271.0hPa | 2.6V | 00:00:00 | 00:00:00 | 00:00:00 | |
| S3001 | 2026-09-04 01:12:51 | 51.52713 | 15.60545 | 141° | 159km/h | 10400m | -14.6m/s | -45.3°C | 55.6% | 262.9hPa | 2.6V | 00:00:00 | 00:00:00 | 00:00:00 | |
| SONDE2-11 | 2026-09-04 01:12:47 | 51.52807 | 15.60426 | 142° | 159km/h | 10444m | -15.4m/s | -45.7°C | 55.4% | 261.3hPa | 2.6V | 00:00:00 | 00:00:00 | 00:00:00 | |
| OE3JTB-15 | 2026-09-04 01:12:46 | 51.52839 | 15.60385 | 142° | 159km/h | 10460m | -15.4m/s | -45.8°C | 61.0% | 260.6hPa | 2.6V | 00:00:00 | 00:00:00 | 00:00:00 | |
| SQ6EMJ | 2026-09-04 01:12:45 | 51.52839 | 15.60385 | 142° | 161km/h | 10460m | -15.4m/s | -45.9°C | 55.2% | 260.7hPa | 2.5V | 00:00:00 | 00:00:00 | 00:00:00 | |
| EDDB2-11 | 2026-09-04 01:12:44 | 51.52902 | 15.60305 | 142° | 155km/h | 10490m | -15.3m/s | -46.1°C | 55.2% | 259.5hPa | 2.5V | 00:00:00 | 00:00:00 | 00:00:00 | |
| DAC517 | 2026-09-04 01:12:42 | 51.52934 | 15.60266 | 144° | 159km/h | 10506m | -15.4m/s | -46.3°C | 55.4% | 258.9hPa | 2.5V | 00:00:00 | 00:00:00 | 00:00:00 | |
| KRY50SP-1 | 2026-09-04 01:12:41 | 51.52965 | 15.60227 | 144° | 159km/h | 10520m | -15.1m/s | -46.4°C | 55.4% | 258.3hPa | 2.5V | 08:13:00 | 00:00:00 | 00:00:00 | |
| SP3WXH-11 | 2026-09-04 01:12:39 | 51.53093 | 15.60069 | 142° | 157km/h | 10580m | -14.8m/s | -47.0°C | 55.4% | 255.9hPa | 2.5V | 00:00:00 | 00:00:00 | 00:00:00 | |
| KRY50SP-1 | 2026-09-04 01:12:36 | 51.53125 | 15.60030 | 144° | 157km/h | 10594m | -14.1m/s | -47.1°C | 55.2% | 255.4hPa | 2.5V | 08:13:00 | 00:00:00 | 00:00:00 | |
| SQ6EMJ | 2026-09-04 01:12:33 | 51.53251 | 15.59873 | 143° | 157km/h | 10654m | -16.3m/s | -47.7°C | 54.8% | 253.2hPa | 2.5V | 00:00:00 | 00:00:00 | 00:00:00 | |
| KRY50SP-1 | 2026-09-04 01:12:32 | 51.53282 | 15.59834 | 143° | 155km/h | 10670m | -15.8m/s | -47.8°C | 54.8% | 252.5hPa | 2.5V | 08:13:00 | 00:00:00 | 00:00:00 | |
| SQ6EMJ | 2026-09-04 01:12:27 | 51.53408 | 15.59677 | 143° | 157km/h | 10733m | -16.2m/s | -48.4°C | 54.4% | 250.2hPa | 2.5V | 00:00:00 | 00:00:00 | 00:00:00 | |
| NBG1-10 | 2026-09-04 01:12:26 | 51.53471 | 15.59598 | 142° | 110km/h | 10765m | -15.9m/s | -48.7°C | 60.5% | 248.9hPa | 2.5V | 00:00:00 | 02:34:36 | 00:00:00 | |
| DB0NH | 2026-09-04 01:12:25 | 51.53503 | 15.59558 | 143° | 161km/h | 10780m | -14.8m/s | -48.8°C | 60.9% | 248.3hPa | 2.5V | 00:00:00 | 02:34:35 | 00:00:00 | |
| DAC517 | 2026-09-04 01:12:22 | 51.53566 | 15.59478 | 143° | 159km/h | 10810m | -14.9m/s | -49.1°C | 55.1% | 247.3hPa | 2.5V | 00:00:00 | 00:00:00 | 00:00:00 | |
| SQ6EMJ | 2026-09-04 01:12:21 | 51.53629 | 15.59398 | 143° | 159km/h | 10837m | -13.0m/s | -49.4°C | 55.6% | 246.2hPa | 2.5V | 00:00:00 | 00:00:00 | 00:00:00 | |
| KRY50SP-1 | 2026-09-04 01:12:20 | 51.53629 | 15.59398 | 143° | 159km/h | 10837m | -13.0m/s | -49.4°C | 55.6% | 246.2hPa | 2.5V | 08:14:00 | 00:00:00 | 00:00:00 | |
| POL2MAQ | 2026-09-04 01:12:19 | 51.53692 | 15.59318 | 143° | 159km/h | 10862m | -12.9m/s | -49.7°C | 55.5% | 245.3hPa | 2.5V | 00:00:00 | 00:00:00 | 00:00:00 | |
| OE3JTB-15 | 2026-09-04 01:12:17 | 51.53756 | 15.59238 | 143° | 161km/h | 10887m | -12.6m/s | -49.8°C | 62.3% | 244.3hPa | 2.5V | 00:00:00 | 00:00:00 | 00:00:00 | |
| SONDE2-11 | 2026-09-04 01:12:16 | 51.53788 | 15.59199 | 142° | 159km/h | 10899m | -12.4m/s | -50.0°C | 55.8% | 243.8hPa | 2.5V | 00:00:00 | 00:00:00 | 00:00:00 | |
| SQ6EMJ | 2026-09-04 01:12:14 | 51.53852 | 15.59119 | 143° | 159km/h | 10924m | -13.1m/s | -50.2°C | 55.6% | 242.9hPa | 2.5V | 00:00:00 | 00:00:00 | 00:00:00 | |
| EDDB2-11 | 2026-09-04 01:12:13 | 51.53884 | 15.59079 | 142° | 159km/h | 10937m | -12.6m/s | -50.4°C | 55.6% | 242.4hPa | 2.5V | 00:00:00 | 00:00:00 | 00:00:00 | |
| KRY50SP-1 | 2026-09-04 01:12:09 | 51.53980 | 15.58960 | 143° | 161km/h | 10973m | -12.2m/s | -50.7°C | 55.6% | 241.1hPa | 2.5V | 08:14:00 | 00:00:00 | 00:00:00 | |
| SP3WXH-11 | 2026-09-04 01:12:08 | 51.54077 | 15.58842 | 142° | 159km/h | 11011m | -12.6m/s | -51.1°C | 55.4% | 239.7hPa | 2.5V | 00:00:00 | 00:00:00 | 00:00:00 | |
| KRY50SP-1 | 2026-09-04 01:12:04 | 51.54173 | 15.58724 | 144° | 161km/h | 11048m | -12.3m/s | -51.4°C | 54.9% | 238.3hPa | 2.5V | 08:14:00 | 00:00:00 | 00:00:00 | |
| SQ6EMJ | 2026-09-04 01:12:03 | 51.54206 | 15.58685 | 144° | 161km/h | 11061m | -12.6m/s | -51.5°C | 54.6% | 237.9hPa | 2.5V | 00:00:00 | 00:00:00 | 00:00:00 | |
| DAC517 | 2026-09-04 01:12:02 | 51.54206 | 15.58685 | 144° | 161km/h | 11061m | -12.6m/s | -51.5°C | 54.6% | 237.9hPa | 2.5V | 00:00:00 | 00:00:00 | 00:00:00 | |
| EDDB2-12 | 2026-09-04 01:12:01 | 51.54271 | 15.58606 | 142° | 161km/h | 11087m | -13.7m/s | -51.8°C | 54.7% | 236.9hPa | 2.5V | 00:00:00 | 00:00:00 | 00:00:00 | |
| SONDE2-11 | 2026-09-04 01:11:45 | 51.54792 | 15.57962 | 141° | 162km/h | 11307m | -14.9m/s | -53.9°C | 54.5% | 229.1hPa | 2.5V | 00:00:00 | 00:00:00 | 00:00:00 | |
| DAC517 | 2026-09-04 01:11:42 | 51.54890 | 15.57840 | 143° | 161km/h | 11351m | -14.9m/s | -54.3°C | 53.4% | 227.6hPa | 2.5V | 00:00:00 | 00:00:00 | 00:00:00 | |
| SQ6EMJ | 2026-09-04 01:11:41 | 51.54890 | 15.57840 | 143° | 161km/h | 11351m | -14.9m/s | -54.3°C | 53.4% | 227.6hPa | 2.5V | 00:00:00 | 00:00:00 | 00:00:00 | |
| KRY50SP-1 | 2026-09-04 01:11:36 | 51.55053 | 15.57636 | 143° | 162km/h | 11431m | -16.7m/s | -55.0°C | 51.3% | 224.8hPa | 2.5V | 08:14:00 | 00:00:00 | 00:00:00 | |
| SQ6EMJ | 2026-09-04 01:11:35 | 51.55118 | 15.57553 | 142° | 162km/h | 11464m | -16.9m/s | -55.3°C | 50.8% | 223.6hPa | 2.5V | 00:00:00 | 00:00:00 | 00:00:00 | |
| POL2MAQ | 2026-09-04 01:11:33 | 51.55151 | 15.57512 | 143° | 161km/h | 11481m | -17.3m/s | -55.5°C | 50.2% | 223.0hPa | 2.5V | 08:14:00 | 00:00:00 | 00:00:00 | |
| EDDB2-12 | 2026-09-04 01:11:30 | 51.55281 | 15.57350 | 142° | 161km/h | 11549m | -17.3m/s | -56.1°C | 47.7% | 220.7hPa | 2.5V | 00:00:00 | 00:00:00 | 00:00:00 | |
| SQ6EMJ | 2026-09-04 01:11:29 | 51.55281 | 15.57349 | 143° | 162km/h | 11549m | -17.3m/s | -56.1°C | 47.7% | 220.7hPa | 2.5V | 00:00:00 | 00:00:00 | 00:00:00 | |
| KRY50SP-1 | 2026-09-04 01:11:25 | 51.55445 | 15.57147 | 144° | 162km/h | 11633m | -15.7m/s | -56.8°C | 45.9% | 217.7hPa | 2.5V | 08:14:00 | 00:00:00 | 00:00:00 | |
| SQ6EMJ | 2026-09-04 01:11:24 | 51.55478 | 15.57107 | 144° | 162km/h | 11649m | -15.7m/s | -56.9°C | 45.7% | 217.2hPa | 2.5V | 00:00:00 | 00:00:00 | 00:00:00 | |
| OE3JTB-15 | 2026-09-04 01:11:19 | 51.55645 | 15.56911 | 145° | 164km/h | 11727m | -16.9m/s | -57.3°C | 51.5% | 214.5hPa | 2.5V | 00:00:00 | 00:00:00 | 00:00:00 | |
| KRY50SP-1 | 2026-09-04 01:11:18 | 51.55645 | 15.56911 | 145° | 162km/h | 11727m | -17.0m/s | -57.3°C | 43.9% | 214.5hPa | 2.5V | 08:14:00 | 00:00:00 | 00:00:00 | |
| SONDE2-11 | 2026-09-04 01:11:14 | 51.55813 | 15.56718 | 144° | 162km/h | 11807m | -16.4m/s | -57.9°C | 44.5% | 211.8hPa | 2.5V | 00:00:00 | 00:00:00 | 00:00:00 | |
| KRY50SP-1 | 2026-09-04 01:11:12 | 51.55847 | 15.56680 | 146° | 162km/h | 11823m | -16.3m/s | -58.0°C | 44.8% | 211.3hPa | 2.5V | 08:14:00 | 00:00:00 | 00:00:00 | |
| EDDB2-11 | 2026-09-04 01:11:11 | 51.55914 | 15.56603 | 144° | 162km/h | 11856m | -16.4m/s | -58.3°C | 45.0% | 210.2hPa | 2.5V | 00:00:00 | 00:00:00 | 00:00:00 | |
| KRY50SP-1 | 2026-09-04 01:11:07 | 51.56015 | 15.56489 | 145° | 162km/h | 11903m | -16.1m/s | -58.7°C | 44.7% | 208.6hPa | 2.5V | 08:14:00 | 00:00:00 | 00:00:00 | |
| SP3WXH-11 | 2026-09-04 01:11:06 | 51.56115 | 15.56373 | 144° | 161km/h | 11950m | -16.6m/s | -59.0°C | 44.7% | 207.0hPa | 2.5V | 00:00:00 | 00:00:00 | 00:00:00 | |
| SONCRA | 2026-09-04 01:11:05 | 51.56115 | 15.56373 | 144° | 161km/h | 11950m | -16.6m/s | -59.0°C | 44.7% | 207.0hPa | 2.5V | 00:00:00 | 00:00:00 | 00:00:00 | |
| DAC517 | 2026-09-04 01:11:04 | 51.56115 | 15.56373 | 145° | 162km/h | 11950m | -16.6m/s | -59.0°C | 44.7% | 207.0hPa | 2.5V | 00:00:00 | 00:00:00 | 00:00:00 | |
| AA1-15 | 2026-09-04 01:10:45 | 51.56775 | 15.55557 | 142° | 166km/h | 12283m | -17.9m/s | -61.3°C | 52.1% | 196.3hPa | 2.5V | 08:16:34 | 02:32:55 | 00:00:00 | |
| KRY50SP-1 | 2026-09-04 01:10:44 | 51.56775 | 15.55556 | 143° | 166km/h | 12283m | -17.9m/s | -61.3°C | 44.7% | 196.3hPa | 2.6V | 08:15:00 | 00:00:00 | 00:00:00 | |
| SONDE2-11 | 2026-09-04 01:10:43 | 51.56841 | 15.55474 | 142° | 164km/h | 12317m | -16.4m/s | -61.5°C | 44.8% | 195.2hPa | 2.6V | 00:00:00 | 00:00:00 | 00:00:00 | |
| DB0DAN | 2026-09-04 01:10:40 | 51.56938 | 15.55352 | 142° | 153km/h | 12366m | -15.9m/s | -61.8°C | 44.3% | 193.69hPa | 2.6V | 00:00:00 | 00:00:00 | 00:00:00 | |
| AA1-15 | 2026-09-04 01:10:34 | 51.57124 | 15.55112 | 141° | 155km/h | 12462m | -16.2m/s | -61.2°C | 48.4% | 190.7hPa | 2.6V | 08:16:34 | 02:32:44 | 00:00:00 | |
| SONCRA | 2026-09-04 01:10:34 | 51.57124 | 15.55112 | 140° | 155km/h | 12462m | -16.2m/s | -61.2°C | 40.1% | 190.7hPa | 2.5V | 00:00:00 | 00:00:00 | 00:00:00 | |
| KRY50SP-1 | 2026-09-04 01:10:32 | 51.57154 | 15.55072 | 141° | 153km/h | 12478m | -15.3m/s | -61.2°C | 39.5% | 190.2hPa | 2.5V | 08:15:00 | 00:00:00 | 00:00:00 | |
| POL2MAQ | 2026-09-04 01:10:31 | 51.57184 | 15.55032 | 141° | 153km/h | 12493m | -15.4m/s | -61.2°C | 38.8% | 189.7hPa | 2.5V | 08:15:00 | 00:00:00 | 00:00:00 | |
| EDDB2-12 | 2026-09-04 01:10:28 | 51.57301 | 15.54872 | 139° | 150km/h | 12557m | -15.9m/s | -61.1°C | 36.3% | 187.9hPa | 2.5V | 00:00:00 | 00:00:00 | 00:00:00 | |
| DB0DAN | 2026-09-04 01:10:25 | 51.57385 | 15.54753 | 138° | 141km/h | 12605m | -16.5m/s | -61.1°C | 33.9% | 186.37hPa | 2.5V | 00:00:00 | 00:00:00 | 00:00:00 | |
| DB0NH | 2026-09-04 01:10:22 | 51.57468 | 15.54632 | 138° | 159km/h | 12653m | -15.5m/s | -61.5°C | 40.6% | 184.9hPa | 2.6V | 00:00:00 | 02:32:32 | 00:00:00 | |
| KRY50SP-1 | 2026-09-04 01:10:20 | 51.57495 | 15.54591 | 138° | 148km/h | 12669m | -16.0m/s | -61.7°C | 32.3% | 184.5hPa | 2.6V | 08:15:00 | 00:00:00 | 00:00:00 | |
| SP3BTT-10 | 2026-09-04 01:10:19 | 51.57550 | 15.54508 | 137° | 108km/h | 12701m | -15.1m/s | -61.8°C | 39.2% | 183.5hPa | 2.6V | 00:00:00 | 00:00:00 | 00:00:00 | |
| S3001 | 2026-09-04 01:10:15 | 51.57742 | 15.54207 | 135° | 155km/h | 12808m | -15.3m/s | -62.1°C | 26.8% | 180.4hPa | 2.6V | 00:00:00 | 00:00:00 | 00:00:00 | |
| SONDE2-11 | 2026-09-04 01:10:12 | 51.57742 | 15.54207 | 135° | 155km/h | 12808m | -15.3m/s | -62.1°C | 26.8% | 180.4hPa | 2.6V | 00:00:00 | 00:00:00 | 00:00:00 | |
| DL2RXE-15 | 2026-09-04 01:10:11 | 51.57742 | 15.54207 | 136° | 157km/h | 12808m | -15.3m/s | -62.1°C | 26.8% | 180.4hPa | 2.6V | 00:00:00 | 00:00:00 | 00:00:00 | |
| POL2MAQ | 2026-09-04 01:10:10 | 51.57770 | 15.54162 | 136° | 157km/h | 12824m | -16.4m/s | -62.2°C | 26.3% | 179.9hPa | 2.6V | 08:15:00 | 00:00:00 | 00:00:00 | |
| EDDB2-11 | 2026-09-04 01:10:09 | 51.57827 | 15.54071 | 135° | 159km/h | 12855m | -15.8m/s | -62.5°C | 25.7% | 179.0hPa | 2.6V | 00:00:00 | 00:00:00 | 00:00:00 | |
| SP3WXH-11 | 2026-09-04 01:10:04 | 51.58002 | 15.53790 | 135° | 164km/h | 12950m | -16.1m/s | -63.0°C | 23.3% | 176.2hPa | 2.6V | 00:00:00 | 00:00:00 | 00:00:00 | |
| SONCRA | 2026-09-04 01:10:03 | 51.58002 | 15.53790 | 135° | 164km/h | 12950m | -16.1m/s | -63.0°C | 23.3% | 176.2hPa | 2.6V | 00:00:00 | 00:00:00 | 00:00:00 | |
| EDDB2-12 | 2026-09-04 01:09:57 | 51.58182 | 15.53514 | 137° | 161km/h | 13047m | -15.8m/s | -63.5°C | 18.5% | 173.6hPa | 2.6V | 00:00:00 | 00:00:00 | 00:00:00 | |
| DB0DAN | 2026-09-04 01:09:55 | 51.58242 | 15.53426 | 138° | 151km/h | 13078m | -15.7m/s | -63.6°C | 16.5% | 172.69hPa | 2.6V | 00:00:00 | 00:00:00 | 00:00:00 | |
| AA1-15 | 2026-09-04 01:09:52 | 51.58330 | 15.53299 | 139° | 155km/h | 13128m | -16.8m/s | -63.3°C | 15.8% | 171.3hPa | 2.5V | 08:16:34 | 02:32:02 | 00:00:00 | |
| AA1-15 | 2026-09-04 01:09:41 | 51.58631 | 15.52877 | 139° | 131km/h | 13308m | -16.6m/s | -62.4°C | 8.2% | 166.4hPa | 2.5V | 08:16:34 | 02:31:51 | 00:00:00 | |
| AA1-15 | 2026-09-04 01:09:31 | 51.58857 | 15.52549 | 137° | 111km/h | 13472m | -15.7m/s | -61°C | 6.8% | 162hPa | 2.5V | 08:16:34 | 02:31:41 | 00:00:00 | |
| AA1-15 | 2026-09-04 01:09:21 | 51.59059 | 15.52268 | 140° | 99km/h | 13634m | -16.4m/s | -60.5°C | 4.5% | 157.8hPa | 2.6V | 08:16:34 | 02:31:31 | 00:00:00 | |
| BIOWL1-15 | 2026-09-04 01:09:19 | 51.59096 | 15.52217 | 139° | 95km/h | 13666m | -16.1m/s | -60.5°C | 4.1% | 157hPa | 2.5V | 08:16:34 | 02:31:29 | 00:00:00 | |
| AA1-15 | 2026-09-04 01:09:10 | 51.59239 | 15.51974 | 129° | 93km/h | 13811m | -16.5m/s | -59.6°C | 3% | 153.5hPa | 2.6V | 08:16:34 | 02:31:20 | 00:00:00 | |
| BIOWL1-15 | 2026-09-04 01:09:08 | 51.59360 | 15.51723 | 129° | 102km/h | 13942m | -16m/s | -58.9°C | 2.7% | 150.3hPa | 2.5V | 08:19:58 | 02:31:12 | 00:00:00 | |
| AA1-15 | 2026-09-04 01:09:00 | 51.59393 | 15.51658 | 129° | 104km/h | 13972m | -15.3m/s | -58.8°C | 2.6% | 149.5hPa | 2.6V | 08:19:58 | 02:31:10 | 00:00:00 | |
| BIOWL1-15 | 2026-09-04 01:08:56 | 51.59459 | 15.51525 | 130° | 106km/h | 14035m | -16.8m/s | -58°C | 2.2% | 148.1hPa | 2.5V | 08:19:58 | 02:31:06 | 00:00:00 | |
| AA1-15 | 2026-09-04 01:08:49 | 51.59579 | 15.51311 | 134° | 99km/h | 14155m | -15.2m/s | -57.5°C | 1.9% | 145.3hPa | 2.6V | 08:19:58 | 02:30:59 | 00:00:00 | |
| BIOWL1-15 | 2026-09-04 01:08:48 | 51.59629 | 15.51229 | 136° | 91km/h | 14206m | -17.7m/s | -57.3°C | 1.7% | 144.2hPa | 2.5V | 08:19:58 | 02:30:56 | 00:00:00 | |
| AA1-15 | 2026-09-04 01:08:39 | 51.59734 | 15.51060 | 133° | 78km/h | 14312m | -11.9m/s | -57.1°C | 1.8% | 141.7hPa | 2.5V | 08:19:58 | 02:30:49 | 00:00:00 | |
| DF8AY | 2026-09-04 01:08:36 | 51.59773 | 15.50988 | 128° | 78km/h | 14355m | -15.3m/s | -57.2°C | 1.7% | 140.8hPa | 2.5V | 08:17:25 | 02:30:46 | 00:00:00 | |
| DF8AY | 2026-09-04 01:08:25 | 51.59903 | 15.50670 | 125° | 93km/h | 14539m | -14.6m/s | -57°C | 1.5% | 136.7hPa | 2.5V | 08:17:25 | 02:30:35 | 00:00:00 | |
| DF8AY | 2026-09-04 01:08:15 | 51.60038 | 15.50386 | 132° | 80km/h | 14703m | -18.1m/s | -56°C | 1.2% | 133.3hPa | 2.6V | 08:19:07 | 02:30:25 | 00:00:00 | |
| BIOWL1-15 | 2026-09-04 01:08:10 | 51.60101 | 15.50271 | 129° | 73km/h | 14793m | -17.1m/s | -56.2°C | 1.2% | 131.4hPa | 2.6V | 08:19:58 | 02:30:20 | 00:00:00 | |
| DM0DOS-11 | 2026-09-04 01:08:08 | 51.60146 | 15.50177 | 124° | 73km/h | 14864m | -15.9m/s | -56.3°C | 4.9% | 129.9hPa | 2.5V | 08:17:36 | 02:30:16 | 00:00:00 | |
| DF8AY | 2026-09-04 01:08:05 | 51.60167 | 15.50127 | 124° | 75km/h | 14897m | -18.1m/s | -56.3°C | 1.2% | 129.2hPa | 2.6V | 08:19:07 | 02:30:14 | 00:00:00 | |
| EDDB2-11 | 2026-09-04 01:08:05 | 51.60156 | 15.50152 | 125° | 73km/h | 14880m | -17.1m/s | -56.2°C | 1.7% | 129.5hPa | 2.6V | 00:00:00 | 00:00:00 | 00:00:00 | |
| KRY50SP-1 | 2026-09-04 01:08:04 | 51.60156 | 15.50152 | 127° | 75km/h | 14881m | -17.1m/s | -56.2°C | 1.7% | 129.5hPa | 2.6V | 08:18:00 | 00:00:00 | 00:00:00 | |
| DO3MHA-11 | 2026-09-04 01:08:02 | 51.60189 | 15.50077 | 127° | 71km/h | 14932m | -16.2m/s | -56.4°C | 5.0% | 128.4hPa | 2.6V | 00:00:00 | 02:30:12 | 00:00:00 | |
| OE3JTB-15 | 2026-09-04 01:07:59 | 51.60222 | 15.50000 | 124° | 73km/h | 14978m | -16.7m/s | -56.2°C | 4.9% | 127.5hPa | 2.6V | 00:00:00 | 00:00:00 | 00:00:00 | |
| DM0DOS-11 | 2026-09-04 01:07:56 | 51.60287 | 15.49839 | 123° | 78km/h | 15077m | -16.8m/s | -55.4°C | 4.6% | 125.5hPa | 2.6V | 08:17:49 | 02:30:03 | 00:00:00 | |
| AA1-15 | 2026-09-04 01:07:55 | 51.60266 | 15.49893 | 123° | 78km/h | 15043m | -17.6m/s | -55.6°C | 1% | 126.2hPa | 2.5V | 08:19:58 | 02:30:05 | 00:00:00 | |
| BIOWL1-15 | 2026-09-04 01:07:54 | 51.60277 | 15.49866 | 123° | 80km/h | 15060m | -17.5m/s | -55.5°C | 1% | 125.8hPa | 2.6V | 08:19:58 | 02:30:04 | 00:00:00 | |
| EDDB2-12 | 2026-09-04 01:07:53 | 51.60288 | 15.49839 | 123° | 77km/h | 15077m | -16.8m/s | -55.4°C | 1.6% | 125.5hPa | 2.6V | 00:00:00 | 00:00:00 | 00:00:00 | |
| KRY50SP-1 | 2026-09-04 01:07:48 | 51.60332 | 15.49735 | 126° | 75km/h | 15149m | -18.9m/s | -55.0°C | 1.5% | 124.1hPa | 2.6V | 08:18:00 | 00:00:00 | 00:00:00 | |
| DL2RXE-15 | 2026-09-04 01:07:47 | 51.60343 | 15.49711 | 127° | 73km/h | 15167m | -18.2m/s | -54.9°C | 1.5% | 123.8hPa | 2.6V | 00:00:00 | 00:00:00 | 00:00:00 | |
| DM0DOS-11 | 2026-09-04 01:07:46 | 51.60398 | 15.49596 | 129° | 71km/h | 15258m | -19.7m/s | -54.2°C | 4.1% | 122hPa | 2.6V | 08:17:59 | 02:29:53 | 00:00:00 | |
| BIOWL1-15 | 2026-09-04 01:07:44 | 51.60387 | 15.49618 | 129° | 69km/h | 15238m | -20.2m/s | -54.3°C | 0.7% | 122.4hPa | 2.5V | 08:19:58 | 02:29:54 | 00:00:00 | |
| AA1-15 | 2026-09-04 01:07:37 | 51.60464 | 15.49464 | 127° | 71km/h | 15374m | -19.7m/s | -54.2°C | 0.7% | 119.9hPa | 2.6V | 08:19:58 | 02:29:47 | 00:00:00 | |
| SONDE2-11 | 2026-09-04 01:07:37 | 51.60475 | 15.49441 | 128° | 71km/h | 15394m | -20.2m/s | -54.0°C | 1.4% | 119.5hPa | 2.5V | 00:00:00 | 00:00:00 | 00:00:00 | |
| DM0DOS-11 | 2026-09-04 01:07:36 | 51.60508 | 15.49373 | 126° | 71km/h | 15455m | -20.1m/s | -54.2°C | 4.1% | 118.4hPa | 2.5V | 08:18:09 | 02:29:43 | 00:00:00 | |
| EDDB2-11 | 2026-09-04 01:07:34 | 51.60509 | 15.49373 | 126° | 69km/h | 15456m | -20.1m/s | -54.2°C | 1.3% | 118.4hPa | 2.6V | 00:00:00 | 00:00:00 | 00:00:00 | |
| KRY50SP-1 | 2026-09-04 01:07:32 | 51.60508 | 15.49373 | 128° | 71km/h | 15456m | -20.1m/s | -54.2°C | 1.3% | 118.4hPa | 2.6V | 08:18:00 | 00:00:00 | 00:00:00 | |
| OE3JTB-15 | 2026-09-04 01:07:30 | 51.60540 | 15.49306 | 128° | 69km/h | 15513m | -21.1m/s | -54.3°C | 4.1% | 117.3hPa | 2.6V | 00:00:00 | 00:00:00 | 00:00:00 | |
| SP3WXH-11 | 2026-09-04 01:07:28 | 51.60561 | 15.49265 | 129° | 62km/h | 15554m | -20.4m/s | -54.3°C | 1.4% | 116.6hPa | 2.6V | 00:00:00 | 00:00:00 | 00:00:00 | |
| KRY50SP-1 | 2026-09-04 01:07:27 | 51.60561 | 15.49265 | 130° | 62km/h | 15554m | -20.4m/s | -54.3°C | 1.4% | 116.6hPa | 2.6V | 08:18:00 | 00:00:00 | 00:00:00 | |
| DB0DAN | 2026-09-04 01:07:25 | 51.60590 | 15.49203 | 126° | 58km/h | 15616m | -21.6m/s | -54.2°C | 1.4% | 115.52hPa | 2.6V | 00:00:00 | 00:00:00 | 00:00:00 | |
| DO3MHA-11 | 2026-09-04 01:07:24 | 51.60599 | 15.49182 | 125° | 68km/h | 15637m | -22.1m/s | -54.0°C | 4.1% | 115.1hPa | 2.5V | 00:00:00 | 02:29:34 | 00:00:00 | |
| EDDB2-12 | 2026-09-04 01:07:22 | 51.60617 | 15.49139 | 124° | 60km/h | 15681m | -22.6m/s | -53.9°C | 1.4% | 114.4hPa | 2.5V | 00:00:00 | 00:00:00 | 00:00:00 | |
| KRY50SP-1 | 2026-09-04 01:07:21 | 51.60617 | 15.49139 | 126° | 62km/h | 15681m | -22.6m/s | -53.9°C | 1.4% | 114.4hPa | 2.5V | 08:19:00 | 00:00:00 | 00:00:00 | |
| NBG1-10 | 2026-09-04 01:07:19 | 51.60643 | 15.49071 | 123° | 57km/h | 15751m | -22.1m/s | -53.6°C | 4.0% | 113.2hPa | 2.5V | 00:00:00 | 02:29:29 | 00:00:00 | |
| SP3BTT-10 | 2026-09-04 01:07:18 | 51.60653 | 15.49048 | 123° | 57km/h | 15773m | -21.4m/s | -53.7°C | 4.1% | 112.7hPa | 2.5V | 00:00:00 | 00:00:00 | 00:00:00 | |
| DM0DOS-11 | 2026-09-04 01:07:16 | 51.60701 | 15.48923 | 119° | 78km/h | 15881m | -21.1m/s | -54.7°C | 4.3% | 110.9hPa | 2.5V | 08:18:29 | 02:29:23 | 00:00:00 | |
| BIOWL1-15 | 2026-09-04 01:07:15 | 51.60681 | 15.48975 | 121° | 73km/h | 15837m | -22.9m/s | -54.3°C | 0.7% | 111.7hPa | 2.6V | 08:19:58 | 02:29:25 | 00:00:00 | |
| DO3MHA-11 | 2026-09-04 01:07:14 | 51.60691 | 15.48949 | 121° | 77km/h | 15860m | -20.8m/s | -54.4°C | 4.3% | 111.2hPa | 2.6V | 00:00:00 | 02:29:24 | 00:00:00 | |
| DB0DAN | 2026-09-04 01:07:10 | 51.60732 | 15.48841 | 123° | 77km/h | 15944m | -22.1m/s | -55.1°C | 1.5% | 109.81hPa | 2.6V | 00:00:00 | 00:00:00 | 00:00:00 | |
| DF8AY | 2026-09-04 01:07:09 | 51.60753 | 15.48787 | 123° | 75km/h | 15990m | -24.1m/s | -54.4°C | 0.8% | 109.1hPa | 2.5V | 08:19:07 | 02:29:18 | 00:00:00 | |
| AA1-15 | 2026-09-04 01:07:02 | 51.60812 | 15.48641 | 122° | 64km/h | 16126m | -22.8m/s | -52.4°C | 0.3% | 106.8hPa | 2.5V | 08:19:58 | 02:29:12 | 00:00:00 | |
| DF8AY | 2026-09-04 01:06:59 | 51.60837 | 15.48577 | 119° | 62km/h | 16193m | -22.3m/s | -52.6°C | 0.3% | 105.7hPa | 2.6V | 08:19:07 | 02:29:09 | 00:00:00 | |
| BIOWL1-15 | 2026-09-04 01:06:51 | 51.60890 | 15.48417 | 122° | 55km/h | 16373m | -21.2m/s | -52.8°C | 0.4% | 102.7hPa | 2.5V | 08:19:58 | 02:29:01 | 00:00:00 | |
| DF8AY | 2026-09-04 01:06:48 | 51.60912 | 15.48360 | 120° | 55km/h | 16437m | -22.4m/s | -52.8°C | 0.3% | 101.8hPa | 2.6V | 08:19:07 | 02:28:58 | 00:00:00 | |
| DM0DOS-11 | 2026-09-04 01:06:46 | 51.60946 | 15.48267 | 115° | 55km/h | 16546m | -22.1m/s | -53.2°C | 3.7% | 100hPa | 2.6V | 08:18:59 | 02:28:53 | 00:00:00 | |
| AA1-15 | 2026-09-04 01:06:41 | 51.60958 | 15.48228 | 115° | 53km/h | 16591m | -21.5m/s | -53.4°C | 0.4% | 99.3hPa | 2.5V | 08:19:58 | 02:28:51 | 00:00:00 | |
| DF8AY | 2026-09-04 01:06:38 | 51.60975 | 15.48171 | 115° | 51km/h | 16658m | -23m/s | -53.7°C | 0.4% | 98.4hPa | 2.6V | 08:19:07 | 02:28:48 | 00:00:00 | |
| S3001 | 2026-09-04 01:06:38 | 51.60975 | 15.48171 | 115° | 49km/h | 16658m | -23.0m/s | -53.7°C | 1.2% | 98.4hPa | 2.5V | 00:00:00 | 00:00:00 | 00:00:00 | |
| KRY50SP-1 | 2026-09-04 01:06:37 | 51.60975 | 15.48171 | 116° | 51km/h | 16658m | -23.0m/s | -53.7°C | 1.2% | 98.4hPa | 2.5V | 08:19:00 | 00:00:00 | 00:00:00 | |
| DM0DOS-11 | 2026-09-04 01:06:36 | 51.61005 | 15.48081 | 122° | 47km/h | 16769m | -23.1m/s | -54°C | 4% | 96.5hPa | 2.5V | 08:19:09 | 02:28:43 | 00:00:00 | |
| DF8AY | 2026-09-04 01:06:27 | 51.61044 | 15.47988 | 123° | 42km/h | 16895m | -21.9m/s | -54.2°C | 0.5% | 94.7hPa | 2.6V | 08:19:58 | 02:28:37 | 00:00:00 | |
| DB0DAN | 2026-09-04 01:06:25 | 51.61054 | 15.47960 | 119° | 37km/h | 16939m | -21.1m/s | -54.2°C | 1.2% | 94.1hPa | 2.5V | 00:00:00 | 00:00:00 | 00:00:00 | |
| AA1-15 | 2026-09-04 01:06:24 | 51.61058 | 15.47946 | 116° | 37km/h | 16960m | -22.5m/s | -53.9°C | 0.5% | 93.8hPa | 2.5V | 08:19:58 | 02:28:34 | 00:00:00 | |
| BIOWL1-15 | 2026-09-04 01:06:21 | 51.61074 | 15.47873 | 102° | 42km/h | 17069m | -23.3m/s | -53.5°C | 0.4% | 92.2hPa | 2.5V | 08:19:58 | 02:28:29 | 00:00:00 | |
| DF8AY | 2026-09-04 01:06:16 | 51.61081 | 15.47822 | 101° | 44km/h | 17134m | -20.8m/s | -53.2°C | 0.3% | 0hPa | 2.6V | 08:19:58 | 02:28:26 | 00:00:00 | |
| DF8AY | 2026-09-04 01:06:05 | 51.61127 | 15.47597 | 115° | 53km/h | 17372m | -21.9m/s | -54.4°C | 0.5% | 0hPa | 2.6V | 08:19:58 | 02:28:15 | 00:00:00 | |
| DO3MHA-11 | 2026-09-04 01:06:04 | 51.61132 | 15.47577 | 115° | 51km/h | 17394m | -21.4m/s | -54.4°C | 4.1% | 87.6hPa | 2.5V | 00:00:00 | 02:28:14 | 00:00:00 | |
| SONDE2-11 | 2026-09-04 01:06:03 | 51.61138 | 15.47558 | 114° | 51km/h | 17416m | -22.6m/s | -54.4°C | 1.2% | 87.4hPa | 2.6V | 00:00:00 | 00:00:00 | 00:00:00 | |
| EDDB2-11 | 2026-09-04 01:06:01 | 51.61155 | 15.47502 | 118° | 49km/h | 17482m | -20.9m/s | -54.2°C | 1.2% | 86.5hPa | 2.6V | 00:00:00 | 00:00:00 | 00:00:00 | |
| KRY50SP-1 | 2026-09-04 01:06:00 | 51.61149 | 15.47520 | 119° | 51km/h | 17461m | -22.1m/s | -54.4°C | 1.2% | 86.8hPa | 2.6V | 08:19:00 | 00:00:00 | 00:00:00 | |
| DM0DOS-11 | 2026-09-04 01:05:59 | 51.61195 | 15.47392 | 122° | 55km/h | 17610m | -23.3m/s | -53.7°C | 3.8% | 84.8hPa | 2.6V | 08:19:48 | 02:28:04 | 00:00:00 | |
| BIOWL1-15 | 2026-09-04 01:05:59 | 51.61174 | 15.47448 | 120° | 51km/h | 17543m | -20.7m/s | -54.1°C | 0.5% | 85.6hPa | 2.5V | 08:19:58 | 02:28:07 | 00:00:00 | |
| DAC517 | 2026-09-04 01:05:58 | 51.61167 | 15.47467 | 120° | 51km/h | 17523m | -20.0m/s | -54.1°C | 1.2% | 85.8hPa | 2.6V | 00:00:00 | 00:00:00 | 00:00:00 | |
| DB0DAN | 2026-09-04 01:05:55 | 51.61187 | 15.47411 | 123° | 51km/h | 17586m | -21.9m/s | -53.7°C | 1.1% | 85.1hPa | 2.6V | 00:00:00 | 00:00:00 | 00:00:00 | |
| AA1-15 | 2026-09-04 01:05:54 | 51.61195 | 15.47392 | 122° | 55km/h | 17610m | -23.3m/s | -53.7°C | 0.4% | 84.8hPa | 2.6V | 08:19:58 | 02:28:04 | 00:00:00 | |
| DO3MHA-11 | 2026-09-04 01:05:54 | 51.61195 | 15.47392 | 123° | 53km/h | 17610m | -23.2m/s | -53.6°C | 3.8% | 84.8hPa | 2.6V | 00:00:00 | 02:28:04 | 00:00:00 | |
| DM0DOS-11 | 2026-09-04 01:05:49 | 51.61274 | 15.47218 | 132° | 49km/h | 17833m | -24.9m/s | -53.7°C | 3.8% | 82hPa | 2.6V | 08:19:58 | 02:27:54 | 00:00:00 | |
| BIOWL1-15 | 2026-09-04 01:05:46 | 51.61266 | 15.47233 | 131° | 49km/h | 17808m | -23.6m/s | -53.7°C | 0.3% | 82.2hPa | 2.5V | 08:19:58 | 02:27:55 | 00:00:00 | |
| DF8AY | 2026-09-04 01:05:43 | 51.61283 | 15.47204 | 135° | 49km/h | 17857m | -23.8m/s | 0°C | 0% | 0hPa | 2.6V | 18:12:15 | 02:27:53 | 00:00:00 | |
| AA1-15 | 2026-09-04 01:05:42 | 51.61292 | 15.47190 | 137° | 49km/h | 17881m | -22.7m/s | -54°C | 0.4% | 81.3hPa | 2.5V | 08:20:49 | 02:27:52 | 00:00:00 | |
| DM0DOS-11 | 2026-09-04 01:05:39 | 51.61367 | 15.47104 | 145° | 40km/h | 18049m | -20.6m/s | -53.8°C | 3.9% | 79.1hPa | 2.5V | 08:20:08 | 02:27:44 | 00:00:00 | |
| BIOWL1-15 | 2026-09-04 01:05:36 | 51.61359 | 15.47114 | 146° | 44km/h | 18029m | -19.5m/s | -54.1°C | 0.5% | 79.3hPa | 2.5V | 08:22:31 | 02:27:45 | 00:00:00 | |
| AA1-15 | 2026-09-04 01:05:31 | 51.61390 | 15.47074 | 135° | 37km/h | 18109m | -19.9m/s | -53.5°C | 0.3% | 78.4hPa | 2.6V | 08:20:49 | 02:27:41 | 00:00:00 | |
| EDDB2-11 | 2026-09-04 01:05:30 | 51.61402 | 15.47053 | 130° | 35km/h | 18147m | -17.9m/s | -53.8°C | 1.1% | 77.9hPa | 2.6V | 00:00:00 | 00:00:00 | 00:00:00 | |
| KRY50SP-1 | 2026-09-04 01:05:26 | 51.61413 | 15.47030 | 125° | 35km/h | 18184m | -19.2m/s | -54.1°C | 1.1% | 77.4hPa | 2.6V | 08:20:00 | 00:00:00 | 00:00:00 | |
| BIOWL1-15 | 2026-09-04 01:05:24 | 51.61527 | 15.46794 | 122° | 29km/h | 18657m | -21.4m/s | -54.3°C | 0.5% | 71.9hPa | 2.6V | 08:22:31 | 02:27:13 | 00:00:00 | |
| DM0DOS-11 | 2026-09-04 01:05:24 | 51.61434 | 15.46986 | 128° | 33km/h | 18258m | -18.6m/s | -54.1°C | 3.9% | 76.5hPa | 2.6V | 08:20:19 | 02:27:33 | 00:00:00 | |
| AA1-15 | 2026-09-04 01:05:20 | 51.61451 | 15.46960 | 138° | 31km/h | 18320m | -19.2m/s | -54.4°C | 0.5% | 75.8hPa | 2.5V | 08:20:49 | 02:27:30 | 00:00:00 | |
| SQ6EMJ | 2026-09-04 01:05:19 | 51.61457 | 15.46952 | 141° | 29km/h | 18340m | -19.9m/s | -54.5°C | 1.1% | 75.6hPa | 2.6V | 08:20:00 | 00:00:00 | 00:00:00 | |
| PG1ADW-2 | 2026-09-04 01:05:18 | 51.61462 | 15.46945 | 143° | 29km/h | 18360m | -20.1m/s | -54.5°C | 4.0% | 75.3hPa | 2.6V | 00:00:00 | 02:27:28 | 00:00:00 | |
| DAC517 | 2026-09-04 01:05:17 | 51.61462 | 15.46945 | 144° | 27km/h | 18360m | -20.1m/s | -54.5°C | 1.1% | 75.4hPa | 2.6V | 00:00:00 | 00:00:00 | 00:00:00 | |
| KRY50SP-1 | 2026-09-04 01:05:15 | 51.61473 | 15.46931 | 141° | 27km/h | 18398m | -17.3m/s | -54.7°C | 1.1% | 74.9hPa | 2.6V | 08:20:00 | 00:00:00 | 00:00:00 | |
| DM0DOS-11 | 2026-09-04 01:05:14 | 51.61489 | 15.46906 | 126° | 29km/h | 18459m | -21.8m/s | -54.8°C | 4.1% | 74.2hPa | 2.6V | 08:20:29 | 02:27:23 | 00:00:00 | |
| BIOWL1-15 | 2026-09-04 01:05:11 | 51.61539 | 15.46767 | 132° | 27km/h | 18719m | -19.7m/s | -54.4°C | 0.5% | 71.2hPa | 2.5V | 08:22:31 | 02:27:10 | 00:00:00 | |
| AA1-15 | 2026-09-04 01:05:10 | 51.61505 | 15.46862 | 116° | 33km/h | 18537m | -18.4m/s | -54.9°C | 0.6% | 73.3hPa | 2.5V | 08:20:49 | 02:27:19 | 00:00:00 | |
| AA1-15 | 2026-09-04 01:04:59 | 51.61544 | 15.46760 | 134° | 26km/h | 18740m | -20.7m/s | -54.5°C | 0.4% | 71hPa | 2.5V | 08:20:49 | 02:27:09 | 00:00:00 | |
| SP3WXH-11 | 2026-09-04 01:04:53 | 51.61569 | 15.46723 | 143° | 16km/h | 18862m | -20.9m/s | -54.7°C | 1.1% | 69.7hPa | 2.5V | 00:00:00 | 00:00:00 | 00:00:00 | |
| DM0DOS-11 | 2026-09-04 01:04:52 | 51.61579 | 15.46709 | 134° | 18km/h | 18923m | -23.1m/s | -54.6°C | 4.1% | 69.1hPa | 2.5V | 08:20:52 | 02:27:00 | 00:00:00 | |
| BIOWL1-15 | 2026-09-04 01:04:49 | 51.61585 | 15.46699 | 134° | 18km/h | 18969m | -21.4m/s | -54.8°C | 0.6% | 68.6hPa | 2.5V | 08:22:31 | 02:26:58 | 00:00:00 | |
| AA1-15 | 2026-09-04 01:04:49 | 51.61582 | 15.46704 | 135° | 18km/h | 18946m | -22.8m/s | -54.7°C | 0.6% | 68.8hPa | 2.5V | 08:21:40 | 02:26:59 | 00:00:00 | |
| OE5DRO-10 | 2026-09-04 01:04:48 | 51.61585 | 15.46699 | 134° | 27km/h | 18969m | -21.4m/s | -54.8°C | 4.1% | 68.5hPa | 2.5V | 00:00:00 | 00:00:00 | 00:00:00 | |
| KRY50SP-1 | 2026-09-04 01:04:47 | 51.61585 | 15.46699 | 135° | 18km/h | 18969m | -21.4m/s | -54.8°C | 1.2% | 68.6hPa | 2.5V | 08:21:00 | 00:00:00 | 00:00:00 | |
| DO3MHA-11 | 2026-09-04 01:04:44 | 51.61597 | 15.46675 | 126° | 22km/h | 19052m | -21.6m/s | -55.1°C | 4.3% | 67.6hPa | 2.5V | 00:00:00 | 02:26:54 | 00:00:00 | |
| SQ6EMJ | 2026-09-04 01:04:43 | 51.61597 | 15.46675 | 126° | 20km/h | 19052m | -21.7m/s | -55.1°C | 1.2% | 67.7hPa | 2.5V | 08:21:00 | 00:00:00 | 00:00:00 | |
| DM0DOS-11 | 2026-09-04 01:04:42 | 51.61605 | 15.46643 | 100° | 22km/h | 19136m | -21.7m/s | -55°C | 4.2% | 66.8hPa | 2.5V | 08:21:02 | 02:26:50 | 00:00:00 | |
| AA1-15 | 2026-09-04 01:04:38 | 51.61606 | 15.46625 | 87° | 22km/h | 19179m | -20.4m/s | -55.1°C | 0.7% | 66.3hPa | 2.6V | 08:21:40 | 02:26:48 | 00:00:00 | |
| BIOWL1-15 | 2026-09-04 01:04:37 | 51.61606 | 15.46616 | 83° | 24km/h | 19200m | -21.9m/s | -55°C | 0.7% | 66.1hPa | 2.5V | 08:22:31 | 02:26:47 | 00:00:00 | |
| KRY50SP-1 | 2026-09-04 01:04:36 | 51.61606 | 15.46616 | 84° | 24km/h | 19201m | -21.9m/s | -55.0°C | 1.2% | 66.1hPa | 2.5V | 08:21:00 | 00:00:00 | 00:00:00 | |
| OE3JTB-15 | 2026-09-04 01:04:35 | 51.61604 | 15.46596 | 82° | 29km/h | 19241m | -19.4m/s | -55.1°C | 4.4% | 65.6hPa | 2.5V | 00:00:00 | 00:00:00 | 00:00:00 | |
| S3001 | 2026-09-04 01:04:34 | 51.61603 | 15.46575 | 87° | 27km/h | 19281m | -20.1m/s | -55.3°C | 1.3% | 65.3hPa | 2.5V | 00:00:00 | 00:00:00 | 00:00:00 | |
| DM0DOS-11 | 2026-09-04 01:04:32 | 51.61605 | 15.46539 | 105° | 31km/h | 19337m | -19.3m/s | -54.5°C | 4.2% | 64.7hPa | 2.5V | 08:21:12 | 02:26:40 | 00:00:00 | |
| AA1-15 | 2026-09-04 01:04:27 | 51.61615 | 15.46501 | 120° | 37km/h | 19402m | -21.1m/s | -54.5°C | 0.6% | 64.1hPa | 2.6V | 08:21:40 | 02:26:37 | 00:00:00 | |
| BIOWL1-15 | 2026-09-04 01:04:23 | 51.61687 | 15.46381 | 123° | 26km/h | 19694m | -21.3m/s | -53.4°C | 0.4% | 61.2hPa | 2.5V | 08:22:31 | 02:26:24 | 00:00:00 | |
| DM0DOS-11 | 2026-09-04 01:04:20 | 51.61658 | 15.46428 | 138° | 31km/h | 19558m | -20.8m/s | -53.8°C | 3.9% | 62.5hPa | 2.6V | 08:21:22 | 02:26:30 | 00:00:00 | |
| AA1-15 | 2026-09-04 01:04:17 | 51.61674 | 15.46405 | 135° | 27km/h | 19628m | -23.7m/s | -53.6°C | 0.5% | 61.9hPa | 2.5V | 08:21:40 | 02:26:27 | 00:00:00 | |
| BIOWL1-15 | 2026-09-04 01:04:07 | 51.61712 | 15.46267 | 106° | 31km/h | 19898m | -20.3m/s | -54.9°C | 0.8% | 59.3hPa | 2.5V | 08:22:31 | 02:26:14 | 00:00:00 | |
| AA1-15 | 2026-09-04 01:04:06 | 51.61708 | 15.46291 | 106° | 31km/h | 19856m | -20.5m/s | -54.6°C | 0.6% | 59.7hPa | 2.6V | 08:21:40 | 02:26:16 | 00:00:00 | |
| AA1-15 | 2026-09-04 01:03:55 | 51.61739 | 15.46155 | 115° | 37km/h | 20083m | -21.2m/s | -54.4°C | 0.7% | 57.6hPa | 2.6V | 08:22:31 | 02:26:05 | 00:00:00 | |
| DL1XH-west | 2026-09-04 01:03:54 | 51.61742 | 15.46142 | 115° | 37km/h | 20106m | -23.7m/s | 0°C | 0% | 57.5hPa | 2.6V | 18:12:15 | 02:26:04 | 00:00:00 | |
| HSKMA3-T | 2026-09-04 01:03:50 | 51.61759 | 15.46090 | 122° | 35km/h | 20198m | -21.7m/s | -53.8°C | 0.6% | 56.7hPa | 2.5V | 08:22:31 | 02:26:00 | 00:00:00 | |
| SONCRA | 2026-09-04 01:03:45 | 51.61784 | 15.46042 | 136° | 26km/h | 20302m | -19.9m/s | -52.8°C | 1.0% | 55.7hPa | 2.5V | 00:00:00 | 00:00:00 | 00:00:00 | |
| DL1XH-west | 2026-09-04 01:03:44 | 51.61789 | 15.46035 | 138° | 26km/h | 20320m | -17m/s | 0°C | 0% | 0hPa | 2.5V | 18:12:15 | 02:25:54 | 00:00:00 | |
| AA1-15 | 2026-09-04 01:03:40 | 51.61806 | 15.46005 | 127° | 24km/h | 20396m | -19.2m/s | -52.7°C | 0.4% | 54.9hPa | 2.5V | 08:22:31 | 02:25:50 | 00:00:00 | |
| DM0DOS-11 | 2026-09-04 01:03:37 | 51.61818 | 15.45969 | 120° | 27km/h | 20480m | -21.7m/s | -52.8°C | 3.8% | 54.2hPa | 2.5V | 08:22:06 | 02:25:46 | 00:00:00 | |
| OE3JTB-15 | 2026-09-04 01:03:37 | 51.61815 | 15.45979 | 116° | 20km/h | 20458m | -23.0m/s | -52.6°C | 3.7% | 54.3hPa | 2.6V | 00:00:00 | 00:00:00 | 00:00:00 | |
| SQ6EMJ | 2026-09-04 01:03:36 | 51.61818 | 15.45969 | 121° | 27km/h | 20481m | -21.7m/s | -52.8°C | 1.0% | 54.2hPa | 2.5V | 00:00:00 | 00:00:00 | 00:00:00 | |
| DL1XH1-15 | 2026-09-04 01:03:35 | 51.61839 | 15.45927 | 138° | 26km/h | 20592m | -22.9m/s | -52.7°C | 3.7% | 53.3hPa | 2.5V | 08:30:00 | 02:25:41 | 00:00:00 | |
| DL1XH-west | 2026-09-04 01:03:33 | 51.61830 | 15.45943 | 131° | 26km/h | 20547m | -22.4m/s | 0°C | 0% | 0hPa | 2.6V | 18:12:15 | 02:25:43 | 00:00:00 | |
| AA1-15 | 2026-09-04 01:03:30 | 51.61844 | 15.45921 | 143° | 24km/h | 20615m | -22.9m/s | -52.7°C | 0.3% | 53.1hPa | 2.5V | 08:22:31 | 02:25:40 | 00:00:00 | |
| BIOWL1-15 | 2026-09-04 01:03:29 | 51.61848 | 15.45914 | 142° | 26km/h | 20640m | -24.1m/s | -52.6°C | 0.4% | 52.9hPa | 2.5V | 08:22:31 | 02:25:39 | 00:00:00 | |
| SQ6EMJ | 2026-09-04 01:03:29 | 51.61848 | 15.45914 | 143° | 26km/h | 20640m | -24.1m/s | -52.6°C | 1.0% | 52.9hPa | 2.5V | 00:00:00 | 00:00:00 | 00:00:00 | |
| DM0DOS-11 | 2026-09-04 01:03:27 | 51.61863 | 15.45895 | 139° | 24km/h | 20708m | -22.1m/s | -52.4°C | 3.7% | 52.3hPa | 2.5V | 08:22:16 | 02:25:36 | 00:00:00 | |
| HSKMA3-T | 2026-09-04 01:03:25 | 51.61867 | 15.45889 | 139° | 24km/h | 20732m | -24.7m/s | -52.3°C | 0.3% | 52.1hPa | 2.5V | 08:22:31 | 02:25:35 | 00:00:00 | |
| DL1XH-west | 2026-09-04 01:03:23 | 51.61876 | 15.45875 | 135° | 24km/h | 20777m | -22.4m/s | 0°C | 0% | 0hPa | 2.6V | 18:12:15 | 02:25:33 | 00:00:00 | |
| AA1-15 | 2026-09-04 01:03:19 | 51.61892 | 15.45850 | 136° | 16km/h | 20859m | -21.1m/s | -52.5°C | 0.2% | 51.1hPa | 2.5V | 08:22:31 | 02:25:29 | 00:00:00 | |
| BIOWL1-15 | 2026-09-04 01:03:18 | 51.61895 | 15.45845 | 138° | 15km/h | 20881m | -21.4m/s | -52.7°C | 0.3% | 50.9hPa | 2.6V | 08:22:31 | 02:25:28 | 00:00:00 | |
| HSKMA3-T | 2026-09-04 01:03:14 | 51.61902 | 15.45832 | 125° | 5km/h | 20970m | -24.1m/s | -52.8°C | 0.3% | 50.3hPa | 2.5V | 08:22:31 | 02:25:24 | 00:00:00 | |
| DL1XH-west | 2026-09-04 01:03:12 | 51.61904 | 15.45829 | 141° | 4km/h | 21017m | -23.3m/s | 0°C | 0% | 0hPa | 2.6V | 18:12:15 | 02:25:22 | 00:00:00 | |
| AA1-15 | 2026-09-04 01:03:08 | 51.61906 | 15.45826 | 113° | 2km/h | 21115m | -23.2m/s | -52.9°C | 0.4% | 49.1hPa | 2.6V | 08:23:22 | 02:25:18 | 00:00:00 | |
| BIOWL1-15 | 2026-09-04 01:03:07 | 51.61906 | 15.45825 | 91° | 2km/h | 21138m | -21.1m/s | -53°C | 0.3% | 48.9hPa | 2.6V | 08:23:22 | 02:25:17 | 00:00:00 | |
| HSKMA3-T | 2026-09-04 01:03:03 | 51.61904 | 15.45825 | 27° | 4km/h | 21230m | -22.8m/s | -53.3°C | 0.4% | 48.2hPa | 2.6V | 08:23:22 | 02:25:13 | 00:00:00 | |
| DF8AY | 2026-09-04 01:03:01 | 51.61903 | 15.45824 | 57° | 4km/h | 21273m | -22.8m/s | -53.4°C | 0.5% | 47.9hPa | 2.5V | 08:23:22 | 02:25:11 | 00:00:00 | |
| AA1-15 | 2026-09-04 01:02:58 | 51.61902 | 15.45816 | 91° | 11km/h | 21340m | -23.6m/s | -53.6°C | 0.5% | 47.5hPa | 2.6V | 08:23:22 | 02:25:08 | 00:00:00 | |
| BIOWL1-15 | 2026-09-04 01:02:57 | 51.61902 | 15.45811 | 95° | 15km/h | 21363m | -24.1m/s | -53.5°C | 0.5% | 47.3hPa | 2.6V | 08:23:22 | 02:25:07 | 00:00:00 | |
| SQ6EMJ | 2026-09-04 01:02:56 | 51.61902 | 15.45810 | 96° | 13km/h | 21363m | -24.1m/s | -53.5°C | 1.0% | 47.3hPa | 2.5V | 08:23:00 | 00:00:00 | 00:00:00 | |
| DM0DOS-11 | 2026-09-04 01:02:54 | 51.61905 | 15.45789 | 106° | 24km/h | 21442m | -28.6m/s | -53.5°C | 4% | 46.8hPa | 2.5V | 08:22:48 | 02:25:04 | 00:00:00 | |
| DF8AY | 2026-09-04 01:02:51 | 51.61912 | 15.45763 | 117° | 24km/h | 21519m | -23.4m/s | -53.6°C | 0.5% | 46.2hPa | 2.5V | 08:23:22 | 02:25:01 | 00:00:00 | |
| HSKMA3-T | 2026-09-04 01:02:48 | 51.61922 | 15.45742 | 135° | 20km/h | 21594m | -24.8m/s | -53.5°C | 0.5% | 45.6hPa | 2.6V | 08:23:22 | 02:24:58 | 00:00:00 | |
| AA1-15 | 2026-09-04 01:02:47 | 51.61926 | 15.45737 | 140° | 18km/h | 21620m | -25m/s | -53.3°C | 0.5% | 45.5hPa | 2.6V | 08:23:22 | 02:24:57 | 00:00:00 | |
| DM0DOS-11 | 2026-09-04 01:02:44 | 51.61936 | 15.45729 | 173° | 13km/h | 21691m | -21.9m/s | -52.6°C | 3.7% | 45hPa | 2.5V | 08:22:58 | 02:24:54 | 00:00:00 | |
| DF8AY | 2026-09-04 01:02:40 | 51.61945 | 15.45731 | 223° | 7km/h | 21779m | -25.1m/s | -52.8°C | 0.4% | 44.3hPa | 2.5V | 08:23:22 | 02:24:50 | 00:00:00 | |
| AA1-15 | 2026-09-04 01:02:37 | 51.61945 | 15.45736 | 348° | 5km/h | 21850m | -22.5m/s | -52.5°C | 0.4% | 43.8hPa | 2.6V | 08:23:22 | 02:24:47 | 00:00:00 | |
| DM0DOS-11 | 2026-09-04 01:02:34 | 51.61937 | 15.45735 | 13° | 15km/h | 21919m | -23m/s | -52.7°C | 3.8% | 43.3hPa | 2.5V | 08:23:08 | 02:24:44 | 00:00:00 | |
| BIOWL1-15 | 2026-09-04 01:02:32 | 51.61929 | 15.45731 | 28° | 16km/h | 21968m | -25.7m/s | -52.9°C | 0.4% | 43hPa | 2.6V | 08:23:22 | 02:24:42 | 00:00:00 | |
| DF8AY | 2026-09-04 01:02:30 | 51.61922 | 15.45726 | 36° | 15km/h | 22016m | -23m/s | -52.9°C | 0.4% | 42.7hPa | 2.5V | 08:23:22 | 02:24:40 | 00:00:00 | |
| S3001 | 2026-09-04 01:02:30 | 51.61920 | 15.45723 | 49° | 11km/h | 22040m | -24.8m/s | -52.9°C | 1.0% | 42.5hPa | 2.5V | 00:00:00 | 00:00:00 | 00:00:00 | |
| BIOWL9-15 | 2026-09-04 01:02:29 | 51.61918 | 15.45719 | 60° | 9km/h | 22065m | -24.4m/s | -53.0°C | 1.0% | 42.4hPa | 2.5V | 00:00:00 | 00:00:00 | 00:00:00 | |
| DM0DOS-11 | 2026-09-04 01:02:28 | 51.61921 | 15.45708 | 132° | 11km/h | 22159m | -24.9m/s | -52.8°C | 3.8% | 41.8hPa | 2.5V | 08:23:18 | 02:24:34 | 00:00:00 | |
| AA1-15 | 2026-09-04 01:02:26 | 51.61918 | 15.45713 | 108° | 7km/h | 22112m | -21.8m/s | -53°C | 0.5% | 42.1hPa | 2.5V | 08:23:22 | 02:24:36 | 00:00:00 | |
| BIOWL1-15 | 2026-09-04 01:02:21 | 51.61932 | 15.45699 | 161° | 11km/h | 22260m | -23m/s | -52.9°C | 0.5% | 41.1hPa | 2.5V | 08:23:22 | 02:24:30 | 00:00:00 | |
| DF8AY | 2026-09-04 01:02:19 | 51.61942 | 15.45693 | 88° | 2km/h | 22382m | -25.8m/s | -52.3°C | 0.3% | 40.3hPa | 2.5V | 08:24:13 | 02:24:25 | 00:00:00 | |
| AA1-15 | 2026-09-04 01:02:16 | 51.61941 | 15.45694 | 155° | 4km/h | 22356m | -26.7m/s | -52.3°C | 0.3% | 40.5hPa | 2.5V | 08:24:13 | 02:24:26 | 00:00:00 | |
| BIOWL1-15 | 2026-09-04 01:02:10 | 51.61934 | 15.45673 | 60° | 20km/h | 22513m | -24.6m/s | -52.1°C | 0.2% | 39.5hPa | 2.5V | 08:24:13 | 02:24:20 | 00:00:00 | |
| AA1-15 | 2026-09-04 01:02:05 | 51.61922 | 15.45624 | 75° | 29km/h | 22649m | -26m/s | -52.2°C | 0.3% | 38.8hPa | 2.5V | 08:24:13 | 02:24:15 | 00:00:00 | |
| BIOWL1-15 | 2026-09-04 01:01:59 | 51.61928 | 15.45540 | 118° | 22km/h | 22877m | -29.4m/s | -52.5°C | 0.2% | 37.4hPa | 2.6V | 08:24:13 | 02:24:07 | 00:00:00 | |
| AA1-15 | 2026-09-04 01:01:55 | 51.61933 | 15.45524 | 121° | 20km/h | 22934m | -27.9m/s | -52.4°C | 0.3% | 37hPa | 2.5V | 08:24:13 | 02:24:05 | 00:00:00 | |
| KRY50SP-1 | 2026-09-04 01:01:54 | 51.61933 | 15.45524 | 122° | 20km/h | 22934m | -27.9m/s | -52.4°C | 0.9% | 37.1hPa | 2.6V | 08:24:00 | 00:00:00 | 00:00:00 | |
| DM0DOS-11 | 2026-09-04 01:01:53 | 51.61943 | 15.45508 | 148° | 15km/h | 23016m | -27.8m/s | -52.8°C | 3.6% | 36.6hPa | 2.6V | 08:23:50 | 02:24:02 | 00:00:00 | |
| BIOWL1-15 | 2026-09-04 01:01:47 | 51.61959 | 15.45501 | 156° | 11km/h | 23153m | -26.8m/s | -53.3°C | 0.4% | 35.8hPa | 2.6V | 08:24:13 | 02:23:57 | 00:00:00 | |
| HSKMA3-T | 2026-09-04 01:01:45 | 51.61963 | 15.45497 | 142° | 9km/h | 23207m | -26.3m/s | -53.5°C | 0.5% | 35.5hPa | 2.5V | 08:24:13 | 02:23:55 | 00:00:00 | |
| AA1-15 | 2026-09-04 01:01:44 | 51.61965 | 15.45495 | 139° | 9km/h | 23233m | -26.8m/s | -53.7°C | 0.5% | 35.4hPa | 2.5V | 08:24:13 | 02:23:54 | 00:00:00 | |
| DM0DOS-11 | 2026-09-04 01:01:43 | 51.61968 | 15.45489 | 121° | 9km/h | 23284m | -23.8m/s | -53.9°C | 4% | 35.1hPa | 2.6V | 08:24:00 | 02:23:52 | 00:00:00 | |
| BIOWL1-15 | 2026-09-04 01:01:36 | 51.61977 | 15.45470 | 125° | 13km/h | 23428m | -25.1m/s | -54.1°C | 0.6% | 34.3hPa | 2.5V | 08:24:13 | 02:23:46 | 00:00:00 | |
| HSKMA3-T | 2026-09-04 01:01:34 | 51.61981 | 15.45462 | 120° | 13km/h | 23481m | -25.9m/s | -53.9°C | 0.6% | 34.1hPa | 2.5V | 08:24:13 | 02:23:44 | 00:00:00 | |
| DF8AY | 2026-09-04 01:01:33 | 51.61991 | 15.45422 | 113° | 22km/h | 23628m | -23.6m/s | -53.2°C | 0.5% | 33.2hPa | 2.6V | 08:25:04 | 02:23:38 | 00:00:00 | |
| AA1-15 | 2026-09-04 01:01:33 | 51.61982 | 15.45456 | 114° | 15km/h | 23506m | -23.8m/s | -53.8°C | 0.6% | 33.9hPa | 2.6V | 08:24:13 | 02:23:43 | 00:00:00 | |
| BIOWL1-15 | 2026-09-04 01:01:26 | 51.61999 | 15.45397 | 120° | 22km/h | 23700m | -24.4m/s | -53.2°C | 0.5% | 32.9hPa | 2.5V | 08:25:04 | 02:23:35 | 00:00:00 | |
| HSKMA3-T | 2026-09-04 01:01:24 | 51.62002 | 15.45389 | 122° | 22km/h | 23724m | -23.9m/s | -53.2°C | 0.5% | 32.7hPa | 2.5V | 08:25:04 | 02:23:34 | 00:00:00 | |
| AA1-15 | 2026-09-04 01:01:23 | 51.62005 | 15.45382 | 125° | 20km/h | 23749m | -25.5m/s | -53.1°C | 0.5% | 32.6hPa | 2.6V | 08:25:55 | 02:23:33 | 00:00:00 | |
| DF8AY | 2026-09-04 01:01:17 | 51.62024 | 15.45350 | 137° | 18km/h | 23894m | -23.8m/s | -53°C | 0.5% | 31.9hPa | 2.6V | 08:25:04 | 02:23:27 | 00:00:00 | |
| HSKMA3-T | 2026-09-04 01:01:13 | 51.62039 | 15.45329 | 139° | 24km/h | 24000m | -25.6m/s | -52.5°C | 0.4% | 31.4hPa | 2.5V | 08:25:04 | 02:23:23 | 00:00:00 | |
| AA1-15 | 2026-09-04 01:01:12 | 51.62043 | 15.45322 | 141° | 26km/h | 24024m | -23m/s | -52.5°C | 0.4% | 31.2hPa | 2.5V | 08:25:55 | 02:23:22 | 00:00:00 | |
| DF8AY | 2026-09-04 01:01:07 | 51.62072 | 15.45289 | 148° | 31km/h | 24136m | -24.8m/s | -52.2°C | 0.4% | 30.7hPa | 2.5V | 08:25:04 | 02:23:17 | 00:00:00 | |
| HSKMA3-T | 2026-09-04 01:01:03 | 51.62100 | 15.45271 | 167° | 29km/h | 24240m | -26.2m/s | -52.1°C | 0.4% | 30.3hPa | 2.5V | 08:25:04 | 02:23:13 | 00:00:00 | |
| AA1-15 | 2026-09-04 01:01:02 | 51.62107 | 15.45270 | 173° | 27km/h | 24266m | -25.2m/s | -52.1°C | 0.4% | 30.1hPa | 2.5V | 08:25:55 | 02:23:12 | 00:00:00 | |
| DF8AY | 2026-09-04 01:00:56 | 51.62138 | 15.45272 | 197° | 11km/h | 24408m | -24.5m/s | -51.8°C | 0.3% | 29.5hPa | 2.6V | 08:25:04 | 02:23:06 | 00:00:00 | |
| HSKMA3-T | 2026-09-04 01:00:52 | 51.62146 | 15.45274 | 183° | 7km/h | 24509m | -25.8m/s | -51.7°C | 0.3% | 29hPa | 2.5V | 08:25:04 | 02:23:02 | 00:00:00 | |
| DF8AY | 2026-09-04 01:00:46 | 51.62161 | 15.45275 | 194° | 13km/h | 24640m | -22.6m/s | -51.4°C | 0.3% | 28.4hPa | 2.5V | 08:25:04 | 02:22:56 | 00:00:00 | |
| SP3WXH-11 | 2026-09-04 01:00:45 | 51.62164 | 15.45277 | 200° | 11km/h | 24664m | -23.8m/s | -51.3°C | 0.9% | 28.3hPa | 2.5V | 00:00:00 | 00:00:00 | 00:00:00 | |
| SQ6EMJ | 2026-09-04 01:00:44 | 51.62167 | 15.45278 | 190° | 13km/h | 24688m | -24.9m/s | -51.2°C | 0.8% | 28.2hPa | 2.5V | 08:25:00 | 00:00:00 | 00:00:00 | |
| DM0DOS-11 | 2026-09-04 01:00:42 | 51.62174 | 15.45280 | 168° | 5km/h | 24767m | -26.6m/s | -51.1°C | 3.6% | 27.9hPa | 2.5V | 08:25:01 | 02:22:51 | 00:00:00 | |
| HSKMA3-T | 2026-09-04 01:00:42 | 51.62172 | 15.45280 | 189° | 9km/h | 24740m | -26.1m/s | -51.1°C | 0.3% | 28hPa | 2.5V | 08:25:04 | 02:22:52 | 00:00:00 | |
| DF8AY | 2026-09-04 01:00:36 | 51.62178 | 15.45267 | 107° | 13km/h | 24895m | -26.4m/s | -50.9°C | 0.2% | 27.3hPa | 2.6V | 08:25:55 | 02:22:46 | 00:00:00 | |
| DO2SHX-10 | 2026-09-04 01:00:36 | 51.62178 | 15.45267 | 107° | 13km/h | 24895m | -26.3m/s | -50.8°C | 3.5% | 27.3hPa | 2.6V | 08:25:00 | 02:22:46 | 00:00:00 | |
| DM0DOS-11 | 2026-09-04 01:00:32 | 51.62191 | 15.45245 | 153° | 18km/h | 25018m | -21.4m/s | -51°C | 3.7% | 26.8hPa | 2.6V | 08:30:00 | 02:22:41 | 00:00:00 | |
| HSKMA3-T | 2026-09-04 01:00:32 | 51.62187 | 15.45249 | 147° | 18km/h | 24996m | -22.6m/s | -51°C | 0.3% | 26.9hPa | 2.6V | 08:25:55 | 02:22:42 | 00:00:00 | |
| BIOWL1-15 | 2026-09-04 01:00:31 | 51.62191 | 15.45245 | 154° | 18km/h | 25018m | -21.4m/s | -51.1°C | 0.3% | 26.8hPa | 2.6V | 08:25:55 | 02:22:41 | 00:00:00 | |
| DF8AY | 2026-09-04 01:00:25 | 51.62213 | 15.45246 | 220° | 13km/h | 25169m | -26.8m/s | -50.4°C | 0.3% | 26.2hPa | 2.6V | 08:25:55 | 02:22:35 | 00:00:00 | |
| DO2SHX-10 | 2026-09-04 01:00:25 | 51.62213 | 15.45246 | 221° | 13km/h | 25169m | -26.7m/s | -50.3°C | 3.5% | 26.1hPa | 2.5V | 00:00:00 | 02:22:35 | 00:00:00 | |
| BIOWL9-15 | 2026-09-04 01:00:24 | 51.62216 | 15.45254 | 264° | 11km/h | 25222m | -27.5m/s | -49.9°C | 0.8% | 26.0hPa | 2.5V | 00:00:00 | 00:00:00 | 00:00:00 | |
| DM0DOS-11 | 2026-09-04 01:00:22 | 51.62208 | 15.45277 | 327° | 15km/h | 25363m | -28.2m/s | -50°C | 3.5% | 25.4hPa | 2.5V | 08:30:00 | 02:22:28 | 00:00:00 | |
| HSKMA3-T | 2026-09-04 01:00:21 | 51.62215 | 15.45264 | 299° | 13km/h | 25278m | -30.5m/s | -49.6°C | 0.1% | 25.8hPa | 2.5V | 08:25:55 | 02:22:31 | 00:00:00 | |
| BIOWL1-15 | 2026-09-04 01:00:18 | 51.62208 | 15.45277 | 328° | 16km/h | 25363m | -28.2m/s | -50°C | 0.2% | 25.4hPa | 2.5V | 08:25:55 | 02:22:28 | 00:00:00 | |
| DF8AY | 2026-09-04 01:00:15 | 51.62197 | 15.45279 | 20° | 13km/h | 25450m | -30.5m/s | -50.3°C | 0.3% | 25.1hPa | 2.6V | 08:25:55 | 02:22:25 | 00:00:00 | |
| HSKMA3-T | 2026-09-04 01:00:11 | 51.62190 | 15.45264 | 82° | 16km/h | 25568m | -27.9m/s | -49.9°C | 0.3% | 24.7hPa | 2.5V | 08:25:55 | 02:22:21 | 00:00:00 | |
| BIOWL1-15 | 2026-09-04 01:00:07 | 51.62194 | 15.45238 | 113° | 16km/h | 25677m | -25.6m/s | -49.4°C | 0.2% | 24.2hPa | 2.5V | 08:25:55 | 02:22:17 | 00:00:00 | |
| DM0DOS-11 | 2026-09-04 01:00:06 | 51.62203 | 15.45218 | 133° | 15km/h | 25778m | -24.3m/s | -48.4°C | 3.1% | 23.8hPa | 2.5V | 08:30:00 | 02:22:13 | 00:00:00 | |
| DF8AY | 2026-09-04 01:00:05 | 51.62198 | 15.45227 | 124° | 15km/h | 25730m | -25.5m/s | -48.7°C | 0% | 24hPa | 2.6V | 08:25:55 | 02:22:15 | 00:00:00 | |
| HSKMA3-T | 2026-09-04 01:00:01 | 51.62209 | 15.45211 | 158° | 16km/h | 25828m | -26.4m/s | -48.5°C | 0% | 23.6hPa | 2.6V | 08:25:55 | 02:22:11 | 00:00:00 | |
| BIOWL1-15 | 2026-09-04 00:59:59 | 51.62220 | 15.45205 | 191° | 9km/h | 25929m | -27.6m/s | -48.1°C | 0% | 23.3hPa | 2.5V | 08:25:55 | 02:22:07 | 00:00:00 | |
| DB6KT-10 | 2026-09-04 00:59:58 | 51.62214 | 15.45206 | 163° | 13km/h | 25878m | -25.4m/s | -48.4°C | 0.7% | 23.5hPa | 2.5V | 00:00:00 | 00:00:00 | 00:00:00 | |
| DM0DOS-11 | 2026-09-04 00:59:56 | 51.62225 | 15.45215 | 260° | 4km/h | 26101m | -29.3m/s | -47.6°C | 2.8% | 22.7hPa | 2.5V | 08:30:00 | 02:22:01 | 00:00:00 | |
| AA1-15 | 2026-09-04 00:59:54 | 51.62224 | 15.45210 | 235° | 5km/h | 26014m | -27.9m/s | -47.9°C | 0% | 23hPa | 2.6V | 08:25:55 | 02:22:04 | 00:00:00 | |
| HSKMA3-T | 2026-09-04 00:59:50 | 51.62225 | 15.45217 | 270° | 4km/h | 26130m | -30.7m/s | -47.6°C | 0% | 22.6hPa | 2.5V | 08:25:55 | 02:22:00 | 00:00:00 | |
| EDDB2-11 | 2026-09-04 00:59:48 | 51.62225 | 15.45218 | 92° | 0km/h | 26187m | -28.3m/s | -47.7°C | 0.6% | 22.4hPa | 2.5V | 00:00:00 | 00:00:00 | 00:00:00 | |
| BIOWL1-15 | 2026-09-04 00:59:47 | 51.62242 | 15.45181 | 149° | 20km/h | 26414m | -30.5m/s | -48.3°C | 0% | 21.7hPa | 2.5V | 08:26:46 | 02:21:50 | 00:00:00 | |
| AA1-15 | 2026-09-04 00:59:44 | 51.62229 | 15.45205 | 117° | 16km/h | 26299m | -28.5m/s | -47.8°C | 0% | 22hPa | 2.6V | 08:26:46 | 02:21:54 | 00:00:00 | |
| DL1XH-west | 2026-09-04 00:59:43 | 51.62232 | 15.45198 | 123° | 20km/h | 26327m | -28.4m/s | -47.9°C | 0% | 21.9hPa | 2.6V | 08:26:46 | 02:21:53 | 00:00:00 | |
| HSKMA3-T | 2026-09-04 00:59:39 | 51.62246 | 15.45178 | 161° | 18km/h | 26445m | -29.6m/s | -48.4°C | 0% | 21.6hPa | 2.6V | 08:26:46 | 02:21:49 | 00:00:00 | |
| PG1ADW-2 | 2026-09-04 00:59:38 | 51.62250 | 15.45177 | 172° | 11km/h | 26474m | -27.3m/s | -48.4°C | 3.1% | 21.4hPa | 2.5V | 00:00:00 | 00:00:00 | 00:00:00 | |
| DB6KT-10 | 2026-09-04 00:59:37 | 51.62250 | 15.45177 | 172° | 16km/h | 26474m | -27.3m/s | -48.4°C | 0.8% | 21.5hPa | 2.5V | 00:00:00 | 00:00:00 | 00:00:00 | |
| DL1XH1-15 | 2026-09-04 00:59:35 | 51.62263 | 15.45183 | 211° | 20km/h | 26551m | -24.6m/s | -48.5°C | 3.2% | 21.2hPa | 2.5V | 08:30:00 | 02:21:45 | 00:00:00 | |
| AA1-15 | 2026-09-04 00:59:34 | 51.62267 | 15.45187 | 218° | 18km/h | 26576m | -21.9m/s | -48.6°C | 0% | 21.1hPa | 2.6V | 08:26:46 | 02:21:44 | 00:00:00 | |
| DL1XH-west | 2026-09-04 00:59:32 | 51.62271 | 15.45196 | 246° | 9km/h | 26627m | -24.7m/s | -48.8°C | 0.1% | 21hPa | 2.5V | 08:26:46 | 02:21:42 | 00:00:00 | |
| BIOWL1-15 | 2026-09-04 00:59:31 | 51.62273 | 15.45202 | 248° | 7km/h | 26681m | -29.2m/s | -48.9°C | 0% | 20.8hPa | 2.6V | 08:26:46 | 02:21:40 | 00:00:00 | |
| HSKMA3-T | 2026-09-04 00:59:29 | 51.62274 | 15.45205 | 258° | 5km/h | 26711m | -31.5m/s | -48.9°C | 0.1% | 20.7hPa | 2.6V | 08:26:46 | 02:21:39 | 00:00:00 | |
| AA1-15 | 2026-09-04 00:59:23 | 51.62275 | 15.45207 | 162° | 5km/h | 26896m | -31.9m/s | -48.2°C | 0% | 20.1hPa | 2.6V | 08:26:46 | 02:21:33 | 00:00:00 | |
| DL1XH-west | 2026-09-04 00:59:22 | 51.62276 | 15.45206 | 110° | 5km/h | 26928m | -31m/s | -47.9°C | 0% | 20hPa | 2.6V | 08:26:46 | 02:21:32 | 00:00:00 | |
| BIOWL1-15 | 2026-09-04 00:59:19 | 51.62282 | 15.45181 | 102° | 16km/h | 27091m | -29.8m/s | -48°C | 0% | 19.5hPa | 2.6V | 08:26:46 | 02:21:27 | 00:00:00 | |
| HSKMA3-T | 2026-09-04 00:59:18 | 51.62281 | 15.45187 | 106° | 16km/h | 27060m | -32.2m/s | -47.9°C | 0% | 19.6hPa | 2.6V | 08:26:46 | 02:21:28 | 00:00:00 | |
| DL1XH-west | 2026-09-04 00:59:12 | 51.62294 | 15.45146 | 132° | 22km/h | 27238m | -29.3m/s | -47.9°C | 0% | 19.1hPa | 2.6V | 08:26:46 | 02:21:22 | 00:00:00 | |
| HSKMA3-T | 2026-09-04 00:59:07 | 51.62315 | 15.45118 | 141° | 16km/h | 27396m | -33.6m/s | -47.6°C | 0% | 18.6hPa | 2.6V | 08:26:46 | 02:21:17 | 00:00:00 | |
| BIOWL1-15 | 2026-09-04 00:59:04 | 51.62321 | 15.45112 | 163° | 5km/h | 27488m | -30.1m/s | -47.9°C | 0% | 18.4hPa | 2.6V | 08:26:46 | 02:21:14 | 00:00:00 | |
| DL1XH-west | 2026-09-04 00:59:01 | 51.62322 | 15.45115 | 273° | 7km/h | 27579m | -29.8m/s | -47.9°C | 0% | 18.1hPa | 2.5V | 08:26:46 | 02:21:11 | 00:00:00 | |
| DF8AY | 2026-09-04 00:59:00 | 51.62322 | 15.45119 | 257° | 7km/h | 27609m | -31.7m/s | -48°C | 0% | 18hPa | 2.5V | 08:26:46 | 02:21:10 | 00:00:00 | |
| HSKMA3-T | 2026-09-04 00:58:56 | 51.62324 | 15.45127 | 216° | 9km/h | 27729m | -27.4m/s | -48.2°C | 0% | 17.7hPa | 2.6V | 08:26:46 | 02:21:06 | 00:00:00 | |
| AA1-15 | 2026-09-04 00:58:50 | 51.62325 | 15.45113 | 89° | 13km/h | 27915m | -28.3m/s | -47.8°C | 0% | 17.2hPa | 2.6V | 08:27:37 | 02:21:00 | 00:00:00 | |
| HSKMA3-T | 2026-09-04 00:58:46 | 51.62328 | 15.45088 | 116° | 18km/h | 28037m | -29.1m/s | -48°C | 0.1% | 16.9hPa | 2.5V | 08:28:28 | 02:20:56 | 00:00:00 | |
| BIOWL1-15 | 2026-09-04 00:58:42 | 51.62341 | 15.45059 | 137° | 24km/h | 28161m | -31.7m/s | -48.1°C | 0.1% | 0hPa | 2.6V | 08:27:37 | 02:20:52 | 00:00:00 | |
| AA1-15 | 2026-09-04 00:58:40 | 51.62349 | 15.45047 | 141° | 22km/h | 28221m | -30.4m/s | -47.9°C | 0.1% | 16.4hPa | 2.5V | 08:27:37 | 02:20:50 | 00:00:00 | |
| DL1XH-west | 2026-09-04 00:58:39 | 51.62354 | 15.45042 | 146° | 20km/h | 28252m | -30.9m/s | -47.6°C | 0% | 16.4hPa | 2.5V | 08:27:37 | 02:20:49 | 00:00:00 | |
| HSKMA3-T | 2026-09-04 00:58:35 | 51.62368 | 15.45029 | 158° | 13km/h | 28380m | -32.5m/s | -47°C | 0% | 16.1hPa | 2.6V | 08:28:28 | 02:20:45 | 00:00:00 | |
| BIOWL1-15 | 2026-09-04 00:58:31 | 51.62379 | 15.45029 | 225° | 5km/h | 28541m | -31.3m/s | -46.3°C | 0% | 0hPa | 2.6V | 08:27:37 | 02:20:40 | 00:00:00 | |
| AA1-15 | 2026-09-04 00:58:29 | 51.62380 | 15.45031 | 263° | 5km/h | 28573m | -32.4m/s | -46.3°C | 0% | 15.6hPa | 2.6V | 08:27:37 | 02:20:39 | 00:00:00 | |
| DL1XH-west | 2026-09-04 00:58:28 | 51.62380 | 15.45033 | 281° | 7km/h | 28604m | -29.2m/s | -46.3°C | 0% | 15.5hPa | 2.6V | 08:27:37 | 02:20:38 | 00:00:00 | |
| HSKMA3-T | 2026-09-04 00:58:25 | 51.62376 | 15.45042 | 320° | 11km/h | 28693m | -27.3m/s | -46.7°C | 0% | 15.3hPa | 2.5V | 08:28:28 | 02:20:35 | 00:00:00 | |
| DF8AY | 2026-09-04 00:58:24 | 51.62370 | 15.45045 | 348° | 15km/h | 28751m | -31.5m/s | -46.8°C | 0% | 15.1hPa | 2.6V | 08:27:37 | 02:20:33 | 00:00:00 | |
| BIOWL1-15 | 2026-09-04 00:58:20 | 51.62357 | 15.45044 | 17° | 18km/h | 28840m | -31.2m/s | -46.9°C | 0% | 0hPa | 2.5V | 08:27:37 | 02:20:30 | 00:00:00 | |
| DO2SHX-10 | 2026-09-04 00:58:20 | 51.62357 | 15.45044 | 17° | 18km/h | 28841m | -31.2m/s | -46.9°C | 3.0% | 14.9hPa | 2.5V | 00:00:00 | 02:20:30 | 00:00:00 | |
| DL1XH1-15 | 2026-09-04 00:58:19 | 51.62346 | 15.45032 | 47° | 16km/h | 28932m | -31m/s | -47.1°C | 3.1% | 14.7hPa | 2.5V | 08:30:00 | 02:20:27 | 00:00:00 | |
| AA1-15 | 2026-09-04 00:58:19 | 51.62353 | 15.45041 | 27° | 18km/h | 28871m | -30.9m/s | -46.9°C | 0% | 14.9hPa | 2.5V | 08:27:37 | 02:20:29 | 00:00:00 | |
| DL1XH-west | 2026-09-04 00:58:18 | 51.62349 | 15.45037 | 39° | 16km/h | 28901m | -30.4m/s | -46.9°C | 0% | 14.8hPa | 2.5V | 08:27:37 | 02:20:28 | 00:00:00 | |
| DF8AY | 2026-09-04 00:58:14 | 51.62341 | 15.45002 | 111° | 18km/h | 29090m | -34.1m/s | -46.9°C | 0.1% | 14.4hPa | 2.5V | 08:27:37 | 02:20:22 | 00:00:00 | |
| BIOWL1-15 | 2026-09-04 00:58:09 | 51.62382 | 15.44955 | 167° | 22km/h | 29400m | -31.3m/s | -45.4°C | 0% | 0hPa | 2.5V | 08:28:28 | 02:20:13 | 00:00:00 | |
| AA1-15 | 2026-09-04 00:58:09 | 51.62350 | 15.44982 | 135° | 24km/h | 29196m | -35.9m/s | -46.8°C | 0% | 14.1hPa | 2.6V | 08:27:37 | 02:20:19 | 00:00:00 | |
| DL1XH-west | 2026-09-04 00:58:07 | 51.62359 | 15.44970 | 143° | 26km/h | 29265m | -33.3m/s | -46.4°C | 0% | 14hPa | 2.6V | 08:27:37 | 02:20:17 | 00:00:00 | |
| DF8AY | 2026-09-04 00:58:06 | 51.62376 | 15.44957 | 164° | 24km/h | 29368m | -32.7m/s | -45.5°C | 0% | 13.8hPa | 2.5V | 08:28:28 | 02:20:14 | 00:00:00 | |
| AA1-15 | 2026-09-04 00:57:59 | 51.62398 | 15.44951 | 169° | 9km/h | 29532m | -33.1m/s | -45.1°C | 0% | 13.4hPa | 2.5V | 08:28:28 | 02:20:09 | 00:00:00 | |
| DL1XH-west | 2026-09-04 00:57:57 | 51.62401 | 15.44949 | 138° | 5km/h | 29600m | -34.1m/s | -45.1°C | 0% | 13.3hPa | 2.5V | 08:28:28 | 02:20:07 | 00:00:00 | |
| BIOWL1-15 | 2026-09-04 00:57:54 | 51.62403 | 15.44941 | 104° | 11km/h | 29694m | -33.1m/s | -44.7°C | 0% | 0hPa | 2.6V | 08:28:28 | 02:20:04 | 00:00:00 | |
| DF8AY | 2026-09-04 00:57:54 | 51.62405 | 15.44916 | 96° | 15km/h | 29871m | -39.1m/s | -44°C | 0% | 12.8hPa | 2.5V | 08:28:28 | 02:19:59 | 00:00:00 | |
| HSKMA3-T | 2026-09-04 00:57:53 | 51.62404 | 15.44937 | 96° | 11km/h | 29728m | -33.4m/s | -44.6°C | 0% | 13.1hPa | 2.6V | 08:28:28 | 02:20:03 | 00:00:00 | |
| AA1-15 | 2026-09-04 00:57:48 | 51.62405 | 15.44910 | 91° | 15km/h | 29910m | -38.2m/s | -43.9°C | 0% | 12.7hPa | 2.6V | 08:28:28 | 02:19:58 | 00:00:00 | |
| DL1XH-west | 2026-09-04 00:57:46 | 51.62405 | 15.44899 | 91° | 13km/h | 29987m | -38.3m/s | -43.7°C | 0% | 12.6hPa | 2.6V | 08:28:28 | 02:19:56 | 00:00:00 | |
| HSKMA3-T | 2026-09-04 00:57:42 | 51.62402 | 15.44884 | 49° | 7km/h | 30136m | -36.1m/s | -43.3°C | 0% | 12.3hPa | 2.5V | 08:28:28 | 02:19:52 | 00:00:00 | |
| AA1-15 | 2026-09-04 00:57:37 | 51.62394 | 15.44878 | 24° | 7km/h | 30319m | -34m/s | -43.3°C | 0% | 11.9hPa | 2.5V | 08:28:28 | 02:19:47 | 00:00:00 | |
| DF8AY | 2026-09-04 00:57:36 | 51.62393 | 15.44876 | 17° | 7km/h | 30353m | -32.9m/s | -43.4°C | 0% | 11.9hPa | 2.5V | 08:28:28 | 02:19:46 | 00:00:00 | |
| DL1XH-west | 2026-09-04 00:57:35 | 51.62391 | 15.44875 | 33° | 11km/h | 30386m | -33m/s | -43.4°C | 0% | 11.8hPa | 2.5V | 08:28:28 | 02:19:45 | 00:00:00 | |
| BIOWL1-15 | 2026-09-04 00:57:33 | 51.62377 | 15.44850 | 56° | 20km/h | 30557m | -35.4m/s | -43°C | 0% | 0hPa | 2.5V | 08:28:28 | 02:19:40 | 00:00:00 | |
| HSKMA3-T | 2026-09-04 00:57:31 | 51.62380 | 15.44857 | 54° | 20km/h | 30521m | -35.7m/s | -43.1°C | 0% | 11.6hPa | 2.5V | 08:28:28 | 02:19:41 | 00:00:00 | |
| AA1-15 | 2026-09-04 00:57:26 | 51.62367 | 15.44819 | 63° | 22km/h | 30692m | -30.1m/s | -43.2°C | 0% | 11.3hPa | 2.6V | 08:28:28 | 02:19:36 | 00:00:00 | |
| DF8AY | 2026-09-04 00:57:25 | 51.62364 | 15.44811 | 67° | 22km/h | 30723m | -32.3m/s | -43.2°C | 0% | 11.2hPa | 2.6V | 08:28:28 | 02:19:35 | 00:00:00 | |
| DL1XH-west | 2026-09-04 00:57:24 | 51.62362 | 15.44803 | 67° | 24km/h | 30756m | -33m/s | -43.3°C | 0% | 11.2hPa | 2.5V | 08:28:28 | 02:19:34 | 00:00:00 | |
| HSKMA3-T | 2026-09-04 00:57:21 | 51.62354 | 15.44773 | 67° | 27km/h | 30859m | -31.2m/s | -43.4°C | 0% | 11hPa | 2.5V | 08:28:28 | 02:19:31 | 00:00:00 | |
| KRY50SP-1 | 2026-09-04 00:57:20 | 51.62354 | 15.44773 | 68° | 27km/h | 30859m | -31.2m/s | -43.4°C | 0.6% | 11.0hPa | 2.5V | 08:28:00 | 00:00:00 | 00:00:00 | |
| DL1XH1-15 | 2026-09-04 00:57:19 | 51.62346 | 15.44723 | 90° | 24km/h | 31012m | -31.9m/s | -42.9°C | 2.7% | 10.8hPa | 2.5V | 08:30:00 | 02:19:26 | 00:00:00 | |
| AA1-15 | 2026-09-04 00:57:15 | 51.62346 | 15.44714 | 90° | 24km/h | 31047m | -36.4m/s | -42.6°C | 0% | 10.7hPa | 2.5V | 08:28:28 | 02:19:25 | 00:00:00 | |
| DL1XH-west | 2026-09-04 00:57:14 | 51.62346 | 15.44704 | 89° | 24km/h | 31084m | -37.6m/s | 0°C | 0% | 10.6hPa | 2.5V | 08:28:28 | 02:19:24 | 00:00:00 | |
| HSKMA3-T | 2026-09-04 00:57:10 | 51.62343 | 15.44660 | 83° | 29km/h | 31237m | -33.8m/s | -42°C | 0% | 10.4hPa | 2.5V | 08:29:19 | 02:19:20 | 00:00:00 | |
| AA1-15 | 2026-09-04 00:57:05 | 51.62344 | 15.44599 | 106° | 31km/h | 31418m | -34.9m/s | -41°C | 0% | 10.2hPa | 2.6V | 08:29:19 | 02:19:15 | 00:00:00 | |
| DL1XH-west | 2026-09-04 00:57:04 | 51.62346 | 15.44588 | 115° | 31km/h | 31454m | -36.7m/s | 0°C | 0% | 0hPa | 2.6V | 08:29:19 | 02:19:14 | 00:00:00 | |
| HSKMA3-T | 2026-09-04 00:57:00 | 51.62365 | 15.44546 | 137° | 29km/h | 31603m | -34.4m/s | -39.8°C | 0% | 9.8hPa | 2.5V | 08:29:19 | 02:19:10 | 00:00:00 | |
| AA1-15 | 2026-09-04 00:56:55 | 51.62389 | 15.44518 | 146° | 15km/h | 31773m | -30.7m/s | -39.5°C | 0% | 9.6hPa | 2.5V | 08:29:19 | 02:19:05 | 00:00:00 | |
| DF8AY | 2026-09-04 00:56:54 | 51.62392 | 15.44516 | 157° | 15km/h | 31803m | -29.8m/s | -39.4°C | 0% | 9.5hPa | 2.5V | 08:29:19 | 02:19:04 | 00:00:00 | |
| DL1XH-west | 2026-09-04 00:56:53 | 51.62395 | 15.44514 | 154° | 11km/h | 31831m | -25.3m/s | 0°C | 0% | 0hPa | 2.5V | 08:29:19 | 02:19:03 | 00:00:00 | |
| S3001 | 2026-09-04 00:56:48 | 51.62415 | 15.44508 | 169° | 16km/h | 32000m | -42.3m/s | -38.7°C | 0.4% | 9.3hPa | 2.6V | 00:00:00 | 00:00:00 | 00:00:00 | |
| BIOWL9-15 | 2026-09-04 00:56:47 | 51.62420 | 15.44507 | 169° | 15km/h | 32041m | -41.2m/s | -38.6°C | 0.4% | 9.2hPa | 2.6V | 00:00:00 | 00:00:00 | 00:00:00 | |
| AA1-15 | 2026-09-04 00:56:44 | 51.62430 | 15.44502 | 143° | 9km/h | 32167m | -46.4m/s | -38.3°C | 0% | 9.1hPa | 2.6V | 08:29:19 | 02:18:54 | 00:00:00 | |
| DF8AY | 2026-09-04 00:56:43 | 51.62431 | 15.44500 | 141° | 9km/h | 32214m | -47.1m/s | -38.3°C | 0% | 9hPa | 2.6V | 08:29:19 | 02:18:53 | 00:00:00 | |
| BIOWL1-15 | 2026-09-04 00:56:42 | 51.62438 | 15.44495 | 168° | 9km/h | 32355m | -44.6m/s | -38.5°C | 0% | 0hPa | 2.5V | 08:29:19 | 02:18:50 | 00:00:00 | |
| DL1XH-west | 2026-09-04 00:56:41 | 51.62436 | 15.44496 | 152° | 9km/h | 32310m | -45.3m/s | 0°C | 0% | 0hPa | 2.5V | 08:29:19 | 02:18:51 | 00:00:00 | |
| AA1-15 | 2026-09-04 00:56:34 | 51.62446 | 15.44495 | 53° | 5km/h | 32612m | -44.7m/s | -39.7°C | 0% | 8.5hPa | 2.5V | 08:29:19 | 02:18:44 | 00:00:00 | |
| HSKMA3-T | 2026-09-04 00:56:32 | 51.62442 | 15.44490 | 39° | 15km/h | 32697m | -43.8m/s | -39.7°C | 0% | 8.4hPa | 2.6V | 08:29:19 | 02:18:42 | 00:00:00 | |
| DL1XH-west | 2026-09-04 00:56:30 | 51.62436 | 15.44484 | 37° | 18km/h | 32786m | -46.6m/s | 0°C | 0% | 0hPa | 2.5V | 08:29:19 | 02:18:40 | 00:00:00 | |
| BIOWL1-15 | 2026-09-04 00:56:29 | 51.62428 | 15.44475 | 37° | 20km/h | 32879m | -46.3m/s | 0°C | 0% | 0hPa | 2.5V | 08:29:19 | 02:18:38 | 00:00:00 | |
| AA1-15 | 2026-09-04 00:56:23 | 51.62418 | 15.44454 | 65° | 7km/h | 33110m | -48.5m/s | -38.3°C | 0% | 7.9hPa | 2.5V | 08:29:19 | 02:18:33 | 00:00:00 | |
| HSKMA3-T | 2026-09-04 00:56:22 | 51.62417 | 15.44452 | 55° | 9km/h | 33160m | -50.2m/s | -38.2°C | 0% | 7.8hPa | 2.6V | 18:12:15 | 02:18:32 | 00:00:00 | |
| DL1XH-west | 2026-09-04 00:56:20 | 51.62414 | 15.44447 | 38° | 11km/h | 33261m | -49.8m/s | 0°C | 0% | 0hPa | 2.5V | 18:12:15 | 02:18:30 | 00:00:00 | |
| AA1-15 | 2026-09-04 00:56:13 | 51.62391 | 15.44423 | 42° | 16km/h | 33589m | -44.3m/s | -38.4°C | 0% | 7.3hPa | 2.5V | 18:12:15 | 02:18:23 | 00:00:00 | |
| DF8AY | 2026-09-04 00:56:11 | 51.62386 | 15.44412 | 68° | 16km/h | 33676m | -42.7m/s | -38.3°C | 0% | 7.2hPa | 2.6V | 18:12:15 | 02:18:21 | 00:00:00 | |
| BIOWL1-15 | 2026-09-04 00:56:03 | 51.62393 | 15.44344 | 133° | 15km/h | 34275m | -55m/s | 0°C | 0% | 0hPa | 2.6V | 18:12:15 | 02:18:08 | 00:00:00 | |
| AA1-15 | 2026-09-04 00:56:02 | 51.62384 | 15.44358 | 122° | 11km/h | 34068m | -46.4m/s | -35.6°C | 0% | 6.8hPa | 2.5V | 18:12:15 | 02:18:12 | 00:00:00 | |
| DF8AY | 2026-09-04 00:56:00 | 51.62388 | 15.44352 | 143° | 13km/h | 34167m | -53.3m/s | -35.2°C | 0% | 6.8hPa | 2.5V | 18:12:15 | 02:18:10 | 00:00:00 | |
| AA1-15 | 2026-09-04 00:55:52 | 51.62403 | 15.44308 | 97° | 16km/h | 34601m | -52.7m/s | -33.1°C | 0% | 6.3hPa | 2.5V | 18:12:15 | 02:18:02 | 00:00:00 | |
| HSKMA3-T | 2026-09-04 00:55:51 | 51.62404 | 15.44301 | 108° | 18km/h | 34653m | -52.6m/s | -32.9°C | 0% | 6.3hPa | 2.6V | 18:12:15 | 02:18:01 | 00:00:00 | |
| DF8AY | 2026-09-04 00:55:50 | 51.62405 | 15.44294 | 115° | 16km/h | 34704m | -49.5m/s | -32.8°C | 0% | 6.2hPa | 2.6V | 18:12:15 | 02:18:00 | 00:00:00 | |
| S3001 | 2026-09-04 00:55:46 | 51.62418 | 15.44265 | 130° | 26km/h | 34894m | -48.5m/s | -32.5°C | 0.3% | 6.0hPa | 2.6V | 00:00:00 | 00:00:00 | 00:00:00 | |
| BIOWL1-15 | 2026-09-04 00:55:45 | 51.62427 | 15.44240 | 98° | 18km/h | 35036m | -48.2m/s | 0°C | 0% | 0hPa | 2.6V | 18:12:15 | 02:17:53 | 00:00:00 | |
| AA1-15 | 2026-09-04 00:55:41 | 51.62424 | 15.44228 | 42° | 20km/h | 35131m | -45.8m/s | -31.8°C | 0% | 5.8hPa | 2.5V | 18:12:15 | 02:17:51 | 00:00:00 | |
| HSKMA3-T | 2026-09-04 00:55:39 | 51.62412 | 15.44217 | 21° | 31km/h | 35214m | -37.6m/s | -31.3°C | 0% | 5.7hPa | 2.5V | 18:12:15 | 02:17:49 | 00:00:00 | |
| BIOWL1-15 | 2026-09-04 00:55:33 | 51.62360 | 15.44173 | 60° | 35km/h | 35465m | -46.5m/s | 0°C | 0% | 0hPa | 2.5V | 18:12:15 | 02:17:43 | 00:00:00 | |
| AA1-15 | 2026-09-04 00:55:31 | 51.62357 | 15.44148 | 96° | 31km/h | 35550m | -39.7m/s | -30.7°C | 0% | 5.4hPa | 2.6V | 18:12:15 | 02:17:41 | 00:00:00 | |
| HSKMA3-T | 2026-09-04 00:55:29 | 51.62364 | 15.44124 | 129° | 37km/h | 35627m | -37.3m/s | -31°C | 0% | 5.4hPa | 2.5V | 18:12:15 | 02:17:39 | 00:00:00 | |
| DF8AY | 2026-09-04 00:55:29 | 51.62370 | 15.44113 | 137° | 33km/h | 35665m | -39.4m/s | -31°C | 0% | 5.4hPa | 2.5V | 18:12:15 | 02:17:38 | 00:00:00 | |
| DL1XH-west | 2026-09-04 00:55:26 | 51.62378 | 15.44097 | 126° | 20km/h | 35746m | -39.4m/s | 0°C | 0% | 0hPa | 2.6V | 18:12:15 | 02:17:36 | 00:00:00 | |
| DF8AY | 2026-09-04 00:55:23 | 51.62318 | 15.44006 | 85° | 55km/h | 36019m | -56.2m/s | -31.1°C | 0% | 5.1hPa | 2.5V | 18:12:15 | 02:17:28 | 00:00:00 | |
| AA1-15 | 2026-09-04 00:55:21 | 51.62343 | 15.44054 | 26° | 68km/h | 35892m | -23m/s | -31.5°C | 0% | 5.2hPa | 2.6V | 18:12:15 | 02:17:31 | 00:00:00 | |
| HSKMA3-T | 2026-09-04 00:55:19 | 51.62320 | 15.44024 | 78° | 37km/h | 35967m | -47.6m/s | -31°C | 0% | 5.1hPa | 2.5V | 18:12:15 | 02:17:29 | 00:00:00 | |
| DL1XH-west | 2026-09-04 00:55:15 | 51.62318 | 15.43940 | 97° | 42km/h | 36165m | -30.9m/s | 0°C | 0% | 0hPa | 2.6V | 18:12:15 | 02:17:25 | 00:00:00 | |
| AA1-15 | 2026-09-04 00:55:10 | 51.62344 | 15.43892 | 160° | 31km/h | 36206m | 16.6m/s | -31.9°C | 0% | 4.9hPa | 2.5V | 18:12:15 | 02:17:20 | 00:00:00 | |
| HSKMA3-T | 2026-09-04 00:55:08 | 51.62356 | 15.43902 | 238° | 24km/h | 36189m | 2.8m/s | -32°C | 0% | 4.9hPa | 2.5V | 18:12:15 | 02:17:18 | 00:00:00 | |
| DF8AY | 2026-09-04 00:55:07 | 51.62357 | 15.43910 | 300° | 15km/h | 36184m | 2.8m/s | -32°C | 0% | 4.9hPa | 2.5V | 18:12:15 | 02:17:17 | 00:00:00 | |
| DL1XH-west | 2026-09-04 00:55:00 | 51.62315 | 15.43814 | 86° | 60km/h | 36150m | 1.9m/s | 0°C | 0% | 0hPa | 2.5V | 18:12:15 | 02:17:10 | 00:00:00 | |
| AA1-15 | 2026-09-04 00:54:59 | 51.62316 | 15.43794 | 100° | 47km/h | 36147m | 3m/s | -32.1°C | 0% | 5hPa | 2.6V | 18:12:15 | 02:17:09 | 00:00:00 | |
| HSKMA3-T | 2026-09-04 00:54:58 | 51.62319 | 15.43779 | 121° | 35km/h | 36143m | 5.1m/s | -32.1°C | 0% | 5hPa | 2.6V | 18:12:15 | 02:17:08 | 00:00:00 | |
| DF8AY | 2026-09-04 00:54:57 | 51.62325 | 15.43772 | 152° | 26km/h | 36137m | 6.9m/s | -32.1°C | 0% | 5hPa | 2.6V | 18:12:15 | 02:17:07 | 00:00:00 | |
| AA1-15 | 2026-09-04 00:54:49 | 51.62317 | 15.43776 | 63° | 51km/h | 36098m | 7.3m/s | -32°C | 0% | 5hPa | 2.5V | 18:12:15 | 02:16:59 | 00:00:00 | |
| DL1XH-15 | 2026-09-04 00:54:48 | 51.62309 | 15.43705 | 91° | 57km/h | 36083m | 2.7m/s | 0°C | 0% | 0hPa | 2.6V | 00:00:00 | 02:16:56 | 00:00:00 | |
| HSKMA3-T | 2026-09-04 00:54:48 | 51.62312 | 15.43754 | 74° | 62km/h | 36091m | 6m/s | -32°C | 0% | 5hPa | 2.5V | 18:12:15 | 02:16:58 | 00:00:00 | |
| DF8AY | 2026-09-04 00:54:47 | 51.62309 | 15.43729 | 83° | 62km/h | 36086m | 3.8m/s | -32°C | 0% | 5hPa | 2.6V | 18:12:15 | 02:16:57 | 00:00:00 | |
| BIOWL1-15 | 2026-09-04 00:54:46 | 51.62310 | 15.43685 | 101° | 44km/h | 36080m | 3.4m/s | 0°C | 0% | 0hPa | 2.6V | 18:12:15 | 02:16:55 | 00:00:00 | |
| AA1-15 | 2026-09-04 00:54:38 | 51.62317 | 15.43686 | 348° | 13km/h | 36043m | 3.1m/s | -31.9°C | 0% | 5hPa | 2.5V | 18:12:15 | 02:16:48 | 00:00:00 | |
| HSKMA3-T | 2026-09-04 00:54:37 | 51.62314 | 15.43684 | 37° | 18km/h | 36039m | 4.5m/s | -31.9°C | 0% | 5hPa | 2.5V | 18:12:15 | 02:16:47 | 00:00:00 | |
| DF8AY | 2026-09-04 00:54:36 | 51.62310 | 15.43677 | 60° | 31km/h | 36034m | 6.2m/s | -31.9°C | 0% | 5.1hPa | 2.5V | 18:12:15 | 02:16:46 | 00:00:00 | |
| DL1ZP-14 | 2026-09-04 00:54:36 | 51.62307 | 15.43663 | 70° | 42km/h | 36027m | 7.2m/s | -31.9°C | 0.3% | 5.0hPa | 2.6V | 00:00:00 | 00:00:00 | 00:00:00 | |
| PG1ADW-2 | 2026-09-04 00:54:35 | 51.62307 | 15.43663 | 71° | 31km/h | 36027m | 7.2m/s | -31.9°C | 1.5% | 5.0hPa | 2.6V | 00:00:00 | 02:16:45 | 00:00:00 | |
| OE5DRO-10 | 2026-09-04 00:54:34 | 51.62303 | 15.43644 | 78° | 31km/h | 36020m | 6.6m/s | -31.9°C | 1.5% | 5.0hPa | 2.6V | 00:00:00 | 00:00:00 | 08:30:00 | |
| DL1XH-15 | 2026-09-04 00:54:33 | 51.62299 | 15.43562 | 91° | 35km/h | 36001m | 4.2m/s | 0°C | 0% | 0hPa | 2.5V | 00:00:00 | 02:16:40 | 00:00:00 | |
| BIOWL1-15 | 2026-09-04 00:54:33 | 51.62300 | 15.43599 | 86° | 55km/h | 36008m | 3.8m/s | 0°C | 0% | 0hPa | 2.5V | 18:12:15 | 02:16:42 | 00:00:00 | |
| AA1-15 | 2026-09-04 00:54:28 | 51.62300 | 15.43545 | 93° | 9km/h | 35989m | 6.7m/s | -31.9°C | 0% | 5.1hPa | 2.6V | 18:12:15 | 02:16:38 | 00:00:00 | |
| HSKMA3-T | 2026-09-04 00:54:27 | 51.62300 | 15.43544 | 189° | 2km/h | 35981m | 6.8m/s | -31.9°C | 0% | 5.1hPa | 2.5V | 18:12:15 | 02:16:37 | 00:00:00 | |
| DF8AY | 2026-09-04 00:54:25 | 51.62301 | 15.43548 | 242° | 7km/h | 35969m | 4.6m/s | -32°C | 0% | 5.1hPa | 2.5V | 18:12:15 | 02:16:35 | 00:00:00 | |
| AA1-15 | 2026-09-04 00:54:17 | 51.62297 | 15.43462 | 74° | 47km/h | 35930m | 5.5m/s | -32.2°C | 0% | 5.1hPa | 2.5V | 18:12:15 | 02:16:27 | 00:00:00 | |
| DM0DOS-11 | 2026-09-04 00:54:16 | 51.62292 | 15.43434 | 68° | 27km/h | 35920m | 4.7m/s | -32.2°C | 1.5% | 5.1hPa | 2.6V | 08:30:00 | 02:16:25 | 00:00:00 | |
| DF8AY | 2026-09-04 00:54:14 | 51.62302 | 15.43395 | 135° | 31km/h | 35887m | 5.2m/s | -32.1°C | 0% | 5.2hPa | 2.6V | 18:12:15 | 02:16:19 | 00:00:00 | |
| HSKMA3-T | 2026-09-04 00:54:13 | 51.62290 | 15.43419 | 87° | 13km/h | 35909m | 5.2m/s | -32.2°C | 0% | 5.2hPa | 2.5V | 18:12:15 | 02:16:23 | 00:00:00 | |
| AA1-15 | 2026-09-04 00:54:07 | 51.62311 | 15.43374 | 116° | 35km/h | 35878m | 4m/s | -32.1°C | 0% | 5.2hPa | 2.6V | 18:12:15 | 02:16:17 | 00:00:00 | |
| HSKMA3-T | 2026-09-04 00:54:02 | 51.62304 | 15.43317 | 46° | 26km/h | 35854m | 5.1m/s | -32°C | 0% | 5.2hPa | 2.6V | 18:12:15 | 02:16:12 | 00:00:00 | |
| AA1-15 | 2026-09-04 00:53:57 | 51.62291 | 15.43276 | 97° | 29km/h | 35830m | 6.5m/s | -32°C | 0% | 5.2hPa | 2.6V | 18:12:15 | 02:16:07 | 00:00:00 | |
| HSKMA3-T | 2026-09-04 00:53:52 | 51.62301 | 15.43217 | 84° | 20km/h | 35806m | 4.1m/s | -31.9°C | 0% | 5.2hPa | 2.5V | 18:12:15 | 02:16:02 | 00:00:00 | |
| DF8AY | 2026-09-04 00:53:52 | 51.62263 | 15.43192 | 35° | 35km/h | 35775m | 3.3m/s | -31.8°C | 0% | 5.2hPa | 2.5V | 18:12:15 | 02:15:56 | 00:00:00 | |
| AA1-15 | 2026-09-04 00:53:47 | 51.62271 | 15.43198 | 17° | 35km/h | 35779m | 2.6m/s | -31.8°C | 0% | 5.2hPa | 2.5V | 18:12:15 | 02:15:57 | 00:00:00 | |
| HSKMA3-T | 2026-09-04 00:53:39 | 51.62265 | 15.43096 | 97° | 18km/h | 35744m | 4.2m/s | -31.7°C | 0% | 5.2hPa | 2.6V | 18:12:15 | 02:15:49 | 00:00:00 | |
| AA1-15 | 2026-09-04 00:53:36 | 51.62253 | 15.43091 | 350° | 37km/h | 35726m | 7m/s | -31.7°C | 0% | 5.3hPa | 2.5V | 18:12:15 | 02:15:46 | 00:00:00 | |
| EDDB2-11 | 2026-09-04 00:53:36 | 51.62243 | 15.43094 | 353° | 47km/h | 35721m | 4.6m/s | -31.7°C | 0.3% | 5.3hPa | 2.5V | 00:00:00 | 00:00:00 | 00:00:00 | |
| DO2SHX-10 | 2026-09-04 00:53:35 | 51.62243 | 15.43094 | 354° | 51km/h | 35721m | 4.5m/s | -31.6°C | 1.5% | 5.2hPa | 2.5V | 00:00:00 | 02:15:45 | 00:00:00 | |
| SQ6EMJ | 2026-09-04 00:53:34 | 51.62230 | 15.43093 | 7° | 55km/h | 35718m | 2.5m/s | -31.7°C | 0.3% | 5.3hPa | 2.6V | 00:00:00 | 00:00:00 | 00:00:00 | |
| OE5MMP-10 | 2026-09-04 00:53:33 | 51.62217 | 15.43088 | 21° | 40km/h | 35715m | 2.8m/s | -31.6°C | 1.5% | 5.2hPa | 2.6V | 00:00:00 | 02:15:43 | 00:00:00 | |
| DO2SHX-10 | 2026-09-04 00:53:32 | 51.62206 | 15.43078 | 39° | 51km/h | 35711m | 4.5m/s | -31.6°C | 1.4% | 5.2hPa | 2.6V | 00:00:00 | 02:15:42 | 00:00:00 | |
| DM0DOS-11 | 2026-09-04 00:53:31 | 51.62201 | 15.42974 | 113° | 26km/h | 35678m | 2.7m/s | -31.7°C | 1.5% | 5.3hPa | 2.6V | 08:30:00 | 02:15:36 | 00:00:00 | |
| HSKMA3-T | 2026-09-04 00:53:26 | 51.62201 | 15.42974 | 114° | 26km/h | 35678m | 2.7m/s | -31.7°C | 0% | 5.3hPa | 2.6V | 18:12:15 | 02:15:36 | 00:00:00 | |
| AA1-15 | 2026-09-04 00:53:25 | 51.62202 | 15.42967 | 81° | 11km/h | 35675m | 3.9m/s | -31.6°C | 0% | 5.3hPa | 2.5V | 18:12:15 | 02:15:35 | 00:00:00 | |
| HSKMA3-T | 2026-09-04 00:53:16 | 51.62114 | 15.42897 | 78° | 53km/h | 35630m | 5.9m/s | -31.4°C | 0% | 5.4hPa | 2.5V | 18:12:15 | 02:15:26 | 00:00:00 | |
| AA1-15 | 2026-09-04 00:53:15 | 51.62113 | 15.42877 | 93° | 46km/h | 35624m | 5.4m/s | -31.3°C | 0% | 5.3hPa | 2.6V | 18:12:15 | 02:15:25 | 00:00:00 | |
| DF8AY | 2026-09-04 00:53:14 | 51.62115 | 15.42861 | 106° | 38km/h | 35620m | 4.3m/s | -31.3°C | 0% | 5.3hPa | 2.6V | 18:12:15 | 02:15:24 | 00:00:00 | |
| HSKMA3-T | 2026-09-04 00:53:06 | 51.62073 | 15.42831 | 31° | 57km/h | 35582m | 4.1m/s | -31.3°C | 0% | 5.4hPa | 2.5V | 18:12:15 | 02:15:16 | 00:00:00 | |
| DF8AY | 2026-09-04 00:53:04 | 51.62050 | 15.42777 | 80° | 55km/h | 35566m | 6m/s | -31.2°C | 0% | 5.4hPa | 2.6V | 18:12:15 | 02:15:13 | 00:00:00 | |
| AA1-15 | 2026-09-04 00:53:04 | 51.62054 | 15.42798 | 64° | 55km/h | 35572m | 5.8m/s | -31.2°C | 0% | 5.4hPa | 2.5V | 18:12:15 | 02:15:14 | 00:00:00 | |
| HSKMA3-T | 2026-09-04 00:52:56 | 51.62054 | 15.42723 | 347° | 33km/h | 35531m | 6.2m/s | -31.2°C | 0% | 5.4hPa | 2.5V | 18:12:15 | 02:15:06 | 00:00:00 | |
| AA1-15 | 2026-09-04 00:52:54 | 51.62033 | 15.42722 | 12° | 53km/h | 35520m | 4.5m/s | -31.2°C | 0% | 5.4hPa | 2.5V | 18:12:15 | 02:15:04 | 00:00:00 | |
| DF8AY | 2026-09-04 00:52:52 | 51.62008 | 15.42625 | 141° | 31km/h | 35484m | 4.8m/s | -31.2°C | 0% | 5.5hPa | 2.6V | 18:12:15 | 02:14:57 | 00:00:00 | |
| HSKMA3-T | 2026-09-04 00:52:45 | 51.62017 | 15.42620 | 189° | 5km/h | 35476m | 3.7m/s | -31.2°C | 0% | 5.5hPa | 2.5V | 18:12:15 | 02:14:55 | 00:00:00 | |
| AA1-15 | 2026-09-04 00:52:43 | 51.62012 | 15.42623 | 353° | 26km/h | 35467m | 5.8m/s | -31.2°C | 0% | 5.5hPa | 2.6V | 18:12:15 | 02:14:53 | 00:00:00 | |
| DF8AY | 2026-09-04 00:52:37 | 51.61948 | 15.42556 | 81° | 35km/h | 35430m | 5.6m/s | -31.2°C | 0% | 5.5hPa | 2.5V | 18:12:15 | 02:14:46 | 00:00:00 | |
| HSKMA3-T | 2026-09-04 00:52:34 | 51.61951 | 15.42535 | 125° | 22km/h | 35417m | 6.1m/s | -31.2°C | 0% | 5.5hPa | 2.5V | 18:12:15 | 02:14:44 | 00:00:00 | |
| AA1-15 | 2026-09-04 00:52:33 | 51.61954 | 15.42530 | 147° | 15km/h | 35411m | 5.2m/s | -31.2°C | 0% | 5.5hPa | 2.5V | 18:12:15 | 02:14:43 | 00:00:00 | |
| DF8AY | 2026-09-04 00:52:25 | 51.61911 | 15.42482 | 59° | 40km/h | 35361m | 5.1m/s | -31.5°C | 0% | 5.6hPa | 2.5V | 18:12:15 | 02:14:34 | 00:00:00 | |
| HSKMA3-T | 2026-09-04 00:52:23 | 51.61907 | 15.42469 | 71° | 35km/h | 35356m | 5.3m/s | -31.6°C | 0% | 5.6hPa | 2.5V | 18:12:15 | 02:14:33 | 00:00:00 | |
| AA1-15 | 2026-09-04 00:52:22 | 51.61905 | 15.42457 | 83° | 27km/h | 35351m | 5.3m/s | -31.6°C | 0% | 5.6hPa | 2.5V | 18:12:15 | 02:14:32 | 00:00:00 | |
| DF8AY | 2026-09-04 00:52:14 | 51.61884 | 15.42419 | 41° | 27km/h | 35302m | 5m/s | -32°C | 0% | 5.6hPa | 2.5V | 18:12:15 | 02:14:23 | 00:00:00 | |
| AA1-15 | 2026-09-04 00:52:12 | 51.61880 | 15.42410 | 57° | 29km/h | 35297m | 6.1m/s | -32.1°C | 0% | 5.6hPa | 2.5V | 18:12:15 | 02:14:22 | 00:00:00 | |
| DL1XH-west | 2026-09-04 00:52:11 | 51.61876 | 15.42399 | 71° | 31km/h | 35291m | 6.3m/s | 0°C | 0% | 0hPa | 2.5V | 18:12:15 | 02:14:21 | 00:00:00 | |
| DF8AY | 2026-09-04 00:52:04 | 51.61856 | 15.42339 | 337° | 26km/h | 35247m | 5m/s | -32.2°C | 0% | 5.7hPa | 2.6V | 18:12:15 | 02:14:13 | 00:00:00 | |
| AA1-15 | 2026-09-04 00:52:02 | 51.61850 | 15.42343 | 332° | 27km/h | 35243m | 4m/s | -32.3°C | 0% | 5.7hPa | 2.5V | 18:12:15 | 02:14:12 | 00:00:00 | |
| AA1-15 | 2026-09-04 00:51:51 | 51.61844 | 15.42293 | 2° | 16km/h | 35188m | 5.4m/s | -33°C | 0% | 5.7hPa | 2.5V | 18:12:15 | 02:14:01 | 00:00:00 | |
| EDDB2-12 | 2026-09-04 00:51:50 | 51.61840 | 15.42294 | 328° | 16km/h | 35183m | 4.8m/s | -33.1°C | 0.3% | 5.7hPa | 2.5V | 00:00:00 | 00:00:00 | 00:00:00 | |
| AA1-15 | 2026-09-04 00:51:40 | 51.61860 | 15.42245 | 74° | 29km/h | 35132m | 4.7m/s | -33.5°C | 0% | 5.7hPa | 2.5V | 18:12:15 | 02:13:50 | 00:00:00 | |
| SQ6EMJ | 2026-09-04 00:51:39 | 51.61858 | 15.42236 | 57° | 20km/h | 35128m | 4.8m/s | -33.5°C | 0.3% | 5.8hPa | 2.5V | 00:00:00 | 00:00:00 | 00:00:00 | |
| S3001 | 2026-09-04 00:51:38 | 51.61854 | 15.42233 | 297° | 7km/h | 35118m | 5.2m/s | -33.6°C | 0.3% | 5.8hPa | 2.5V | 00:00:00 | 00:00:00 | 00:00:00 | |
| DO3MHA-11 | 2026-09-04 00:51:36 | 51.61854 | 15.42237 | 246° | 31km/h | 35113m | 4.6m/s | -33.5°C | 1.6% | 5.7hPa | 2.5V | 00:00:00 | 02:13:46 | 08:30:00 | |
| DM0DOS-11 | 2026-09-04 00:51:35 | 51.61893 | 15.42224 | 122° | 42km/h | 35085m | 4.7m/s | -33.5°C | 1.6% | 5.8hPa | 2.5V | 08:30:00 | 02:13:40 | 00:00:00 | |
| DF8AY | 2026-09-04 00:51:32 | 51.61879 | 15.42244 | 157° | 38km/h | 35094m | 5.1m/s | -33.5°C | 0% | 5.8hPa | 2.6V | 18:12:15 | 02:13:42 | 00:00:00 | |
| HSKMA3-T | 2026-09-04 00:51:30 | 51.61894 | 15.42224 | 122° | 42km/h | 35085m | 4.7m/s | 0°C | 0% | 5.8hPa | 2.5V | 18:12:15 | 02:13:40 | 00:00:00 | |
| 13BRC | 2026-09-04 00:51:29 | 51.61893 | 15.42223 | 123° | 42km/h | 35085m | 4.7m/s | 0°C | 0% | 0hPa | 2.5V | 00:00:00 | 00:00:00 | 00:00:00 | |
| DO2SHX-10 | 2026-09-04 00:51:26 | 51.61893 | 15.42176 | 35° | 16km/h | 35064m | 5.3m/s | -33.3°C | 1.6% | 5.7hPa | 2.5V | 00:00:00 | 02:13:36 | 00:00:00 | |
| OE5DXL-15 | 2026-09-04 00:51:25 | 51.61889 | 15.42174 | 354° | 26km/h | 35059m | 5.0m/s | -33.2°C | 1.6% | 5.8hPa | 2.5V | 00:00:00 | 00:00:00 | 00:00:00 | |
| DM0DOS-11 | 2026-09-04 00:51:24 | 51.61903 | 15.42192 | 166° | 35km/h | 35035m | 5.6m/s | -33.2°C | 1.5% | 5.8hPa | 2.5V | 08:30:00 | 02:13:30 | 00:00:00 | |
| DF8AY | 2026-09-04 00:51:22 | 51.61889 | 15.42189 | 219° | 20km/h | 35045m | 4m/s | -33.2°C | 0% | 5.8hPa | 2.6V | 18:12:15 | 02:13:32 | 00:00:00 | |
| HSKMA3-T | 2026-09-04 00:51:20 | 51.61902 | 15.42192 | 167° | 35km/h | 35036m | 5.6m/s | 0°C | 0% | 5.8hPa | 2.5V | 18:12:15 | 02:13:30 | 00:00:00 | |
| AA1-15 | 2026-09-04 00:51:19 | 51.61911 | 15.42186 | 149° | 42km/h | 35030m | 5.6m/s | -33.2°C | 0% | 5.8hPa | 2.5V | 18:12:15 | 02:13:29 | 00:00:00 | |
| DF8AY | 2026-09-04 00:51:11 | 51.61927 | 15.42108 | 313° | 7km/h | 34990m | 4.8m/s | -33.4°C | 0% | 5.9hPa | 2.6V | 18:12:15 | 02:13:21 | 00:00:00 | |
| HSKMA3-T | 2026-09-04 00:51:10 | 51.61928 | 15.42113 | 201° | 13km/h | 34980m | 5m/s | 0°C | 0% | 5.9hPa | 2.5V | 18:12:15 | 02:13:19 | 00:00:00 | |
| AA1-15 | 2026-09-04 00:51:08 | 51.61932 | 15.42113 | 168° | 22km/h | 34975m | 5.5m/s | -33.6°C | 0% | 5.9hPa | 2.5V | 18:12:15 | 02:13:18 | 00:00:00 | |
| DF8AY | 2026-09-04 00:51:00 | 51.61974 | 15.42030 | 97° | 16km/h | 34931m | 5.5m/s | -33.7°C | 0% | 5.9hPa | 2.5V | 18:12:15 | 02:13:10 | 00:00:00 | |
| HSKMA3-T | 2026-09-04 00:50:59 | 51.61974 | 15.42025 | 98° | 11km/h | 34926m | 4.8m/s | 0°C | 0% | 0hPa | 2.5V | 18:12:15 | 02:13:09 | 00:00:00 | |
| AA1-15 | 2026-09-04 00:50:58 | 51.61976 | 15.42018 | 135° | 11km/h | 34916m | 4.8m/s | -33.7°C | 0% | 5.9hPa | 2.6V | 18:12:15 | 02:13:07 | 00:00:00 | |
| DF8AY | 2026-09-04 00:50:50 | 51.62018 | 15.41941 | 107° | 29km/h | 34872m | 5.7m/s | -33.9°C | 0% | 6hPa | 2.5V | 18:12:15 | 02:12:59 | 00:00:00 | |
| AA1-15 | 2026-09-04 00:50:46 | 51.62016 | 15.41908 | 75° | 27km/h | 34857m | 4.7m/s | -33.8°C | 0% | 6hPa | 2.6V | 18:12:15 | 02:12:56 | 00:00:00 | |
| DF8AY | 2026-09-04 00:50:38 | 51.62047 | 15.41784 | 118° | 33km/h | 34790m | 6.3m/s | -33.8°C | 0% | 6.1hPa | 2.5V | 18:12:15 | 02:12:43 | 00:00:00 | |
| AA1-15 | 2026-09-04 00:50:35 | 51.62039 | 15.41804 | 126° | 22km/h | 34801m | 4.3m/s | -33.8°C | 0% | 6hPa | 2.5V | 18:12:15 | 02:12:45 | 00:00:00 | |
| AA1-15 | 2026-09-04 00:50:24 | 51.62065 | 15.41702 | 174° | 15km/h | 34745m | 4.8m/s | -33.9°C | 0% | 6.1hPa | 2.5V | 18:12:15 | 02:12:34 | 00:00:00 | |
| DF8AY | 2026-09-04 00:50:23 | 51.62075 | 15.41697 | 158° | 29km/h | 34733m | 6.1m/s | -34°C | 0% | 6.1hPa | 2.6V | 18:12:15 | 02:12:32 | 00:00:00 | |
| AA1-15 | 2026-09-04 00:50:14 | 51.62099 | 15.41643 | 12° | 18km/h | 34692m | 4.4m/s | -34.3°C | 0% | 6.2hPa | 2.5V | 18:12:15 | 02:12:24 | 00:00:00 | |
| DF8AY | 2026-09-04 00:50:11 | 51.62092 | 15.41636 | 141° | 16km/h | 34673m | 6.1m/s | -34.3°C | 0% | 6.2hPa | 2.5V | 18:12:15 | 02:12:20 | 00:00:00 | |
| AA1-15 | 2026-09-04 00:50:03 | 51.62127 | 15.41623 | 270° | 15km/h | 34640m | 6.6m/s | -34.5°C | 0% | 6.2hPa | 2.5V | 18:12:15 | 02:12:13 | 00:00:00 | |
| DF8AY | 2026-09-04 00:50:00 | 51.62117 | 15.41640 | 341° | 20km/h | 34624m | 3.7m/s | -34.5°C | 0% | 6.2hPa | 2.5V | 18:12:15 | 02:12:10 | 00:00:00 | |
| AA1-15 | 2026-09-04 00:49:53 | 51.62124 | 15.41601 | 166° | 22km/h | 34587m | 5.5m/s | -34.8°C | 0% | 6.2hPa | 2.5V | 18:12:15 | 02:12:03 | 00:00:00 | |
| DF8AY | 2026-09-04 00:49:50 | 51.62136 | 15.41610 | 258° | 18km/h | 34570m | 4.8m/s | -35°C | 0% | 6.2hPa | 2.5V | 18:12:15 | 02:12:00 | 00:00:00 | |
| SONCRA | 2026-09-04 00:49:47 | 51.62133 | 15.41626 | 337° | 9km/h | 34555m | 5.4m/s | -35.1°C | 0.3% | 6.3hPa | 2.5V | 00:00:00 | 00:00:00 | 00:00:00 | |
| EDDB2-12 | 2026-09-04 00:49:46 | 51.62130 | 15.41626 | 27° | 11km/h | 34550m | 5.4m/s | -35.1°C | 0.3% | 6.3hPa | 2.5V | 00:00:00 | 00:00:00 | 00:00:00 | |
| AA1-15 | 2026-09-04 00:49:43 | 51.62126 | 15.41611 | 94° | 15km/h | 34535m | 4.6m/s | -35.1°C | 0% | 6.3hPa | 2.5V | 18:12:15 | 02:11:53 | 00:00:00 | |
| DF8AY | 2026-09-04 00:49:40 | 51.62131 | 15.41603 | 187° | 9km/h | 34519m | 5.3m/s | -35.2°C | 0% | 6.3hPa | 2.5V | 18:12:15 | 02:11:50 | 00:00:00 | |
| AA1-15 | 2026-09-04 00:49:32 | 51.62136 | 15.41596 | 86° | 9km/h | 34479m | 4.9m/s | -35.3°C | 0% | 6.3hPa | 2.6V | 18:12:15 | 02:11:42 | 00:00:00 | |
| DF8AY | 2026-09-04 00:49:29 | 51.62139 | 15.41590 | 159° | 7km/h | 34462m | 4.9m/s | -35.5°C | 0% | 6.3hPa | 2.5V | 18:12:15 | 02:11:39 | 00:00:00 | |
| PETON7-10 | 2026-09-04 00:49:29 | 51.62138 | 15.41590 | 160° | 11km/h | 34463m | 4.9m/s | -35.5°C | 1.7% | 6.3hPa | 2.5V | 00:00:00 | 00:00:00 | 00:00:00 | |
| DO2SHX-10 | 2026-09-04 00:49:27 | 51.62142 | 15.41586 | 138° | 13km/h | 34453m | 5.3m/s | -35.6°C | 1.7% | 6.3hPa | 2.5V | 00:00:00 | 02:11:37 | 00:00:00 | |
| DM0DOS-11 | 2026-09-04 00:49:26 | 51.62146 | 15.41571 | 93° | 16km/h | 34436m | 4.7m/s | -36°C | 1.7% | 6.4hPa | 2.5V | 08:30:00 | 02:11:34 | 00:00:00 | |
| AA1-15 | 2026-09-04 00:49:21 | 51.62146 | 15.41556 | 94° | 7km/h | 34421m | 6.1m/s | -36.2°C | 0% | 6.4hPa | 2.6V | 18:12:15 | 02:11:31 | 00:00:00 | |
| DF8AY | 2026-09-04 00:49:19 | 51.62146 | 15.41553 | 57° | 4km/h | 34409m | 4.3m/s | -36.4°C | 0% | 6.4hPa | 2.5V | 18:12:15 | 02:11:29 | 00:00:00 | |
| DM0DOS-11 | 2026-09-04 00:49:19 | 51.62144 | 15.41523 | 78° | 29km/h | 34385m | 5.7m/s | -36.6°C | 1.8% | 6.4hPa | 2.5V | 08:30:00 | 02:11:24 | 00:00:00 | |
| BIOWL1-15 | 2026-09-04 00:49:12 | 51.62140 | 15.41487 | 86° | 26km/h | 34370m | 4.9m/s | 0°C | 0% | 0hPa | 2.6V | 18:12:15 | 02:11:21 | 00:00:00 | |
| AA1-15 | 2026-09-04 00:49:10 | 51.62140 | 15.41478 | 95° | 20km/h | 34365m | 6m/s | -36.5°C | 0% | 6.4hPa | 2.5V | 18:12:15 | 02:11:20 | 00:00:00 | |
| DF8AY | 2026-09-04 00:49:07 | 51.62146 | 15.41457 | 114° | 16km/h | 34343m | 5.7m/s | -36.5°C | 0% | 6.5hPa | 2.6V | 18:12:15 | 02:11:16 | 00:00:00 | |
| AA1-15 | 2026-09-04 00:49:00 | 51.62151 | 15.41396 | 96° | 24km/h | 34310m | 5.9m/s | -36.5°C | 0% | 6.5hPa | 2.5V | 18:12:15 | 02:11:10 | 00:00:00 | |
| DF8AY | 2026-09-04 00:48:56 | 51.62153 | 15.41368 | 89° | 16km/h | 34289m | 5.9m/s | -36.5°C | 0% | 6.5hPa | 2.6V | 18:12:15 | 02:11:06 | 00:00:00 | |
| OE5DXL-15 | 2026-09-04 00:48:55 | 51.62152 | 15.41362 | 83° | 15km/h | 34283m | 5.5m/s | -36.5°C | 1.8% | 6.5hPa | 2.5V | 00:00:00 | 00:00:00 | 08:30:00 | |
| DO2SHX-10 | 2026-09-04 00:48:54 | 51.62152 | 15.41356 | 81° | 13km/h | 34278m | 4.9m/s | -36.5°C | 1.8% | 6.5hPa | 2.6V | 00:00:00 | 02:11:04 | 00:00:00 | |
| KRY50SP-1 | 2026-09-04 00:48:53 | 51.62151 | 15.41349 | 88° | 13km/h | 34273m | 4.7m/s | -36.5°C | 0.4% | 6.5hPa | 2.6V | 00:00:00 | 00:00:00 | 00:00:00 | |
| DM0DOS-11 | 2026-09-04 00:48:52 | 51.62161 | 15.41330 | 118° | 15km/h | 34241m | 5.4m/s | -36.5°C | 1.8% | 6.6hPa | 2.6V | 08:30:00 | 02:10:57 | 00:00:00 | |
| AA1-15 | 2026-09-04 00:48:49 | 51.62157 | 15.41337 | 158° | 11km/h | 34250m | 4.6m/s | -36.5°C | 0% | 6.6hPa | 2.5V | 18:12:15 | 02:10:59 | 00:00:00 | |
| DF8AY | 2026-09-04 00:48:45 | 51.62163 | 15.41316 | 91° | 24km/h | 34229m | 6.1m/s | -36.4°C | 0% | 6.6hPa | 2.5V | 18:12:15 | 02:10:55 | 00:00:00 | |
| DO2SHX-10 | 2026-09-04 00:48:45 | 51.62163 | 15.41316 | 92° | 24km/h | 34229m | 6.1m/s | -36.3°C | 1.8% | 6.5hPa | 2.5V | 00:00:00 | 02:10:55 | 00:00:00 | |
| DO3MHA-11 | 2026-09-04 00:48:44 | 51.62162 | 15.41306 | 85° | 15km/h | 34224m | 4.9m/s | -36.3°C | 1.8% | 6.5hPa | 2.5V | 00:00:00 | 02:10:54 | 00:00:00 | |
| DF8AY-15 | 2026-09-04 00:48:43 | 51.62162 | 15.41295 | 85° | 16km/h | 34219m | 4.7m/s | -36.3°C | 1.8% | 6.5hPa | 2.5V | 00:00:00 | 02:10:53 | 00:00:00 | |
| DO2SHX-10 | 2026-09-04 00:48:42 | 51.62161 | 15.41286 | 85° | 15km/h | 34214m | 5.6m/s | -36.2°C | 1.8% | 6.6hPa | 2.6V | 00:00:00 | 02:10:52 | 00:00:00 | |
| KRY50SP-1 | 2026-09-04 00:48:41 | 51.62161 | 15.41280 | 97° | 15km/h | 34208m | 5.8m/s | -36.3°C | 0.3% | 6.6hPa | 2.6V | 00:00:00 | 00:00:00 | 00:00:00 | |
| DM0DOS-11 | 2026-09-04 00:48:39 | 51.62165 | 15.41266 | 115° | 9km/h | 34187m | 6.1m/s | -36.3°C | 1.8% | 6.6hPa | 2.6V | 08:30:00 | 02:10:47 | 00:00:00 | |
| AA1-15 | 2026-09-04 00:48:39 | 51.62163 | 15.41272 | 123° | 7km/h | 34197m | 5m/s | -36.3°C | 0% | 6.6hPa | 2.5V | 18:12:15 | 02:10:49 | 00:00:00 | |
| DO2SHX-10 | 2026-09-04 00:48:39 | 51.62163 | 15.41272 | 124° | 7km/h | 34198m | 4.9m/s | -36.2°C | 1.8% | 6.6hPa | 2.5V | 00:00:00 | 02:10:49 | 00:00:00 | |
| KRY50SP-1 | 2026-09-04 00:48:36 | 51.62165 | 15.41262 | 98° | 11km/h | 34181m | 5.7m/s | -36.3°C | 0.3% | 6.6hPa | 2.5V | 00:00:00 | 00:00:00 | 00:00:00 | |
| PG1ADW-2 | 2026-09-04 00:48:35 | 51.62166 | 15.41258 | 100° | 20km/h | 34176m | 4.9m/s | -36.3°C | 1.8% | 6.6hPa | 2.5V | 00:00:00 | 00:00:00 | 00:00:00 | |
| DO3MHA-11 | 2026-09-04 00:48:34 | 51.62167 | 15.41252 | 103° | 18km/h | 34171m | 4.8m/s | -36.3°C | 1.8% | 6.6hPa | 2.5V | 00:00:00 | 02:10:44 | 08:30:00 | |
| DO2SHX-10 | 2026-09-04 00:48:33 | 51.62168 | 15.41246 | 111° | 16km/h | 34167m | 5.0m/s | -36.3°C | 1.8% | 6.6hPa | 2.6V | 00:00:00 | 02:10:43 | 00:00:00 | |
| DM0DOS-11 | 2026-09-04 00:48:32 | 51.62174 | 15.41208 | 74° | 22km/h | 34133m | 6.4m/s | -36.4°C | 1.8% | 6.7hPa | 2.6V | 08:30:00 | 02:10:37 | 00:00:00 | |
| AA1-15 | 2026-09-04 00:48:29 | 51.62174 | 15.41223 | 101° | 16km/h | 34144m | 4.9m/s | -36.4°C | 0% | 6.7hPa | 2.5V | 18:12:15 | 02:10:39 | 00:00:00 | |
| DF8AY | 2026-09-04 00:48:20 | 51.62173 | 15.41158 | 137° | 18km/h | 34095m | 5.1m/s | -36.6°C | 0% | 6.7hPa | 2.5V | 18:12:15 | 02:10:30 | 00:00:00 | |
| DM0DOS-11 | 2026-09-04 00:48:19 | 51.62184 | 15.41124 | 97° | 31km/h | 34072m | 5.2m/s | -36.7°C | 1.8% | 6.7hPa | 2.6V | 08:30:00 | 02:10:26 | 00:00:00 | |
| AA1-15 | 2026-09-04 00:48:19 | 51.62177 | 15.41152 | 130° | 22km/h | 34090m | 5.2m/s | -36.7°C | 0% | 6.7hPa | 2.5V | 18:12:15 | 02:10:29 | 00:00:00 | |
| DF8AY | 2026-09-04 00:48:10 | 51.62179 | 15.41017 | 87° | 20km/h | 33997m | 5.7m/s | -36.9°C | 0% | 6.8hPa | 2.6V | 18:12:15 | 02:10:12 | 00:00:00 | |
| AA1-15 | 2026-09-04 00:48:08 | 51.62188 | 15.41059 | 90° | 11km/h | 34030m | 5.6m/s | -36.7°C | 0% | 6.8hPa | 2.5V | 18:12:15 | 02:10:18 | 00:00:00 | |
| DM0DOS-11 | 2026-09-04 00:48:06 | 51.62186 | 15.41049 | 68° | 16km/h | 34018m | 5.9m/s | -36.8°C | 1.8% | 6.8hPa | 2.6V | 08:30:00 | 02:10:16 | 00:00:00 | |
| AA1-15 | 2026-09-04 00:47:58 | 51.62183 | 15.40993 | 83° | 11km/h | 33976m | 4.9m/s | -37°C | 0% | 6.8hPa | 2.5V | 18:12:15 | 02:10:08 | 00:00:00 | |
| DF8AY | 2026-09-04 00:47:49 | 51.62158 | 15.40928 | 120° | 16km/h | 33928m | 6.2m/s | -37.5°C | 0% | 6.9hPa | 2.5V | 18:12:15 | 02:09:59 | 00:00:00 | |
| AA1-15 | 2026-09-04 00:47:48 | 51.62160 | 15.40923 | 129° | 16km/h | 33922m | 5m/s | -37.5°C | 0% | 6.9hPa | 2.5V | 18:12:15 | 02:09:58 | 00:00:00 | |
| DF8AY | 2026-09-04 00:47:38 | 51.62122 | 15.40832 | 52° | 15km/h | 33869m | 6.2m/s | -38°C | 0% | 6.9hPa | 2.5V | 18:12:15 | 02:09:48 | 00:00:00 | |
| AA1-15 | 2026-09-04 00:47:37 | 51.62120 | 15.40828 | 97° | 7km/h | 33863m | 5.8m/s | -38°C | 0% | 6.9hPa | 2.6V | 18:12:15 | 02:09:47 | 00:00:00 | |
| DO2SHX-10 | 2026-09-04 00:47:35 | 51.62123 | 15.40822 | 127° | 15km/h | 33852m | 6.0m/s | -38.1°C | 1.9% | 6.9hPa | 2.5V | 00:00:00 | 02:09:45 | 00:00:00 | |
| PG1ADW-2 | 2026-09-04 00:47:34 | 51.62125 | 15.40818 | 113° | 20km/h | 33846m | 5.5m/s | -38.1°C | 1.9% | 6.9hPa | 2.5V | 00:00:00 | 00:00:00 | 00:00:00 | |
| DO3MHA-11 | 2026-09-04 00:47:33 | 51.62126 | 15.40812 | 90° | 26km/h | 33841m | 4.9m/s | -38.2°C | 1.9% | 6.9hPa | 2.5V | 00:00:00 | 02:09:43 | 00:00:00 | |
| OE5MMP-10 | 2026-09-04 00:47:29 | 51.62113 | 15.40779 | 41° | 26km/h | 33819m | 6.0m/s | -38.3°C | 1.9% | 6.9hPa | 2.5V | 00:00:00 | 02:09:39 | 00:00:00 | |
| PETON7-10 | 2026-09-04 00:47:28 | 51.62107 | 15.40772 | 32° | 20km/h | 33813m | 5.7m/s | -38.4°C | 1.9% | 7.0hPa | 2.5V | 00:00:00 | 00:00:00 | 00:00:00 | |
| DM0DOS-11 | 2026-09-04 00:47:27 | 51.62071 | 15.40740 | 38° | 24km/h | 33778m | 5.5m/s | -38.7°C | 2% | 7hPa | 2.6V | 08:30:00 | 02:09:32 | 00:00:00 | |
| AA1-15 | 2026-09-04 00:47:27 | 51.62101 | 15.40767 | 27° | 29km/h | 33807m | 5.5m/s | -38.5°C | 0% | 7hPa | 2.6V | 18:12:15 | 02:09:37 | 00:00:00 | |
| DF8AY | 2026-09-04 00:47:17 | 51.62044 | 15.40702 | 47° | 37km/h | 33726m | 6.3m/s | -38.7°C | 0% | 7.1hPa | 2.5V | 18:12:15 | 02:09:23 | 00:00:00 | |
| DM0DOS-11 | 2026-09-04 00:47:16 | 51.62038 | 15.40691 | 45° | 40km/h | 33720m | 5m/s | -38.7°C | 2% | 7.1hPa | 2.6V | 08:30:00 | 02:09:22 | 00:00:00 | |
| AA1-15 | 2026-09-04 00:47:16 | 51.62057 | 15.40723 | 40° | 11km/h | 33744m | 4.5m/s | -38.7°C | 0% | 7.1hPa | 2.6V | 18:12:15 | 02:09:26 | 00:00:00 | |
| DF8AY | 2026-09-04 00:47:06 | 51.62010 | 15.40654 | 18° | 11km/h | 33687m | 5.4m/s | -38.7°C | 0% | 7.2hPa | 2.6V | 18:12:15 | 02:09:16 | 00:00:00 | |
| AA1-15 | 2026-09-04 00:47:05 | 51.62007 | 15.40653 | 23° | 13km/h | 33682m | 6.1m/s | -38.7°C | 0% | 7.2hPa | 2.5V | 18:12:15 | 02:09:15 | 00:00:00 | |
| DF8AY | 2026-09-04 00:46:56 | 51.61967 | 15.40613 | 45° | 26km/h | 33632m | 6.6m/s | -38.7°C | 0% | 7.2hPa | 2.6V | 18:12:15 | 02:09:06 | 00:00:00 | |
| DM0DOS-11 | 2026-09-04 00:46:56 | 51.61959 | 15.40598 | 52° | 22km/h | 33621m | 4.5m/s | -38.8°C | 2% | 7.2hPa | 2.5V | 08:30:00 | 02:09:04 | 00:00:00 | |
| AA1-15 | 2026-09-04 00:46:55 | 51.61963 | 15.40605 | 50° | 26km/h | 33626m | 5.6m/s | -38.8°C | 0% | 7.2hPa | 2.5V | 18:12:15 | 02:09:05 | 00:00:00 | |
| OE5DRO-10 | 2026-09-04 00:46:55 | 51.61963 | 15.40605 | 51° | 16km/h | 33626m | 5.5m/s | -38.7°C | 2.0% | 7.2hPa | 2.5V | 00:00:00 | 00:00:00 | 00:00:00 | |
| PG1ADW-2 | 2026-09-04 00:46:54 | 51.61959 | 15.40598 | 53° | 15km/h | 33621m | 4.5m/s | -38.7°C | 2.0% | 7.2hPa | 2.5V | 00:00:00 | 00:00:00 | 00:00:00 | |
| DO3MHA-11 | 2026-09-04 00:46:53 | 51.61956 | 15.40591 | 53° | 13km/h | 33616m | 4.9m/s | -38.7°C | 2.0% | 7.2hPa | 2.5V | 00:00:00 | 02:09:03 | 00:00:00 | |
| DK5PH-5 | 2026-09-04 00:46:52 | 51.61954 | 15.40587 | 48° | 15km/h | 33611m | 6.2m/s | -38.8°C | 2.0% | 7.2hPa | 2.5V | 00:00:00 | 02:09:02 | 00:00:00 | |
| KRY50SP-1 | 2026-09-04 00:46:51 | 51.61953 | 15.40585 | 15° | 4km/h | 33603m | 7.1m/s | -38.8°C | 0.4% | 7.2hPa | 2.5V | 00:00:00 | 00:00:00 | 00:00:00 | |
| DO2SHX-10 | 2026-09-04 00:46:50 | 51.61951 | 15.40586 | 297° | 5km/h | 33596m | 6.2m/s | -38.7°C | 2.0% | 7.2hPa | 2.5V | 00:00:00 | 02:09:00 | 00:00:00 | |
| DM0DOS-11 | 2026-09-04 00:46:48 | 51.61930 | 15.40569 | 38° | 27km/h | 33558m | 4.2m/s | -38.7°C | 2% | 7.3hPa | 2.5V | 08:30:00 | 02:08:53 | 00:00:00 | |
| DF8AY | 2026-09-04 00:46:45 | 51.61941 | 15.40583 | 40° | 24km/h | 33568m | 5.9m/s | -38.7°C | 0% | 7.3hPa | 2.5V | 18:12:15 | 02:08:55 | 00:00:00 | |
| AA1-15 | 2026-09-04 00:46:44 | 51.61936 | 15.40576 | 43° | 27km/h | 33562m | 4.9m/s | -38.7°C | 0% | 7.3hPa | 2.5V | 18:12:15 | 02:08:54 | 00:00:00 | |
| AA1-15 | 2026-09-04 00:46:34 | 51.61906 | 15.40567 | 74° | 15km/h | 33506m | 5.7m/s | -38.6°C | 0% | 7.3hPa | 2.5V | 18:12:15 | 02:08:44 | 00:00:00 | |
| AA1-15 | 2026-09-04 00:46:23 | 51.61873 | 15.40541 | 63° | 7km/h | 33444m | 5.2m/s | -38.4°C | 0% | 7.4hPa | 2.5V | 18:12:15 | 02:08:33 | 00:00:00 | |
| DF8AY | 2026-09-04 00:46:13 | 51.61863 | 15.40515 | 56° | 11km/h | 33389m | 4.5m/s | -38.4°C | 0% | 7.5hPa | 2.5V | 18:12:15 | 02:08:23 | 00:00:00 | |
| AA1-15 | 2026-09-04 00:46:13 | 51.61862 | 15.40513 | 44° | 5km/h | 33384m | 5.4m/s | -38.4°C | 0% | 7.5hPa | 2.6V | 18:12:15 | 02:08:22 | 00:00:00 | |
| AA1-15 | 2026-09-04 00:46:02 | 51.61874 | 15.40506 | 80° | 9km/h | 33329m | 5.1m/s | -38.4°C | 0% | 7.5hPa | 2.5V | 18:12:15 | 02:08:12 | 00:00:00 | |
| AA1-15 | 2026-09-04 00:45:51 | 51.61871 | 15.40516 | 138° | 5km/h | 33264m | 6.2m/s | -38.7°C | 0% | 7.6hPa | 2.5V | 18:12:15 | 02:08:01 | 00:00:00 | |
| EDDB2-11 | 2026-09-04 00:45:50 | 51.61871 | 15.40514 | 23° | 4km/h | 33252m | 5.7m/s | -38.7°C | 0.4% | 7.6hPa | 2.5V | 00:00:00 | 00:00:00 | 00:00:00 | |
| DL1ZP-14 | 2026-09-04 00:45:48 | 51.61868 | 15.40512 | 32° | 9km/h | 33242m | 5.1m/s | -38.7°C | 0.4% | 7.7hPa | 2.5V | 00:00:00 | 00:00:00 | 00:00:00 | |
| SP3WXH-11 | 2026-09-04 00:45:45 | 51.61864 | 15.40505 | 68° | 11km/h | 33230m | 6.1m/s | -38.7°C | 0.4% | 7.7hPa | 2.5V | 00:00:00 | 00:00:00 | 00:00:00 | |
| AA1-15 | 2026-09-04 00:45:40 | 51.61865 | 15.40493 | 303° | 4km/h | 33204m | 5.8m/s | -38.7°C | 0% | 7.7hPa | 2.5V | 18:12:15 | 02:07:50 | 00:00:00 | |
| DF8AY | 2026-09-04 00:45:30 | 51.61837 | 15.40468 | 347° | 35km/h | 33125m | 4.8m/s | -38.9°C | 0% | 7.8hPa | 2.5V | 18:12:15 | 02:07:35 | 00:00:00 | |
| AA1-15 | 2026-09-04 00:45:30 | 51.61847 | 15.40449 | 156° | 15km/h | 33152m | 4.6m/s | -38.9°C | 0% | 7.8hPa | 2.5V | 18:12:15 | 02:07:40 | 00:00:00 | |
| AA1-15 | 2026-09-04 00:45:19 | 51.61810 | 15.40426 | 113° | 24km/h | 33092m | 5.4m/s | -38.8°C | 0% | 7.8hPa | 2.6V | 18:12:15 | 02:07:29 | 00:00:00 | |
| DF8AY | 2026-09-04 00:45:17 | 51.61815 | 15.40415 | 151° | 11km/h | 33082m | 4.7m/s | -38.8°C | 0% | 7.8hPa | 2.5V | 18:12:15 | 02:07:27 | 00:00:00 | |
| AA1-15 | 2026-09-04 00:45:08 | 51.61775 | 15.40402 | 49° | 18km/h | 33032m | 5.9m/s | -38.8°C | 0% | 7.9hPa | 2.5V | 18:12:15 | 02:07:18 | 00:00:00 | |
| DF8AY | 2026-09-04 00:45:07 | 51.61773 | 15.40397 | 78° | 15km/h | 33027m | 6.1m/s | -38.9°C | 0% | 7.9hPa | 2.5V | 18:12:15 | 02:07:17 | 00:00:00 | |
| AA1-15 | 2026-09-04 00:44:57 | 51.61762 | 15.40345 | 24° | 5km/h | 32971m | 6m/s | -38.9°C | 0% | 8hPa | 2.5V | 18:12:15 | 02:07:07 | 00:00:00 | |
| DF8AY | 2026-09-04 00:44:56 | 51.61761 | 15.40344 | 32° | 4km/h | 32965m | 5.3m/s | -38.9°C | 0% | 8hPa | 2.6V | 18:12:15 | 02:07:06 | 00:00:00 | |
| AA1-15 | 2026-09-04 00:44:47 | 51.61740 | 15.40317 | 264° | 7km/h | 32913m | 6.4m/s | -38.9°C | 0% | 8hPa | 2.5V | 18:12:15 | 02:06:57 | 00:00:00 | |
| DF8AY | 2026-09-04 00:44:46 | 51.61740 | 15.40321 | 262° | 11km/h | 32907m | 5.4m/s | -38.9°C | 0% | 8hPa | 2.5V | 18:12:15 | 02:06:56 | 00:00:00 | |
| DL1ZP-14 | 2026-09-04 00:44:46 | 51.61740 | 15.40326 | 277° | 13km/h | 32902m | 5.2m/s | -39.0°C | 0.4% | 8.0hPa | 2.5V | 00:00:00 | 00:00:00 | 00:00:00 | |
| AA1-15 | 2026-09-04 00:44:36 | 51.61725 | 15.40312 | 118° | 16km/h | 32849m | 5.5m/s | -39.3°C | 0% | 8.1hPa | 2.5V | 18:12:15 | 02:06:46 | 00:00:00 | |
| DF8AY | 2026-09-04 00:44:35 | 51.61722 | 15.40331 | 80° | 15km/h | 32778m | 6.1m/s | -39.6°C | 0% | 8.2hPa | 2.5V | 18:12:15 | 02:06:34 | 00:00:00 | |
| AA1-15 | 2026-09-04 00:44:26 | 51.61724 | 15.40335 | 317° | 7km/h | 32791m | 6.1m/s | -39.5°C | 0% | 8.2hPa | 2.5V | 18:12:15 | 02:06:36 | 00:00:00 | |
| DF8AY | 2026-09-04 00:44:21 | 51.61735 | 15.40298 | 173° | 22km/h | 32748m | 5.5m/s | -39.8°C | 0% | 8.2hPa | 2.5V | 18:12:15 | 02:06:29 | 00:00:00 | |
| AA1-15 | 2026-09-04 00:44:15 | 51.61750 | 15.40310 | 269° | 11km/h | 32727m | 6.5m/s | -40.1°C | 0% | 8.2hPa | 2.6V | 18:12:15 | 02:06:25 | 00:00:00 | |
| DF8AY | 2026-09-04 00:44:10 | 51.61741 | 15.40314 | 150° | 7km/h | 32693m | 6.2m/s | -40.1°C | 0% | 8.3hPa | 2.6V | 18:12:15 | 02:06:19 | 00:00:00 | |
| AA1-15 | 2026-09-04 00:44:04 | 51.61751 | 15.40313 | 12° | 0km/h | 32663m | 6.3m/s | -40.1°C | 0% | 8.4hPa | 2.6V | 18:12:15 | 02:06:14 | 00:00:00 | |
| DF8AY | 2026-09-04 00:43:57 | 51.61749 | 15.40324 | 246° | 11km/h | 32622m | 4.9m/s | -40°C | 0% | 8.4hPa | 2.5V | 18:12:15 | 02:06:07 | 00:00:00 | |
| AA1-15 | 2026-09-04 00:43:53 | 51.61748 | 15.40329 | 38° | 9km/h | 32598m | 6.1m/s | -39.8°C | 0% | 8.4hPa | 2.5V | 18:12:15 | 02:06:03 | 00:00:00 | |
| DF8AY | 2026-09-04 00:43:47 | 51.61758 | 15.40313 | 175° | 24km/h | 32562m | 5.9m/s | -39.6°C | 0% | 8.4hPa | 2.6V | 18:12:15 | 02:05:57 | 00:00:00 | |
| EDDB2-11 | 2026-09-04 00:43:46 | 51.61769 | 15.40311 | 169° | 18km/h | 32549m | 6.3m/s | -39.6°C | 0.4% | 8.5hPa | 2.5V | 00:00:00 | 00:00:00 | 00:00:00 | |
| AA1-15 | 2026-09-04 00:43:43 | 51.61776 | 15.40307 | 150° | 9km/h | 32537m | 5.2m/s | -39.5°C | 0% | 8.5hPa | 2.5V | 18:12:15 | 02:05:53 | 00:00:00 | |
| DF8AY | 2026-09-04 00:43:36 | 51.61787 | 15.40301 | 139° | 11km/h | 32496m | 5.9m/s | -39.2°C | 0% | 8.5hPa | 2.6V | 18:12:15 | 02:05:46 | 00:00:00 | |
| AA1-15 | 2026-09-04 00:43:33 | 51.61792 | 15.40286 | 113° | 16km/h | 32479m | 5.3m/s | -39°C | 0% | 8.6hPa | 2.5V | 18:12:15 | 02:05:43 | 00:00:00 | |
| DF8AY | 2026-09-04 00:43:25 | 51.61824 | 15.40287 | 162° | 15km/h | 32429m | 6.6m/s | -38.8°C | 0% | 8.6hPa | 2.5V | 18:12:15 | 02:05:35 | 00:00:00 | |
| AA1-15 | 2026-09-04 00:43:22 | 51.61829 | 15.40271 | 101° | 18km/h | 32411m | 5.9m/s | -38.7°C | 0% | 8.7hPa | 2.5V | 18:12:15 | 02:05:32 | 00:00:00 | |
| AA1-15 | 2026-09-04 00:43:11 | 51.61862 | 15.40238 | 163° | 18km/h | 32344m | 7.4m/s | -38.5°C | 0% | 8.8hPa | 2.5V | 18:12:15 | 02:05:21 | 00:00:00 | |
| AA1-15 | 2026-09-04 00:43:00 | 51.61915 | 15.40196 | 176° | 26km/h | 32275m | 5.4m/s | -38.3°C | 0% | 8.8hPa | 2.5V | 18:12:15 | 02:05:10 | 00:00:00 | |
| DF8AY | 2026-09-04 00:42:59 | 51.61946 | 15.40177 | 154° | 29km/h | 32244m | 6.5m/s | -38.3°C | 0% | 8.9hPa | 2.6V | 18:12:15 | 02:05:05 | 00:00:00 | |
| AA1-15 | 2026-09-04 00:42:50 | 51.61981 | 15.40158 | 156° | 27km/h | 32215m | 6.5m/s | -38.4°C | 0% | 8.9hPa | 2.6V | 18:12:15 | 02:05:00 | 00:00:00 | |
| DF8AY | 2026-09-04 00:42:45 | 51.62000 | 15.40133 | 158° | 11km/h | 32181m | 7.3m/s | -38.4°C | 0% | 9hPa | 2.6V | 18:12:15 | 02:04:55 | 00:00:00 | |
| AA1-15 | 2026-09-04 00:42:39 | 51.62022 | 15.40126 | 142° | 20km/h | 32141m | 6.3m/s | -38.6°C | 0% | 9hPa | 2.5V | 18:12:15 | 02:04:49 | 00:00:00 | |
| DF8AY | 2026-09-04 00:42:34 | 51.62044 | 15.40106 | 181° | 18km/h | 32109m | 6.4m/s | -38.8°C | 0% | 9.1hPa | 2.5V | 18:12:15 | 02:04:44 | 00:00:00 | |
| AA1-15 | 2026-09-04 00:42:29 | 51.62059 | 15.40100 | 119° | 13km/h | 32078m | 5.9m/s | -38.9°C | 0% | 9.1hPa | 2.5V | 18:12:15 | 02:04:39 | 00:00:00 | |
| DF8AY | 2026-09-04 00:42:22 | 51.62086 | 15.40063 | 137° | 27km/h | 32033m | 6.6m/s | -39°C | 0% | 9.1hPa | 2.6V | 18:12:15 | 02:04:32 | 00:00:00 | |
| AA1-15 | 2026-09-04 00:42:19 | 51.62105 | 15.40042 | 168° | 18km/h | 32010m | 7m/s | -39°C | 0% | 9.2hPa | 2.6V | 18:12:15 | 02:04:28 | 00:00:00 | |
| DF8AY | 2026-09-04 00:42:11 | 51.62128 | 15.40011 | 121° | 24km/h | 31966m | 5.8m/s | -38.8°C | 0% | 9.2hPa | 2.6V | 18:12:15 | 02:04:21 | 00:00:00 | |
| AA1-15 | 2026-09-04 00:42:08 | 51.62140 | 15.39992 | 152° | 20km/h | 31947m | 5.9m/s | -38.8°C | 0% | 9.3hPa | 2.5V | 18:12:15 | 02:04:18 | 00:00:00 | |
| DF8AY | 2026-09-04 00:41:59 | 51.62180 | 15.39926 | 122° | 29km/h | 31860m | 5.7m/s | -38.6°C | 0% | 9.4hPa | 2.6V | 18:12:15 | 02:04:04 | 00:00:00 | |
| AA1-15 | 2026-09-04 00:41:57 | 51.62170 | 15.39948 | 135° | 13km/h | 31879m | 5.8m/s | -38.5°C | 0% | 9.4hPa | 2.5V | 18:12:15 | 02:04:07 | 00:00:00 | |
| AA1-15 | 2026-09-04 00:41:47 | 51.62211 | 15.39883 | 138° | 18km/h | 31814m | 6.8m/s | -38.9°C | 0% | 9.5hPa | 2.5V | 18:12:15 | 02:03:57 | 00:00:00 | |
| DF8AY | 2026-09-04 00:41:41 | 51.62225 | 15.39852 | 133° | 16km/h | 31779m | 4.8m/s | -39°C | 0% | 9.5hPa | 2.5V | 18:12:15 | 02:03:51 | 00:00:00 | |
| AA1-15 | 2026-09-04 00:41:36 | 51.62255 | 15.39804 | 140° | 47km/h | 31748m | 5.6m/s | -39.1°C | 0% | 9.6hPa | 2.5V | 18:12:15 | 02:03:46 | 00:00:00 | |
| DF8AY | 2026-09-04 00:41:31 | 51.62296 | 15.39764 | 146° | 29km/h | 31716m | 7.1m/s | -39.2°C | 0% | 9.6hPa | 2.5V | 18:12:15 | 02:03:41 | 00:00:00 | |
| AA1-15 | 2026-09-04 00:41:25 | 51.62324 | 15.39715 | 145° | 27km/h | 31678m | 6m/s | -39.3°C | 0% | 9.7hPa | 2.5V | 18:12:15 | 02:03:35 | 00:00:00 | |
| DF8AY | 2026-09-04 00:41:20 | 51.62365 | 15.39666 | 132° | 51km/h | 31647m | 6.5m/s | -39.3°C | 0% | 9.7hPa | 2.5V | 18:12:15 | 02:03:30 | 00:00:00 | |
| AA1-15 | 2026-09-04 00:41:15 | 51.62391 | 15.39597 | 121° | 22km/h | 31617m | 6.3m/s | -39.4°C | 0% | 9.8hPa | 2.5V | 18:12:15 | 02:03:25 | 00:00:00 | |
| DF8AY | 2026-09-04 00:41:10 | 51.62420 | 15.39523 | 120° | 49km/h | 31574m | 5.6m/s | -39.9°C | 0% | 9.8hPa | 2.5V | 18:12:15 | 02:03:18 | 00:00:00 | |
| AA1-15 | 2026-09-04 00:41:04 | 51.62446 | 15.39461 | 125° | 40km/h | 31550m | 5.8m/s | -40.2°C | 0% | 9.9hPa | 2.5V | 18:12:15 | 02:03:14 | 00:00:00 | |
| DF8AY | 2026-09-04 00:40:58 | 51.62466 | 15.39385 | 102° | 27km/h | 31513m | 7.3m/s | -40.6°C | 0% | 9.9hPa | 2.5V | 18:12:15 | 02:03:08 | 00:00:00 | |
| AA1-15 | 2026-09-04 00:40:53 | 51.62476 | 15.39324 | 106° | 44km/h | 31482m | 7.1m/s | -40.7°C | 0% | 9.9hPa | 2.5V | 18:12:15 | 02:03:03 | 00:00:00 | |
| DF8AY | 2026-09-04 00:40:48 | 51.62495 | 15.39213 | 93° | 26km/h | 31442m | 5.4m/s | -40.9°C | 0% | 10hPa | 2.6V | 18:12:15 | 02:02:56 | 00:00:00 | |
| S3001 | 2026-09-04 00:40:46 | 51.62495 | 15.39202 | 86° | 26km/h | 31436m | 5.6m/s | -40.9°C | 0.5% | 10.0hPa | 2.5V | 00:00:00 | 00:00:00 | 00:00:00 | |
| AA1-15 | 2026-09-04 00:40:43 | 51.62493 | 15.39175 | 83° | 40km/h | 31423m | 6.8m/s | -41°C | 0% | 10.1hPa | 2.5V | 18:12:15 | 02:02:53 | 00:00:00 | |
| DO2SHX-10 | 2026-09-04 00:40:43 | 51.62493 | 15.39175 | 84° | 46km/h | 31424m | 6.7m/s | -40.9°C | 2.2% | 10.0hPa | 2.5V | 00:00:00 | 02:02:53 | 00:00:00 | |
| SONDE2-11 | 2026-09-04 00:40:42 | 51.62491 | 15.39137 | 87° | 49km/h | 31411m | 5.9m/s | -41.1°C | 0.4% | 10.1hPa | 2.5V | 00:00:00 | 00:00:00 | 00:00:00 | |
| DM0DOS-11 | 2026-09-04 00:40:41 | 51.62497 | 15.39053 | 101° | 35km/h | 31379m | 6.2m/s | -41.4°C | 2.2% | 10.1hPa | 2.5V | 08:30:00 | 02:02:46 | 00:00:00 | |
| DF8AY | 2026-09-04 00:40:37 | 51.62495 | 15.39067 | 102° | 37km/h | 31385m | 5.7m/s | -41.4°C | 0% | 10.1hPa | 2.5V | 18:12:15 | 02:02:47 | 00:00:00 | |
| AA1-15 | 2026-09-04 00:40:33 | 51.62500 | 15.39011 | 86° | 33km/h | 31360m | 5.7m/s | -41.5°C | 0% | 10.2hPa | 2.5V | 18:12:15 | 02:02:43 | 00:00:00 | |
| DF8AY | 2026-09-04 00:40:27 | 51.62490 | 15.38934 | 79° | 42km/h | 31323m | 7.4m/s | -41.8°C | 0% | 10.2hPa | 2.5V | 18:12:15 | 02:02:37 | 00:00:00 | |
| OE5MMP-10 | 2026-09-04 00:40:26 | 51.62488 | 15.38917 | 82° | 35km/h | 31317m | 6.9m/s | -41.8°C | 2.3% | 10.1hPa | 2.6V | 00:00:00 | 02:02:36 | 00:00:00 | |
| DM0DOS-11 | 2026-09-04 00:40:25 | 51.62484 | 15.38827 | 95° | 22km/h | 31279m | 5.3m/s | -42°C | 2.3% | 10.3hPa | 2.6V | 08:30:00 | 02:02:30 | 00:00:00 | |
| AA1-15 | 2026-09-04 00:40:22 | 51.62484 | 15.38847 | 90° | 31km/h | 31292m | 6.3m/s | -42°C | 0% | 10.2hPa | 2.5V | 18:12:15 | 02:02:32 | 00:00:00 | |
| DF8AY | 2026-09-04 00:40:16 | 51.62478 | 15.38759 | 70° | 37km/h | 31243m | 6.3m/s | -42.2°C | 0% | 10.3hPa | 2.6V | 18:12:15 | 02:02:24 | 00:00:00 | |
| AA1-15 | 2026-09-04 00:40:11 | 51.62469 | 15.38721 | 74° | 31km/h | 31223m | 5.3m/s | -42.2°C | 0% | 10.3hPa | 2.5V | 18:12:15 | 02:02:21 | 00:00:00 | |
| DF8AY | 2026-09-04 00:40:04 | 51.62472 | 15.38627 | 101° | 22km/h | 31180m | 6.3m/s | -42.4°C | 0% | 10.4hPa | 2.6V | 18:12:15 | 02:02:14 | 00:00:00 | |
| DAC517 | 2026-09-04 00:40:03 | 51.62472 | 15.38627 | 102° | 22km/h | 31180m | 6.3m/s | -42.4°C | 0.5% | 10.4hPa | 2.6V | 00:00:00 | 00:00:00 | 00:00:00 | |
| DO2SHX-10 | 2026-09-04 00:40:02 | 51.62472 | 15.38611 | 85° | 27km/h | 31169m | 6.1m/s | -42.3°C | 2.4% | 10.4hPa | 2.6V | 00:00:00 | 02:02:12 | 00:00:00 | |
| DM0DOS-11 | 2026-09-04 00:40:01 | 51.62468 | 15.38566 | 78° | 33km/h | 31144m | 5.3m/s | -42.3°C | 2.4% | 10.5hPa | 2.6V | 08:30:00 | 02:02:08 | 00:00:00 | |
| AA1-15 | 2026-09-04 00:40:01 | 51.62472 | 15.38602 | 81° | 24km/h | 31162m | 6.7m/s | -42.4°C | 0% | 10.4hPa | 2.5V | 18:12:15 | 02:02:11 | 00:00:00 | |
| DF8AY | 2026-09-04 00:39:52 | 51.62468 | 15.38485 | 91° | 35km/h | 31105m | 5.7m/s | -42.4°C | 0% | 10.5hPa | 2.5V | 18:12:15 | 02:02:01 | 00:00:00 | |
| DM0DOS-11 | 2026-09-04 00:39:51 | 51.62460 | 15.38441 | 56° | 38km/h | 31089m | 5.7m/s | -42.5°C | 2.3% | 10.6hPa | 2.6V | 08:30:00 | 02:01:58 | 00:00:00 | |
| AA1-15 | 2026-09-04 00:39:50 | 51.62467 | 15.38470 | 81° | 38km/h | 31100m | 5.4m/s | -42.4°C | 0% | 10.5hPa | 2.5V | 18:12:15 | 02:02:00 | 00:00:00 | |
| AA1-15 | 2026-09-04 00:39:40 | 51.62437 | 15.38365 | 90° | 40km/h | 31043m | 6m/s | -42.7°C | 0% | 10.6hPa | 2.5V | 18:12:15 | 02:01:50 | 00:00:00 | |
| DF8AY | 2026-09-04 00:39:40 | 51.62411 | 15.38269 | 60° | 16km/h | 30995m | 5.6m/s | -42.8°C | 0% | 10.7hPa | 2.6V | 18:12:15 | 02:01:42 | 00:00:00 | |
| SONDE2-11 | 2026-09-04 00:39:40 | 51.62436 | 15.38348 | 81° | 42km/h | 31037m | 6.0m/s | -42.8°C | 0.5% | 10.7hPa | 2.6V | 00:00:00 | 00:00:00 | 00:00:00 | |
| DO3MHA-11 | 2026-09-04 00:39:39 | 51.62436 | 15.38348 | 82° | 27km/h | 31037m | 6.0m/s | -42.8°C | 2.4% | 10.6hPa | 2.6V | 00:00:00 | 02:01:49 | 00:00:00 | |
| OE5DRO-10 | 2026-09-04 00:39:38 | 51.62434 | 15.38331 | 75° | 27km/h | 31031m | 5.9m/s | -42.7°C | 2.4% | 10.6hPa | 2.6V | 00:00:00 | 00:00:00 | 00:00:00 | |
| DO2SHX-10 | 2026-09-04 00:39:37 | 51.62430 | 15.38315 | 66° | 37km/h | 31025m | 5.7m/s | -42.7°C | 2.4% | 10.6hPa | 2.6V | 00:00:00 | 02:01:47 | 00:00:00 | |
| DM0DOS-11 | 2026-09-04 00:39:36 | 51.62411 | 15.38269 | 59° | 16km/h | 30995m | 5.6m/s | -42.8°C | 2.4% | 10.7hPa | 2.6V | 08:30:00 | 02:01:42 | 00:00:00 | |
| DF8AY | 2026-09-04 00:39:30 | 51.62384 | 15.38197 | 66° | 27km/h | 30947m | 6.7m/s | -42.9°C | 0% | 10.8hPa | 2.5V | 18:12:15 | 02:01:34 | 00:00:00 | |
| AA1-15 | 2026-09-04 00:39:29 | 51.62404 | 15.38248 | 62° | 24km/h | 30978m | 6.5m/s | -42.8°C | 0% | 10.7hPa | 2.5V | 18:12:15 | 02:01:39 | 00:00:00 | |
| KRY50SP-1 | 2026-09-04 00:39:29 | 51.62404 | 15.38248 | 63° | 24km/h | 30978m | 6.5m/s | -42.8°C | 0.5% | 10.7hPa | 2.5V | 00:00:00 | 00:00:00 | 00:00:00 | |
| PETON7-10 | 2026-09-04 00:39:28 | 51.62401 | 15.38239 | 56° | 27km/h | 30972m | 6.5m/s | -42.8°C | 2.4% | 10.7hPa | 2.5V | 00:00:00 | 02:01:38 | 00:00:00 | |
| DB6KT-10 | 2026-09-04 00:39:27 | 51.62401 | 15.38239 | 57° | 29km/h | 30972m | 6.6m/s | -42.9°C | 0.6% | 10.7hPa | 2.5V | 00:00:00 | 00:00:00 | 00:00:00 | |
| EDDB2-12 | 2026-09-04 00:39:26 | 51.62387 | 15.38207 | 57° | 31km/h | 30953m | 5.3m/s | -43.0°C | 0.5% | 10.8hPa | 2.5V | 00:00:00 | 00:00:00 | 00:00:00 | |
| SP3BTT-10 | 2026-09-04 00:39:25 | 51.62387 | 15.38207 | 58° | 22km/h | 30953m | 5.2m/s | -42.9°C | 2.4% | 10.7hPa | 2.5V | 00:00:00 | 00:00:00 | 00:00:00 | |
| DO2SHX-10 | 2026-09-04 00:39:23 | 51.62382 | 15.38187 | 76° | 26km/h | 30941m | 7.1m/s | -42.9°C | 2.4% | 10.7hPa | 2.5V | 00:00:00 | 02:01:33 | 00:00:00 | |
| DM0DOS-11 | 2026-09-04 00:39:22 | 51.62373 | 15.38140 | 57° | 27km/h | 30910m | 5.4m/s | -43°C | 2.4% | 10.8hPa | 2.5V | 08:30:00 | 02:01:28 | 00:00:00 | |
| AA1-15 | 2026-09-04 00:39:19 | 51.62376 | 15.38150 | 64° | 26km/h | 30916m | 6.1m/s | -43°C | 0% | 10.8hPa | 2.5V | 18:12:15 | 02:01:29 | 00:00:00 | |
| DF8AY | 2026-09-04 00:39:18 | 51.62352 | 15.38095 | 47° | 31km/h | 30879m | 5.5m/s | -43.1°C | 0% | 10.9hPa | 2.5V | 18:12:15 | 02:01:23 | 00:00:00 | |
| OE5MMP-10 | 2026-09-04 00:39:16 | 51.62365 | 15.38122 | 55° | 31km/h | 30898m | 6.9m/s | !°C | 2.4% | 10.8hPa | 2.5V | 00:00:00 | 02:01:26 | 00:00:00 | |
| DO2SHX-10 | 2026-09-04 00:39:15 | 51.62361 | 15.38113 | 53° | 33km/h | 30891m | 6.1m/s | -42.9°C | 2.4% | 10.8hPa | 2.5V | 00:00:00 | 02:01:25 | 00:00:00 | |
| SP6BVK | 2026-09-04 00:39:14 | 51.62361 | 15.38113 | 54° | 27km/h | 30891m | 6.1m/s | -43.0°C | 0.5% | 10.9hPa | 2.5V | 00:00:00 | 00:00:00 | 00:00:00 | |
| PG1ADW-2 | 2026-09-04 00:39:13 | 51.62351 | 15.38095 | 47° | 29km/h | 30880m | 5.5m/s | -43.0°C | 2.5% | 10.8hPa | 2.5V | 00:00:00 | 00:00:00 | 00:00:00 | |
| DB0UT-7 | 2026-09-04 00:39:12 | 51.62346 | 15.38085 | 46° | 18km/h | 30873m | 7.1m/s | -43.1°C | 2.4% | 10.9hPa | 2.5V | 00:00:00 | 00:00:00 | 00:00:00 | |
| OK1SLM-15 | 2026-09-04 00:39:11 | 51.62339 | 15.38075 | 46° | 38km/h | 30866m | 6.5m/s | -43.1°C | 0.5% | 10.9hPa | 2.5V | 00:00:00 | 00:00:00 | 00:00:00 | |
| DM0DOS-11 | 2026-09-04 00:39:09 | 51.62323 | 15.38041 | 66° | 29km/h | 30849m | 6.7m/s | -43.2°C | 2.5% | 10.9hPa | 2.5V | 08:30:00 | 02:01:18 | 00:00:00 | |
| AA1-15 | 2026-09-04 00:39:08 | 51.62323 | 15.38041 | 67° | 29km/h | 30849m | 6.7m/s | -43.2°C | 0% | 10.9hPa | 2.5V | 18:12:15 | 02:01:18 | 00:00:00 | |
| DF8AY | 2026-09-04 00:39:04 | 51.62324 | 15.38000 | 96° | 26km/h | 30825m | 5.6m/s | -43.2°C | 0% | 11hPa | 2.5V | 18:12:15 | 02:01:14 | 00:00:00 | |
| DF8AY | 2026-09-04 00:38:58 | 51.62282 | 15.37887 | 72° | 35km/h | 30752m | 5.6m/s | -43°C | 0% | 11.1hPa | 2.5V | 18:12:15 | 02:01:02 | 00:00:00 | |
| AA1-15 | 2026-09-04 00:38:57 | 51.62298 | 15.37937 | 51° | 24km/h | 30783m | 5.7m/s | -43°C | 0% | 11.1hPa | 2.5V | 18:12:15 | 02:01:07 | 00:00:00 | |
| AA1-15 | 2026-09-04 00:38:47 | 51.62274 | 15.37824 | 63° | 29km/h | 30724m | 5.2m/s | -43°C | 0% | 11.2hPa | 2.5V | 18:12:15 | 02:00:57 | 00:00:00 | |
| DF8AY | 2026-09-04 00:38:42 | 51.62243 | 15.37786 | 28° | 29km/h | 30693m | 6.6m/s | -42.8°C | 0% | 11.2hPa | 2.5V | 18:12:15 | 02:00:52 | 00:00:00 | |
| AA1-15 | 2026-09-04 00:38:36 | 51.62225 | 15.37736 | 72° | 33km/h | 30656m | 5.4m/s | -42.9°C | 0% | 11.3hPa | 2.5V | 18:12:15 | 02:00:46 | 00:00:00 | |
| DF8AY | 2026-09-04 00:38:31 | 51.62212 | 15.37687 | 53° | 18km/h | 30627m | 5.7m/s | -42.9°C | 0% | 11.3hPa | 2.5V | 18:12:15 | 02:00:41 | 00:00:00 | |
| AA1-15 | 2026-09-04 00:38:25 | 51.62186 | 15.37646 | 68° | 18km/h | 30586m | 6.6m/s | -42.6°C | 0% | 11.4hPa | 2.5V | 18:12:15 | 02:00:34 | 00:00:00 | |
| DF8AY | 2026-09-04 00:38:19 | 51.62178 | 15.37605 | 63° | 26km/h | 30556m | 5m/s | -42.4°C | 0% | 11.4hPa | 2.5V | 18:12:15 | 02:00:29 | 00:00:00 | |
| AA1-15 | 2026-09-04 00:38:15 | 51.62168 | 15.37582 | 27° | 7km/h | 30532m | 6.2m/s | -42.5°C | 0% | 11.5hPa | 2.5V | 18:12:15 | 02:00:25 | 00:00:00 | |
| DF8AY | 2026-09-04 00:38:09 | 51.62150 | 15.37576 | 35° | 16km/h | 30497m | 5.4m/s | -42.7°C | 0% | 11.6hPa | 2.5V | 18:12:15 | 02:00:19 | 00:00:00 | |
| AA1-15 | 2026-09-04 00:38:04 | 51.62144 | 15.37549 | 78° | 15km/h | 30467m | 6.9m/s | -43°C | 0% | 11.6hPa | 2.5V | 18:12:15 | 02:00:14 | 00:00:00 | |
| DF8AY | 2026-09-04 00:37:58 | 51.62134 | 15.37531 | 2° | 7km/h | 30431m | 4.7m/s | -43.2°C | 0% | 11.7hPa | 2.5V | 18:12:15 | 02:00:08 | 00:00:00 | |
| AA1-15 | 2026-09-04 00:37:53 | 51.62112 | 15.37513 | 54° | 15km/h | 30397m | 6m/s | -43.2°C | 0% | 11.7hPa | 2.5V | 18:12:15 | 02:00:02 | 00:00:00 | |
| DF8AY | 2026-09-04 00:37:47 | 51.62115 | 15.37498 | 77° | 4km/h | 30368m | 5.3m/s | -43.2°C | 0% | 11.8hPa | 2.5V | 18:12:15 | 01:59:57 | 00:00:00 | |
| DJ2DS-15 | 2026-09-04 00:37:46 | 51.62111 | 15.37495 | 20° | 16km/h | 30356m | 6.2m/s | 0°C | -1.0% | 11.8hPa | 2.5V | 00:00:00 | 00:00:00 | 00:00:00 | |
| AA1-15 | 2026-09-04 00:37:41 | 51.62091 | 15.37483 | 28° | 15km/h | 30333m | 6.2m/s | -43.1°C | 0% | 11.8hPa | 2.5V | 18:12:15 | 01:59:51 | 00:00:00 | |
| DF8AY | 2026-09-04 00:37:37 | 51.62086 | 15.37470 | 64° | 7km/h | 30304m | 6.3m/s | -43.2°C | 0% | 11.9hPa | 2.5V | 18:12:15 | 01:59:46 | 00:00:00 | |
| AA1-15 | 2026-09-04 00:37:31 | 51.62082 | 15.37463 | 40° | 2km/h | 30275m | 5.5m/s | -43.1°C | 0% | 12hPa | 2.5V | 18:12:15 | 01:59:41 | 00:00:00 | |
| DF8AY | 2026-09-04 00:37:26 | 51.62073 | 15.37446 | 56° | 16km/h | 30244m | 5.3m/s | -43°C | 0% | 12hPa | 2.5V | 18:12:15 | 01:59:36 | 00:00:00 | |
| AA1-15 | 2026-09-04 00:37:21 | 51.62072 | 15.37432 | 208° | 2km/h | 30215m | 5.4m/s | -43°C | 0% | 12hPa | 2.5V | 18:12:15 | 01:59:31 | 00:00:00 | |
| DF8AY | 2026-09-04 00:37:16 | 51.62064 | 15.37433 | 19° | 5km/h | 30187m | 6.4m/s | -43.2°C | 0% | 12.1hPa | 2.5V | 18:12:15 | 01:59:26 | 00:00:00 | |
| AA1-15 | 2026-09-04 00:37:11 | 51.62066 | 15.37412 | 87° | 22km/h | 30157m | 6.5m/s | -43.5°C | 0% | 12.2hPa | 2.5V | 18:12:15 | 01:59:21 | 00:00:00 | |
| DF8AY | 2026-09-04 00:37:05 | 51.62065 | 15.37383 | 218° | 4km/h | 30123m | 5.5m/s | -43.7°C | 0% | 12.2hPa | 2.5V | 18:12:15 | 01:59:15 | 00:00:00 | |
| AA1-15 | 2026-09-04 00:37:01 | 51.62064 | 15.37377 | 78° | 15km/h | 30099m | 5.1m/s | -43.8°C | 0% | 12.3hPa | 2.5V | 18:12:15 | 01:59:11 | 00:00:00 | |
| DF8AY | 2026-09-04 00:36:55 | 51.62067 | 15.37326 | 81° | 18km/h | 30057m | 5.6m/s | -44.1°C | 0% | 12.3hPa | 2.5V | 18:12:15 | 01:59:04 | 00:00:00 | |
| AA1-15 | 2026-09-04 00:36:51 | 51.62065 | 15.37311 | 101° | 5km/h | 30039m | 6.8m/s | -44.1°C | 0% | 12.4hPa | 2.6V | 18:12:15 | 01:59:01 | 00:00:00 | |
| SONCRA | 2026-09-04 00:36:51 | 51.62066 | 15.37310 | 132° | 4km/h | 30033m | 5.4m/s | -44.2°C | 0.6% | 12.4hPa | 2.6V | 00:00:00 | 00:00:00 | 00:00:00 | |
| EDDB2-12 | 2026-09-04 00:36:50 | 51.62066 | 15.37310 | 132° | 4km/h | 30033m | 5.4m/s | -44.2°C | 0.6% | 12.4hPa | 2.6V | 00:00:00 | 00:00:00 | 00:00:00 | |
| BIOWL1-15 | 2026-09-04 00:36:45 | 51.62068 | 15.37195 | 99° | 13km/h | 29945m | 6.9m/s | -44.7°C | 0% | 12.6hPa | 2.6V | 18:12:15 | 01:58:45 | 00:00:00 | |
| DF8AY | 2026-09-04 00:36:43 | 51.62068 | 15.37216 | 86° | 22km/h | 29963m | 5.9m/s | -44.7°C | 0% | 12.5hPa | 2.5V | 18:12:15 | 01:58:48 | 00:00:00 | |
| AA1-15 | 2026-09-04 00:36:40 | 51.62068 | 15.37233 | 98° | 22km/h | 29976m | 5.5m/s | -44.6°C | 0% | 12.5hPa | 2.5V | 18:12:15 | 01:58:50 | 00:00:00 | |
| DF8AY | 2026-09-04 00:36:32 | 51.62070 | 15.37181 | 96° | 13km/h | 29928m | 5.2m/s | -44.8°C | 0% | 12.6hPa | 2.5V | 18:12:15 | 01:58:42 | 00:00:00 | |
| AA1-15 | 2026-09-04 00:36:29 | 51.62067 | 15.37159 | 73° | 24km/h | 29909m | 5.5m/s | -44.8°C | 0% | 12.6hPa | 2.5V | 18:12:15 | 01:58:39 | 00:00:00 | |
| DF8AY | 2026-09-04 00:36:22 | 51.62068 | 15.37100 | 98° | 18km/h | 29866m | 5.6m/s | -45°C | 0% | 12.7hPa | 2.5V | 18:12:15 | 01:58:32 | 00:00:00 | |
| AA1-15 | 2026-09-04 00:36:19 | 51.62071 | 15.37085 | 133° | 9km/h | 29849m | 7m/s | -45.1°C | 0% | 12.7hPa | 2.6V | 18:12:15 | 01:58:29 | 00:00:00 | |
| DF8AY | 2026-09-04 00:36:11 | 51.62071 | 15.37059 | 90° | 13km/h | 29803m | 6.9m/s | -45.6°C | 0% | 12.8hPa | 2.5V | 18:12:15 | 01:58:21 | 00:00:00 | |
| AA1-15 | 2026-09-04 00:36:09 | 51.62074 | 15.37050 | 145° | 15km/h | 29790m | 6.1m/s | -45.6°C | 0% | 12.9hPa | 2.6V | 18:12:15 | 01:58:19 | 00:00:00 | |
| BIOWL1-15 | 2026-09-04 00:36:01 | 51.62097 | 15.37034 | 121° | 11km/h | 29727m | 6.8m/s | -45.6°C | 0% | 13hPa | 2.6V | 18:12:15 | 01:58:09 | 00:00:00 | |
| DF8AY | 2026-09-04 00:36:00 | 51.62096 | 15.37037 | 145° | 9km/h | 29734m | 6.2m/s | -45.6°C | 0% | 13hPa | 2.5V | 18:12:15 | 01:58:10 | 00:00:00 | |
| AA1-15 | 2026-09-04 00:35:59 | 51.62099 | 15.37030 | 115° | 15km/h | 29722m | 5.4m/s | -45.6°C | 0% | 13hPa | 2.6V | 18:12:15 | 01:58:08 | 00:00:00 | |
| DF8AY | 2026-09-04 00:35:54 | 51.62127 | 15.37019 | 193° | 7km/h | 29670m | 4.7m/s | -45.7°C | 0% | 13.1hPa | 2.5V | 18:12:15 | 01:57:59 | 00:00:00 | |
| BIOWL1-15 | 2026-09-04 00:35:48 | 51.62142 | 15.37022 | 184° | 26km/h | 29648m | 6.4m/s | -45.8°C | 0% | 13.1hPa | 2.5V | 18:12:15 | 01:57:55 | 00:00:00 | |
| AA1-15 | 2026-09-04 00:35:47 | 51.62132 | 15.37020 | 193° | 13km/h | 29660m | 6.2m/s | -45.8°C | 0% | 13.1hPa | 2.6V | 18:12:15 | 01:57:57 | 00:00:00 | |
| DF8AY | 2026-09-04 00:35:38 | 51.62182 | 15.36997 | 149° | 22km/h | 29605m | 6.8m/s | -45.8°C | 0% | 13.3hPa | 2.5V | 18:12:15 | 01:57:48 | 00:00:00 | |
| BIOWL1-15 | 2026-09-04 00:35:38 | 51.62193 | 15.36990 | 170° | 22km/h | 29592m | 5.7m/s | -45.8°C | 0% | 13.2hPa | 2.6V | 18:12:15 | 01:57:46 | 00:00:00 | |
| AA1-15 | 2026-09-04 00:35:37 | 51.62187 | 15.36993 | 161° | 22km/h | 29598m | 6.7m/s | -45.8°C | 0% | 13.2hPa | 2.6V | 18:12:15 | 01:57:47 | 00:00:00 | |
| DF8AY | 2026-09-04 00:35:27 | 51.62254 | 15.36962 | 145° | 35km/h | 29538m | 6m/s | -45.9°C | 0% | 13.4hPa | 2.5V | 18:12:15 | 01:57:37 | 00:00:00 | |
| AA1-15 | 2026-09-04 00:35:26 | 51.62260 | 15.36954 | 134° | 31km/h | 29532m | 6.8m/s | -45.9°C | 0% | 13.4hPa | 2.6V | 18:12:15 | 01:57:36 | 00:00:00 | |
| BIOWL1-15 | 2026-09-04 00:35:25 | 51.62268 | 15.36937 | 122° | 22km/h | 29521m | 4.6m/s | -45.9°C | 0% | 13.4hPa | 2.5V | 18:12:15 | 01:57:34 | 00:00:00 | |
| BIOWL1-15 | 2026-09-04 00:35:17 | 51.62333 | 15.36885 | 144° | 38km/h | 29454m | 6.1m/s | -46.2°C | 0% | 13.6hPa | 2.5V | 18:12:15 | 01:57:23 | 00:00:00 | |
| DF8AY | 2026-09-04 00:35:17 | 51.62305 | 15.36914 | 159° | 27km/h | 29478m | 6m/s | -46.2°C | 0% | 13.5hPa | 2.5V | 18:12:15 | 01:57:27 | 00:00:00 | |
| AA1-15 | 2026-09-04 00:35:15 | 51.62318 | 15.36902 | 144° | 33km/h | 29467m | 5.6m/s | -46.2°C | 0% | 13.5hPa | 2.6V | 18:12:15 | 01:57:25 | 00:00:00 | |
| DF8AY | 2026-09-04 00:35:07 | 51.62365 | 15.36828 | 128° | 24km/h | 29418m | 5.5m/s | -46.2°C | 0% | 13.6hPa | 2.5V | 18:12:15 | 01:57:17 | 00:00:00 | |
| BIOWL1-15 | 2026-09-04 00:35:06 | 51.62412 | 15.36781 | 141° | 31km/h | 29368m | 6m/s | -46.5°C | 0% | 13.7hPa | 2.6V | 18:12:15 | 01:57:09 | 00:00:00 | |
| AA1-15 | 2026-09-04 00:35:05 | 51.62374 | 15.36815 | 152° | 27km/h | 29404m | 6.4m/s | -46.2°C | 0% | 13.6hPa | 2.6V | 18:12:15 | 01:57:15 | 00:00:00 | |
| DF8AY | 2026-09-04 00:34:56 | 51.62430 | 15.36756 | 135° | 29km/h | 29350m | 5m/s | -46.5°C | 0% | 13.8hPa | 2.5V | 18:12:15 | 01:57:06 | 00:00:00 | |
| AA1-15 | 2026-09-04 00:34:54 | 51.62438 | 15.36740 | 124° | 24km/h | 29337m | 6.9m/s | -46.6°C | 0% | 13.8hPa | 2.6V | 18:12:15 | 01:57:04 | 00:00:00 | |
| BIOWL1-15 | 2026-09-04 00:34:53 | 51.62449 | 15.36719 | 143° | 26km/h | 29319m | 7m/s | -46.7°C | 0% | 13.8hPa | 2.5V | 18:12:15 | 01:57:01 | 00:00:00 | |
| DF8AY | 2026-09-04 00:34:47 | 51.62485 | 15.36686 | 142° | 35km/h | 29288m | 6.2m/s | -47°C | 0% | 13.9hPa | 2.5V | 18:12:15 | 01:56:56 | 00:00:00 | |
| SONCRA | 2026-09-04 00:34:47 | 51.62485 | 15.36686 | 142° | 33km/h | 29288m | 6.2m/s | -47.0°C | 0.7% | 13.9hPa | 2.5V | 00:00:00 | 00:00:00 | 00:00:00 | |
| EDDB2-12 | 2026-09-04 00:34:46 | 51.62492 | 15.36677 | 136° | 33km/h | 29282m | 5.9m/s | -47.1°C | 0.7% | 13.9hPa | 2.5V | 00:00:00 | 00:00:00 | 00:00:00 | |
| AA1-15 | 2026-09-04 00:34:44 | 51.62498 | 15.36668 | 133° | 35km/h | 29275m | 6.2m/s | -47°C | 0% | 13.9hPa | 2.5V | 18:12:15 | 01:56:54 | 00:00:00 | |
| BIOWL1-15 | 2026-09-04 00:34:41 | 51.62515 | 15.36639 | 133° | 29km/h | 29257m | 4.9m/s | -47.1°C | 0% | 13.9hPa | 2.5V | 18:12:15 | 01:56:51 | 00:00:00 | |
| DF8AY | 2026-09-04 00:34:35 | 51.62531 | 15.36599 | 133° | 20km/h | 29220m | 6.8m/s | -47.2°C | 0% | 14.1hPa | 2.5V | 18:12:15 | 01:56:45 | 00:00:00 | |
| AA1-15 | 2026-09-04 00:34:34 | 51.62535 | 15.36592 | 137° | 26km/h | 29214m | 5.6m/s | -47.2°C | 0% | 14hPa | 2.5V | 18:12:15 | 01:56:44 | 00:00:00 | |
| BIOWL1-15 | 2026-09-04 00:34:30 | 51.62551 | 15.36562 | 117° | 22km/h | 29190m | 6.2m/s | -47.3°C | 0% | 14.1hPa | 2.5V | 18:12:15 | 01:56:40 | 00:00:00 | |
| AA1-15 | 2026-09-04 00:34:24 | 51.62564 | 15.36514 | 109° | 22km/h | 29155m | 5.6m/s | -47.2°C | 0% | 14.2hPa | 2.5V | 18:12:15 | 01:56:34 | 00:00:00 | |
| DF8AY | 2026-09-04 00:34:14 | 51.62567 | 15.36453 | 44° | 11km/h | 29092m | 6.5m/s | -47°C | 0% | 14.3hPa | 2.5V | 18:12:15 | 01:56:24 | 00:00:00 | |
| AA1-15 | 2026-09-04 00:34:13 | 51.62565 | 15.36449 | 44° | 13km/h | 29086m | 5.2m/s | -47°C | 0% | 14.3hPa | 2.5V | 18:12:15 | 01:56:23 | 00:00:00 | |
| BIOWL1-15 | 2026-09-04 00:34:06 | 51.62558 | 15.36393 | 81° | 26km/h | 29043m | 5.1m/s | -47.1°C | 0% | 14.4hPa | 2.5V | 18:12:15 | 01:56:16 | 00:00:00 | |
| DF8AY | 2026-09-04 00:34:04 | 51.62556 | 15.36375 | 88° | 18km/h | 29032m | 6.4m/s | -47.1°C | 0% | 14.5hPa | 2.6V | 18:12:15 | 01:56:14 | 00:00:00 | |
| AA1-15 | 2026-09-04 00:34:02 | 51.62557 | 15.36362 | 95° | 11km/h | 29020m | 5.1m/s | -47.2°C | 0% | 14.5hPa | 2.5V | 18:12:15 | 01:56:12 | 00:00:00 | |
| DF8AY | 2026-09-04 00:33:54 | 51.62537 | 15.36335 | 63° | 15km/h | 28972m | 5.2m/s | -47°C | 0% | 14.6hPa | 2.6V | 18:12:15 | 01:56:04 | 00:00:00 | |
| AA1-15 | 2026-09-04 00:33:52 | 51.62534 | 15.36323 | 66° | 20km/h | 28960m | 7.2m/s | -46.9°C | 0% | 14.6hPa | 2.5V | 18:12:15 | 01:56:02 | 00:00:00 | |
| SP3WXH-11 | 2026-09-04 00:33:51 | 51.62531 | 15.36315 | 61° | 20km/h | 28953m | 6.3m/s | -46.9°C | 0.7% | 14.6hPa | 2.6V | 00:00:00 | 00:00:00 | 00:00:00 | |
| BIOWL1-15 | 2026-09-04 00:33:43 | 51.62515 | 15.36284 | 3° | 15km/h | 28905m | 6.5m/s | -46.6°C | 0% | 14.7hPa | 2.6V | 18:12:15 | 01:55:53 | 00:00:00 | |
| AA1-15 | 2026-09-04 00:33:41 | 51.62507 | 15.36284 | 3° | 15km/h | 28894m | 5.4m/s | -46.6°C | 0% | 14.8hPa | 2.5V | 18:12:15 | 01:55:51 | 00:00:00 | |
| DF8AY | 2026-09-04 00:33:32 | 51.62489 | 15.36267 | 35° | 9km/h | 28841m | 6.1m/s | -46.6°C | 0% | 14.9hPa | 2.6V | 18:12:15 | 01:55:42 | 00:00:00 | |
| AA1-15 | 2026-09-04 00:33:31 | 51.62488 | 15.36265 | 42° | 4km/h | 28835m | 6.7m/s | -46.6°C | 0% | 14.9hPa | 2.5V | 18:12:15 | 01:55:41 | 00:00:00 | |
| DF8AY | 2026-09-04 00:33:22 | 51.62476 | 15.36281 | 100° | 2km/h | 28775m | 5m/s | -46.7°C | 0% | 15hPa | 2.6V | 18:12:15 | 01:55:31 | 00:00:00 | |
| AA1-15 | 2026-09-04 00:33:20 | 51.62476 | 15.36280 | 16° | 2km/h | 28769m | 6.5m/s | -46.7°C | 0% | 15.1hPa | 2.5V | 18:12:15 | 01:55:30 | 00:00:00 | |
| DF8AY | 2026-09-04 00:33:11 | 51.62472 | 15.36311 | 281° | 15km/h | 28717m | 6.3m/s | -46.6°C | 0% | 15.2hPa | 2.6V | 18:12:15 | 01:55:21 | 00:00:00 | |
| AA1-15 | 2026-09-04 00:33:10 | 51.62471 | 15.36317 | 288° | 15km/h | 28711m | 5m/s | -46.6°C | 0% | 15.2hPa | 2.6V | 18:12:15 | 01:55:20 | 00:00:00 | |
| AA1-15 | 2026-09-04 00:33:00 | 51.62486 | 15.36331 | 232° | 7km/h | 28652m | 6.6m/s | -46.4°C | 0% | 15.3hPa | 2.6V | 18:12:15 | 01:55:10 | 00:00:00 | |
| AA1-15 | 2026-09-04 00:32:50 | 51.62502 | 15.36350 | 177° | 22km/h | 28594m | 5.1m/s | -46.1°C | 0% | 15.4hPa | 2.5V | 18:12:15 | 01:55:00 | 00:00:00 | |
| DF8AY | 2026-09-04 00:32:49 | 51.62507 | 15.36350 | 177° | 18km/h | 28587m | 6.5m/s | -46.1°C | 0% | 15.5hPa | 2.6V | 18:12:15 | 01:54:59 | 00:00:00 | |
| BIOWL1-15 | 2026-09-04 00:32:43 | 51.62527 | 15.36364 | 209° | 7km/h | 28540m | 6.5m/s | -46.2°C | 0% | 15.6hPa | 2.5V | 18:12:15 | 01:54:51 | 00:00:00 | |
| DF8AY | 2026-09-04 00:32:39 | 51.62534 | 15.36365 | 177° | 15km/h | 28525m | 6.2m/s | -46.4°C | 0% | 15.6hPa | 2.6V | 18:12:15 | 01:54:48 | 00:00:00 | |
| AA1-15 | 2026-09-04 00:32:39 | 51.62531 | 15.36365 | 177° | 11km/h | 28530m | 4.2m/s | -46.3°C | 0% | 15.6hPa | 2.5V | 18:12:15 | 01:54:49 | 00:00:00 | |
| BIOWL1-15 | 2026-09-04 00:32:30 | 51.62574 | 15.36371 | 203° | 20km/h | 28473m | 6.1m/s | -46.6°C | 0% | 15.7hPa | 2.5V | 18:12:15 | 01:54:39 | 00:00:00 | |
| AA1-15 | 2026-09-04 00:32:28 | 51.62579 | 15.36374 | 204° | 22km/h | 28467m | 4.7m/s | -46.6°C | 0% | 15.7hPa | 2.6V | 18:12:15 | 01:54:38 | 00:00:00 | |
| DF8AY | 2026-09-04 00:32:26 | 51.62588 | 15.36380 | 196° | 16km/h | 28456m | 6.2m/s | -46.7°C | 0% | 15.8hPa | 2.5V | 18:12:15 | 01:54:36 | 00:00:00 | |
| BIOWL1-15 | 2026-09-04 00:32:18 | 51.62629 | 15.36344 | 145° | 27km/h | 28410m | 6.6m/s | -47°C | 0% | 15.9hPa | 2.5V | 18:12:15 | 01:54:28 | 00:00:00 | |
| DF8AY | 2026-09-04 00:32:15 | 51.62641 | 15.36331 | 166° | 15km/h | 28393m | 5.8m/s | -47°C | 0% | 15.9hPa | 2.5V | 18:12:15 | 01:54:25 | 00:00:00 | |
| AA1-15 | 2026-09-04 00:32:14 | 51.62645 | 15.36330 | 185° | 15km/h | 28386m | 6.6m/s | -47°C | 0% | 15.9hPa | 2.5V | 18:12:15 | 01:54:24 | 00:00:00 | |
| BIOWL1-15 | 2026-09-04 00:32:08 | 51.62667 | 15.36319 | 126° | 24km/h | 28353m | 5.1m/s | -47.1°C | 0% | 16hPa | 2.5V | 18:12:15 | 01:54:18 | 00:00:00 | |
| AA1-15 | 2026-09-04 00:32:04 | 51.62690 | 15.36285 | 147° | 37km/h | 28331m | 4.9m/s | -47.3°C | 0% | 16.1hPa | 2.5V | 18:12:15 | 01:54:14 | 00:00:00 | |
| BIOWL1-15 | 2026-09-04 00:31:57 | 51.62744 | 15.36258 | 168° | 22km/h | 28282m | 5.7m/s | -47.3°C | 0% | 16.2hPa | 2.6V | 18:12:15 | 01:54:05 | 00:00:00 | |
| DF8AY | 2026-09-04 00:31:54 | 51.62749 | 15.36255 | 148° | 22km/h | 28276m | 6.8m/s | -47.3°C | 0% | 16.2hPa | 2.6V | 18:12:15 | 01:54:04 | 00:00:00 | |
| AA1-15 | 2026-09-04 00:31:53 | 51.62754 | 15.36249 | 135° | 26km/h | 28270m | 5.8m/s | -47.3°C | 0% | 16.2hPa | 2.5V | 18:12:15 | 01:54:03 | 00:00:00 | |
| EDDB2-11 | 2026-09-04 00:31:51 | 51.62764 | 15.36231 | 133° | 31km/h | 28258m | 6.4m/s | -47.4°C | 0.7% | 16.2hPa | 2.6V | 00:00:00 | 00:00:00 | 00:00:00 | |
| DL1ZP-14 | 2026-09-04 00:31:49 | 51.62783 | 15.36206 | 144° | 31km/h | 28241m | 5.7m/s | -47.4°C | 0.7% | 16.3hPa | 2.6V | 00:00:00 | 00:00:00 | 00:00:00 | |
| SP3WXH-11 | 2026-09-04 00:31:47 | 51.62789 | 15.36199 | 144° | 27km/h | 28234m | 6.6m/s | -47.5°C | 0.7% | 16.3hPa | 2.6V | 00:00:00 | 00:00:00 | 00:00:00 | |
| BIOWL1-15 | 2026-09-04 00:31:44 | 51.62805 | 15.36182 | 156° | 26km/h | 28218m | 5.7m/s | -47.6°C | 0% | 16.3hPa | 2.6V | 18:12:15 | 01:53:54 | 00:00:00 | |
| DF8AY | 2026-09-04 00:31:43 | 51.62812 | 15.36178 | 162° | 27km/h | 28212m | 5.9m/s | -47.7°C | 0% | 16.4hPa | 2.6V | 18:12:15 | 01:53:53 | 00:00:00 | |
| BIOWL1-15 | 2026-09-04 00:31:34 | 51.62878 | 15.36082 | 131° | 16km/h | 28145m | 6.3m/s | -48°C | 0% | 16.5hPa | 2.5V | 18:12:15 | 01:53:41 | 00:00:00 | |
| DF8AY | 2026-09-04 00:31:33 | 51.62870 | 15.36093 | 143° | 24km/h | 28157m | 5.4m/s | -48°C | 0% | 16.5hPa | 2.6V | 18:12:15 | 01:53:43 | 00:00:00 | |
| AA1-15 | 2026-09-04 00:31:33 | 51.62874 | 15.36087 | 141° | 20km/h | 28152m | 6.3m/s | -48°C | 0% | 16.5hPa | 2.6V | 18:12:15 | 01:53:42 | 00:00:00 | |
| AA1-15 | 2026-09-04 00:31:22 | 51.62900 | 15.36033 | 101° | 20km/h | 28094m | 5m/s | -48.1°C | 0% | 16.7hPa | 2.6V | 18:12:15 | 01:53:32 | 00:00:00 | |
| DF8AY | 2026-09-04 00:31:21 | 51.62901 | 15.36025 | 99° | 22km/h | 28089m | 5m/s | -48.1°C | 0% | 16.7hPa | 2.6V | 18:12:15 | 01:53:31 | 00:00:00 | |
| BIOWL1-15 | 2026-09-04 00:31:20 | 51.62916 | 15.35956 | 91° | 20km/h | 28021m | 6.3m/s | -48.2°C | 0% | 16.9hPa | 2.5V | 18:12:15 | 01:53:19 | 00:00:00 | |
| AA1-15 | 2026-09-04 00:31:12 | 51.62915 | 15.35975 | 98° | 9km/h | 28038m | 6.4m/s | -48.1°C | 0% | 16.8hPa | 2.5V | 18:12:15 | 01:53:22 | 00:00:00 | |
| DF8AY | 2026-09-04 00:31:11 | 51.62915 | 15.35970 | 102° | 15km/h | 28032m | 5.8m/s | -48.1°C | 0% | 16.9hPa | 2.6V | 18:12:15 | 01:53:21 | 00:00:00 | |
| AA1-15 | 2026-09-04 00:31:01 | 51.62923 | 15.35909 | 172° | 5km/h | 27975m | 6.4m/s | -48.1°C | 0% | 17hPa | 2.5V | 18:12:15 | 01:53:11 | 00:00:00 | |
| DF8AY | 2026-09-04 00:31:01 | 51.62924 | 15.35909 | 217° | 5km/h | 27969m | 5.4m/s | -48.1°C | 0% | 16.9hPa | 2.6V | 18:12:15 | 01:53:10 | 00:00:00 | |
| BIOWL1-15 | 2026-09-04 00:30:58 | 51.62929 | 15.35893 | 65° | 15km/h | 27918m | 5.7m/s | -47.9°C | 0% | 17.1hPa | 2.5V | 18:12:15 | 01:53:01 | 00:00:00 | |
| AA1-15 | 2026-09-04 00:30:51 | 51.62928 | 15.35887 | 78° | 13km/h | 27912m | 6.3m/s | -47.9°C | 0% | 17.1hPa | 2.6V | 18:12:15 | 01:53:00 | 00:00:00 | |
| DF8AY | 2026-09-04 00:30:50 | 51.62935 | 15.35885 | 223° | 11km/h | 27878m | 4.8m/s | -47.9°C | 0% | 17.2hPa | 2.6V | 18:12:15 | 01:52:54 | 00:00:00 | |
| BIOWL1-15 | 2026-09-04 00:30:46 | 51.62932 | 15.35879 | 217° | 7km/h | 27889m | 6.8m/s | -47.9°C | 0% | 17.2hPa | 2.5V | 18:12:15 | 01:52:56 | 00:00:00 | |
| SP3WXH-11 | 2026-09-04 00:30:45 | 51.62933 | 15.35882 | 228° | 9km/h | 27884m | 5.2m/s | -47.9°C | 0.7% | 17.2hPa | 2.6V | 00:00:00 | 00:00:00 | 00:00:00 | |
| AA1-15 | 2026-09-04 00:30:39 | 51.62946 | 15.35884 | 106° | 7km/h | 27849m | 6.3m/s | -47.9°C | 0% | 17.3hPa | 2.6V | 18:12:15 | 01:52:49 | 00:00:00 | |
| DF8AY | 2026-09-04 00:30:35 | 51.62951 | 15.35869 | 200° | 5km/h | 27816m | 5.6m/s | -48.1°C | 0% | 17.4hPa | 2.6V | 18:12:15 | 01:52:43 | 00:00:00 | |
| BIOWL1-15 | 2026-09-04 00:30:35 | 51.62953 | 15.35873 | 259° | 11km/h | 27804m | 5.5m/s | -48.2°C | 0% | 17.4hPa | 2.5V | 18:12:15 | 01:52:41 | 00:00:00 | |
| AA1-15 | 2026-09-04 00:30:29 | 51.62957 | 15.35888 | 227° | 13km/h | 27789m | 6.1m/s | -48.4°C | 0% | 17.5hPa | 2.6V | 18:12:15 | 01:52:38 | 00:00:00 | |
| DF8AY | 2026-09-04 00:30:25 | 51.62965 | 15.35894 | 190° | 9km/h | 27772m | 5.5m/s | -48.4°C | 0.1% | 17.5hPa | 2.5V | 18:12:15 | 01:52:35 | 00:00:00 | |
| AA1-15 | 2026-09-04 00:30:19 | 51.62973 | 15.35920 | 261° | 18km/h | 27725m | 6.5m/s | -48.2°C | 0% | 17.7hPa | 2.6V | 18:12:15 | 01:52:27 | 00:00:00 | |
| DF8AY | 2026-09-04 00:30:14 | 51.62977 | 15.35940 | 232° | 18km/h | 27708m | 6.7m/s | -48.2°C | 0% | 17.7hPa | 2.5V | 18:12:15 | 01:52:24 | 00:00:00 | |
| AA1-15 | 2026-09-04 00:30:08 | 51.62994 | 15.35966 | 237° | 11km/h | 27669m | 5.7m/s | -48.1°C | 0% | 17.8hPa | 2.5V | 18:12:15 | 01:52:17 | 00:00:00 | |
| BIOWL1-15 | 2026-09-04 00:30:07 | 51.62998 | 15.35973 | 223° | 15km/h | 27657m | 5.6m/s | -48.1°C | 0% | 17.8hPa | 2.6V | 18:12:15 | 01:52:15 | 00:00:00 | |
| DF8AY | 2026-09-04 00:30:03 | 51.63002 | 15.35982 | 238° | 15km/h | 27645m | 6.7m/s | -48.1°C | 0% | 17.8hPa | 2.5V | 18:12:15 | 01:52:13 | 00:00:00 | |
| BIOWL1-15 | 2026-09-04 00:29:57 | 51.63021 | 15.36007 | 228° | 9km/h | 27597m | 5.3m/s | -48°C | 0% | 18hPa | 2.6V | 18:12:15 | 01:52:04 | 00:00:00 | |
| AA1-15 | 2026-09-04 00:29:57 | 51.63014 | 15.36002 | 186° | 13km/h | 27613m | 4.7m/s | -48°C | 0% | 17.9hPa | 2.5V | 18:12:15 | 01:52:07 | 00:00:00 | |
| DF8AY | 2026-09-04 00:29:54 | 51.63022 | 15.36010 | 229° | 11km/h | 27591m | 5.1m/s | -48°C | 0% | 18hPa | 2.5V | 18:12:15 | 01:52:03 | 00:00:00 | |
| SONDE2-11 | 2026-09-04 00:29:50 | 51.63036 | 15.36021 | 196° | 16km/h | 27569m | 5.0m/s | -48.0°C | 0.7% | 18.1hPa | 2.5V | 00:00:00 | 00:00:00 | 00:00:00 | |
| DF8AY | 2026-09-04 00:29:47 | 51.63056 | 15.36015 | 146° | 15km/h | 27529m | 5m/s | -48.1°C | 0% | 18.1hPa | 2.5V | 18:12:15 | 01:51:52 | 00:00:00 | |
| AA1-15 | 2026-09-04 00:29:46 | 51.63048 | 15.36024 | 158° | 9km/h | 27547m | 4.9m/s | -48.1°C | 0% | 18.1hPa | 2.5V | 18:12:15 | 01:51:55 | 00:00:00 | |
| BIOWL1-15 | 2026-09-04 00:29:43 | 51.63059 | 15.36013 | 151° | 11km/h | 27524m | 5.4m/s | -48.1°C | 0.1% | 18.2hPa | 2.5V | 18:12:15 | 01:51:51 | 00:00:00 | |
| AA1-15 | 2026-09-04 00:29:35 | 51.63078 | 15.36014 | 159° | 18km/h | 27483m | 5.5m/s | -48°C | 0% | 18.3hPa | 2.5V | 18:12:15 | 01:51:44 | 00:00:00 | |
| DF8AY | 2026-09-04 00:29:32 | 51.63089 | 15.36002 | 137° | 20km/h | 27465m | 5m/s | -47.9°C | 0% | 18.4hPa | 2.5V | 18:12:15 | 01:51:41 | 00:00:00 | |
| AA1-15 | 2026-09-04 00:29:23 | 51.63122 | 15.35965 | 154° | 13km/h | 27420m | 5.7m/s | -47.7°C | 0% | 18.5hPa | 2.5V | 18:12:15 | 01:51:33 | 00:00:00 | |
| DF8AY | 2026-09-04 00:29:21 | 51.63129 | 15.35959 | 149° | 20km/h | 27408m | 5.4m/s | -47.7°C | 0% | 18.5hPa | 2.6V | 18:12:15 | 01:51:31 | 00:00:00 | |
| AA1-15 | 2026-09-04 00:29:12 | 51.63170 | 15.35888 | 132° | 20km/h | 27357m | 6.4m/s | -47.8°C | 0% | 18.6hPa | 2.5V | 18:12:15 | 01:51:22 | 00:00:00 | |
| DF8AY | 2026-09-04 00:29:11 | 51.63173 | 15.35883 | 128° | 13km/h | 27351m | 5.6m/s | -47.8°C | 0% | 18.7hPa | 2.6V | 18:12:15 | 01:51:21 | 00:00:00 | |
| BIOWL1-15 | 2026-09-04 00:29:07 | 51.63181 | 15.35873 | 148° | 16km/h | 27329m | 4.9m/s | -48°C | 0% | 18.7hPa | 2.5V | 18:12:15 | 01:51:17 | 00:00:00 | |
| AA1-15 | 2026-09-04 00:29:02 | 51.63199 | 15.35817 | 108° | 31km/h | 27296m | 4.3m/s | -48.2°C | 0% | 18.8hPa | 2.5V | 18:12:15 | 01:51:11 | 00:00:00 | |
| DF8AY | 2026-09-04 00:29:00 | 51.63202 | 15.35806 | 114° | 29km/h | 27291m | 6m/s | -48.2°C | 0% | 18.8hPa | 2.6V | 18:12:15 | 01:51:10 | 00:00:00 | |
| BIOWL1-15 | 2026-09-04 00:28:57 | 51.63217 | 15.35756 | 97° | 20km/h | 27246m | 5.9m/s | -48.4°C | 0.1% | 19hPa | 2.5V | 18:12:15 | 01:51:02 | 00:00:00 | |
| AA1-15 | 2026-09-04 00:28:50 | 51.63220 | 15.35740 | 110° | 20km/h | 27235m | 4.8m/s | -48.4°C | 0% | 19hPa | 2.5V | 18:12:15 | 01:51:00 | 00:00:00 | |
| DF8AY | 2026-09-04 00:28:49 | 51.63222 | 15.35733 | 110° | 18km/h | 27231m | 4.4m/s | -48.5°C | 0.1% | 19hPa | 2.6V | 18:12:15 | 01:50:59 | 00:00:00 | |
| SONDE2-11 | 2026-09-04 00:28:47 | 51.63223 | 15.35718 | 89° | 16km/h | 27220m | 6.4m/s | -48.5°C | 0.8% | 19.0hPa | 2.6V | 00:00:00 | 00:00:00 | 00:00:00 | |
| BIOWL1-15 | 2026-09-04 00:28:46 | 51.63221 | 15.35699 | 84° | 15km/h | 27203m | 5.7m/s | -48.5°C | 0.1% | 19.1hPa | 2.6V | 18:12:15 | 01:50:54 | 00:00:00 | |
| EDDB2-11 | 2026-09-04 00:28:45 | 51.63222 | 15.35705 | 75° | 16km/h | 27208m | 5.2m/s | -48.5°C | 0.8% | 19.1hPa | 2.5V | 00:00:00 | 00:00:00 | 00:00:00 | |
| AA1-15 | 2026-09-04 00:28:40 | 51.63224 | 15.35678 | 105° | 13km/h | 27180m | 5.6m/s | -48.5°C | 0.1% | 19.2hPa | 2.5V | 18:12:15 | 01:50:50 | 00:00:00 | |
| DF8AY | 2026-09-04 00:28:38 | 51.63224 | 15.35667 | 73° | 15km/h | 27168m | 5.9m/s | -48.5°C | 0.1% | 19.2hPa | 2.6V | 18:12:15 | 01:50:48 | 00:00:00 | |
| BIOWL1-15 | 2026-09-04 00:28:33 | 51.63220 | 15.35642 | 76° | 9km/h | 27135m | 6.7m/s | -48.4°C | 0.1% | 19.3hPa | 2.6V | 18:12:15 | 01:50:42 | 00:00:00 | |
| AA1-15 | 2026-09-04 00:28:29 | 51.63219 | 15.35630 | 102° | 13km/h | 27117m | 6.5m/s | -48.4°C | 0.1% | 19.3hPa | 2.5V | 18:12:15 | 01:50:39 | 00:00:00 | |
| DF8AY | 2026-09-04 00:28:28 | 51.63220 | 15.35625 | 120° | 15km/h | 27111m | 6.4m/s | -48.3°C | 0.1% | 19.4hPa | 2.5V | 18:12:15 | 01:50:38 | 00:00:00 | |
| DL1XH-west | 2026-09-04 00:28:19 | 51.63225 | 15.35591 | 159° | 4km/h | 27062m | 6m/s | 0°C | 0% | 0hPa | 2.5V | 18:12:15 | 01:50:29 | 00:00:00 | |
| DF8AY | 2026-09-04 00:28:18 | 51.63228 | 15.35591 | 187° | 7km/h | 27051m | 5.1m/s | -48.2°C | 0.1% | 19.6hPa | 2.5V | 18:12:15 | 01:50:27 | 00:00:00 | |
| BIOWL1-15 | 2026-09-04 00:28:09 | 51.63231 | 15.35576 | 279° | 4km/h | 26971m | 4.9m/s | -48°C | 0% | 19.8hPa | 2.5V | 18:12:15 | 01:50:13 | 00:00:00 | |
| AA1-15 | 2026-09-04 00:28:08 | 51.63236 | 15.35583 | 74° | 7km/h | 27000m | 6.6m/s | -48.1°C | 0% | 19.7hPa | 2.5V | 18:12:15 | 01:50:18 | 00:00:00 | |
| DF8AY | 2026-09-04 00:28:06 | 51.63233 | 15.35577 | 39° | 7km/h | 26989m | 4.9m/s | -48°C | 0% | 19.7hPa | 2.5V | 18:12:15 | 01:50:16 | 00:00:00 | |
| BIOWL1-15 | 2026-09-04 00:27:58 | 51.63226 | 15.35581 | 38° | 5km/h | 26942m | 5.3m/s | -48°C | 0% | 19.9hPa | 2.5V | 18:12:15 | 01:50:08 | 00:00:00 | |
| AA1-15 | 2026-09-04 00:27:57 | 51.63226 | 15.35579 | 84° | 5km/h | 26936m | 6.8m/s | -48°C | 0% | 19.9hPa | 2.5V | 18:12:15 | 01:50:07 | 00:00:00 | |
| DF8AY | 2026-09-04 00:27:56 | 51.63224 | 15.35560 | 44° | 7km/h | 26904m | 5.3m/s | -48.2°C | 0% | 20hPa | 2.5V | 18:12:15 | 01:50:01 | 00:00:00 | |
| DF8AY | 2026-09-04 00:27:51 | 51.63218 | 15.35567 | 318° | 7km/h | 26868m | 4.9m/s | -48.5°C | 0% | 20.1hPa | 2.5V | 18:12:15 | 01:49:55 | 00:00:00 | |
| AA1-15 | 2026-09-04 00:27:47 | 51.63221 | 15.35562 | 307° | 7km/h | 26880m | 6.4m/s | -48.4°C | 0.1% | 20hPa | 2.5V | 18:12:15 | 01:49:57 | 00:00:00 | |
| SONDE2-11 | 2026-09-04 00:27:45 | 51.63218 | 15.35567 | 318° | 7km/h | 26868m | 4.9m/s | -48.5°C | 0.8% | 20.1hPa | 2.5V | 00:00:00 | 00:00:00 | 00:00:00 | |
| AA1-15 | 2026-09-04 00:27:36 | 51.63223 | 15.35567 | 181° | 2km/h | 26818m | 5.7m/s | -48.9°C | 0.1% | 20.2hPa | 2.5V | 18:12:15 | 01:49:46 | 00:00:00 | |
| DF8AY | 2026-09-04 00:27:35 | 51.63223 | 15.35567 | 215° | 5km/h | 26812m | 6.5m/s | -49°C | 0.1% | 20.3hPa | 2.5V | 18:12:15 | 01:49:45 | 00:00:00 | |
| DL1XH-west | 2026-09-04 00:27:33 | 51.63226 | 15.35572 | 232° | 11km/h | 26801m | 4.6m/s | 0°C | 0% | 0hPa | 2.5V | 18:12:15 | 01:49:43 | 00:00:00 | |
| AA1-15 | 2026-09-04 00:27:26 | 51.63234 | 15.35592 | 213° | 13km/h | 26761m | 5.5m/s | -48.9°C | 0.1% | 20.4hPa | 2.6V | 18:12:15 | 01:49:36 | 00:00:00 | |
| DF8AY | 2026-09-04 00:27:25 | 51.63239 | 15.35597 | 207° | 9km/h | 26751m | 6.5m/s | -48.8°C | 0.2% | 20.5hPa | 2.5V | 18:12:15 | 01:49:34 | 00:00:00 | |
| AA1-15 | 2026-09-04 00:27:15 | 51.63258 | 15.35622 | 240° | 13km/h | 26700m | 4.8m/s | -48.6°C | 0.1% | 20.6hPa | 2.6V | 18:12:15 | 01:49:25 | 00:00:00 | |
| DF8AY | 2026-09-04 00:27:13 | 51.63263 | 15.35631 | 224° | 16km/h | 26689m | 6.4m/s | -48.6°C | 0.1% | 20.7hPa | 2.5V | 18:12:15 | 01:49:23 | 00:00:00 | |
| BIOWL1-15 | 2026-09-04 00:27:09 | 51.63297 | 15.35657 | 225° | 18km/h | 26631m | 6.6m/s | -48.5°C | 0.1% | 20.8hPa | 2.5V | 18:12:15 | 01:49:13 | 00:00:00 | |
| AA1-15 | 2026-09-04 00:27:04 | 51.63294 | 15.35652 | 214° | 20km/h | 26637m | 5m/s | -48.5°C | 0.1% | 20.8hPa | 2.6V | 18:12:15 | 01:49:14 | 00:00:00 | |
| DF8AY | 2026-09-04 00:27:02 | 51.63300 | 15.35662 | 233° | 18km/h | 26625m | 5.7m/s | -48.5°C | 0.1% | 20.9hPa | 2.5V | 18:12:15 | 01:49:12 | 00:00:00 | |
| BIOWL1-15 | 2026-09-04 00:26:58 | 51.63315 | 15.35684 | 206° | 24km/h | 26603m | 5.4m/s | -48.4°C | 0.1% | 20.9hPa | 2.6V | 18:12:15 | 01:49:08 | 00:00:00 | |
| AA1-15 | 2026-09-04 00:26:54 | 51.63334 | 15.35689 | 163° | 15km/h | 26579m | 5.3m/s | -48.3°C | 0.1% | 21hPa | 2.6V | 18:12:15 | 01:49:04 | 00:00:00 | |
| DL1XH-west | 2026-09-04 00:26:50 | 51.63351 | 15.35681 | 172° | 22km/h | 26557m | 5.2m/s | 0°C | 0% | 0hPa | 2.5V | 18:12:15 | 01:49:00 | 00:00:00 | |
| BIOWL1-15 | 2026-09-04 00:26:47 | 51.63364 | 15.35680 | 184° | 11km/h | 26539m | 6m/s | -48.1°C | 0.1% | 21.1hPa | 2.6V | 18:12:15 | 01:48:57 | 00:00:00 | |
| BIOWL9-15 | 2026-09-04 00:26:46 | 51.63367 | 15.35680 | 177° | 7km/h | 26534m | 4.7m/s | -48.1°C | 0.8% | 21.1hPa | 2.5V | 00:00:00 | 00:00:00 | 00:00:00 | |
| AA1-15 | 2026-09-04 00:26:44 | 51.63371 | 15.35679 | 172° | 11km/h | 26524m | 5.6m/s | -48.1°C | 0% | 21.2hPa | 2.5V | 18:12:15 | 01:48:54 | 00:00:00 | |
| BIOWL1-15 | 2026-09-04 00:26:40 | 51.63401 | 15.35649 | 133° | 16km/h | 26480m | 5.6m/s | -48°C | 0% | 21.4hPa | 2.6V | 18:12:15 | 01:48:46 | 00:00:00 | |
| DF8AY | 2026-09-04 00:26:35 | 51.63404 | 15.35644 | 145° | 16km/h | 26474m | 6.1m/s | -48°C | 0% | 21.4hPa | 2.5V | 18:12:15 | 01:48:45 | 00:00:00 | |
| AA1-15 | 2026-09-04 00:26:33 | 51.63412 | 15.35639 | 163° | 15km/h | 26464m | 4.9m/s | -48°C | 0.1% | 21.4hPa | 2.5V | 18:12:15 | 01:48:43 | 00:00:00 | |
| DF8AY | 2026-09-04 00:26:24 | 51.63442 | 15.35601 | 113° | 29km/h | 26416m | 6.5m/s | -47.9°C | 0% | 21.6hPa | 2.5V | 18:12:15 | 01:48:34 | 00:00:00 | |
| AA1-15 | 2026-09-04 00:26:23 | 51.63445 | 15.35589 | 106° | 29km/h | 26410m | 5.5m/s | -47.9°C | 0.1% | 21.6hPa | 2.5V | 18:12:15 | 01:48:33 | 00:00:00 | |
| DF8AY | 2026-09-04 00:26:13 | 51.63463 | 15.35508 | 128° | 22km/h | 26355m | 4.4m/s | -47.9°C | 0% | 21.8hPa | 2.5V | 18:12:15 | 01:48:23 | 00:00:00 | |
| AA1-15 | 2026-09-04 00:26:12 | 51.63466 | 15.35500 | 123° | 24km/h | 26351m | 4.7m/s | -47.9°C | 0.1% | 21.8hPa | 2.5V | 18:12:15 | 01:48:22 | 00:00:00 | |
| BIOWL1-15 | 2026-09-04 00:26:11 | 51.63471 | 15.35482 | 103° | 26km/h | 26339m | 6.1m/s | -47.9°C | 0% | 21.8hPa | 2.6V | 18:12:15 | 01:48:20 | 00:00:00 | |
| DL1XH-west | 2026-09-04 00:26:09 | 51.63472 | 15.35471 | 95° | 27km/h | 26334m | 5.4m/s | 0°C | 0% | 0hPa | 2.6V | 18:12:15 | 01:48:19 | 00:00:00 | |
| AA1-15 | 2026-09-04 00:26:02 | 51.63477 | 15.35415 | 86° | 5km/h | 26295m | 5.4m/s | -47.7°C | 0.1% | 21.9hPa | 2.5V | 18:12:15 | 01:48:12 | 00:00:00 | |
| DL1XH-west | 2026-09-04 00:25:54 | 51.63481 | 15.35388 | 99° | 16km/h | 26251m | 5.5m/s | 0°C | 0% | 0hPa | 2.5V | 18:12:15 | 01:48:04 | 00:00:00 | |
| AA1-15 | 2026-09-04 00:25:51 | 51.63484 | 15.35374 | 128° | 7km/h | 26237m | 4.4m/s | -47.8°C | 0% | 22.1hPa | 2.5V | 18:12:15 | 01:48:01 | 00:00:00 | |
| BIOWL1-15 | 2026-09-04 00:25:48 | 51.63484 | 15.35372 | 353° | 4km/h | 26221m | 4.5m/s | -47.8°C | 0% | 22.2hPa | 2.6V | 18:12:15 | 01:47:58 | 00:00:00 | |
| S3001 | 2026-09-04 00:25:45 | 51.63484 | 15.35370 | 128° | 5km/h | 26205m | 5.1m/s | -47.7°C | 0.7% | 22.2hPa | 2.5V | 00:00:00 | 00:00:00 | 00:00:00 | |
| DL1XH-west | 2026-09-04 00:25:43 | 51.63486 | 15.35366 | 125° | 5km/h | 26194m | 5.9m/s | 0°C | 0% | 0hPa | 2.5V | 18:12:15 | 01:47:53 | 00:00:00 | |
| AA1-15 | 2026-09-04 00:25:41 | 51.63486 | 15.35360 | 78° | 5km/h | 26178m | 5.1m/s | -47.8°C | 0% | 22.3hPa | 2.5V | 18:12:15 | 01:47:50 | 00:00:00 | |
| BIOWL1-15 | 2026-09-04 00:25:39 | 51.63486 | 15.35352 | 90° | 5km/h | 26162m | 4.5m/s | -47.9°C | 0% | 22.4hPa | 2.6V | 18:12:15 | 01:47:47 | 00:00:00 | |
| DF8AY | 2026-09-04 00:25:31 | 51.63486 | 15.35362 | 214° | 11km/h | 26130m | 6.1m/s | -48.3°C | 0% | 22.5hPa | 2.6V | 18:12:15 | 01:47:41 | 00:00:00 | |
| AA1-15 | 2026-09-04 00:25:29 | 51.63492 | 15.35365 | 184° | 13km/h | 26119m | 5m/s | -48.4°C | 0.1% | 22.6hPa | 2.5V | 18:12:15 | 01:47:39 | 00:00:00 | |
| BIOWL1-15 | 2026-09-04 00:25:26 | 51.63503 | 15.35362 | 155° | 11km/h | 26098m | 6.4m/s | -48.4°C | 0% | 22.6hPa | 2.6V | 18:12:15 | 01:47:35 | 00:00:00 | |
| AA1-15 | 2026-09-04 00:25:19 | 51.63512 | 15.35355 | 117° | 4km/h | 26065m | 5.4m/s | -48.4°C | 0% | 22.7hPa | 2.6V | 18:12:15 | 01:47:29 | 00:00:00 | |
| BIOWL1-15 | 2026-09-04 00:25:15 | 51.63530 | 15.35333 | 172° | 16km/h | 26020m | 6.3m/s | -48.5°C | 0% | 22.9hPa | 2.5V | 18:12:15 | 01:47:21 | 00:00:00 | |
| DF8AY | 2026-09-04 00:25:08 | 51.63543 | 15.35333 | 193° | 15km/h | 26005m | 6.1m/s | -48.7°C | 0% | 22.9hPa | 2.6V | 18:12:15 | 01:47:18 | 00:00:00 | |
| BIOWL1-15 | 2026-09-04 00:25:03 | 51.63550 | 15.35329 | 108° | 13km/h | 25978m | 5.5m/s | -48.9°C | 0.1% | 23hPa | 2.6V | 18:12:15 | 01:47:13 | 00:00:00 | |
| AA1-15 | 2026-09-04 00:24:57 | 51.63556 | 15.35300 | 144° | 15km/h | 25946m | 6.4m/s | -49.1°C | 0.1% | 23.1hPa | 2.6V | 18:12:15 | 01:47:07 | 00:00:00 | |
| BIOWL1-15 | 2026-09-04 00:24:52 | 51.63575 | 15.35295 | 202° | 4km/h | 25916m | 4.2m/s | -49.1°C | 0.1% | 23.2hPa | 2.5V | 18:12:15 | 01:47:01 | 00:00:00 | |
| AA1-15 | 2026-09-04 00:24:47 | 51.63581 | 15.35282 | 120° | 22km/h | 25896m | 5.4m/s | -49.1°C | 0.1% | 23.3hPa | 2.6V | 18:12:15 | 01:46:57 | 00:00:00 | |
| BIOWL1-15 | 2026-09-04 00:24:41 | 51.63604 | 15.35217 | 101° | 11km/h | 25837m | 4.5m/s | -49°C | 0% | 0hPa | 2.6V | 18:12:15 | 01:46:46 | 00:00:00 | |
| AA1-15 | 2026-09-04 00:24:37 | 51.63604 | 15.35221 | 118° | 7km/h | 25841m | 5.1m/s | -49°C | 0.1% | 23.5hPa | 2.5V | 18:12:15 | 01:46:47 | 00:00:00 | |
| DF8AY | 2026-09-04 00:24:27 | 51.63611 | 15.35103 | 96° | 18km/h | 25750m | 4.3m/s | -49.9°C | 0.2% | 23.9hPa | 2.6V | 18:12:15 | 01:46:30 | 00:00:00 | |
| AA1-15 | 2026-09-04 00:24:26 | 51.63612 | 15.35124 | 106° | 13km/h | 25782m | 4.4m/s | -49.4°C | 0.1% | 23.8hPa | 2.5V | 18:12:15 | 01:46:36 | 00:00:00 | |
| BIOWL1-15 | 2026-09-04 00:24:25 | 51.63611 | 15.35116 | 55° | 5km/h | 25765m | 4.8m/s | -49.7°C | 0.2% | 0hPa | 2.5V | 18:12:15 | 01:46:33 | 00:00:00 | |
| DF8AY | 2026-09-04 00:24:17 | 51.63605 | 15.35033 | 69° | 15km/h | 25708m | 4.2m/s | -50°C | 0.1% | 24hPa | 2.5V | 18:12:15 | 01:46:22 | 00:00:00 | |
| AA1-15 | 2026-09-04 00:24:15 | 51.63608 | 15.35055 | 80° | 24km/h | 25724m | 5.2m/s | -50°C | 0.2% | 24hPa | 2.5V | 18:12:15 | 01:46:25 | 00:00:00 | |
| BIOWL1-15 | 2026-09-04 00:24:12 | 51.63604 | 15.35028 | 50° | 15km/h | 25703m | 5.3m/s | 0°C | 0% | 0hPa | 2.5V | 18:12:15 | 01:46:21 | 00:00:00 | |
| DF8AY | 2026-09-04 00:24:06 | 51.63583 | 15.35008 | 40° | 20km/h | 25677m | 5.5m/s | -50.1°C | 0.2% | 24.1hPa | 2.5V | 18:12:15 | 01:46:16 | 00:00:00 | |
| AA1-15 | 2026-09-04 00:24:05 | 51.63580 | 15.35003 | 53° | 18km/h | 25671m | 5.2m/s | -50.1°C | 0.2% | 24.1hPa | 2.5V | 18:12:15 | 01:46:15 | 00:00:00 | |
| BIOWL1-15 | 2026-09-04 00:24:00 | 51.63561 | 15.34958 | 357° | 11km/h | 25628m | 5m/s | 0°C | 0% | 0hPa | 2.6V | 18:12:15 | 01:46:07 | 00:00:00 | |
| DF8AY | 2026-09-04 00:23:56 | 51.63526 | 15.34956 | 11° | 18km/h | 25591m | 4.3m/s | -50.4°C | 0.3% | 24.5hPa | 2.5V | 18:12:15 | 01:46:00 | 00:00:00 | |
| AA1-15 | 2026-09-04 00:23:54 | 51.63547 | 15.34959 | 2° | 24km/h | 25611m | 5.2m/s | -50.4°C | 0.2% | 24.4hPa | 2.5V | 18:12:15 | 01:46:04 | 00:00:00 | |
| BIOWL1-15 | 2026-09-04 00:23:49 | 51.63522 | 15.34954 | 15° | 20km/h | 25586m | 6.1m/s | 0°C | 0% | 0hPa | 2.5V | 18:12:15 | 01:45:59 | 00:00:00 | |
| AA1-15 | 2026-09-04 00:23:43 | 51.63503 | 15.34944 | 317° | 5km/h | 25553m | 4.1m/s | -50.4°C | 0.3% | 24.6hPa | 2.5V | 18:12:15 | 01:45:53 | 00:00:00 | |
| DF8AY | 2026-09-04 00:23:39 | 51.63491 | 15.34960 | 327° | 22km/h | 25532m | 4.7m/s | -50.3°C | 0.3% | 24.7hPa | 2.5V | 18:12:15 | 01:45:49 | 00:00:00 | |
| DF8AY | 2026-09-04 00:23:33 | 51.63459 | 15.34986 | 317° | 11km/h | 25474m | 5.5m/s | -50.3°C | 0.2% | 24.9hPa | 2.5V | 18:12:15 | 01:45:38 | 00:00:00 | |
| AA1-15 | 2026-09-04 00:23:32 | 51.63464 | 15.34981 | 345° | 11km/h | 25494m | 5.6m/s | -50.2°C | 0.2% | 24.8hPa | 2.5V | 18:12:15 | 01:45:42 | 00:00:00 | |
| AA1-15 | 2026-09-04 00:23:22 | 51.63433 | 15.35018 | 326° | 16km/h | 25443m | 5.4m/s | -50.2°C | 0.3% | 25hPa | 2.5V | 18:12:15 | 01:45:32 | 00:00:00 | |
| DF8AY | 2026-09-04 00:23:18 | 51.63423 | 15.35023 | 337° | 11km/h | 25422m | 5m/s | -50.1°C | 0.2% | 25.1hPa | 2.6V | 18:12:15 | 01:45:28 | 00:00:00 | |
| DF8AY | 2026-09-04 00:23:08 | 51.63406 | 15.35101 | 313° | 5km/h | 25357m | 4.9m/s | -50°C | 0.2% | 25.4hPa | 2.5V | 18:12:15 | 01:45:16 | 00:00:00 | |
| AA1-15 | 2026-09-04 00:23:05 | 51.63406 | 15.35103 | 284° | 4km/h | 25352m | 4.7m/s | -50°C | 0.1% | 25.4hPa | 2.5V | 18:12:15 | 01:45:15 | 00:00:00 | |
| DF8AY | 2026-09-04 00:22:55 | 51.63424 | 15.35175 | 192° | 5km/h | 25269m | 5.1m/s | -50.3°C | 0.2% | 25.7hPa | 2.5V | 18:12:15 | 01:44:59 | 00:00:00 | |
| AA1-15 | 2026-09-04 00:22:51 | 51.63421 | 15.35176 | 160° | 4km/h | 25278m | 4.3m/s | -50.3°C | 0.2% | 25.6hPa | 2.6V | 18:12:15 | 01:45:01 | 00:00:00 | |
| DF8AY | 2026-09-04 00:22:42 | 51.63467 | 15.35198 | 167° | 11km/h | 25212m | 5.4m/s | -50.6°C | 0.2% | 25.9hPa | 2.5V | 18:12:15 | 01:44:48 | 00:00:00 | |
| AA1-15 | 2026-09-04 00:22:39 | 51.63465 | 15.35198 | 183° | 11km/h | 25216m | 4.8m/s | -50.6°C | 0.2% | 25.9hPa | 2.6V | 18:12:15 | 01:44:49 | 00:00:00 | |
| DF8AY | 2026-09-04 00:22:30 | 51.63491 | 15.35199 | 184° | 16km/h | 25169m | 6.3m/s | -50.9°C | 0.3% | 26.1hPa | 2.5V | 18:12:15 | 01:44:40 | 00:00:00 | |
| AA1-15 | 2026-09-04 00:22:28 | 51.63501 | 15.35197 | 168° | 20km/h | 25158m | 5.2m/s | -51°C | 0.3% | 26.1hPa | 2.6V | 18:12:15 | 01:44:38 | 00:00:00 | |
| DF8AY | 2026-09-04 00:22:19 | 51.63536 | 15.35158 | 144° | 11km/h | 25104m | 5m/s | -51.3°C | 0.3% | 26.4hPa | 2.6V | 18:12:15 | 01:44:28 | 00:00:00 | |
| DL1XH-west | 2026-09-04 00:22:17 | 51.63538 | 15.35155 | 146° | 15km/h | 25098m | 6.2m/s | -51.3°C | 0.3% | 26.4hPa | 2.6V | 18:12:15 | 01:44:27 | 00:00:00 | |
| AA1-15 | 2026-09-04 00:22:15 | 51.63545 | 15.35148 | 148° | 16km/h | 25088m | 4.6m/s | -51.3°C | 0.3% | 26.4hPa | 2.5V | 18:12:15 | 01:44:25 | 00:00:00 | |
| DF8AY | 2026-09-04 00:22:08 | 51.63560 | 15.35118 | 96° | 16km/h | 25051m | 4.8m/s | -51.3°C | 0.3% | 26.6hPa | 2.5V | 18:12:15 | 01:44:18 | 00:00:00 | |
| BIOWL1-15 | 2026-09-04 00:22:08 | 51.63557 | 15.35094 | 84° | 15km/h | 25030m | 6m/s | -51.3°C | 0.3% | 26.7hPa | 2.5V | 18:12:15 | 01:44:14 | 00:00:00 | |
| AA1-15 | 2026-09-04 00:22:05 | 51.63558 | 15.35100 | 74° | 15km/h | 25035m | 4.5m/s | -51.3°C | 0.4% | 26.7hPa | 2.5V | 18:12:15 | 01:44:15 | 00:00:00 | |
| DF8AY | 2026-09-04 00:21:59 | 51.63564 | 15.35068 | 102° | 5km/h | 24997m | 5m/s | -51.2°C | 0.3% | 26.8hPa | 2.5V | 18:12:15 | 01:44:08 | 00:00:00 | |
| AA1-15 | 2026-09-04 00:21:55 | 51.63565 | 15.35057 | 94° | 15km/h | 24981m | 5.2m/s | -51.1°C | 0.3% | 26.9hPa | 2.6V | 18:12:15 | 01:44:05 | 00:00:00 | |
| BIOWL1-15 | 2026-09-04 00:21:54 | 51.63565 | 15.35050 | 91° | 16km/h | 24976m | 4.3m/s | -51.1°C | 0.3% | 26.9hPa | 2.5V | 18:12:15 | 01:44:04 | 00:00:00 | |
| DL1XH-west | 2026-09-04 00:21:53 | 51.63565 | 15.35043 | 88° | 16km/h | 24971m | 6.1m/s | -51.2°C | 0.4% | 26.9hPa | 2.5V | 18:12:15 | 01:44:03 | 00:00:00 | |
| DF8AY | 2026-09-04 00:21:48 | 51.63569 | 15.35017 | 134° | 15km/h | 24945m | 5.3m/s | -51.1°C | 0.4% | 27hPa | 2.5V | 18:12:15 | 01:43:58 | 00:00:00 | |
| BIOWL1-15 | 2026-09-04 00:21:44 | 51.63577 | 15.35010 | 200° | 2km/h | 24923m | 5.2m/s | -51°C | 0.3% | 27.1hPa | 2.6V | 18:12:15 | 01:43:54 | 00:00:00 | |
| DL1XH-west | 2026-09-04 00:21:41 | 51.63577 | 15.35005 | 77° | 11km/h | 24906m | 5.1m/s | -51.1°C | 0.3% | 27.1hPa | 2.5V | 18:12:15 | 01:43:51 | 00:00:00 | |
| DF8AY | 2026-09-04 00:21:37 | 51.63573 | 15.34984 | 86° | 11km/h | 24885m | 4.5m/s | -51.1°C | 0.3% | 27.2hPa | 2.5V | 18:12:15 | 01:43:47 | 00:00:00 | |
| BIOWL1-15 | 2026-09-04 00:21:32 | 51.63585 | 15.34966 | 173° | 15km/h | 24860m | 5.7m/s | -51.1°C | 0.3% | 27.4hPa | 2.5V | 18:12:15 | 01:43:42 | 00:00:00 | |
| DL1XH1-15 | 2026-09-04 00:21:32 | 51.63594 | 15.34970 | 121° | 7km/h | 24834m | 5.5m/s | -51.2°C | 3.5% | 27.5hPa | 2.6V | 08:30:00 | 01:43:37 | 00:00:00 | |
| DL1XH-west | 2026-09-04 00:21:30 | 51.63590 | 15.34968 | 221° | 7km/h | 24849m | 4.2m/s | -51.2°C | 0.3% | 27.4hPa | 2.5V | 18:12:15 | 01:43:40 | 00:00:00 | |
| DF8AY | 2026-09-04 00:21:25 | 51.63595 | 15.34962 | 97° | 11km/h | 24824m | 5.1m/s | -51.3°C | 0.4% | 27.5hPa | 2.5V | 18:12:15 | 01:43:35 | 00:00:00 | |
| DL1XH-west | 2026-09-04 00:21:20 | 51.63601 | 15.34948 | 166° | 13km/h | 24798m | 4.6m/s | -51.3°C | 0.3% | 27.6hPa | 2.5V | 18:12:15 | 01:43:30 | 00:00:00 | |
| AA1-15 | 2026-09-04 00:21:16 | 51.63616 | 15.34943 | 175° | 15km/h | 24777m | 5.1m/s | -51.3°C | 0.3% | 27.7hPa | 2.6V | 18:12:15 | 01:43:26 | 00:00:00 | |
| DF8AY | 2026-09-04 00:21:11 | 51.63629 | 15.34948 | 175° | 9km/h | 24749m | 5.8m/s | -51.3°C | 0.3% | 27.8hPa | 2.6V | 18:12:15 | 01:43:21 | 00:00:00 | |
| DL1XH-west | 2026-09-04 00:21:09 | 51.63634 | 15.34946 | 166° | 9km/h | 24738m | 5.8m/s | -51.4°C | 0.3% | 27.9hPa | 2.5V | 18:12:15 | 01:43:19 | 00:00:00 | |
| BIOWL1-15 | 2026-09-04 00:21:05 | 51.63653 | 15.34939 | 208° | 9km/h | 24695m | 5.9m/s | -51.4°C | 0.3% | 28.1hPa | 2.5V | 18:12:15 | 01:43:11 | 00:00:00 | |
| DF8AY | 2026-09-04 00:20:59 | 51.63657 | 15.34944 | 225° | 9km/h | 24685m | 4.6m/s | -51.5°C | 0.3% | 28.1hPa | 2.6V | 18:12:15 | 01:43:09 | 00:00:00 | |
| DL1XH-west | 2026-09-04 00:20:58 | 51.63659 | 15.34947 | 207° | 9km/h | 24679m | 6.2m/s | -51.5°C | 0.4% | 28.1hPa | 2.5V | 18:12:15 | 01:43:08 | 00:00:00 | |
| DF8AY | 2026-09-04 00:20:49 | 51.63680 | 15.34933 | 146° | 11km/h | 24630m | 5.6m/s | -51.5°C | 0.4% | 28.3hPa | 2.6V | 18:12:15 | 01:42:59 | 00:00:00 | |
| SONCRA | 2026-09-04 00:20:48 | 51.63683 | 15.34932 | 164° | 5km/h | 24624m | 6.1m/s | -51.5°C | 0.9% | 28.4hPa | 2.5V | 00:00:00 | 00:00:00 | 00:00:00 | |
| EDDB2-12 | 2026-09-04 00:20:47 | 51.63684 | 15.34931 | 193° | 5km/h | 24619m | 5.4m/s | -51.5°C | 0.9% | 28.4hPa | 2.5V | 00:00:00 | 00:00:00 | 00:00:00 | |
| DL1XH-west | 2026-09-04 00:20:47 | 51.63684 | 15.34931 | 193° | 5km/h | 24619m | 5.4m/s | -51.5°C | 0.3% | 28.4hPa | 2.5V | 18:12:15 | 01:42:57 | 00:00:00 | |
| DF8AY | 2026-09-04 00:20:39 | 51.63701 | 15.34944 | 204° | 13km/h | 24577m | 4.7m/s | -51.6°C | 0.3% | 28.6hPa | 2.5V | 18:12:15 | 01:42:49 | 00:00:00 | |
| DL1XH-west | 2026-09-04 00:20:37 | 51.63711 | 15.34944 | 166° | 13km/h | 24561m | 4.1m/s | -51.6°C | 0.4% | 28.7hPa | 2.5V | 18:12:15 | 01:42:46 | 00:00:00 | |
| BIOWL1-15 | 2026-09-04 00:20:35 | 51.63718 | 15.34945 | 229° | 7km/h | 24545m | 5.5m/s | -51.6°C | 0.3% | 28.7hPa | 2.6V | 18:12:15 | 01:42:43 | 00:00:00 | |
| DF8AY | 2026-09-04 00:20:28 | 51.63719 | 15.34955 | 237° | 4km/h | 24520m | 4.9m/s | -51.6°C | 0.4% | 28.8hPa | 2.5V | 18:12:15 | 01:42:38 | 00:00:00 | |
| DL1XH-west | 2026-09-04 00:20:26 | 51.63720 | 15.34958 | 243° | 7km/h | 24509m | 6.1m/s | -51.7°C | 0.3% | 0hPa | 2.6V | 18:12:15 | 01:42:36 | 00:00:00 | |
| DO3MHA-11 | 2026-09-04 00:20:26 | 51.63720 | 15.34958 | 243° | 13km/h | 24510m | 6.1m/s | -51.6°C | 3.6% | 28.8hPa | 2.6V | 00:00:00 | 01:42:36 | 00:00:00 | |
| S52SK | 2026-09-04 00:20:25 | 51.63720 | 15.34958 | 243° | 7km/h | 24510m | 6.1m/s | 0°C | 0% | 0hPa | 2.5V | 00:00:00 | 00:00:00 | 00:00:00 | |
| DL1XH1-15 | 2026-09-04 00:20:24 | 51.63726 | 15.34966 | 201° | 15km/h | 24493m | 6.3m/s | -51.8°C | 3.7% | 29hPa | 2.5V | 08:30:00 | 01:42:33 | 00:00:00 | |
| BIOWL1-15 | 2026-09-04 00:20:24 | 51.63730 | 15.34968 | 190° | 18km/h | 24487m | 5.8m/s | -51.8°C | 0.4% | 29hPa | 2.6V | 18:12:15 | 01:42:32 | 00:00:00 | |
| DL1XH-west | 2026-09-04 00:20:16 | 51.63754 | 15.34975 | 144° | 5km/h | 24450m | 5.2m/s | -51.9°C | 0.4% | 0hPa | 2.6V | 18:12:15 | 01:42:25 | 00:00:00 | |
| BIOWL1-15 | 2026-09-04 00:20:12 | 51.63758 | 15.34974 | 201° | 7km/h | 24435m | 5.2m/s | -51.9°C | 0.4% | 29.2hPa | 2.5V | 18:12:15 | 01:42:22 | 00:00:00 | |
| DL1XH-west | 2026-09-04 00:20:05 | 51.63792 | 15.34982 | 195° | 24km/h | 24396m | 4.7m/s | -51.8°C | 0.4% | 0hPa | 2.6V | 18:12:15 | 01:42:15 | 00:00:00 | |
| DF8AY | 2026-09-04 00:20:02 | 51.63807 | 15.34985 | 176° | 16km/h | 24379m | 4.9m/s | -51.8°C | 0.4% | 29.5hPa | 2.5V | 18:12:15 | 01:42:12 | 00:00:00 | |
| BIOWL1-15 | 2026-09-04 00:20:01 | 51.63816 | 15.34984 | 179° | 11km/h | 24362m | 5.1m/s | -51.8°C | 0.4% | 29.6hPa | 2.6V | 18:12:15 | 01:42:09 | 00:00:00 | |
| AA1-15 | 2026-09-04 00:19:57 | 51.63822 | 15.34982 | 159° | 15km/h | 24352m | 6.2m/s | -51.8°C | 0.4% | 29.6hPa | 2.5V | 18:12:15 | 01:42:07 | 00:00:00 | |
| DL1XH-west | 2026-09-04 00:19:54 | 51.63836 | 15.34973 | 163° | 22km/h | 24336m | 5m/s | 0°C | 0% | 0hPa | 2.6V | 18:12:15 | 01:42:04 | 00:00:00 | |
| BIOWL1-15 | 2026-09-04 00:19:50 | 51.63858 | 15.34971 | 182° | 22km/h | 24315m | 5m/s | -51.9°C | 0.4% | 29.8hPa | 2.5V | 18:12:15 | 01:42:00 | 00:00:00 | |
| AA1-15 | 2026-09-04 00:19:47 | 51.63876 | 15.34968 | 165° | 24km/h | 24299m | 5m/s | -51.9°C | 0.4% | 29.9hPa | 2.6V | 18:12:15 | 01:41:57 | 00:00:00 | |
| SONCRA | 2026-09-04 00:19:46 | 51.63881 | 15.34965 | 162° | 20km/h | 24293m | 5.9m/s | -51.9°C | 0.9% | 29.8hPa | 2.5V | 00:00:00 | 00:00:00 | 00:00:00 | |
| EDDB2-12 | 2026-09-04 00:19:45 | 51.63886 | 15.34962 | 162° | 18km/h | 24287m | 5.6m/s | -51.9°C | 1.0% | 29.9hPa | 2.5V | 00:00:00 | 00:00:00 | 00:00:00 | |
| DL1XH-west | 2026-09-04 00:19:44 | 51.63891 | 15.34960 | 161° | 18km/h | 24282m | 4.4m/s | 0°C | 0% | 0hPa | 2.5V | 18:12:15 | 01:41:54 | 00:00:00 | |
| DF8AY | 2026-09-04 00:19:40 | 51.63913 | 15.34945 | 157° | 26km/h | 24261m | 4.6m/s | -51.8°C | 0.4% | 30hPa | 2.5V | 18:12:15 | 01:41:50 | 00:00:00 | |
| BIOWL1-15 | 2026-09-04 00:19:40 | 51.63941 | 15.34925 | 147° | 27km/h | 24234m | 6.3m/s | -51.7°C | 0.4% | 30.1hPa | 2.5V | 18:12:15 | 01:41:45 | 00:00:00 | |
| AA1-15 | 2026-09-04 00:19:36 | 51.63935 | 15.34930 | 151° | 24km/h | 24240m | 5.1m/s | -51.7°C | 0.3% | 0hPa | 2.6V | 18:12:15 | 01:41:46 | 00:00:00 | |
| DF8AY | 2026-09-04 00:19:30 | 51.63971 | 15.34892 | 145° | 27km/h | 24207m | 4.5m/s | -51.7°C | 0.4% | 30.3hPa | 2.5V | 18:12:15 | 01:41:40 | 00:00:00 | |
| AA1-15 | 2026-09-04 00:19:26 | 51.63992 | 15.34864 | 139° | 24km/h | 24184m | 6.4m/s | -51.9°C | 0.4% | 0hPa | 2.6V | 18:12:15 | 01:41:36 | 00:00:00 | |
| BIOWL1-15 | 2026-09-04 00:19:25 | 51.64020 | 15.34823 | 136° | 31km/h | 24152m | 4.8m/s | -51.9°C | 0.4% | 30.5hPa | 2.6V | 18:12:15 | 01:41:30 | 00:00:00 | |
| DF8AY | 2026-09-04 00:19:20 | 51.64025 | 15.34814 | 140° | 31km/h | 24146m | 6.2m/s | -51.9°C | 0.4% | 30.6hPa | 2.6V | 18:12:15 | 01:41:29 | 00:00:00 | |
| AA1-15 | 2026-09-04 00:19:16 | 51.64042 | 15.34793 | 139° | 27km/h | 24130m | 6.2m/s | -52.1°C | 0.4% | 0hPa | 2.5V | 18:12:15 | 01:41:26 | 00:00:00 | |
| DF8AY | 2026-09-04 00:19:08 | 51.64062 | 15.34740 | 117° | 22km/h | 24088m | 5.9m/s | -52.2°C | 0.5% | 30.9hPa | 2.6V | 18:12:15 | 01:41:18 | 00:00:00 | |
| AA1-15 | 2026-09-04 00:19:01 | 51.64101 | 15.34693 | 147° | 26km/h | 24051m | 4.2m/s | 0°C | 0% | 0hPa | 2.5V | 18:12:15 | 01:41:11 | 00:00:00 | |
| DF8AY | 2026-09-04 00:18:58 | 51.64109 | 15.34678 | 57° | 11km/h | 24028m | 5.1m/s | -52.2°C | 0.4% | 31.1hPa | 2.6V | 18:12:15 | 01:41:07 | 00:00:00 | |
| AA1-15 | 2026-09-04 00:18:51 | 51.64105 | 15.34629 | 128° | 20km/h | 23991m | 4.8m/s | 0°C | 0% | 0hPa | 2.5V | 18:12:15 | 01:41:00 | 00:00:00 | |
| DF8AY | 2026-09-04 00:18:46 | 51.64122 | 15.34604 | 136° | 20km/h | 23970m | 4.6m/s | -52.2°C | 0.4% | 31.4hPa | 2.6V | 18:12:15 | 01:40:56 | 00:00:00 | |
| AA1-15 | 2026-09-04 00:18:40 | 51.64128 | 15.34579 | 94° | 18km/h | 23938m | 5.7m/s | 0°C | 0% | 0hPa | 2.5V | 18:12:15 | 01:40:50 | 00:00:00 | |
| DF8AY | 2026-09-04 00:18:36 | 51.64137 | 15.34549 | 142° | 20km/h | 23917m | 5.7m/s | -52.5°C | 0.5% | 31.7hPa | 2.6V | 18:12:15 | 01:40:46 | 00:00:00 | |
| AA1-15 | 2026-09-04 00:18:30 | 51.64161 | 15.34533 | 175° | 9km/h | 23879m | 4.6m/s | 0°C | 0% | 0hPa | 2.6V | 18:12:15 | 01:40:39 | 00:00:00 | |
| BIOWL1-15 | 2026-09-04 00:18:28 | 51.64165 | 15.34530 | 142° | 11km/h | 23869m | 6.2m/s | -52.6°C | 0.5% | 31.9hPa | 2.5V | 18:12:15 | 01:40:37 | 00:00:00 | |
| DF8AY | 2026-09-04 00:18:25 | 51.64169 | 15.34522 | 129° | 16km/h | 23857m | 5.2m/s | -52.7°C | 0.5% | 31.9hPa | 2.6V | 18:12:15 | 01:40:35 | 00:00:00 | |
| AA1-15 | 2026-09-04 00:18:19 | 51.64187 | 15.34495 | 120° | 9km/h | 23820m | 5.1m/s | 0°C | 0% | 0hPa | 2.6V | 18:12:15 | 01:40:28 | 00:00:00 | |
| BIOWL1-15 | 2026-09-04 00:18:15 | 51.64190 | 15.34489 | 133° | 5km/h | 23803m | 4.2m/s | -52.9°C | 0.5% | 32.2hPa | 2.5V | 18:12:15 | 01:40:25 | 00:00:00 | |
| DF8AY | 2026-09-04 00:18:13 | 51.64192 | 15.34483 | 113° | 13km/h | 23792m | 6.4m/s | -52.9°C | 0.6% | 32.3hPa | 2.6V | 18:12:15 | 01:40:23 | 00:00:00 | |
| AA1-15 | 2026-09-04 00:18:07 | 51.64208 | 15.34440 | 119° | 26km/h | 23760m | 6.1m/s | 0°C | 0% | 0hPa | 2.6V | 18:12:15 | 01:40:17 | 00:00:00 | |
| BIOWL1-15 | 2026-09-04 00:18:05 | 51.64213 | 15.34422 | 109° | 22km/h | 23751m | 4.1m/s | -52.7°C | 0.5% | 32.5hPa | 2.5V | 18:12:15 | 01:40:15 | 00:00:00 | |
| DF8AY | 2026-09-04 00:18:03 | 51.64213 | 15.34381 | 84° | 16km/h | 23714m | 5.2m/s | -52.6°C | 0.5% | 32.7hPa | 2.5V | 18:12:15 | 01:40:08 | 00:00:00 | |
| S3001 | 2026-09-04 00:17:59 | 51.64213 | 15.34387 | 82° | 15km/h | 23719m | 4.9m/s | -52.6°C | 1.0% | 32.7hPa | 2.6V | 00:00:00 | 00:00:00 | 00:00:00 | |
| BIOWL9-15 | 2026-09-04 00:17:58 | 51.64213 | 15.34381 | 84° | 15km/h | 23714m | 5.2m/s | -52.6°C | 1.0% | 32.7hPa | 2.6V | 00:00:00 | 00:00:00 | 00:00:00 | |
| DM0DOS-11 | 2026-09-04 00:17:57 | 51.64213 | 15.34368 | 97° | 16km/h | 23702m | 4.7m/s | -52.5°C | 3.8% | 32.7hPa | 2.6V | 08:30:00 | 01:40:06 | 00:00:00 | |
| DF8AY | 2026-09-04 00:17:52 | 51.64221 | 15.34336 | 118° | 24km/h | 23681m | 5m/s | -52.7°C | 0.5% | 32.9hPa | 2.6V | 18:12:15 | 01:40:02 | 00:00:00 | |
| AA1-15 | 2026-09-04 00:17:49 | 51.64227 | 15.34319 | 108° | 9km/h | 23665m | 4.3m/s | 0°C | 0% | 0hPa | 2.5V | 18:12:15 | 01:39:59 | 00:00:00 | |
| BIOWL1-15 | 2026-09-04 00:17:44 | 51.64216 | 15.34276 | 102° | 16km/h | 23618m | 6.2m/s | -52.7°C | 0.4% | 33.2hPa | 2.6V | 18:12:15 | 01:39:50 | 00:00:00 | |
| DF8AY | 2026-09-04 00:17:42 | 51.64217 | 15.34288 | 56° | 13km/h | 23628m | 3.5m/s | -52.7°C | 0.5% | 33.1hPa | 2.5V | 18:12:15 | 01:39:52 | 00:00:00 | |
| SONCRA | 2026-09-04 00:17:42 | 51.64216 | 15.34283 | 80° | 13km/h | 23624m | 4.7m/s | -52.7°C | 1.0% | 33.2hPa | 2.6V | 00:00:00 | 00:00:00 | 00:00:00 | |
| PG1ADW-2 | 2026-09-04 00:17:41 | 51.64216 | 15.34282 | 81° | 11km/h | 23624m | 4.7m/s | -52.6°C | 3.8% | 33.1hPa | 2.6V | 00:00:00 | 00:00:00 | 00:00:00 | |
| KRY50SP-1 | 2026-09-04 00:17:39 | 51.64217 | 15.34268 | 117° | 24km/h | 23612m | 5.4m/s | -52.7°C | 1.0% | 33.2hPa | 2.5V | 00:00:00 | 00:00:00 | 00:00:00 | |
| DM0DOS-11 | 2026-09-04 00:17:37 | 51.64226 | 15.34245 | 118° | 16km/h | 23597m | 5.7m/s | -52.7°C | 3.8% | 33.3hPa | 2.5V | 08:30:00 | 01:39:46 | 00:00:00 | |
| AA1-15 | 2026-09-04 00:17:33 | 51.64227 | 15.34236 | 33° | 4km/h | 23581m | 4.9m/s | 0°C | 0% | 0hPa | 2.5V | 18:12:15 | 01:39:43 | 00:00:00 | |
| DF8AY | 2026-09-04 00:17:31 | 51.64226 | 15.34235 | 34° | 5km/h | 23570m | 5.7m/s | -52.6°C | 0.5% | 33.4hPa | 2.6V | 18:12:15 | 01:39:41 | 00:00:00 | |
| S3001 | 2026-09-04 00:17:28 | 51.64225 | 15.34229 | 64° | 5km/h | 23554m | 5.7m/s | -52.7°C | 1.0% | 33.5hPa | 2.5V | 00:00:00 | 00:00:00 | 00:00:00 | |
| BIOWL9-15 | 2026-09-04 00:17:27 | 51.64224 | 15.34226 | 72° | 5km/h | 23549m | 5.0m/s | -52.7°C | 1.0% | 33.5hPa | 2.5V | 00:00:00 | 00:00:00 | 00:00:00 | |
| DO3MHA-11 | 2026-09-04 00:17:26 | 51.64223 | 15.34224 | 87° | 7km/h | 23544m | 4.1m/s | -52.7°C | 3.8% | 33.5hPa | 2.5V | 00:00:00 | 01:39:36 | 00:00:00 | |
| DB6KT-10 | 2026-09-04 00:17:25 | 51.64223 | 15.34224 | 88° | 7km/h | 23544m | 4.2m/s | -52.8°C | 1.0% | 33.5hPa | 2.6V | 00:00:00 | 00:00:00 | 00:00:00 | |
| DM0DOS-11 | 2026-09-04 00:17:24 | 51.64235 | 15.34206 | 144° | 4km/h | 23501m | 6.4m/s | -53.1°C | 3.8% | 33.8hPa | 2.6V | 08:30:00 | 01:39:28 | 00:00:00 | |
| BIOWL1-15 | 2026-09-04 00:17:23 | 51.64227 | 15.34214 | 140° | 13km/h | 23528m | 4.6m/s | -52.9°C | 0.5% | 33.6hPa | 2.6V | 18:12:15 | 01:39:33 | 00:00:00 | |
| DF8AY | 2026-09-04 00:17:22 | 51.64233 | 15.34208 | 155° | 4km/h | 23512m | 5m/s | -53°C | 0.5% | 33.7hPa | 2.5V | 18:12:15 | 01:39:30 | 00:00:00 | |
| BIOWL1-15 | 2026-09-04 00:17:12 | 51.64238 | 15.34192 | 114° | 9km/h | 23471m | 4.7m/s | -53.3°C | 0.5% | 33.9hPa | 2.6V | 18:12:15 | 01:39:22 | 00:00:00 | |
| DAC517 | 2026-09-04 00:17:12 | 51.64238 | 15.34192 | 115° | 9km/h | 23471m | 4.7m/s | -53.3°C | 1.0% | 33.9hPa | 2.6V | 00:00:00 | 00:00:00 | 00:00:00 | |
| KRY50SP-1 | 2026-09-04 00:17:11 | 51.64239 | 15.34189 | 133° | 13km/h | 23465m | 6.1m/s | -53.3°C | 1.0% | 34.0hPa | 2.6V | 00:00:00 | 00:00:00 | 00:00:00 | |
| DM0DOS-11 | 2026-09-04 00:17:10 | 51.64249 | 15.34177 | 142° | 18km/h | 23449m | 5.5m/s | -53.3°C | 3.9% | 34.1hPa | 2.6V | 08:30:00 | 01:39:18 | 00:00:00 | |
| DF8AY | 2026-09-04 00:17:10 | 51.64255 | 15.34169 | 2° | 4km/h | 23405m | 5.5m/s | -53.5°C | 0.6% | 34.3hPa | 2.5V | 18:12:15 | 01:39:10 | 00:00:00 | |
| BIOWL1-15 | 2026-09-04 00:17:02 | 51.64257 | 15.34167 | 258° | 2km/h | 23416m | 5.1m/s | -53.4°C | 0.6% | 34.2hPa | 2.6V | 18:12:15 | 01:39:12 | 00:00:00 | |
| DF8AY | 2026-09-04 00:16:52 | 51.64261 | 15.34150 | 92° | 9km/h | 23362m | 3.9m/s | -53.5°C | 0.7% | 34.5hPa | 2.6V | 18:12:15 | 01:39:02 | 00:00:00 | |
| EDDB2-11 | 2026-09-04 00:16:51 | 51.64261 | 15.34146 | 87° | 5km/h | 23358m | 5.6m/s | -53.5°C | 1.1% | 34.5hPa | 2.5V | 00:00:00 | 00:00:00 | 00:00:00 | |
| DM0DOS-11 | 2026-09-04 00:16:49 | 51.64257 | 15.34143 | 358° | 9km/h | 23335m | 5.9m/s | -53.5°C | 4.1% | 34.7hPa | 2.5V | 08:30:00 | 01:38:57 | 00:00:00 | |
| SP3WXH-11 | 2026-09-04 00:16:47 | 51.64257 | 15.34143 | 358° | 7km/h | 23335m | 5.9m/s | -53.5°C | 1.1% | 34.7hPa | 2.5V | 00:00:00 | 00:00:00 | 00:00:00 | |
| DF8AY | 2026-09-04 00:16:42 | 51.64252 | 15.34147 | 168° | 5km/h | 23309m | 4.6m/s | -53.3°C | 0.6% | 34.8hPa | 2.5V | 18:12:15 | 01:38:52 | 00:00:00 | |
| BIOWL1-15 | 2026-09-04 00:16:42 | 51.64254 | 15.34146 | 148° | 9km/h | 23304m | 6.2m/s | -53.3°C | 0.6% | 34.8hPa | 2.6V | 18:12:15 | 01:38:51 | 00:00:00 | |
| DF8AY | 2026-09-04 00:16:36 | 51.64268 | 15.34117 | 235° | 5km/h | 23250m | 5.7m/s | -53.1°C | 0.5% | 35.1hPa | 2.5V | 18:12:15 | 01:38:41 | 00:00:00 | |
| DL1XH-west | 2026-09-04 00:16:33 | 51.64267 | 15.34117 | 93° | 4km/h | 23261m | 4.3m/s | -53.1°C | 0.6% | 35.1hPa | 2.5V | 18:12:15 | 01:38:43 | 00:00:00 | |
| BIOWL1-15 | 2026-09-04 00:16:31 | 51.64271 | 15.34122 | 227° | 9km/h | 23240m | 5.6m/s | -53.1°C | 0.6% | 35.2hPa | 2.6V | 18:12:15 | 01:38:39 | 00:00:00 | |
| DL1XH-west | 2026-09-04 00:16:21 | 51.64290 | 15.34125 | 165° | 5km/h | 23198m | 6.4m/s | -53°C | 0.6% | 35.4hPa | 2.5V | 18:12:15 | 01:38:31 | 00:00:00 | |
| DF8AY | 2026-09-04 00:16:21 | 51.64291 | 15.34125 | 130° | 2km/h | 23193m | 5.1m/s | -53°C | 0.5% | 35.4hPa | 2.5V | 18:12:15 | 01:38:30 | 00:00:00 | |
| DM0DOS-11 | 2026-09-04 00:16:19 | 51.64291 | 15.34124 | 160° | 2km/h | 23188m | 5m/s | -53°C | 3.9% | 35.5hPa | 2.6V | 08:30:00 | 01:38:29 | 00:00:00 | |
| BIOWL1-15 | 2026-09-04 00:16:18 | 51.64291 | 15.34124 | 204° | 4km/h | 23182m | 6.2m/s | -53°C | 0.6% | 35.5hPa | 2.6V | 18:12:15 | 01:38:28 | 00:00:00 | |
| SP3WXH-11 | 2026-09-04 00:16:16 | 51.64295 | 15.34127 | 196° | 11km/h | 23171m | 5.0m/s | -53.0°C | 1.0% | 35.6hPa | 2.5V | 00:00:00 | 00:00:00 | 00:00:00 | |
| DL1XH1-15 | 2026-09-04 00:16:15 | 51.64325 | 15.34128 | 176° | 18km/h | 23133m | 5.4m/s | -52.8°C | 3.9% | 35.8hPa | 2.5V | 08:30:00 | 01:38:19 | 00:00:00 | |
| DL1XH-west | 2026-09-04 00:16:11 | 51.64314 | 15.34128 | 179° | 22km/h | 23143m | 5.9m/s | -52.8°C | 0.5% | 35.7hPa | 2.5V | 18:12:15 | 01:38:21 | 00:00:00 | |
| DF8AY | 2026-09-04 00:16:10 | 51.64319 | 15.34128 | 180° | 22km/h | 23138m | 4.6m/s | -52.8°C | 0.6% | 35.8hPa | 2.5V | 18:12:15 | 01:38:20 | 00:00:00 | |
| BIOWL1-15 | 2026-09-04 00:16:07 | 51.64335 | 15.34125 | 164° | 11km/h | 23117m | 5.1m/s | -52.7°C | 0.6% | 0hPa | 2.6V | 18:12:15 | 01:38:16 | 00:00:00 | |
| DL1XH-west | 2026-09-04 00:16:00 | 51.64353 | 15.34119 | 163° | 11km/h | 23084m | 4.3m/s | -52.8°C | 0.6% | 36hPa | 2.5V | 18:12:15 | 01:38:10 | 00:00:00 | |
| DF8AY | 2026-09-04 00:15:57 | 51.64364 | 15.34118 | 183° | 16km/h | 23068m | 4.7m/s | -52.7°C | 0.5% | 36.1hPa | 2.5V | 18:12:15 | 01:38:07 | 00:00:00 | |
| BIOWL1-15 | 2026-09-04 00:15:57 | 51.64387 | 15.34105 | 149° | 20km/h | 23037m | 4.6m/s | -52.5°C | 0.5% | 0hPa | 2.6V | 18:12:15 | 01:38:01 | 00:00:00 | |
| DL1XH-west | 2026-09-04 00:15:50 | 51.64395 | 15.34097 | 138° | 15km/h | 23027m | 6m/s | -52.4°C | 0.5% | 36.4hPa | 2.5V | 18:12:15 | 01:37:59 | 00:00:00 | |
| DAC517 | 2026-09-04 00:15:49 | 51.64395 | 15.34097 | 139° | 15km/h | 23028m | 6.0m/s | -52.4°C | 1.0% | 36.4hPa | 2.6V | 00:00:00 | 00:00:00 | 00:00:00 | |
| DL1XH1-15 | 2026-09-04 00:15:48 | 51.64406 | 15.34079 | 144° | 15km/h | 23001m | 4.6m/s | -52.3°C | 0% | 36.5hPa | 2.6V | 08:30:00 | 01:37:54 | 00:00:00 | |
| DF8AY | 2026-09-04 00:15:47 | 51.64409 | 15.34075 | 142° | 13km/h | 22997m | 5.3m/s | -52.3°C | 0.4% | 36.6hPa | 2.5V | 18:12:15 | 01:37:53 | 00:00:00 | |
| DL1ZP-14 | 2026-09-04 00:15:46 | 51.64401 | 15.34085 | 132° | 11km/h | 23012m | 5.7m/s | 0°C | -1.0% | 36.5hPa | 2.5V | 00:00:00 | 00:00:00 | 00:00:00 | |
| BIOWL1-15 | 2026-09-04 00:15:40 | 51.64414 | 15.34066 | 127° | 9km/h | 22981m | 4.2m/s | 0°C | 0% | 0hPa | 2.7V | 18:12:15 | 01:37:50 | 00:00:00 | |
| DL1XH-west | 2026-09-04 00:15:40 | 51.64416 | 15.34063 | 137° | 11km/h | 22976m | 4.7m/s | -52.3°C | 0.5% | 36.7hPa | 2.6V | 18:12:15 | 01:37:49 | 00:00:00 | |
| DL1XH1-15 | 2026-09-04 00:15:38 | 51.64428 | 15.34046 | 122° | 11km/h | 22949m | 4.1m/s | -52.2°C | 0% | 36.8hPa | 2.6V | 00:00:00 | 01:37:44 | 00:00:00 | |
| DF8AY | 2026-09-04 00:15:34 | 51.64443 | 15.34009 | 107° | 16km/h | 22913m | 4.3m/s | -52.5°C | 0.4% | 37hPa | 2.5V | 18:12:15 | 01:37:37 | 00:00:00 | |
| BIOWL1-15 | 2026-09-04 00:15:32 | 51.64438 | 15.34027 | 126° | 16km/h | 22929m | 4.9m/s | 0°C | 0% | 0hPa | 2.6V | 18:12:15 | 01:37:40 | 00:00:00 | |
| DL1XH-west | 2026-09-04 00:15:28 | 51.64442 | 15.34016 | 111° | 16km/h | 22918m | 5.7m/s | -52.4°C | 0.4% | 37hPa | 2.6V | 18:12:15 | 01:37:38 | 00:00:00 | |
| DL1XH1-15 | 2026-09-04 00:15:28 | 51.64450 | 15.33991 | 130° | 20km/h | 22898m | 4.7m/s | -52.6°C | 0% | 0hPa | 2.6V | 00:00:00 | 01:37:34 | 00:00:00 | |
| DF8AY | 2026-09-04 00:15:23 | 51.64453 | 15.33985 | 132° | 20km/h | 22894m | 4.3m/s | -52.6°C | 0.4% | 37.1hPa | 2.7V | 18:12:15 | 01:37:33 | 00:00:00 | |
| DB6KT-10 | 2026-09-04 00:15:22 | 51.64453 | 15.33985 | 132° | 20km/h | 22894m | 4.3m/s | -52.6°C | 1.0% | 37.1hPa | 2.5V | 00:00:00 | 00:00:00 | 00:00:00 | |
| OE3JTB-15 | 2026-09-04 00:15:21 | 51.64461 | 15.33965 | 118° | 20km/h | 22878m | 4.6m/s | -52.5°C | 3.8% | 37.2hPa | 2.5V | 00:00:00 | 00:00:00 | 00:00:00 | |
| SONDE2-11 | 2026-09-04 00:15:20 | 51.64464 | 15.33958 | 117° | 22km/h | 22873m | 5.8m/s | -52.6°C | 1.0% | 37.3hPa | 2.5V | 00:00:00 | 00:00:00 | 00:00:00 | |
| PETON7-10 | 2026-09-04 00:15:19 | 51.64464 | 15.33958 | 118° | 22km/h | 22873m | 5.7m/s | 0°C | 0% | 0hPa | 2.5V | 00:00:00 | 00:00:00 | 00:00:00 | |
| DL1XH1-15 | 2026-09-04 00:15:18 | 51.64474 | 15.33916 | 95° | 20km/h | 22848m | 5m/s | -52.8°C | 0% | 0hPa | 2.5V | 00:00:00 | 01:37:24 | 00:00:00 | |
| DL1XH-west | 2026-09-04 00:15:17 | 51.64470 | 15.33941 | 116° | 24km/h | 22863m | 3.7m/s | -52.7°C | 0.5% | 37.3hPa | 2.6V | 18:12:15 | 01:37:27 | 00:00:00 | |
| DF8AY | 2026-09-04 00:15:13 | 51.64477 | 15.33851 | 93° | 22km/h | 22813m | 4.3m/s | -52.9°C | 0.5% | 37.6hPa | 2.6V | 18:12:15 | 01:37:17 | 00:00:00 | |
| KRY50SP-1 | 2026-09-04 00:15:12 | 51.64474 | 15.33907 | 93° | 22km/h | 22843m | 4.8m/s | -52.8°C | 1.0% | 37.4hPa | 2.5V | 00:00:00 | 00:00:00 | 00:00:00 | |
| DL1XH1-15 | 2026-09-04 00:15:08 | 51.64480 | 15.33822 | 100° | 27km/h | 22798m | 4.5m/s | -53°C | 0% | 0hPa | 2.5V | 00:00:00 | 01:37:14 | 00:00:00 | |
| DL1XH-west | 2026-09-04 00:15:06 | 51.64478 | 15.33842 | 96° | 22km/h | 22808m | 4.8m/s | -53°C | 0.6% | 37.6hPa | 2.6V | 18:12:15 | 01:37:16 | 00:00:00 | |
| DF8AY | 2026-09-04 00:14:59 | 51.64473 | 15.33763 | 70° | 24km/h | 22768m | 5.4m/s | -53°C | 0.6% | 37.9hPa | 2.5V | 18:12:15 | 01:37:08 | 00:00:00 | |
| DL1XH-west | 2026-09-04 00:14:55 | 51.64467 | 15.33739 | 65° | 18km/h | 22753m | 5.5m/s | -52.9°C | 0.5% | 38hPa | 2.6V | 18:12:15 | 01:37:05 | 00:00:00 | |
| S3001 | 2026-09-04 00:14:53 | 51.64463 | 15.33727 | 55° | 15km/h | 22744m | 3.6m/s | -52.9°C | 1.0% | 38.0hPa | 2.6V | 00:00:00 | 00:00:00 | 00:00:00 | |
| SONDE2-11 | 2026-09-04 00:14:49 | 51.64457 | 15.33692 | 77° | 16km/h | 22720m | 5.7m/s | -53.0°C | 1.0% | 38.1hPa | 2.6V | 00:00:00 | 00:00:00 | 00:00:00 | |
| DL1XH1-15 | 2026-09-04 00:14:48 | 51.64452 | 15.33674 | 56° | 16km/h | 22705m | 5.8m/s | 0°C | 0% | 0hPa | 2.6V | 00:00:00 | 01:36:55 | 00:00:00 | |
| DL1XH-west | 2026-09-04 00:14:45 | 51.64452 | 15.33674 | 57° | 16km/h | 22705m | 5.8m/s | 0°C | 0% | 38.2hPa | 2.6V | 18:12:15 | 01:36:55 | 00:00:00 | |
| DL1XH-west | 2026-09-04 00:14:35 | 51.64415 | 15.33638 | 61° | 9km/h | 22653m | 5.9m/s | 0°C | 0% | 0hPa | 2.6V | 18:12:15 | 01:36:45 | 00:00:00 | |
| DF8AY | 2026-09-04 00:14:34 | 51.64415 | 15.33619 | 48° | 7km/h | 22624m | 5.8m/s | -52.9°C | 0.5% | 38.7hPa | 2.5V | 18:12:15 | 01:36:39 | 00:00:00 | |
| DL1XH-west | 2026-09-04 00:14:25 | 51.64403 | 15.33615 | 15° | 16km/h | 22603m | 5m/s | 0°C | 0% | 0hPa | 2.5V | 18:12:15 | 01:36:35 | 00:00:00 | |
| DF8AY | 2026-09-04 00:14:19 | 51.64391 | 15.33608 | 122° | 5km/h | 22574m | 5.2m/s | -53°C | 0.5% | 39hPa | 2.6V | 18:12:15 | 01:36:29 | 00:00:00 | |
| DL1XH-west | 2026-09-04 00:14:15 | 51.64396 | 15.33605 | 212° | 5km/h | 22555m | 4.5m/s | 0°C | 0% | 0hPa | 2.5V | 18:12:15 | 01:36:25 | 00:00:00 | |
| KRY50SP-1 | 2026-09-04 00:14:13 | 51.64397 | 15.33606 | 267° | 2km/h | 22550m | 4.3m/s | -53.1°C | 1.0% | 39.1hPa | 2.6V | 00:00:00 | 00:00:00 | 00:00:00 | |
| 13BRC | 2026-09-04 00:14:12 | 51.64397 | 15.33606 | 6° | 4km/h | 22545m | 5.9m/s | -53.2°C | 1.1% | 39.2hPa | 2.6V | 00:00:00 | 00:00:00 | 00:00:00 | |
| OK1SLM-15 | 2026-09-04 00:14:11 | 51.64395 | 15.33605 | 27° | 7km/h | 22540m | 4.8m/s | -53.2°C | 1.0% | 39.2hPa | 2.6V | 00:00:00 | 00:00:00 | 00:00:00 | |
| DM0DOS-11 | 2026-09-04 00:14:09 | 51.64394 | 15.33595 | 144° | 13km/h | 22507m | 4.6m/s | -53.3°C | 3.9% | 39.4hPa | 2.6V | 08:30:00 | 01:36:15 | 00:00:00 | |
| DF8AY | 2026-09-04 00:14:08 | 51.64390 | 15.33601 | 109° | 2km/h | 22521m | 4.1m/s | -53.2°C | 0.5% | 39.4hPa | 2.5V | 18:12:15 | 01:36:18 | 00:00:00 | |
| DF8AY | 2026-09-04 00:13:58 | 51.64413 | 15.33600 | 203° | 5km/h | 22473m | 4.5m/s | -53.5°C | 0.6% | 39.6hPa | 2.5V | 18:12:15 | 01:36:08 | 00:00:00 | |
| SP3BTT-10 | 2026-09-04 00:13:57 | 51.64414 | 15.33600 | 201° | 13km/h | 22469m | 4.3m/s | -53.5°C | 3.9% | 39.6hPa | 2.5V | 00:00:00 | 00:00:00 | 00:00:00 | |
| KRY50SP-1 | 2026-09-04 00:13:56 | 51.64414 | 15.33600 | 202° | 5km/h | 22469m | 4.3m/s | -53.6°C | 1.1% | 39.7hPa | 2.5V | 00:00:00 | 00:00:00 | 00:00:00 | |
| DM0DOS-11 | 2026-09-04 00:13:53 | 51.64420 | 15.33600 | 133° | 9km/h | 22445m | 5.6m/s | -53.6°C | 3.9% | 39.8hPa | 2.5V | 08:30:00 | 01:36:02 | 00:00:00 | |
| DF8AY | 2026-09-04 00:13:47 | 51.64437 | 15.33588 | 174° | 20km/h | 22420m | 4.5m/s | -53.8°C | 0.5% | 40hPa | 2.6V | 18:12:15 | 01:35:57 | 00:00:00 | |
| SONDE2-11 | 2026-09-04 00:13:47 | 51.64442 | 15.33587 | 168° | 18km/h | 22415m | 5.7m/s | -53.9°C | 1.1% | 40.0hPa | 2.6V | 00:00:00 | 00:00:00 | 00:00:00 | |
| DAC517 | 2026-09-04 00:13:45 | 51.64442 | 15.33587 | 169° | 20km/h | 22415m | 5.7m/s | -53.9°C | 1.1% | 40.0hPa | 2.6V | 00:00:00 | 00:00:00 | 00:00:00 | |
| OK1SLM-15 | 2026-09-04 00:13:44 | 51.64447 | 15.33585 | 162° | 18km/h | 22410m | 5.2m/s | -54.0°C | 1.1% | 40.0hPa | 2.6V | 00:00:00 | 00:00:00 | 00:00:00 | |
| DF8AY-15 | 2026-09-04 00:13:43 | 51.64454 | 15.33579 | 155° | 15km/h | 22400m | 5.3m/s | 0°C | 0% | 0hPa | 2.6V | 00:00:00 | 01:35:53 | 00:00:00 | |
| DM0DOS-11 | 2026-09-04 00:13:39 | 51.64468 | 15.33556 | 115° | 20km/h | 22376m | 4.6m/s | -54.2°C | 4.1% | 40.2hPa | 2.6V | 08:30:00 | 01:35:48 | 00:00:00 | |
| DF8AY | 2026-09-04 00:13:37 | 51.64472 | 15.33543 | 119° | 15km/h | 22367m | 5.7m/s | -54.2°C | 0.7% | 40.3hPa | 2.5V | 18:12:15 | 01:35:46 | 00:00:00 | |
| AA1-15 | 2026-09-04 00:13:36 | 51.64474 | 15.33538 | 139° | 11km/h | 22362m | 4.9m/s | 0°C | 0% | 0hPa | 2.6V | 18:12:15 | 01:35:45 | 00:00:00 | |
| KRY50SP-1 | 2026-09-04 00:13:35 | 51.64476 | 15.33536 | 158° | 11km/h | 22358m | 4.2m/s | -54.2°C | 1.1% | 40.4hPa | 2.7V | 00:00:00 | 00:00:00 | 00:00:00 | |
| DM0DOS-11 | 2026-09-04 00:13:34 | 51.64491 | 15.33524 | 138° | 7km/h | 22328m | 5m/s | -54.1°C | 4.1% | 40.5hPa | 2.7V | 08:30:00 | 01:35:38 | 00:00:00 | |
| DF8AY | 2026-09-04 00:13:26 | 51.64493 | 15.33520 | 130° | 7km/h | 22319m | 5m/s | -54.1°C | 0.6% | 40.6hPa | 2.5V | 18:12:15 | 01:35:36 | 00:00:00 | |
| DAC517 | 2026-09-04 00:13:25 | 51.64493 | 15.33520 | 131° | 7km/h | 22319m | 5.0m/s | -54.1°C | 1.1% | 40.6hPa | 2.6V | 00:00:00 | 00:00:00 | 00:00:00 | |
| KRY50SP-1 | 2026-09-04 00:13:23 | 51.64495 | 15.33512 | 109° | 15km/h | 22309m | 4.4m/s | -54.1°C | 1.1% | 40.7hPa | 2.6V | 00:00:00 | 00:00:00 | 00:00:00 | |
| DM0DOS-11 | 2026-09-04 00:13:18 | 51.64489 | 15.33482 | 353° | 4km/h | 22281m | 4.9m/s | -54.3°C | 4.1% | 40.9hPa | 2.6V | 08:30:00 | 01:35:28 | 00:00:00 | |
| DF8AY | 2026-09-04 00:13:15 | 51.64491 | 15.33482 | 149° | 7km/h | 22267m | 4.6m/s | -54.3°C | 0.7% | 41hPa | 2.5V | 18:12:15 | 01:35:25 | 00:00:00 | |
| SONDE2-11 | 2026-09-04 00:13:15 | 51.64491 | 15.33482 | 148° | 5km/h | 22267m | 4.6m/s | -54.3°C | 1.1% | 41.0hPa | 2.7V | 00:00:00 | 00:00:00 | 00:00:00 | |
| EDDB2-11 | 2026-09-04 00:13:14 | 51.64493 | 15.33480 | 118° | 7km/h | 22262m | 4.5m/s | -54.3°C | 1.2% | 41.0hPa | 2.7V | 00:00:00 | 00:00:00 | 00:00:00 | |
| KRY50SP-1 | 2026-09-04 00:13:13 | 51.64492 | 15.33480 | 120° | 9km/h | 22262m | 4.5m/s | -54.3°C | 1.2% | 41.0hPa | 2.7V | 00:00:00 | 00:00:00 | 00:00:00 | |
| OE5DRO-10 | 2026-09-04 00:13:11 | 51.64492 | 15.33468 | 63° | 15km/h | 22247m | 5.5m/s | -54.3°C | 4.2% | 41.0hPa | 2.7V | 00:00:00 | 00:00:00 | 00:00:00 | |
| SP3WXH-11 | 2026-09-04 00:13:10 | 51.64488 | 15.33457 | 60° | 16km/h | 22236m | 5.2m/s | -54.4°C | 1.1% | 41.1hPa | 2.7V | 00:00:00 | 00:00:00 | 00:00:00 | |
| DM0DOS-11 | 2026-09-04 00:13:08 | 51.64481 | 15.33438 | 53° | 18km/h | 22220m | 5.4m/s | -54.3°C | 4.2% | 41.2hPa | 2.7V | 08:30:00 | 01:35:16 | 00:00:00 | |
| DF8AY | 2026-09-04 00:13:02 | 51.64469 | 15.33424 | 25° | 13km/h | 22200m | 5.9m/s | -54.2°C | 0.7% | 41.4hPa | 2.5V | 18:12:15 | 01:35:12 | 00:00:00 | |
| DF8AY | 2026-09-04 00:12:50 | 51.64424 | 15.33395 | 351° | 18km/h | 22132m | 5.9m/s | -54°C | 0.7% | 41.8hPa | 2.6V | 18:12:15 | 01:34:59 | 00:00:00 | |
| S3001 | 2026-09-04 00:12:49 | 51.64420 | 15.33395 | 356° | 15km/h | 22126m | 5.0m/s | -54.0°C | 1.1% | 41.9hPa | 2.6V | 00:00:00 | 00:00:00 | 00:00:00 | |
| DF8AY | 2026-09-04 00:12:39 | 51.64381 | 15.33397 | 359° | 15km/h | 22051m | 4.3m/s | -53.8°C | 0.6% | 0hPa | 2.6V | 18:12:15 | 01:34:44 | 00:00:00 | |
| DM0DOS-11 | 2026-09-04 00:12:38 | 51.64390 | 15.33396 | 347° | 18km/h | 22062m | 6.3m/s | -53.9°C | 4% | 42.3hPa | 2.6V | 08:30:00 | 01:34:46 | 00:00:00 | |
| BIOWL1-15 | 2026-09-04 00:12:37 | 51.64378 | 15.33398 | 355° | 9km/h | 22046m | 4.3m/s | -53.8°C | 0.7% | 42.4hPa | 2.7V | 18:12:15 | 01:34:43 | 00:00:00 | |
| DB6KT-10 | 2026-09-04 00:12:36 | 51.64394 | 15.33393 | 343° | 18km/h | 22067m | 4.6m/s | -53.9°C | 1.2% | 42.2hPa | 2.7V | 00:00:00 | 00:00:00 | 00:00:00 | |
| KRY50SP-1 | 2026-09-04 00:12:34 | 51.64385 | 15.33397 | 353° | 18km/h | 22056m | 5.6m/s | -53.9°C | 1.1% | 42.3hPa | 2.7V | 00:00:00 | 00:00:00 | 00:00:00 | |
| OE5DRO-10 | 2026-09-04 00:12:33 | 51.64378 | 15.33397 | 355° | 5km/h | 22047m | 4.3m/s | -53.8°C | 4.0% | 42.3hPa | 2.7V | 00:00:00 | 00:00:00 | 00:00:00 | |
| SONCRA | 2026-09-04 00:12:32 | 51.64376 | 15.33399 | 269° | 4km/h | 22035m | 5.9m/s | -53.8°C | 1.1% | 42.5hPa | 2.5V | 00:00:00 | 00:00:00 | 00:00:00 | |
| 13BRC | 2026-09-04 00:12:30 | 51.64376 | 15.33399 | 270° | 4km/h | 22036m | 5.9m/s | -53.8°C | 1.1% | 42.5hPa | 2.5V | 00:00:00 | 00:00:00 | 00:00:00 | |
| DM0DOS-11 | 2026-09-04 00:12:28 | 51.64382 | 15.33401 | 163° | 5km/h | 22007m | 4.8m/s | -53.9°C | 4% | 42.6hPa | 2.5V | 08:30:00 | 01:34:36 | 00:00:00 | |
| DF8AY | 2026-09-04 00:12:23 | 51.64383 | 15.33402 | 299° | 4km/h | 21991m | 4.1m/s | -54°C | 0.6% | 0hPa | 2.6V | 18:12:15 | 01:34:33 | 00:00:00 | |
| PG1ADW-2 | 2026-09-04 00:12:20 | 51.64382 | 15.33402 | 78° | 11km/h | 21975m | 4.4m/s | -54.1°C | 4.1% | 42.8hPa | 2.6V | 00:00:00 | 00:00:00 | 00:00:00 | |
| DM0DOS-11 | 2026-09-04 00:12:19 | 51.64385 | 15.33401 | 164° | 9km/h | 21954m | 5.9m/s | -54.2°C | 4.1% | 43hPa | 2.6V | 08:30:00 | 01:34:26 | 00:00:00 | |
| DF8AY | 2026-09-04 00:12:12 | 51.64424 | 15.33384 | 151° | 11km/h | 21891m | 5.5m/s | -54°C | 0.7% | 0hPa | 2.5V | 18:12:15 | 01:34:14 | 00:00:00 | |
| EDDB2-11 | 2026-09-04 00:12:12 | 51.64404 | 15.33395 | 178° | 15km/h | 21928m | 4.0m/s | -54.2°C | 1.2% | 43.2hPa | 2.7V | 00:00:00 | 00:00:00 | 00:00:00 | |
| OK1SLM-15 | 2026-09-04 00:12:10 | 51.64404 | 15.33395 | 179° | 16km/h | 21928m | 4.0m/s | -54.2°C | 1.2% | 43.2hPa | 2.7V | 00:00:00 | 00:00:00 | 00:00:00 | |
| 13BRC | 2026-09-04 00:12:09 | 51.64408 | 15.33395 | 172° | 16km/h | 21923m | 5.9m/s | -54.2°C | 1.2% | 43.2hPa | 2.7V | 00:00:00 | 00:00:00 | 00:00:00 | |
| DM0DOS-11 | 2026-09-04 00:12:08 | 51.64420 | 15.33387 | 160° | 9km/h | 21901m | 5.6m/s | -54°C | 4.1% | 43.3hPa | 2.7V | 08:30:00 | 01:34:16 | 00:00:00 | |
| BIOWL1-15 | 2026-09-04 00:12:06 | 51.64420 | 15.33387 | 160° | 9km/h | 21901m | 5.6m/s | -54.1°C | 0.7% | 43.3hPa | 2.7V | 18:12:15 | 01:34:16 | 00:00:00 | |
| DF8AY | 2026-09-04 00:12:03 | 51.64429 | 15.33377 | 142° | 16km/h | 21880m | 4.2m/s | -53.9°C | 0.7% | 0hPa | 2.6V | 18:12:15 | 01:34:12 | 00:00:00 | |
| SONCRA | 2026-09-04 00:12:01 | 51.64437 | 15.33369 | 155° | 18km/h | 21870m | 5.6m/s | -53.9°C | 1.1% | 43.5hPa | 2.7V | 00:00:00 | 00:00:00 | 00:00:00 | |
| EDDB2-12 | 2026-09-04 00:12:00 | 51.64441 | 15.33366 | 155° | 18km/h | 21865m | 4.3m/s | -53.9°C | 1.1% | 43.6hPa | 2.7V | 00:00:00 | 00:00:00 | 00:00:00 | |
| OK1SLM-15 | 2026-09-04 00:11:59 | 51.64437 | 15.33369 | 156° | 20km/h | 21870m | 5.6m/s | -53.9°C | 1.1% | 43.5hPa | 2.7V | 00:00:00 | 00:00:00 | 00:00:00 | |
| DM0DOS-11 | 2026-09-04 00:11:58 | 51.64458 | 15.33347 | 129° | 20km/h | 21844m | 4.3m/s | -53.8°C | 4% | 43.7hPa | 2.7V | 08:30:00 | 01:34:05 | 00:00:00 | |
| BIOWL1-15 | 2026-09-04 00:11:57 | 51.64458 | 15.33347 | 129° | 20km/h | 21844m | 4.3m/s | -53.8°C | 0.6% | 43.7hPa | 2.7V | 18:12:15 | 01:34:05 | 00:00:00 | |
| DF8AY | 2026-09-04 00:11:52 | 51.64497 | 15.33268 | 131° | 24km/h | 21771m | 5.4m/s | -53.9°C | 0.6% | 0hPa | 2.6V | 18:12:15 | 01:33:51 | 00:00:00 | |
| S3001 | 2026-09-04 00:11:47 | 51.64479 | 15.33304 | 136° | 18km/h | 21798m | 4.8m/s | -53.8°C | 1.1% | 44.0hPa | 2.6V | 00:00:00 | 00:00:00 | 00:00:00 | |
| DM0DOS-11 | 2026-09-04 00:11:46 | 51.64482 | 15.33298 | 133° | 20km/h | 21793m | 5.1m/s | -53.8°C | 4% | 44.1hPa | 2.6V | 08:30:00 | 01:33:55 | 00:00:00 | |
| BIOWL9-15 | 2026-09-04 00:11:45 | 51.64482 | 15.33298 | 133° | 20km/h | 21794m | 5.1m/s | -53.8°C | 1.1% | 44.1hPa | 2.7V | 00:00:00 | 00:00:00 | 00:00:00 | |
| BIOWL1-15 | 2026-09-04 00:11:44 | 51.64486 | 15.33291 | 129° | 24km/h | 21788m | 6m/s | -53.8°C | 0.6% | 44.1hPa | 2.7V | 18:12:15 | 01:33:54 | 00:00:00 | |
| DF8AY | 2026-09-04 00:11:44 | 51.64509 | 15.33245 | 122° | 26km/h | 21757m | 5.6m/s | -53.8°C | 0.6% | 0hPa | 2.7V | 18:12:15 | 01:33:48 | 00:00:00 | |
| OE3JTB-15 | 2026-09-04 00:11:43 | 51.64490 | 15.33284 | 126° | 22km/h | 21782m | 5.0m/s | -53.8°C | 4.0% | 44.1hPa | 2.6V | 00:00:00 | 00:00:00 | 00:00:00 | |
| SONDE2-11 | 2026-09-04 00:11:42 | 51.64493 | 15.33276 | 127° | 24km/h | 21777m | 5.6m/s | -53.8°C | 1.1% | 44.2hPa | 2.6V | 00:00:00 | 00:00:00 | 00:00:00 | |
| EDDB2-11 | 2026-09-04 00:11:41 | 51.64501 | 15.33261 | 131° | 22km/h | 21767m | 4.0m/s | -53.9°C | 1.1% | 44.3hPa | 2.6V | 00:00:00 | 00:00:00 | 00:00:00 | |
| DM0DOS-11 | 2026-09-04 00:11:40 | 51.64518 | 15.33217 | 120° | 24km/h | 21742m | 5.2m/s | -53.9°C | 4.1% | 44.4hPa | 2.6V | 08:30:00 | 01:33:45 | 00:00:00 | |
| BIOWL1-15 | 2026-09-04 00:11:35 | 51.64521 | 15.33210 | 128° | 20km/h | 21737m | 5.9m/s | -54°C | 0.6% | 44.5hPa | 2.6V | 18:12:15 | 01:33:44 | 00:00:00 | |
| DB6KT-10 | 2026-09-04 00:11:34 | 51.64518 | 15.33217 | 121° | 24km/h | 21742m | 5.2m/s | -53.9°C | 1.2% | 44.4hPa | 2.5V | 00:00:00 | 00:00:00 | 00:00:00 | |
| DM0DOS-11 | 2026-09-04 00:11:29 | 51.64542 | 15.33150 | 105° | 24km/h | 21691m | 4.7m/s | -54.4°C | 4.2% | 44.8hPa | 2.5V | 08:30:00 | 01:33:35 | 00:00:00 | |
| DF8AY | 2026-09-04 00:11:28 | 51.64537 | 15.33173 | 114° | 20km/h | 21706m | 5.6m/s | -54.3°C | 0.7% | 0hPa | 2.6V | 18:12:15 | 01:33:38 | 00:00:00 | |
| BIOWL1-15 | 2026-09-04 00:11:23 | 51.64545 | 15.33130 | 100° | 27km/h | 21680m | 5.3m/s | -54.4°C | 0.7% | 44.9hPa | 2.6V | 18:12:15 | 01:33:33 | 00:00:00 | |
| DF8AY | 2026-09-04 00:11:18 | 51.64551 | 15.33080 | 107° | 26km/h | 21654m | 5.3m/s | -54.4°C | 0.7% | 0hPa | 2.6V | 18:12:15 | 01:33:28 | 00:00:00 | |
| DM0DOS-11 | 2026-09-04 00:11:18 | 51.64557 | 15.33054 | 110° | 18km/h | 21638m | 5.8m/s | -54.2°C | 4.2% | 45.1hPa | 2.6V | 08:30:00 | 01:33:25 | 00:00:00 | |
| DB0NH | 2026-09-04 00:11:17 | 51.64553 | 15.33071 | 107° | 16km/h | 21649m | 4.7m/s | -54.3°C | 4.2% | 45.0hPa | 2.7V | 00:00:00 | 01:33:27 | 00:00:00 | |
| S3001 | 2026-09-04 00:11:16 | 51.64557 | 15.33054 | 110° | 18km/h | 21638m | 5.8m/s | -54.3°C | 1.2% | 45.1hPa | 2.7V | 00:00:00 | 00:00:00 | 00:00:00 | |
| BIOWL1-15 | 2026-09-04 00:11:15 | 51.64558 | 15.32917 | 62° | 15km/h | 21530m | 4.5m/s | -53.6°C | 0.7% | 45.9hPa | 2.7V | 18:12:15 | 01:33:04 | 00:00:00 | |
| DF8AY | 2026-09-04 00:11:08 | 51.64562 | 15.33002 | 80° | 20km/h | 21601m | 5.5m/s | -54°C | 0.7% | 0hPa | 2.6V | 18:12:15 | 01:33:18 | 00:00:00 | |
| BIOWL1-15 | 2026-09-04 00:11:07 | 51.64553 | 15.32893 | 84° | 15km/h | 21510m | 4.9m/s | -53.5°C | 0.6% | 46hPa | 2.6V | 18:12:15 | 01:33:00 | 00:00:00 | |
| DF8AY | 2026-09-04 00:10:56 | 51.64559 | 15.32922 | 70° | 13km/h | 21535m | 5.8m/s | -53.6°C | 0.7% | 0hPa | 2.7V | 18:12:15 | 01:33:05 | 00:00:00 | |
| BIOWL1-15 | 2026-09-04 00:10:53 | 51.64553 | 15.32887 | 86° | 13km/h | 21505m | 5.9m/s | -53.4°C | 0.6% | 46.1hPa | 2.7V | 18:12:15 | 01:32:59 | 00:00:00 | |
| HSKMA3-T | 2026-09-04 00:10:45 | 51.64552 | 15.32870 | 89° | 13km/h | 21484m | 5.2m/s | -53.3°C | 0.6% | 46.3hPa | 2.6V | 18:12:15 | 01:32:55 | 00:00:00 | |
| BIOWL1-15 | 2026-09-04 00:10:40 | 51.64543 | 15.32848 | 60° | 15km/h | 21451m | 5.3m/s | -53°C | 0.6% | 46.5hPa | 2.7V | 18:12:15 | 01:32:48 | 00:00:00 | |
| HSKMA3-T | 2026-09-04 00:10:34 | 51.64538 | 15.32826 | 82° | 9km/h | 21431m | 5.3m/s | -52.8°C | 0.7% | 46.6hPa | 2.6V | 18:12:15 | 01:32:44 | 00:00:00 | |
| BIOWL1-15 | 2026-09-04 00:10:28 | 51.64530 | 15.32815 | 22° | 7km/h | 21392m | 5.3m/s | -52.5°C | 0.6% | 46.9hPa | 2.6V | 18:12:15 | 01:32:36 | 00:00:00 | |
| DF8AY | 2026-09-04 00:10:24 | 51.64522 | 15.32800 | 22° | 4km/h | 21362m | 4.5m/s | 0°C | 0% | 0hPa | 2.6V | 18:12:15 | 01:32:30 | 00:00:00 | |
| HSKMA3-T | 2026-09-04 00:10:23 | 51.64525 | 15.32806 | 60° | 11km/h | 21377m | 4.5m/s | -52.4°C | 0.6% | 47hPa | 2.6V | 18:12:15 | 01:32:33 | 00:00:00 | |
| SP6BVK | 2026-09-04 00:10:22 | 51.64525 | 15.32806 | 61° | 11km/h | 21378m | 4.5m/s | -52.4°C | 1.1% | 47.0hPa | 2.6V | 00:00:00 | 00:00:00 | 00:00:00 | |
| OE5DRO-10 | 2026-09-04 00:10:20 | 51.64521 | 15.32799 | 22° | 4km/h | 21362m | 4.4m/s | 0°C | 0% | 0hPa | 2.6V | 00:00:00 | 00:00:00 | 00:00:00 | |
| DAC517 | 2026-09-04 00:10:19 | 51.64520 | 15.32799 | 16° | 5km/h | 21358m | 3.9m/s | -52.3°C | 1.1% | 47.2hPa | 2.6V | 00:00:00 | 00:00:00 | 00:00:00 | |
| DM0DOS-11 | 2026-09-04 00:10:18 | 51.64515 | 15.32792 | 55° | 5km/h | 21336m | 5.8m/s | -52.1°C | 3.8% | 47.3hPa | 2.6V | 08:30:00 | 01:32:25 | 00:00:00 | |
| BIOWL1-15 | 2026-09-04 00:10:17 | 51.64512 | 15.32784 | 80° | 4km/h | 21311m | 4.5m/s | -52°C | 0.5% | 47.5hPa | 2.7V | 18:12:15 | 01:32:20 | 00:00:00 | |
| HSKMA3-T | 2026-09-04 00:10:12 | 51.64513 | 15.32788 | 74° | 5km/h | 21321m | 5.8m/s | -52°C | 0.6% | 0hPa | 2.6V | 18:12:15 | 01:32:22 | 00:00:00 | |
| DF8AY | 2026-09-04 00:10:10 | 51.64513 | 15.32783 | 193° | 2km/h | 21300m | 5.1m/s | 0°C | 0% | 0hPa | 2.6V | 18:12:15 | 01:32:18 | 00:00:00 | |
| BIOWL1-15 | 2026-09-04 00:10:09 | 51.64513 | 15.32784 | 222° | 4km/h | 21296m | 3.4m/s | -51.8°C | 0.5% | 47.6hPa | 2.6V | 18:12:15 | 01:32:17 | 00:00:00 | |
| HSKMA3-T | 2026-09-04 00:10:01 | 51.64508 | 15.32785 | 21° | 4km/h | 21267m | 4.7m/s | -51.6°C | 0.4% | 0hPa | 2.7V | 18:12:15 | 01:32:11 | 00:00:00 | |
| DF8AY | 2026-09-04 00:09:59 | 51.64505 | 15.32782 | 44° | 9km/h | 21257m | 5.7m/s | 0°C | 0% | 0hPa | 2.6V | 18:12:15 | 01:32:09 | 00:00:00 | |
| DM0DOS-11 | 2026-09-04 00:09:58 | 51.64501 | 15.32776 | 39° | 11km/h | 21247m | 3.7m/s | -51.5°C | 3.6% | 48hPa | 2.6V | 08:30:00 | 01:32:07 | 00:00:00 | |
| BIOWL1-15 | 2026-09-04 00:09:58 | 51.64500 | 15.32774 | 41° | 7km/h | 21242m | 5.5m/s | -51.5°C | 0.4% | 48hPa | 2.6V | 18:12:15 | 01:32:06 | 00:00:00 | |
| HSKMA3-T | 2026-09-04 00:09:51 | 51.64495 | 15.32777 | 329° | 7km/h | 21218m | 4.1m/s | -51.6°C | 0.4% | 0hPa | 2.6V | 18:12:15 | 01:32:01 | 00:00:00 | |
| DF8AY | 2026-09-04 00:09:48 | 51.64491 | 15.32781 | 346° | 7km/h | 21203m | 3.8m/s | 0°C | 0% | 0hPa | 2.6V | 18:12:15 | 01:31:58 | 00:00:00 | |
| DM0DOS-11 | 2026-09-04 00:09:48 | 51.64489 | 15.32781 | 352° | 9km/h | 21199m | 5.7m/s | -51.7°C | 3.7% | 48.4hPa | 2.6V | 08:30:00 | 01:31:57 | 00:00:00 | |
| BIOWL1-15 | 2026-09-04 00:09:46 | 51.64486 | 15.32782 | 3° | 13km/h | 21193m | 4.9m/s | -51.7°C | 0.4% | 48.4hPa | 2.6V | 18:12:15 | 01:31:56 | 00:00:00 | |
| HSKMA3-T | 2026-09-04 00:09:40 | 51.64481 | 15.32774 | 171° | 2km/h | 21164m | 5m/s | 0°C | 0% | 0hPa | 2.6V | 18:12:15 | 01:31:50 | 00:00:00 | |
| PG1ADW-2 | 2026-09-04 00:09:40 | 51.64481 | 15.32774 | 171° | 9km/h | 21165m | 5.0m/s | -51.7°C | 3.7% | 48.6hPa | 2.6V | 00:00:00 | 00:00:00 | 00:00:00 | |
| DM0DOS-11 | 2026-09-04 00:09:39 | 51.64486 | 15.32779 | 212° | 11km/h | 21149m | 4.4m/s | -51.7°C | 3.7% | 48.7hPa | 2.6V | 08:30:00 | 01:31:47 | 00:00:00 | |
| BIOWL1-15 | 2026-09-04 00:09:35 | 51.64489 | 15.32783 | 213° | 5km/h | 21140m | 5.5m/s | -51.7°C | 0.4% | 48.8hPa | 2.6V | 18:12:15 | 01:31:45 | 00:00:00 | |
| HSKMA3-T | 2026-09-04 00:09:29 | 51.64494 | 15.32770 | 137° | 11km/h | 21112m | 4m/s | 0°C | 0% | 0hPa | 2.6V | 18:12:15 | 01:31:39 | 00:00:00 | |
| DM0DOS-11 | 2026-09-04 00:09:28 | 51.64499 | 15.32765 | 153° | 9km/h | 21103m | 4.4m/s | -51.6°C | 3.6% | 49hPa | 2.7V | 08:30:00 | 01:31:37 | 00:00:00 | |
| BIOWL1-15 | 2026-09-04 00:09:25 | 51.64508 | 15.32763 | 182° | 16km/h | 21088m | 4.8m/s | -51.7°C | 0.4% | 49.2hPa | 2.6V | 18:12:15 | 01:31:34 | 00:00:00 | |
| HSKMA3-T | 2026-09-04 00:09:18 | 51.64524 | 15.32757 | 149° | 11km/h | 21061m | 5.4m/s | 0°C | 0% | 0hPa | 2.6V | 18:12:15 | 01:31:28 | 00:00:00 | |
| BIOWL1-15 | 2026-09-04 00:09:13 | 51.64535 | 15.32747 | 133° | 9km/h | 21038m | 4.3m/s | -51.8°C | 0.4% | 49.5hPa | 2.6V | 18:12:15 | 01:31:23 | 00:00:00 | |
| OE3JTB-15 | 2026-09-04 00:09:12 | 51.64537 | 15.32744 | 142° | 16km/h | 21033m | 5.4m/s | -51.8°C | 3.7% | 49.5hPa | 2.7V | 00:00:00 | 01:31:22 | 00:00:00 | |
| DB0NH | 2026-09-04 00:09:11 | 51.64540 | 15.32742 | 153° | 15km/h | 21028m | 4.9m/s | -51.8°C | 3.7% | 49.6hPa | 2.7V | 00:00:00 | 01:31:21 | 08:30:00 | |
| BIOWL9-15 | 2026-09-04 00:09:10 | 51.64542 | 15.32740 | 161° | 11km/h | 21023m | 4.3m/s | -51.9°C | 1.0% | 49.7hPa | 2.6V | 00:00:00 | 00:00:00 | 00:00:00 | |
| DB6KT-10 | 2026-09-04 00:09:09 | 51.64542 | 15.32740 | 162° | 13km/h | 21023m | 4.3m/s | -51.9°C | 1.1% | 49.7hPa | 2.6V | 00:00:00 | 00:00:00 | 00:00:00 | |
| DM0DOS-11 | 2026-09-04 00:09:08 | 51.64551 | 15.32738 | 186° | 9km/h | 21008m | 4.3m/s | -52°C | 3.7% | 49.8hPa | 2.6V | 08:30:00 | 01:31:17 | 00:00:00 | |
| BIOWL1-15 | 2026-09-04 00:09:02 | 51.64567 | 15.32743 | 187° | 15km/h | 20986m | 4.9m/s | -52.1°C | 0.4% | 50hPa | 2.6V | 18:12:15 | 01:31:12 | 00:00:00 | |
| BIOWL1-15 | 2026-09-04 00:08:51 | 51.64602 | 15.32712 | 159° | 18km/h | 20932m | 4.1m/s | 0°C | 0% | 50.4hPa | 2.6V | 18:12:15 | 01:31:01 | 00:00:00 | |
| OK1SLM-15 | 2026-09-04 00:08:49 | 51.64606 | 15.32710 | 162° | 16km/h | 20927m | 5.2m/s | -52.0°C | 1.1% | 50.4hPa | 2.6V | 00:00:00 | 00:00:00 | 00:00:00 | |
| DM0DOS-11 | 2026-09-04 00:08:48 | 51.64616 | 15.32697 | 127° | 16km/h | 20907m | 5.5m/s | -52.1°C | 3.7% | 50.6hPa | 2.6V | 08:30:00 | 01:30:56 | 00:00:00 | |
| BIOWL1-15 | 2026-09-04 00:08:41 | 51.64633 | 15.32671 | 149° | 24km/h | 20882m | 5.7m/s | 0°C | 0% | 50.8hPa | 2.6V | 18:12:15 | 01:30:51 | 00:00:00 | |
| DM0DOS-11 | 2026-09-04 00:08:40 | 51.64660 | 15.32645 | 116° | 13km/h | 20849m | 5.4m/s | -52°C | 3.7% | 51hPa | 2.6V | 08:30:00 | 01:30:44 | 00:00:00 | |
| BIOWL1-15 | 2026-09-04 00:08:30 | 51.64668 | 15.32624 | 135° | 13km/h | 20830m | 5.5m/s | 0°C | 0% | 0hPa | 2.6V | 18:12:15 | 01:30:40 | 00:00:00 | |
| DM0DOS-11 | 2026-09-04 00:08:28 | 51.64684 | 15.32610 | 144° | 22km/h | 20806m | 5m/s | -52.2°C | 3.8% | 51.4hPa | 2.6V | 08:30:00 | 01:30:35 | 00:00:00 | |
| BIOWL1-15 | 2026-09-04 00:08:21 | 51.64710 | 15.32571 | 127° | 24km/h | 20775m | 3.8m/s | 0°C | 0% | 0hPa | 2.6V | 18:12:15 | 01:30:29 | 00:00:00 | |
| PG1ADW-2 | 2026-09-04 00:08:20 | 51.64706 | 15.32578 | 129° | 22km/h | 20780m | 5.6m/s | -52.0°C | 3.7% | 51.5hPa | 2.6V | 00:00:00 | 00:00:00 | 00:00:00 | |
| SP6BVK | 2026-09-04 00:08:19 | 51.64706 | 15.32578 | 130° | 26km/h | 20780m | 5.6m/s | -52.0°C | 1.0% | 51.5hPa | 2.6V | 00:00:00 | 00:00:00 | 00:00:00 | |
| DM0DOS-11 | 2026-09-04 00:08:18 | 51.64722 | 15.32548 | 142° | 18km/h | 20756m | 5.1m/s | -51.9°C | 3.7% | 51.7hPa | 2.6V | 08:30:00 | 01:30:25 | 00:00:00 | |
| KRY50SP-1 | 2026-09-04 00:08:15 | 51.64719 | 15.32552 | 140° | 16km/h | 20761m | 4.4m/s | -51.9°C | 1.0% | 51.7hPa | 2.6V | 00:00:00 | 00:00:00 | 00:00:00 | |
| DO3MHA-11 | 2026-09-04 00:08:13 | 51.64732 | 15.32537 | 146° | 24km/h | 20746m | 4.6m/s | -51.9°C | 3.7% | 51.8hPa | 2.6V | 00:00:00 | 01:30:23 | 00:00:00 | |
| NBG1-10 | 2026-09-04 00:08:12 | 51.64737 | 15.32531 | 150° | 27km/h | 20741m | 4.1m/s | -52.0°C | 3.7% | 51.8hPa | 2.7V | 00:00:00 | 01:30:22 | 00:00:00 | |
| DB0NH | 2026-09-04 00:08:11 | 51.64743 | 15.32526 | 154° | 24km/h | 20736m | 5.4m/s | -52.1°C | 3.8% | 51.9hPa | 2.7V | 00:00:00 | 01:30:21 | 00:00:00 | |
| DF7PN | 2026-09-04 00:08:10 | 51.64748 | 15.32522 | 155° | 22km/h | 20731m | 4.9m/s | -52.1°C | -1.0% | -1.0hPa | 2.7V | 00:00:00 | 00:00:00 | 00:00:00 | |
| DM0DOS-11 | 2026-09-04 00:08:09 | 51.64771 | 15.32496 | 131° | 22km/h | 20706m | 4.1m/s | -52°C | 3.7% | 52.1hPa | 2.7V | 08:30:00 | 01:30:15 | 00:00:00 | |
| BIOWL1-15 | 2026-09-04 00:08:09 | 51.64758 | 15.32514 | 148° | 22km/h | 20721m | 5.3m/s | 0°C | 0% | 0hPa | 2.6V | 18:12:15 | 01:30:18 | 00:00:00 | |
| BIOWL9-15 | 2026-09-04 00:08:08 | 51.64763 | 15.32509 | 139° | 22km/h | 20715m | 5.2m/s | -52.1°C | 1.1% | 52.1hPa | 2.7V | 00:00:00 | 00:00:00 | 00:00:00 | |
| OK1SLM-15 | 2026-09-04 00:08:07 | 51.64762 | 15.32509 | 141° | 22km/h | 20716m | 5.2m/s | -52.1°C | 1.1% | 52.1hPa | 2.7V | 00:00:00 | 00:00:00 | 00:00:00 | |
| SONDE2-11 | 2026-09-04 00:08:05 | 51.64771 | 15.32496 | 131° | 20km/h | 20706m | 4.1m/s | -52.1°C | 1.0% | 52.2hPa | 2.7V | 00:00:00 | 00:00:00 | 00:00:00 | |
| KRY50SP-1 | 2026-09-04 00:08:04 | 51.64771 | 15.32496 | 133° | 22km/h | 20706m | 4.1m/s | -52.1°C | 1.0% | 52.2hPa | 2.7V | 00:00:00 | 00:00:00 | 00:00:00 | |
| DO3MHA-11 | 2026-09-04 00:08:03 | 51.64778 | 15.32484 | 137° | 26km/h | 20696m | 4.6m/s | -52.0°C | 3.7% | 52.2hPa | 2.7V | 00:00:00 | 01:30:13 | 00:00:00 | |
| OE5DXL-15 | 2026-09-04 00:08:01 | 51.64786 | 15.32473 | 144° | 27km/h | 20686m | 5.6m/s | 0°C | 0% | 0hPa | 2.7V | 00:00:00 | 01:30:11 | 00:00:00 | |
| 13BRC | 2026-09-04 00:08:00 | 51.64792 | 15.32467 | 147° | 29km/h | 20681m | 4.9m/s | -52.1°C | 1.0% | 52.4hPa | 2.7V | 00:00:00 | 00:00:00 | 00:00:00 | |
| DM0DOS-11 | 2026-09-04 00:07:59 | 51.64824 | 15.32437 | 144° | 26km/h | 20658m | 4.6m/s | -52.3°C | 3.7% | 52.5hPa | 2.7V | 08:30:00 | 01:30:05 | 00:00:00 | |
| SONCRA | 2026-09-04 00:07:52 | 51.64842 | 15.32405 | 126° | 27km/h | 20638m | 5.0m/s | -52.3°C | 1.1% | 52.7hPa | 2.6V | 00:00:00 | 00:00:00 | 00:00:00 | |
| EDDB2-12 | 2026-09-04 00:07:51 | 51.64842 | 15.32405 | 126° | 27km/h | 20638m | 5.0m/s | -52.3°C | 1.1% | 52.7hPa | 2.6V | 00:00:00 | 00:00:00 | 00:00:00 | |
| DM0DOS-11 | 2026-09-04 00:07:49 | 51.64870 | 15.32355 | 138° | 29km/h | 20609m | 4m/s | -52.4°C | 3.8% | 52.9hPa | 2.6V | 08:30:00 | 01:29:55 | 00:00:00 | |
| DB6KT-10 | 2026-09-04 00:07:47 | 51.64855 | 15.32380 | 134° | 27km/h | 20623m | 5.5m/s | 0°C | 0% | 0hPa | 2.7V | 00:00:00 | 00:00:00 | 00:00:00 | |
| OK1SLM-15 | 2026-09-04 00:07:44 | 51.64870 | 15.32355 | 140° | 29km/h | 20609m | 4.0m/s | -52.4°C | 1.1% | 52.9hPa | 2.7V | 00:00:00 | 00:00:00 | 00:00:00 | |
| DO3MHA-11 | 2026-09-04 00:07:43 | 51.64881 | 15.32342 | 148° | 27km/h | 20599m | 5.4m/s | -52.4°C | 3.8% | 53.0hPa | 2.7V | 00:00:00 | 01:29:53 | 08:30:00 | |
| KRY50SP-1 | 2026-09-04 00:07:42 | 51.64881 | 15.32342 | 149° | 26km/h | 20599m | 5.4m/s | -52.4°C | 1.1% | 53.0hPa | 2.6V | 00:00:00 | 00:00:00 | 00:00:00 | |
| DB0NH | 2026-09-04 00:07:41 | 51.64892 | 15.32331 | 148° | 27km/h | 20589m | 5.2m/s | -52.5°C | 3.8% | 53.1hPa | 2.6V | 00:00:00 | 01:29:51 | 00:00:00 | |
| PG1ADW-2 | 2026-09-04 00:07:40 | 51.64898 | 15.32324 | 143° | 27km/h | 20583m | 5.6m/s | -52.5°C | 3.8% | 53.1hPa | 2.6V | 00:00:00 | 00:00:00 | 00:00:00 | |
| DM0DOS-11 | 2026-09-04 00:07:38 | 51.64924 | 15.32283 | 123° | 26km/h | 20559m | 4.5m/s | -52.5°C | 3.8% | 53.4hPa | 2.6V | 08:30:00 | 01:29:45 | 00:00:00 | |
| BIOWL9-15 | 2026-09-04 00:07:37 | 51.64924 | 15.32283 | 123° | 26km/h | 20559m | 4.5m/s | -52.6°C | 1.1% | 53.4hPa | 2.6V | 00:00:00 | 00:00:00 | 00:00:00 | |
| SONDE2-11 | 2026-09-04 00:07:34 | 51.64931 | 15.32263 | 115° | 29km/h | 20549m | 4.8m/s | -52.5°C | 1.1% | 53.4hPa | 2.6V | 00:00:00 | 00:00:00 | 00:00:00 | |
| DO3MHA-11 | 2026-09-04 00:07:33 | 51.64931 | 15.32263 | 116° | 27km/h | 20549m | 4.8m/s | -52.5°C | 3.7% | 53.4hPa | 2.6V | 00:00:00 | 01:29:43 | 00:00:00 | |
| OE3JTB-15 | 2026-09-04 00:07:32 | 51.64934 | 15.32253 | 120° | 27km/h | 20544m | 3.5m/s | -52.5°C | 3.7% | 53.4hPa | 2.6V | 00:00:00 | 01:29:42 | 00:00:00 | |
| KRY50SP-1 | 2026-09-04 00:07:31 | 51.64934 | 15.32253 | 121° | 29km/h | 20544m | 3.5m/s | -52.5°C | 1.1% | 53.5hPa | 2.6V | 00:00:00 | 00:00:00 | 00:00:00 | |
| OE5DXL-15 | 2026-09-04 00:07:30 | 51.64942 | 15.32234 | 134° | 27km/h | 20535m | 5.3m/s | 0°C | 0% | 0hPa | 2.6V | 00:00:00 | 00:00:00 | 00:00:00 | |
| DM0DOS-11 | 2026-09-04 00:07:29 | 51.64967 | 15.32197 | 130° | 24km/h | 20510m | 4.5m/s | -52.8°C | 3.9% | 53.8hPa | 2.6V | 08:30:00 | 01:29:35 | 00:00:00 | |
| SP3WXH-11 | 2026-09-04 00:07:28 | 51.64953 | 15.32220 | 141° | 26km/h | 20524m | 5.5m/s | -52.6°C | 1.1% | 53.6hPa | 2.6V | 00:00:00 | 00:00:00 | 00:00:00 | |
| KRY50SP-1 | 2026-09-04 00:07:27 | 51.64958 | 15.32213 | 138° | 27km/h | 20519m | 4.7m/s | -52.7°C | 1.1% | 53.7hPa | 2.6V | 00:00:00 | 00:00:00 | 00:00:00 | |
| DB6KT-10 | 2026-09-04 00:07:25 | 51.64963 | 15.32205 | 134° | 27km/h | 20515m | 4.1m/s | 0°C | 0% | 0hPa | 2.6V | 00:00:00 | 00:00:00 | 00:00:00 | |
| DO3MHA-11 | 2026-09-04 00:07:23 | 51.64974 | 15.32183 | 127° | 24km/h | 20501m | 4.0m/s | -52.9°C | 3.9% | 53.8hPa | 2.6V | 00:00:00 | 01:29:33 | 00:00:00 | |
| SONCRA | 2026-09-04 00:07:21 | 51.64983 | 15.32157 | 114° | 26km/h | 20486m | 3.7m/s | -53.0°C | 1.1% | 54.0hPa | 2.6V | 00:00:00 | 00:00:00 | 00:00:00 | |
| DM0DOS-11 | 2026-09-04 00:07:20 | 51.64999 | 15.32116 | 131° | 24km/h | 20463m | 5.2m/s | -52.9°C | 3.9% | 54.1hPa | 2.6V | 08:30:00 | 01:29:25 | 00:00:00 | |
| PG1ADW-2 | 2026-09-04 00:07:20 | 51.64983 | 15.32156 | 115° | 27km/h | 20486m | 3.7m/s | -52.9°C | 3.9% | 54.0hPa | 2.6V | 00:00:00 | 01:29:30 | 00:00:00 | |
| KRY50SP-1 | 2026-09-04 00:07:16 | 51.64995 | 15.32123 | 132° | 22km/h | 20468m | 4.1m/s | -52.9°C | 1.1% | 54.1hPa | 2.6V | 00:00:00 | 00:00:00 | 00:00:00 | |
| DO3MHA-11 | 2026-09-04 00:07:13 | 51.65008 | 15.32100 | 128° | 27km/h | 20454m | 4.5m/s | -52.8°C | 3.9% | 54.2hPa | 2.6V | 00:00:00 | 01:29:23 | 00:00:00 | |
| DB0NH | 2026-09-04 00:07:11 | 51.65016 | 15.32082 | 125° | 27km/h | 20444m | 5.8m/s | -52.8°C | 3.9% | 54.3hPa | 2.7V | 00:00:00 | 01:29:21 | 00:00:00 | |
| SP3BTT-10 | 2026-09-04 00:07:10 | 51.65019 | 15.32073 | 123° | 31km/h | 20439m | 4.7m/s | -52.9°C | 3.9% | 54.3hPa | 2.7V | 00:00:00 | 00:00:00 | 00:00:00 | |
| DM0DOS-11 | 2026-09-04 00:07:09 | 51.65039 | 15.32027 | 133° | 27km/h | 20415m | 5.7m/s | -52.9°C | 3.9% | 54.5hPa | 2.7V | 08:30:00 | 01:29:15 | 00:00:00 | |
| S3001 | 2026-09-04 00:07:08 | 51.65030 | 15.32046 | 124° | 29km/h | 20424m | 4.4m/s | -52.9°C | 1.2% | 54.5hPa | 2.6V | 00:00:00 | 00:00:00 | 00:00:00 | |
| OK1SLM-15 | 2026-09-04 00:07:06 | 51.65030 | 15.32045 | 125° | 29km/h | 20424m | 4.4m/s | -52.9°C | 1.2% | 54.5hPa | 2.6V | 00:00:00 | 00:00:00 | 00:00:00 | |
| DB6KT-10 | 2026-09-04 00:07:04 | 51.65039 | 15.32027 | 134° | 27km/h | 20415m | 5.7m/s | 0°C | 0% | 0hPa | 2.6V | 00:00:00 | 00:00:00 | 00:00:00 | |
| SONDE2-11 | 2026-09-04 00:07:03 | 51.65056 | 15.32006 | 143° | 29km/h | 20400m | 5.9m/s | -52.9°C | 1.1% | 54.7hPa | 2.6V | 00:00:00 | 00:00:00 | 00:00:00 | |
| EDDB2-11 | 2026-09-04 00:07:01 | 51.65062 | 15.31999 | 144° | 29km/h | 20395m | 4.7m/s | -52.9°C | 1.1% | 54.8hPa | 2.6V | 00:00:00 | 00:00:00 | 00:00:00 | |
| PG1ADW-2 | 2026-09-04 00:07:00 | 51.65068 | 15.31992 | 146° | 27km/h | 20391m | 4.5m/s | -52.9°C | 3.8% | 54.7hPa | 2.6V | 00:00:00 | 00:00:00 | 00:00:00 | |
| AM1SDL-15 | 2026-09-04 00:06:59 | 51.65073 | 15.31986 | 147° | 27km/h | 20385m | 5.4m/s | -52.9°C | 3.9% | 54.8hPa | 2.6V | 00:00:00 | 01:29:09 | 00:00:00 | |
| DM0DOS-11 | 2026-09-04 00:06:58 | 51.65096 | 15.31950 | 125° | 31km/h | 20362m | 4.6m/s | -52.9°C | 3.8% | 55hPa | 2.6V | 08:30:00 | 01:29:04 | 00:00:00 | |
| SP3WXH-11 | 2026-09-04 00:06:57 | 51.65083 | 15.31975 | 137° | 22km/h | 20377m | 3.7m/s | -52.9°C | 1.1% | 54.9hPa | 2.6V | 00:00:00 | 00:00:00 | 00:00:00 | |
| SONCRA | 2026-09-04 00:06:50 | 51.65120 | 15.31900 | 129° | 33km/h | 20338m | 5.3m/s | -53.0°C | 1.1% | 55.2hPa | 2.6V | 00:00:00 | 00:00:00 | 00:00:00 | |
| EDDB2-12 | 2026-09-04 00:06:49 | 51.65120 | 15.31900 | 129° | 33km/h | 20338m | 5.3m/s | -53.0°C | 1.1% | 55.2hPa | 2.6V | 00:00:00 | 00:00:00 | 00:00:00 | |
| KRY50SP-1 | 2026-09-04 00:06:48 | 51.65125 | 15.31889 | 131° | 35km/h | 20334m | 4.4m/s | -53.0°C | 1.1% | 55.3hPa | 2.6V | 00:00:00 | 00:00:00 | 00:00:00 | |
| OK1SLM-15 | 2026-09-04 00:06:46 | 51.65141 | 15.31862 | 135° | 26km/h | 20319m | 3.9m/s | -53.1°C | 1.1% | 55.4hPa | 2.6V | 00:00:00 | 00:00:00 | 00:00:00 | |
| KRY50SP-1 | 2026-09-04 00:06:43 | 51.65149 | 15.31847 | 126° | 26km/h | 20309m | 5.2m/s | -53.1°C | 1.1% | 55.5hPa | 2.6V | 00:00:00 | 00:00:00 | 00:00:00 | |
| DO3MHA-11 | 2026-09-04 00:06:42 | 51.65153 | 15.31838 | 124° | 26km/h | 20304m | 4.4m/s | -53.1°C | 3.7% | 55.4hPa | 2.6V | 00:00:00 | 01:28:52 | 00:00:00 | |
| BIOWL1-15 | 2026-09-04 00:06:24 | 51.65221 | 15.31670 | 121° | 38km/h | 20220m | 3.7m/s | -54.6°C | 0.8% | 56.2hPa | 2.6V | 18:12:15 | 01:28:34 | 00:00:00 | |
| BIOWL1-15 | 2026-09-04 00:06:13 | 51.65289 | 15.31473 | 109° | 29km/h | 20144m | 5.5m/s | -54.5°C | 0.8% | 56.9hPa | 2.7V | 18:12:15 | 01:28:17 | 00:00:00 | |
| BIOWL1-15 | 2026-09-04 00:05:59 | 51.65315 | 15.31384 | 127° | 29km/h | 20107m | 5.1m/s | -54.5°C | 0.7% | 57.3hPa | 2.6V | 18:12:15 | 01:28:09 | 00:00:00 | |
| BIOWL1-15 | 2026-09-04 00:05:48 | 51.65348 | 15.31274 | 109° | 27km/h | 20055m | 3.2m/s | -55.1°C | 0.8% | 57.7hPa | 2.6V | 18:12:15 | 01:27:58 | 00:00:00 | |
| SONCRA | 2026-09-04 00:05:48 | 51.65351 | 15.31264 | 113° | 24km/h | 20051m | 4.9m/s | -55.1°C | 1.3% | 57.7hPa | 2.6V | 00:00:00 | 00:00:00 | 00:00:00 | |
| OE5MMP-10 | 2026-09-04 00:05:47 | 51.65351 | 15.31264 | 114° | 24km/h | 20051m | 4.9m/s | -55.1°C | 4.2% | 57.7hPa | 2.6V | 00:00:00 | 01:27:57 | 00:00:00 | |
| KRY50SP-1 | 2026-09-04 00:05:45 | 51.65355 | 15.31248 | 115° | 20km/h | 20042m | 3.3m/s | -55.2°C | 1.2% | 57.8hPa | 2.6V | 00:00:00 | 00:00:00 | 00:00:00 | |
| DO3MHA-11 | 2026-09-04 00:05:42 | 51.65361 | 15.31223 | 110° | 27km/h | 20029m | 4.4m/s | -55.4°C | 4.5% | 57.9hPa | 2.6V | 00:00:00 | 01:27:52 | 00:00:00 | |
| DB0NH | 2026-09-04 00:05:40 | 51.65366 | 15.31203 | 115° | 29km/h | 20019m | 5.1m/s | -55.4°C | 4.5% | 58.0hPa | 2.7V | 00:00:00 | 01:27:50 | 00:00:00 | |
| DL1JEZ-13 | 2026-09-04 00:05:39 | 51.65366 | 15.31203 | 116° | 26km/h | 20019m | 5.1m/s | -55.5°C | 1.4% | 58.0hPa | 2.7V | 00:00:00 | 00:00:00 | 00:00:00 | |
| DM0DOS-11 | 2026-09-04 00:05:38 | 51.65379 | 15.31147 | 107° | 29km/h | 19995m | 5.4m/s | -55.7°C | 4.5% | 58.2hPa | 2.7V | 08:30:00 | 01:27:45 | 00:00:00 | |
| BIOWL1-15 | 2026-09-04 00:05:37 | 51.65374 | 15.31171 | 107° | 31km/h | 20005m | 5.1m/s | -55.6°C | 0.9% | 58.2hPa | 2.6V | 18:12:15 | 01:27:47 | 00:00:00 | |
| OE5MMP-10 | 2026-09-04 00:05:37 | 51.65374 | 15.31171 | 108° | 27km/h | 20005m | 5.0m/s | -55.5°C | 4.4% | 58.1hPa | 2.6V | 00:00:00 | 01:27:47 | 00:00:00 | |
| SP6BVK | 2026-09-04 00:05:35 | 51.65376 | 15.31159 | 107° | 31km/h | 20000m | 4.5m/s | -55.6°C | 1.3% | 58.2hPa | 2.6V | 00:00:00 | 00:00:00 | 00:00:00 | |
| S3001 | 2026-09-04 00:05:34 | 51.65381 | 15.31136 | 109° | 26km/h | 19990m | 4.5m/s | -55.8°C | 1.3% | 58.3hPa | 2.6V | 00:00:00 | 00:00:00 | 00:00:00 | |
| BIOWL9-15 | 2026-09-04 00:05:33 | 51.65385 | 15.31116 | 105° | 26km/h | 19981m | 4.7m/s | -55.9°C | 1.4% | 58.4hPa | 2.6V | 00:00:00 | 00:00:00 | 00:00:00 | |
| DB0UT-7 | 2026-09-04 00:05:32 | 51.65385 | 15.31116 | 106° | 26km/h | 19982m | 4.7m/s | -55.8°C | 4.6% | 58.3hPa | 2.6V | 00:00:00 | 00:00:00 | 00:00:00 | |
| DAC517 | 2026-09-04 00:05:31 | 51.65385 | 15.31116 | 106° | 27km/h | 19982m | 4.7m/s | -55.9°C | 1.4% | 58.4hPa | 2.6V | 00:00:00 | 00:00:00 | 00:00:00 | |
| SONDE2-11 | 2026-09-04 00:05:30 | 51.65390 | 15.31080 | 106° | 33km/h | 19969m | 3.8m/s | -55.8°C | 1.3% | 58.5hPa | 2.6V | 00:00:00 | 00:00:00 | 00:00:00 | |
| NBG1-10 | 2026-09-04 00:05:29 | 51.65390 | 15.31080 | 107° | 29km/h | 19969m | 3.8m/s | -55.8°C | 4.6% | 58.4hPa | 2.6V | 00:00:00 | 01:27:39 | 00:00:00 | |
| EDDB2-11 | 2026-09-04 00:05:28 | 51.65401 | 15.31030 | 103° | 33km/h | 19950m | 5.3m/s | -55.7°C | 1.3% | 58.6hPa | 2.6V | 00:00:00 | 00:00:00 | 00:00:00 | |
| DM0DOS-11 | 2026-09-04 00:05:28 | 51.65401 | 15.31030 | 103° | 33km/h | 19950m | 5.3m/s | -55.7°C | 4.5% | 58.6hPa | 2.6V | 08:30:00 | 01:27:35 | 00:00:00 | |
| BIOWL1-15 | 2026-09-04 00:05:26 | 51.65399 | 15.31043 | 109° | 31km/h | 19955m | 4m/s | -55.7°C | 1% | 58.6hPa | 2.6V | 18:12:15 | 01:27:36 | 00:00:00 | |
| OE3JTB-15 | 2026-09-04 00:05:21 | 51.65402 | 15.30981 | 82° | 22km/h | 19931m | 5.0m/s | -55.5°C | 4.6% | 58.8hPa | 2.6V | 00:00:00 | 00:00:00 | 00:00:00 | |
| PG1ADW-2 | 2026-09-04 00:05:20 | 51.65400 | 15.30973 | 77° | 22km/h | 19927m | 3.4m/s | 0°C | 0% | 0hPa | 2.7V | 00:00:00 | 00:00:00 | 00:00:00 | |
| OE5MMP-10 | 2026-09-04 00:05:19 | 51.65399 | 15.30966 | 75° | 20km/h | 19922m | 5.0m/s | -55.4°C | 4.6% | 58.8hPa | 2.7V | 00:00:00 | 01:27:29 | 00:00:00 | |
| DM0DOS-11 | 2026-09-04 00:05:18 | 51.65402 | 15.30942 | 139° | 18km/h | 19903m | 4.7m/s | -55.3°C | 4.5% | 59.1hPa | 2.6V | 08:30:00 | 01:27:25 | 00:00:00 | |
| KRY50SP-1 | 2026-09-04 00:05:17 | 51.65398 | 15.30959 | 84° | 16km/h | 19917m | 4.7m/s | -55.4°C | 1.4% | 58.9hPa | 2.6V | 00:00:00 | 00:00:00 | 00:00:00 | |
| BIOWL1-15 | 2026-09-04 00:05:15 | 51.65402 | 15.30942 | 140° | 18km/h | 19903m | 4.7m/s | -55.3°C | 1% | 59.1hPa | 2.6V | 18:12:15 | 01:27:25 | 00:00:00 | |
| BIOWL1-15 | 2026-09-04 00:05:09 | 51.65416 | 15.30849 | 59° | 11km/h | 19858m | 4.6m/s | -54.9°C | 0.9% | 59.5hPa | 2.6V | 18:12:15 | 01:27:15 | 00:00:00 | |
| SP3BTT-10 | 2026-09-04 00:05:09 | 51.65423 | 15.30884 | 87° | 33km/h | 19876m | 3.9m/s | -55.0°C | 4.4% | 59.3hPa | 2.6V | 00:00:00 | 00:00:00 | 00:00:00 | |
| DM0DOS-11 | 2026-09-04 00:05:08 | 51.65416 | 15.30849 | 59° | 11km/h | 19858m | 4.6m/s | -54.9°C | 4.4% | 59.5hPa | 2.6V | 08:30:00 | 01:27:15 | 00:00:00 | |
| DO3MHA-11 | 2026-09-04 00:05:08 | 51.65422 | 15.30871 | 77° | 20km/h | 19872m | 5.4m/s | -54.9°C | 4.4% | 59.3hPa | 2.7V | 00:00:00 | 01:27:18 | 00:00:00 | |
| OK1SLM-15 | 2026-09-04 00:05:07 | 51.65422 | 15.30871 | 78° | 31km/h | 19872m | 5.4m/s | -55.0°C | 1.3% | 59.3hPa | 2.7V | 00:00:00 | 00:00:00 | 00:00:00 | |
| KRY50SP-1 | 2026-09-04 00:05:05 | 51.65417 | 15.30853 | 57° | 16km/h | 19863m | 4.1m/s | -54.9°C | 1.3% | 59.5hPa | 2.7V | 00:00:00 | 00:00:00 | 00:00:00 | |
| S3001 | 2026-09-04 00:05:03 | 51.65416 | 15.30843 | 137° | 9km/h | 19847m | 5.7m/s | -54.8°C | 1.3% | 59.6hPa | 2.7V | 00:00:00 | 00:00:00 | 00:00:00 | |
| BIOWL9-15 | 2026-09-04 00:05:02 | 51.65424 | 15.30834 | 140° | 24km/h | 19836m | 5.7m/s | -54.7°C | 1.3% | 59.7hPa | 2.7V | 00:00:00 | 00:00:00 | 00:00:00 | |
| SONDE2-11 | 2026-09-04 00:04:58 | 51.65438 | 15.30806 | 123° | 33km/h | 19817m | 6.5m/s | -54.5°C | 1.3% | 59.9hPa | 2.7V | 00:00:00 | 00:00:00 | 00:00:00 | |
| EDDB2-11 | 2026-09-04 00:04:57 | 51.65442 | 15.30795 | 123° | 33km/h | 19811m | 6.3m/s | -54.5°C | 1.3% | 60.0hPa | 2.7V | 00:00:00 | 00:00:00 | 00:00:00 | |
| BIOWL1-15 | 2026-09-04 00:04:55 | 51.65495 | 15.30670 | 108° | 20km/h | 19719m | 5.6m/s | -54°C | 0.7% | 60.8hPa | 2.7V | 18:12:15 | 01:26:50 | 00:00:00 | |
| DM0DOS-11 | 2026-09-04 00:04:53 | 51.65476 | 15.30711 | 134° | 35km/h | 19746m | 5m/s | -53.9°C | 4.1% | 60.5hPa | 2.6V | 08:30:00 | 01:26:55 | 00:00:00 | |
| EDDB2-12 | 2026-09-04 00:04:45 | 51.65476 | 15.30711 | 134° | 33km/h | 19747m | 5.0m/s | -53.9°C | 1.2% | 60.5hPa | 2.6V | 00:00:00 | 00:00:00 | 00:00:00 | |
| KRY50SP-1 | 2026-09-04 00:04:44 | 51.65476 | 15.30711 | 135° | 35km/h | 19747m | 5.0m/s | -53.9°C | 1.2% | 60.5hPa | 2.6V | 00:00:00 | 00:00:00 | 00:00:00 | |
| DM0DOS-11 | 2026-09-04 00:04:43 | 51.65512 | 15.30629 | 156° | 24km/h | 19685m | 4m/s | -54.5°C | 4.1% | 61.1hPa | 2.6V | 08:30:00 | 01:26:44 | 00:00:00 | |
| BIOWL1-15 | 2026-09-04 00:04:37 | 51.65512 | 15.30629 | 157° | 24km/h | 19685m | 4m/s | -54.5°C | 0.7% | 61.2hPa | 2.6V | 18:12:15 | 01:26:44 | 00:00:00 | |
| SP6BVK | 2026-09-04 00:04:34 | 51.65512 | 15.30629 | 158° | 24km/h | 19685m | 4.0m/s | -54.5°C | 1.2% | 61.2hPa | 2.7V | 00:00:00 | 00:00:00 | 00:00:00 | |
| S3001 | 2026-09-04 00:04:33 | 51.65526 | 15.30619 | 153° | 33km/h | 19675m | 6.1m/s | -54.5°C | 1.2% | 61.2hPa | 2.7V | 00:00:00 | 00:00:00 | 00:00:00 | |
| 13BRC | 2026-09-04 00:04:31 | 51.65534 | 15.30612 | 151° | 37km/h | 19669m | 5.0m/s | -54.5°C | 1.2% | 61.3hPa | 2.7V | 00:00:00 | 00:00:00 | 00:00:00 | |
| DM0DOS-11 | 2026-09-04 00:04:29 | 51.65577 | 15.30555 | 127° | 38km/h | 19638m | 4.4m/s | -54.6°C | 4.2% | 61.6hPa | 2.7V | 08:30:00 | 01:26:35 | 00:00:00 | |
| BIOWL1-15 | 2026-09-04 00:04:26 | 51.65593 | 15.30523 | 137° | 31km/h | 19623m | 4.5m/s | -54.7°C | 0.8% | 61.8hPa | 2.6V | 18:12:15 | 01:26:32 | 00:00:00 | |
| DL1JEZ-13 | 2026-09-04 00:04:24 | 51.65582 | 15.30543 | 130° | 37km/h | 19634m | 4.7m/s | -54.6°C | 0% | 61.6hPa | 2.7V | 00:00:00 | 00:00:00 | 00:00:00 | |
| SP3WXH-11 | 2026-09-04 00:04:23 | 51.65593 | 15.30523 | 137° | 29km/h | 19624m | 4.5m/s | -54.7°C | 1.3% | 61.8hPa | 2.7V | 00:00:00 | 00:00:00 | 00:00:00 | |
| KRY50SP-1 | 2026-09-04 00:04:21 | 51.65593 | 15.30523 | 138° | 31km/h | 19624m | 4.5m/s | -54.7°C | 1.3% | 61.7hPa | 2.7V | 00:00:00 | 00:00:00 | 00:00:00 | |
| OE3JTB-15 | 2026-09-04 00:04:20 | 51.65605 | 15.30506 | 140° | 35km/h | 19615m | 5.3m/s | -54.7°C | 4.2% | 61.8hPa | 2.7V | 00:00:00 | 01:26:30 | 00:00:00 | |
| OE5MMP-10 | 2026-09-04 00:04:19 | 51.65612 | 15.30497 | 140° | 40km/h | 19610m | 5.3m/s | 0°C | 0% | 0hPa | 2.7V | 00:00:00 | 01:26:29 | 00:00:00 | |
| PG1ADW-2 | 2026-09-04 00:04:18 | 51.65619 | 15.30487 | 141° | 37km/h | 19605m | 4.7m/s | 0°C | 0% | 0hPa | 2.7V | 00:00:00 | 00:00:00 | 00:00:00 | |
| DM0DOS-11 | 2026-09-04 00:04:17 | 51.65644 | 15.30457 | 143° | 40km/h | 19590m | 4.6m/s | -55°C | 4.3% | 62.1hPa | 2.7V | 08:30:00 | 01:26:25 | 00:00:00 | |
| BIOWL1-15 | 2026-09-04 00:04:13 | 51.65659 | 15.30436 | 135° | 40km/h | 19582m | 5.3m/s | -54.9°C | 0.8% | 62.2hPa | 2.6V | 18:12:15 | 01:26:23 | 00:00:00 | |
| DM0DOS-11 | 2026-09-04 00:04:11 | 51.65702 | 15.30351 | 138° | 29km/h | 19541m | 5.2m/s | -54.9°C | 4.2% | 62.6hPa | 2.6V | 08:30:00 | 01:26:15 | 00:00:00 | |
| BIOWL1-15 | 2026-09-04 00:04:02 | 51.65717 | 15.30327 | 126° | 26km/h | 19526m | 5m/s | -55°C | 0.8% | 62.7hPa | 2.6V | 18:12:15 | 01:26:12 | 00:00:00 | |
| S3001 | 2026-09-04 00:04:01 | 51.65721 | 15.30317 | 117° | 27km/h | 19522m | 4.4m/s | -55.1°C | 1.3% | 62.7hPa | 2.7V | 00:00:00 | 00:00:00 | 00:00:00 | |
| BIOWL9-15 | 2026-09-04 00:03:59 | 51.65731 | 15.30280 | 109° | 37km/h | 19507m | 4.3m/s | -55.3°C | 1.3% | 62.9hPa | 2.7V | 00:00:00 | 00:00:00 | 00:00:00 | |
| SONDE2-11 | 2026-09-04 00:03:57 | 51.65737 | 15.30253 | 112° | 31km/h | 19497m | 5.2m/s | -55.4°C | 1.3% | 63.0hPa | 2.7V | 00:00:00 | 00:00:00 | 00:00:00 | |
| EDDB2-11 | 2026-09-04 00:03:56 | 51.65743 | 15.30231 | 122° | 27km/h | 19487m | 5.0m/s | -55.6°C | 1.3% | 63.1hPa | 2.7V | 00:00:00 | 00:00:00 | 00:00:00 | |
| BIOWL1-15 | 2026-09-04 00:03:52 | 51.65769 | 15.30072 | 96° | 20km/h | 19405m | 3.9m/s | -55.3°C | 0.8% | 63.9hPa | 2.7V | 18:12:15 | 01:25:47 | 00:00:00 | |
| OE3JTB-15 | 2026-09-04 00:03:51 | 51.65756 | 15.30202 | 123° | 20km/h | 19473m | 4.5m/s | -55.5°C | 4.4% | 63.2hPa | 2.6V | 00:00:00 | 00:00:00 | 00:00:00 | |
| 13BRC | 2026-09-04 00:03:50 | 51.65759 | 15.30193 | 115° | 24km/h | 19468m | 5.9m/s | -55.6°C | 1.3% | 63.3hPa | 2.6V | 00:00:00 | 00:00:00 | 00:00:00 | |
| DO3MHA-11 | 2026-09-04 00:03:48 | 51.65761 | 15.30174 | 93° | 24km/h | 19458m | 4.0m/s | -55.5°C | 4.4% | 63.3hPa | 2.6V | 00:00:00 | 01:25:58 | 00:00:00 | |
| DAC517 | 2026-09-04 00:03:47 | 51.65761 | 15.30174 | 93° | 24km/h | 19458m | 4.1m/s | -55.5°C | 1.3% | 63.4hPa | 2.6V | 00:00:00 | 00:00:00 | 00:00:00 | |
| NBG1-10 | 2026-09-04 00:03:46 | 51.65762 | 15.30153 | 97° | 37km/h | 19448m | 5.1m/s | -55.5°C | 4.4% | 63.4hPa | 2.6V | 00:00:00 | 01:25:56 | 00:00:00 | |
| SONCRA | 2026-09-04 00:03:44 | 51.65766 | 15.30120 | 103° | 24km/h | 19434m | 6.0m/s | -55.5°C | 1.3% | 63.6hPa | 2.6V | 00:00:00 | 00:00:00 | 00:00:00 | |
| EDDB2-12 | 2026-09-04 00:03:43 | 51.65766 | 15.30120 | 103° | 24km/h | 19434m | 6.0m/s | -55.5°C | 1.3% | 63.6hPa | 2.6V | 00:00:00 | 00:00:00 | 00:00:00 | |
| DM0DOS-11 | 2026-09-04 00:03:42 | 51.65768 | 15.30089 | 94° | 20km/h | 19414m | 5.2m/s | -55.3°C | 4.3% | 63.8hPa | 2.6V | 08:30:00 | 01:25:49 | 00:00:00 | |
| BIOWL1-15 | 2026-09-04 00:03:40 | 51.65769 | 15.30052 | 83° | 15km/h | 19390m | 4.4m/s | -55.2°C | 0.7% | 64hPa | 2.6V | 18:12:15 | 01:25:44 | 00:00:00 | |
| DL1JEZ-13 | 2026-09-04 00:03:40 | 51.65768 | 15.30097 | 91° | 18km/h | 19419m | 4.8m/s | 0°C | 0% | 63.8hPa | 2.6V | 00:00:00 | 00:00:00 | 00:00:00 | |
| DO3MHA-11 | 2026-09-04 00:03:39 | 51.65769 | 15.30081 | 96° | 18km/h | 19409m | 4.5m/s | -55.3°C | 4.3% | 63.8hPa | 2.6V | 00:00:00 | 01:25:48 | 00:00:00 | |
| KRY50SP-1 | 2026-09-04 00:03:36 | 51.65769 | 15.30072 | 97° | 20km/h | 19405m | 3.9m/s | -55.3°C | 1.3% | 63.9hPa | 2.6V | 00:00:00 | 00:00:00 | 00:00:00 | |
| DM0DOS-11 | 2026-09-04 00:03:35 | 51.65767 | 15.30008 | 78° | 16km/h | 19360m | 4.7m/s | -55.2°C | 4.3% | 64.3hPa | 2.6V | 08:30:00 | 01:25:38 | 00:00:00 | |
| BIOWL1-15 | 2026-09-04 00:03:30 | 51.65767 | 15.30015 | 77° | 18km/h | 19365m | 5.2m/s | -55.1°C | 0.8% | 64.3hPa | 2.6V | 18:12:15 | 01:25:39 | 00:00:00 | |
| BIOWL9-15 | 2026-09-04 00:03:29 | 51.65767 | 15.30008 | 78° | 16km/h | 19360m | 4.7m/s | -55.2°C | 1.3% | 64.4hPa | 2.7V | 00:00:00 | 00:00:00 | 00:00:00 | |
| DAC517 | 2026-09-04 00:03:28 | 51.65767 | 15.30008 | 79° | 16km/h | 19360m | 4.7m/s | -55.2°C | 1.3% | 64.4hPa | 2.7V | 00:00:00 | 00:00:00 | 00:00:00 | |
| SONDE2-11 | 2026-09-04 00:03:26 | 51.65764 | 15.29987 | 74° | 16km/h | 19346m | 3.5m/s | -55.3°C | 1.3% | 64.5hPa | 2.7V | 00:00:00 | 00:00:00 | 00:00:00 | |
| EDDB2-11 | 2026-09-04 00:03:24 | 51.65763 | 15.29980 | 67° | 16km/h | 19341m | 5.6m/s | -55.3°C | 1.3% | 64.5hPa | 2.7V | 00:00:00 | 00:00:00 | 00:00:00 | |
| DM0DOS-11 | 2026-09-04 00:03:23 | 51.65750 | 15.29930 | 77° | 15km/h | 19303m | 5.6m/s | -55.5°C | 4.4% | 64.9hPa | 2.7V | 08:30:00 | 01:25:26 | 00:00:00 | |
| BIOWL1-15 | 2026-09-04 00:03:19 | 51.65750 | 15.29930 | 78° | 15km/h | 19303m | 5.6m/s | -55.5°C | 0.8% | 64.9hPa | 2.7V | 18:12:15 | 01:25:26 | 00:00:00 | |
| DL1JEZ-13 | 2026-09-04 00:03:18 | 51.65752 | 15.29941 | 70° | 15km/h | 19312m | 5.3m/s | 0°C | 0% | 0hPa | 2.6V | 00:00:00 | 00:00:00 | 00:00:00 | |
| OK1SLM-15 | 2026-09-04 00:03:15 | 51.65749 | 15.29924 | 81° | 15km/h | 19298m | 4.6m/s | -55.5°C | 1.3% | 65.0hPa | 2.6V | 00:00:00 | 00:00:00 | 00:00:00 | |
| KRY50SP-1 | 2026-09-04 00:03:14 | 51.65749 | 15.29924 | 81° | 15km/h | 19298m | 4.6m/s | -55.5°C | 1.3% | 65.0hPa | 2.6V | 00:00:00 | 00:00:00 | 00:00:00 | |
| EDDB2-12 | 2026-09-04 00:03:12 | 51.65746 | 15.29907 | 61° | 13km/h | 19283m | 4.3m/s | -55.5°C | 1.3% | 65.1hPa | 2.6V | 00:00:00 | 00:00:00 | 00:00:00 | |
| DM0DOS-11 | 2026-09-04 00:03:11 | 51.65737 | 15.29856 | 104° | 16km/h | 19246m | 4m/s | -55.2°C | 4.4% | 65.5hPa | 2.6V | 08:30:00 | 01:25:14 | 00:00:00 | |
| BIOWL1-15 | 2026-09-04 00:03:09 | 51.65736 | 15.29863 | 91° | 16km/h | 19251m | 5.6m/s | -55.3°C | 0.9% | 65.5hPa | 2.7V | 18:12:15 | 01:25:15 | 00:00:00 | |
| 13BRC | 2026-09-04 00:03:09 | 51.65741 | 15.29890 | 70° | 18km/h | 19270m | 4.2m/s | -55.4°C | 1.3% | 65.3hPa | 2.6V | 00:00:00 | 00:00:00 | 00:00:00 | |
| OK1SLM-15 | 2026-09-04 00:03:08 | 51.65741 | 15.29890 | 70° | 18km/h | 19270m | 4.2m/s | -55.4°C | 1.3% | 65.3hPa | 2.6V | 00:00:00 | 00:00:00 | 00:00:00 | |
| BIOWL1-15 | 2026-09-04 00:02:58 | 51.65745 | 15.29792 | 100° | 15km/h | 19184m | 4.3m/s | -54.7°C | 0.7% | 66.2hPa | 2.6V | 18:12:15 | 01:25:01 | 00:00:00 | |
| DM0DOS-11 | 2026-09-04 00:02:54 | 51.65745 | 15.29798 | 98° | 15km/h | 19188m | 5.1m/s | -54.7°C | 4.2% | 66.1hPa | 2.6V | 08:30:00 | 01:25:02 | 00:00:00 | |
| DM0DOS-11 | 2026-09-04 00:02:47 | 51.65753 | 15.29739 | 79° | 13km/h | 19141m | 4.4m/s | -54.6°C | 4.2% | 66.6hPa | 2.6V | 08:30:00 | 01:24:52 | 00:00:00 | |
| BIOWL1-15 | 2026-09-04 00:02:46 | 51.65750 | 15.29764 | 111° | 16km/h | 19160m | 5m/s | -54.7°C | 0.7% | 66.4hPa | 2.6V | 18:12:15 | 01:24:56 | 00:00:00 | |
| BIOWL1-15 | 2026-09-04 00:02:38 | 51.65756 | 15.29706 | 121° | 16km/h | 19112m | 3.9m/s | -54.5°C | 0.8% | 66.9hPa | 2.6V | 18:12:15 | 01:24:46 | 00:00:00 | |
| DM0DOS-11 | 2026-09-04 00:02:37 | 51.65772 | 15.29672 | 129° | 18km/h | 19088m | 5m/s | -54.4°C | 4.2% | 67.1hPa | 2.6V | 08:30:00 | 01:24:41 | 00:00:00 | |
| SONCRA | 2026-09-04 00:02:31 | 51.65831 | 15.29577 | 153° | 20km/h | 18989m | 5.7m/s | -54.0°C | 1.2% | 68.2hPa | 2.6V | 00:00:00 | 00:00:00 | 00:00:00 | |
| KRY50SP-1 | 2026-09-04 00:02:29 | 51.65830 | 15.29577 | 154° | 22km/h | 18989m | 5.7m/s | -54.0°C | 1.2% | 68.2hPa | 2.6V | 00:00:00 | 00:00:00 | 00:00:00 | |
| OK1SLM-15 | 2026-09-04 00:02:28 | 51.65836 | 15.29573 | 152° | 22km/h | 18984m | 4.6m/s | -54.0°C | 1.2% | 68.2hPa | 2.6V | 00:00:00 | 00:00:00 | 00:00:00 | |
| 13BRC | 2026-09-04 00:02:27 | 51.65845 | 15.29566 | 163° | 20km/h | 18975m | 5.8m/s | -54.0°C | 1.2% | 68.4hPa | 2.6V | 00:00:00 | 00:00:00 | 00:00:00 | |
| DM0DOS-11 | 2026-09-04 00:02:26 | 51.65796 | 15.29615 | 127° | 18km/h | 19041m | 4.5m/s | -54.2°C | 4.1% | 67.7hPa | 2.6V | 08:30:00 | 01:24:31 | 00:00:00 | |
| BIOWL1-15 | 2026-09-04 00:02:26 | 51.65808 | 15.29599 | 148° | 11km/h | 19018m | 5.2m/s | -54°C | 0.6% | 67.9hPa | 2.6V | 18:12:15 | 01:24:26 | 00:00:00 | |
| OK1SLM-15 | 2026-09-04 00:02:23 | 51.65859 | 15.29561 | 165° | 16km/h | 18961m | 5.6m/s | -54.2°C | 1.2% | 68.5hPa | 2.6V | 00:00:00 | 00:00:00 | 00:00:00 | |
| BIOWL1-15 | 2026-09-04 00:02:17 | 51.65813 | 15.29592 | 144° | 16km/h | 19009m | 3.9m/s | -54°C | 0.6% | 68hPa | 2.6V | 18:12:15 | 01:24:24 | 00:00:00 | |
| KRY50SP-1 | 2026-09-04 00:02:16 | 51.65877 | 15.29552 | 183° | 15km/h | 18934m | 5.0m/s | -54.2°C | 1.2% | 68.8hPa | 2.6V | 00:00:00 | 00:00:00 | 00:00:00 | |
| S3001 | 2026-09-04 00:02:15 | 51.65887 | 15.29550 | 168° | 24km/h | 18923m | 5.2m/s | -54.2°C | 1.2% | 68.9hPa | 2.6V | 00:00:00 | 00:00:00 | 00:00:00 | |
| DM0DOS-11 | 2026-09-04 00:02:14 | 51.65826 | 15.29581 | 154° | 20km/h | 18994m | 4.4m/s | -54°C | 4.1% | 68.2hPa | 2.6V | 08:30:00 | 01:24:21 | 00:00:00 | |
| BIOWL9-15 | 2026-09-04 00:02:13 | 51.65893 | 15.29548 | 165° | 27km/h | 18918m | 3.7m/s | -54.2°C | 1.2% | 69.0hPa | 2.6V | 00:00:00 | 00:00:00 | 00:00:00 | |
| OE3JTB-15 | 2026-09-04 00:02:12 | 51.65893 | 15.29548 | 166° | 26km/h | 18918m | 3.7m/s | -54.1°C | 4.1% | 68.9hPa | 2.6V | 00:00:00 | 00:00:00 | 00:00:00 | |
| KRY50SP-1 | 2026-09-04 00:02:10 | 51.65906 | 15.29543 | 170° | 26km/h | 18909m | 4.8m/s | -54.1°C | 1.2% | 69.1hPa | 2.6V | 00:00:00 | 00:00:00 | 00:00:00 | |
| OK1SLM-15 | 2026-09-04 00:02:09 | 51.65912 | 15.29540 | 166° | 24km/h | 18904m | 4.3m/s | -54.1°C | 1.2% | 69.1hPa | 2.6V | 00:00:00 | 00:00:00 | 00:00:00 | |
| OE5MMP-10 | 2026-09-04 00:02:08 | 51.65918 | 15.29538 | 158° | 35km/h | 18899m | 5.4m/s | 0°C | 0% | 0hPa | 2.6V | 00:00:00 | 01:24:01 | 00:00:00 | |
| DM0DOS-11 | 2026-09-04 00:02:07 | 51.65871 | 15.29552 | 165° | 9km/h | 18943m | 5.4m/s | -54.3°C | 4.2% | 68.7hPa | 2.6V | 08:30:00 | 01:24:10 | 00:00:00 | |
| BIOWL1-15 | 2026-09-04 00:02:05 | 51.65863 | 15.29559 | 155° | 15km/h | 18956m | 4.8m/s | -54.3°C | 0.7% | 68.5hPa | 2.6V | 18:12:15 | 01:24:13 | 00:00:00 | |
| SP6BVK | 2026-09-04 00:02:04 | 51.65926 | 15.29529 | 138° | 18km/h | 18888m | 4.5m/s | -54.1°C | 1.2% | 69.3hPa | 2.6V | 00:00:00 | 00:00:00 | 00:00:00 | |
| KRY50SP-1 | 2026-09-04 00:02:03 | 51.65929 | 15.29525 | 136° | 16km/h | 18884m | 4.0m/s | -54.1°C | 1.2% | 69.3hPa | 2.6V | 00:00:00 | 00:00:00 | 00:00:00 | |
| SP3WXH-11 | 2026-09-04 00:02:01 | 51.65932 | 15.29521 | 141° | 15km/h | 18879m | 5.6m/s | -54.0°C | 1.2% | 69.3hPa | 2.6V | 00:00:00 | 00:00:00 | 00:00:00 | |
| OK1SLM-15 | 2026-09-04 00:02:00 | 51.65932 | 15.29521 | 142° | 15km/h | 18879m | 5.6m/s | -54.0°C | 1.2% | 69.4hPa | 2.6V | 00:00:00 | 00:00:00 | 00:00:00 | |
| DO3MHA-11 | 2026-09-04 00:01:59 | 51.65935 | 15.29517 | 153° | 26km/h | 18874m | 4.3m/s | -54.0°C | 4.1% | 69.4hPa | 2.6V | 00:00:00 | 01:23:56 | 00:00:00 | |
| 13BRC | 2026-09-04 00:01:58 | 51.65935 | 15.29517 | 153° | 16km/h | 18874m | 4.3m/s | -54.0°C | 1.2% | 69.4hPa | 2.6V | 00:00:00 | 00:00:00 | 00:00:00 | |
| DAC517 | 2026-09-04 00:01:57 | 51.65939 | 15.29514 | 155° | 18km/h | 18870m | 4.0m/s | -54.0°C | 1.2% | 69.5hPa | 2.6V | 00:00:00 | 00:00:00 | 00:00:00 | |
| DM0DOS-11 | 2026-09-04 00:01:55 | 51.65929 | 15.29525 | 134° | 16km/h | 18884m | 4m/s | -54.1°C | 4.1% | 69.3hPa | 2.6V | 08:30:00 | 01:23:58 | 00:00:00 | |
| BIOWL1-15 | 2026-09-04 00:01:54 | 51.65922 | 15.29534 | 146° | 18km/h | 18893m | 5.7m/s | -54.1°C | 0.7% | 69.2hPa | 2.6V | 18:12:15 | 01:24:00 | 00:00:00 | |
| DB0UT-7 | 2026-09-04 00:01:53 | 51.65962 | 15.29491 | 146° | 31km/h | 18850m | 5.7m/s | 0°C | 0% | 0hPa | 2.7V | 00:00:00 | 01:23:51 | 00:00:00 | |
| SONCRA | 2026-09-04 00:01:51 | 51.65974 | 15.29477 | 144° | 29km/h | 18840m | 4.5m/s | -53.9°C | 1.2% | 69.8hPa | 2.7V | 00:00:00 | 00:00:00 | 00:00:00 | |
| EDDB2-12 | 2026-09-04 00:01:49 | 51.65981 | 15.29470 | 142° | 29km/h | 18835m | 5.8m/s | -53.8°C | 1.2% | 69.8hPa | 2.7V | 00:00:00 | 00:00:00 | 00:00:00 | |
| AM1SDL-15 | 2026-09-04 00:01:48 | 51.65987 | 15.29462 | 143° | 27km/h | 18829m | 4.8m/s | -53.8°C | 4.0% | 69.9hPa | 2.7V | 00:00:00 | 01:23:47 | 00:00:00 | |
| KRY50SP-1 | 2026-09-04 00:01:46 | 51.65986 | 15.29462 | 143° | 29km/h | 18829m | 4.8m/s | -53.8°C | 1.2% | 69.9hPa | 2.7V | 00:00:00 | 00:00:00 | 00:00:00 | |
| DO3MHA-11 | 2026-09-04 00:01:45 | 51.65992 | 15.29455 | 143° | 27km/h | 18824m | 5.1m/s | -53.8°C | 4.0% | 69.9hPa | 2.7V | 00:00:00 | 01:23:46 | 08:30:00 | |
| DM0DOS-11 | 2026-09-04 00:01:43 | 51.65981 | 15.29470 | 142° | 31km/h | 18834m | 5.8m/s | -53.8°C | 4% | 69.8hPa | 2.6V | 08:30:00 | 01:23:48 | 00:00:00 | |
| BIOWL1-15 | 2026-09-04 00:01:43 | 51.65956 | 15.29498 | 146° | 31km/h | 18855m | 4.6m/s | -53.9°C | 0.6% | 69.6hPa | 2.6V | 18:12:15 | 01:23:52 | 00:00:00 | |
| KRY50SP-1 | 2026-09-04 00:01:39 | 51.66010 | 15.29430 | 136° | 24km/h | 18805m | 4.6m/s | -53.9°C | 1.2% | 70.2hPa | 2.7V | 00:00:00 | 00:00:00 | 00:00:00 | |
| DL1XH-west | 2026-09-04 00:01:37 | 51.65992 | 15.29455 | 142° | 27km/h | 18824m | 5.2m/s | -53.9°C | 0.6% | 70hPa | 2.7V | 18:12:15 | 01:23:46 | 00:00:00 | |
| SP6BVK | 2026-09-04 00:01:36 | 51.66023 | 15.29408 | 135° | 29km/h | 18791m | 3.8m/s | -53.8°C | 1.2% | 70.3hPa | 2.6V | 00:00:00 | 00:00:00 | 00:00:00 | |
| BIOWL1-15 | 2026-09-04 00:01:34 | 51.66010 | 15.29430 | 135° | 24km/h | 18805m | 4.6m/s | -53.9°C | 0.6% | 70.2hPa | 2.6V | 18:12:15 | 01:23:42 | 00:00:00 | |
| KRY50SP-1 | 2026-09-04 00:01:32 | 51.66035 | 15.29389 | 135° | 37km/h | 18781m | 4.5m/s | -53.7°C | 1.2% | 70.4hPa | 2.7V | 00:00:00 | 00:00:00 | 00:00:00 | |
| DL1XH1-15 | 2026-09-04 00:01:31 | 51.66048 | 15.29368 | 137° | 37km/h | 18772m | 5.5m/s | 0°C | 0% | 0hPa | 2.7V | 00:00:00 | 01:23:35 | 00:00:00 | |
| 13BRC | 2026-09-04 00:01:30 | 51.66042 | 15.29378 | 137° | 38km/h | 18777m | 3.9m/s | -53.7°C | 1.2% | 70.5hPa | 2.7V | 00:00:00 | 00:00:00 | 00:00:00 | |
| BIOWL9-15 | 2026-09-04 00:01:29 | 51.66055 | 15.29358 | 141° | 33km/h | 18767m | 4.3m/s | -53.6°C | 1.2% | 70.6hPa | 2.7V | 00:00:00 | 00:00:00 | 00:00:00 | |
| DAC517 | 2026-09-04 00:01:28 | 51.66055 | 15.29358 | 142° | 35km/h | 18767m | 4.3m/s | -53.6°C | 1.2% | 70.6hPa | 2.7V | 00:00:00 | 00:00:00 | 00:00:00 | |
| SONDE2-11 | 2026-09-04 00:01:25 | 51.66075 | 15.29334 | 140° | 31km/h | 18754m | 4.5m/s | -53.6°C | 1.2% | 70.7hPa | 2.7V | 00:00:00 | 00:00:00 | 00:00:00 | |
| DL1XH-west | 2026-09-04 00:01:24 | 51.66055 | 15.29358 | 141° | 35km/h | 18767m | 4.3m/s | -53.6°C | 0.6% | 70.6hPa | 2.7V | 18:12:15 | 01:23:34 | 00:00:00 | |
| KRY50SP-1 | 2026-09-04 00:01:23 | 51.66075 | 15.29334 | 141° | 31km/h | 18755m | 4.5m/s | -53.6°C | 1.2% | 70.7hPa | 2.6V | 00:00:00 | 00:00:00 | 00:00:00 | |
| EDDB2-11 | 2026-09-04 00:01:22 | 51.66086 | 15.29317 | 128° | 27km/h | 18746m | 4.4m/s | -53.5°C | 1.2% | 70.8hPa | 2.6V | 00:00:00 | 00:00:00 | 00:00:00 | |
| DM0DOS-11 | 2026-09-04 00:01:21 | 51.66090 | 15.29308 | 124° | 26km/h | 18741m | 4.4m/s | -53.5°C | 3.9% | 70.9hPa | 2.6V | 08:30:00 | 01:23:28 | 00:00:00 | |
| BIOWL1-15 | 2026-09-04 00:01:21 | 51.66081 | 15.29326 | 135° | 31km/h | 18750m | 4.1m/s | -53.5°C | 0.6% | 70.8hPa | 2.7V | 18:12:15 | 01:23:30 | 00:00:00 | |
| SP3WXH-11 | 2026-09-04 00:01:20 | 51.66098 | 15.29292 | 130° | 26km/h | 18733m | 4.2m/s | -53.6°C | 1.2% | 71.0hPa | 2.6V | 00:00:00 | 00:00:00 | 00:00:00 | |
| KRY50SP-1 | 2026-09-04 00:01:19 | 51.66097 | 15.29292 | 131° | 26km/h | 18733m | 4.2m/s | -53.6°C | 1.2% | 71.0hPa | 2.6V | 00:00:00 | 00:00:00 | 00:00:00 | |
| AM1SDL-15 | 2026-09-04 00:01:16 | 51.66114 | 15.29264 | 135° | 33km/h | 18721m | 4.4m/s | -53.7°C | 4.0% | 71.1hPa | 2.6V | 00:00:00 | 01:23:23 | 00:00:00 | |
| DL1XH-west | 2026-09-04 00:01:13 | 51.66114 | 15.29264 | 135° | 35km/h | 18721m | 4.4m/s | -53.7°C | 0.6% | 71.1hPa | 2.6V | 18:12:15 | 01:23:23 | 00:00:00 | |
| BIOWL1-15 | 2026-09-04 00:01:13 | 51.66127 | 15.29244 | 142° | 37km/h | 18712m | 3.8m/s | -53.8°C | 0.6% | 71.2hPa | 2.6V | 18:12:15 | 01:23:21 | 00:00:00 | |
| DB0NH | 2026-09-04 00:01:13 | 51.66127 | 15.29244 | 143° | 35km/h | 18712m | 3.7m/s | -53.7°C | 4.0% | 71.2hPa | 2.6V | 00:00:00 | 01:23:21 | 00:00:00 | |
| DL1JEZ-13 | 2026-09-04 00:01:12 | 51.66135 | 15.29236 | 148° | 37km/h | 18707m | 5.2m/s | 0°C | 0% | 0hPa | 2.6V | 00:00:00 | 00:00:00 | 00:00:00 | |
| SONCRA | 2026-09-04 00:01:11 | 51.66151 | 15.29221 | 151° | 35km/h | 18698m | 3.6m/s | -53.8°C | 1.2% | 71.4hPa | 2.6V | 00:00:00 | 00:00:00 | 00:00:00 | |
| DM0DOS-11 | 2026-09-04 00:01:10 | 51.66151 | 15.29221 | 151° | 37km/h | 18698m | 3.6m/s | -53.8°C | 4% | 71.4hPa | 2.6V | 08:30:00 | 01:23:18 | 00:00:00 | |
| SP3BTT-10 | 2026-09-04 00:01:10 | 51.66158 | 15.29214 | 149° | 37km/h | 18694m | 4.9m/s | -53.8°C | 4.0% | 71.3hPa | 2.6V | 00:00:00 | 00:00:00 | 00:00:00 | |
| DO3MHA-11 | 2026-09-04 00:01:09 | 51.66166 | 15.29206 | 145° | 29km/h | 18690m | 4.1m/s | -53.9°C | 4.0% | 71.4hPa | 2.6V | 00:00:00 | 01:23:16 | 00:00:00 | |
| 13BRC | 2026-09-04 00:01:07 | 51.66166 | 15.29206 | 146° | 35km/h | 18690m | 4.1m/s | -53.9°C | 1.2% | 71.5hPa | 2.7V | 00:00:00 | 00:00:00 | 00:00:00 | |
| DM0DOS-11 | 2026-09-04 00:01:04 | 51.66211 | 15.29146 | 129° | 33km/h | 18655m | 3.4m/s | -53.9°C | 4.1% | 71.8hPa | 2.7V | 08:30:00 | 01:23:08 | 00:00:00 | |
| DL1XH-west | 2026-09-04 00:01:03 | 51.66195 | 15.29173 | 142° | 26km/h | 18668m | 4.3m/s | -53.9°C | 0.7% | 71.7hPa | 2.6V | 18:12:15 | 01:23:11 | 00:00:00 | |
| BIOWL1-15 | 2026-09-04 00:01:01 | 51.66230 | 15.29108 | 125° | 27km/h | 18638m | 4.2m/s | -53.8°C | 0.6% | 72hPa | 2.7V | 18:12:15 | 01:23:04 | 00:00:00 | |
| OK1SLM-15 | 2026-09-04 00:00:59 | 51.66210 | 15.29146 | 130° | 33km/h | 18656m | 3.4m/s | -53.9°C | 1.2% | 71.8hPa | 2.7V | 00:00:00 | 00:00:00 | 00:00:00 | |
| DO3MHA-11 | 2026-09-04 00:00:58 | 51.66221 | 15.29127 | 131° | 29km/h | 18646m | 4.8m/s | -53.8°C | 4.0% | 71.9hPa | 2.7V | 00:00:00 | 01:23:06 | 00:00:00 | |
| S3001 | 2026-09-04 00:00:55 | 51.66230 | 15.29108 | 125° | 27km/h | 18638m | 4.2m/s | -53.8°C | 1.2% | 72.0hPa | 2.7V | 00:00:00 | 00:00:00 | 00:00:00 | |
| BIOWL9-15 | 2026-09-04 00:00:53 | 51.66234 | 15.29099 | 118° | 27km/h | 18633m | 5.3m/s | -53.9°C | 1.2% | 72.1hPa | 2.7V | 00:00:00 | 00:00:00 | 00:00:00 | |
| DM0DOS-11 | 2026-09-04 00:00:52 | 51.66248 | 15.29043 | 117° | 33km/h | 18609m | 3.9m/s | -54.1°C | 4.1% | 72.3hPa | 2.7V | 08:30:00 | 01:22:58 | 00:00:00 | |
| DL1XH1-15 | 2026-09-04 00:00:51 | 51.66256 | 15.29018 | 119° | 38km/h | 18600m | 4.3m/s | 0°C | 0% | 0hPa | 2.6V | 00:00:00 | 01:22:56 | 00:00:00 | |
| DL1XH-west | 2026-09-04 00:00:51 | 51.66239 | 15.29077 | 108° | 29km/h | 18624m | 4.7m/s | -54°C | 0.7% | 72.2hPa | 2.6V | 18:12:15 | 01:23:01 | 00:00:00 | |
| SONDE2-11 | 2026-09-04 00:00:50 | 51.66241 | 15.29066 | 109° | 27km/h | 18618m | 5.5m/s | -54.1°C | 1.2% | 72.2hPa | 2.6V | 00:00:00 | 00:00:00 | 00:00:00 | |
| EDDB2-11 | 2026-09-04 00:00:49 | 51.66247 | 15.29043 | 117° | 31km/h | 18610m | 3.9m/s | -54.1°C | 1.2% | 72.3hPa | 2.6V | 00:00:00 | 00:00:00 | 00:00:00 | |
| DO3MHA-11 | 2026-09-04 00:00:47 | 51.66256 | 15.29018 | 120° | 40km/h | 18600m | 4.3m/s | -54.0°C | 4.1% | 72.4hPa | 2.6V | 00:00:00 | 01:22:56 | 00:00:00 | |
| SP3WXH-11 | 2026-09-04 00:00:46 | 51.66261 | 15.29005 | 123° | 40km/h | 18595m | 4.3m/s | -54.0°C | 1.2% | 72.5hPa | 2.6V | 00:00:00 | 00:00:00 | 00:00:00 | |
| BIOWL1-15 | 2026-09-04 00:00:45 | 51.66261 | 15.29005 | 124° | 40km/h | 18595m | 4.3m/s | -54°C | 0.6% | 72.5hPa | 2.6V | 18:12:15 | 01:22:55 | 00:00:00 | |
| DL1XH-west | 2026-09-04 00:00:41 | 51.66290 | 15.28932 | 113° | 42km/h | 18572m | 3.5m/s | -53.9°C | 0.6% | 72.8hPa | 2.6V | 18:12:15 | 01:22:50 | 00:00:00 | |
| KRY50SP-1 | 2026-09-04 00:00:40 | 51.66290 | 15.28932 | 114° | 42km/h | 18572m | 3.5m/s | -53.9°C | 1.2% | 72.8hPa | 2.6V | 00:00:00 | 00:00:00 | 00:00:00 | |
| DL1XH1-15 | 2026-09-04 00:00:38 | 51.66302 | 15.28873 | 103° | 38km/h | 18554m | 5.5m/s | 0°C | 0% | 0hPa | 2.6V | 00:00:00 | 01:22:46 | 00:00:00 | |
| DO3MHA-11 | 2026-09-04 00:00:38 | 51.66302 | 15.28873 | 104° | 35km/h | 18554m | 5.4m/s | -53.9°C | 4.0% | 72.9hPa | 2.6V | 00:00:00 | 01:22:46 | 00:00:00 | |
| KRY50SP-1 | 2026-09-04 00:00:36 | 51.66307 | 15.28842 | 103° | 38km/h | 18546m | 3.1m/s | -53.9°C | 1.2% | 73.1hPa | 2.7V | 00:00:00 | 00:00:00 | 00:00:00 | |
| BIOWL1-15 | 2026-09-04 00:00:34 | 51.66337 | 15.28716 | 105° | 33km/h | 18503m | 3.9m/s | -54.1°C | 0.6% | 73.6hPa | 2.7V | 18:12:15 | 01:22:34 | 00:00:00 | |
| DL1JEZ-13 | 2026-09-04 00:00:34 | 51.66324 | 15.28767 | 116° | 35km/h | 18520m | 3.5m/s | 0°C | 0% | 0hPa | 2.6V | 00:00:00 | 00:00:00 | 00:00:00 | |
| DL1XH1-15 | 2026-09-04 00:00:32 | 51.66331 | 15.28741 | 115° | 33km/h | 18511m | 4.8m/s | 0°C | 0% | 0hPa | 2.6V | 00:00:00 | 01:22:36 | 00:00:00 | |
| SP6BVK | 2026-09-04 00:00:31 | 51.66328 | 15.28754 | 116° | 35km/h | 18516m | 4.1m/s | -54.0°C | 1.2% | 73.4hPa | 2.6V | 00:00:00 | 00:00:00 | 00:00:00 | |
| DL1XH-west | 2026-09-04 00:00:29 | 51.66320 | 15.28779 | 115° | 33km/h | 18523m | 4.3m/s | -53.9°C | 0.7% | 73.3hPa | 2.6V | 18:12:15 | 01:22:39 | 00:00:00 | |
| 13BRC | 2026-09-04 00:00:27 | 51.66334 | 15.28729 | 113° | 33km/h | 18507m | 3.7m/s | -54.1°C | 1.2% | 73.5hPa | 2.6V | 00:00:00 | 00:00:00 | 00:00:00 | |
| KRY50SP-1 | 2026-09-04 00:00:26 | 51.66339 | 15.28703 | 101° | 37km/h | 18498m | 5.6m/s | -54.1°C | 1.2% | 73.6hPa | 2.6V | 00:00:00 | 00:00:00 | 00:00:00 | |
| BIOWL1-15 | 2026-09-04 00:00:25 | 51.66339 | 15.28703 | 100° | 37km/h | 18498m | 5.6m/s | -54.1°C | 0.6% | 73.6hPa | 2.6V | 18:12:15 | 01:22:33 | 00:00:00 | |
| KRY50SP-1 | 2026-09-04 00:00:20 | 51.66349 | 15.28634 | 122° | 33km/h | 18476m | 4.0m/s | -54.1°C | 1.2% | 73.9hPa | 2.7V | 00:00:00 | 00:00:00 | 00:00:00 | |
| DL1XH1-15 | 2026-09-04 00:00:19 | 51.66372 | 15.28586 | 128° | 37km/h | 18457m | 5.6m/s | 0°C | 0% | 0hPa | 2.7V | 00:00:00 | 01:22:24 | 00:00:00 | |
| DL1XH-west | 2026-09-04 00:00:19 | 51.66345 | 15.28646 | 113° | 33km/h | 18480m | 3.8m/s | 0°C | 0% | 73.8hPa | 2.7V | 18:12:15 | 01:22:29 | 00:00:00 | |
| DO3MHA-11 | 2026-09-04 00:00:18 | 51.66360 | 15.28610 | 129° | 38km/h | 18466m | 4.7m/s | -54.1°C | 4.1% | 73.9hPa | 2.6V | 00:00:00 | 01:22:26 | 00:00:00 | |
| BIOWL1-15 | 2026-09-04 00:00:14 | 51.66382 | 15.28563 | 126° | 35km/h | 18448m | 3.4m/s | -54.1°C | 0.7% | 74.2hPa | 2.6V | 18:12:15 | 01:22:22 | 00:00:00 | |
| KRY50SP-1 | 2026-09-04 00:00:12 | 51.66377 | 15.28575 | 127° | 35km/h | 18452m | 4.5m/s | -54.1°C | 1.2% | 74.2hPa | 2.6V | 00:00:00 | 00:00:00 | 00:00:00 | |
| DB0NH | 2026-09-04 00:00:11 | 51.66388 | 15.28551 | 126° | 40km/h | 18445m | 3.8m/s | -54.0°C | 4.0% | 74.2hPa | 2.6V | 00:00:00 | 01:22:21 | 00:00:00 | |
| OK1SLM-15 | 2026-09-04 00:00:10 | 51.66393 | 15.28539 | 128° | 40km/h | 18440m | 5.0m/s | -54.1°C | 1.2% | 74.3hPa | 2.6V | 00:00:00 | 00:00:00 | 00:00:00 | |
| DL1XH-west | 2026-09-04 00:00:08 | 51.66407 | 15.28512 | 129° | 42km/h | 18431m | 4.2m/s | 0°C | 0% | 0hPa | 2.6V | 18:12:15 | 01:22:18 | 00:00:00 | |
| KRY50SP-1 | 2026-09-04 00:00:08 | 51.66413 | 15.28499 | 129° | 40km/h | 18426m | 5.6m/s | -54.1°C | 1.2% | 74.4hPa | 2.6V | 00:00:00 | 00:00:00 | 00:00:00 | |
| EDDB2-12 | 2026-09-04 00:00:06 | 51.66425 | 15.28476 | 126° | 37km/h | 18418m | 3.3m/s | -54.1°C | 1.3% | 74.6hPa | 2.6V | 00:00:00 | 00:00:00 | 00:00:00 | |
| 13BRC | 2026-09-04 00:00:04 | 51.66425 | 15.28475 | 128° | 37km/h | 18418m | 3.3m/s | -54.1°C | 1.3% | 74.6hPa | 2.6V | 00:00:00 | 00:00:00 | 00:00:00 | |
| AA1-15 | 2026-09-04 00:00:03 | 51.66443 | 15.28438 | 133° | 42km/h | 18405m | 3.7m/s | -54.2°C | 0.8% | 0hPa | 2.6V | 18:12:15 | 01:22:12 | 00:00:00 | |
| BIOWL1-15 | 2026-09-04 00:00:01 | 51.66451 | 15.28426 | 137° | 42km/h | 18401m | 4.2m/s | -54.2°C | 0.7% | 74.8hPa | 2.6V | 18:12:15 | 01:22:11 | 00:00:00 | |
| DM0DOS-11 | 2026-09-04 00:00:01 | 51.66491 | 15.28375 | 140° | 44km/h | 18380m | 4.6m/s | -54.2°C | 4.1% | 75hPa | 2.6V | 08:30:00 | 01:22:06 | 00:00:00 | |
| KRY50SP-1 | 2026-09-04 00:00:00 | 51.66451 | 15.28426 | 138° | 42km/h | 18402m | 4.2m/s | -54.2°C | 1.2% | 74.8hPa | 2.6V | 00:00:00 | 00:00:00 | 00:00:00 | |
| DAC517 | 2026-09-03 23:59:59 | 51.66458 | 15.28415 | 141° | 40km/h | 18397m | 4.9m/s | -54.2°C | 1.2% | 74.8hPa | 2.6V | 00:00:00 | 00:00:00 | 00:00:00 | |
| DL1XH-west | 2026-09-03 23:59:57 | 51.66483 | 15.28386 | 143° | 42km/h | 18385m | 4.9m/s | 0°C | 0% | 0hPa | 2.6V | 18:12:15 | 01:22:07 | 00:00:00 | |
| DO3MHA-11 | 2026-09-03 23:59:56 | 51.66491 | 15.28375 | 141° | 44km/h | 18380m | 4.5m/s | -54.2°C | 4.1% | 74.9hPa | 2.6V | 00:00:00 | 01:22:06 | 00:00:00 | |
| KRY50SP-1 | 2026-09-03 23:59:55 | 51.66491 | 15.28375 | 141° | 44km/h | 18380m | 4.6m/s | -54.2°C | 1.2% | 75.0hPa | 2.6V | 00:00:00 | 00:00:00 | 00:00:00 | |
| OE3JTB-15 | 2026-09-03 23:59:54 | 51.66508 | 15.28352 | 142° | 44km/h | 18372m | 5.0m/s | -54.2°C | 4.1% | 75.0hPa | 2.6V | 00:00:00 | 01:22:04 | 00:00:00 | |
| S3001 | 2026-09-03 23:59:53 | 51.66526 | 15.28330 | 141° | 42km/h | 18363m | 3.3m/s | -54.2°C | 1.2% | 75.2hPa | 2.6V | 00:00:00 | 00:00:00 | 00:00:00 | |
| DL1XH1-15 | 2026-09-03 23:59:52 | 51.66552 | 15.28295 | 139° | 46km/h | 18351m | 3.6m/s | 0°C | 0% | 0hPa | 2.6V | 00:00:00 | 01:21:59 | 00:00:00 | |
| DM0DOS-11 | 2026-09-03 23:59:51 | 51.66577 | 15.28261 | 138° | 40km/h | 18337m | 4m/s | -54°C | 4.1% | 75.5hPa | 2.7V | 08:30:00 | 01:21:56 | 00:00:00 | |
| BIOWL1-15 | 2026-09-03 23:59:51 | 51.66534 | 15.28319 | 141° | 44km/h | 18360m | 4.5m/s | -54.2°C | 0.6% | 75.2hPa | 2.7V | 18:12:15 | 01:22:01 | 00:00:00 | |
| KRY50SP-1 | 2026-09-03 23:59:50 | 51.66534 | 15.28319 | 142° | 44km/h | 18360m | 4.5m/s | -54.2°C | 1.2% | 75.2hPa | 2.6V | 00:00:00 | 00:00:00 | 00:00:00 | |
| SONDE2-11 | 2026-09-03 23:59:48 | 51.66561 | 15.28283 | 140° | 42km/h | 18347m | 5.0m/s | -54.1°C | 1.2% | 75.4hPa | 2.6V | 00:00:00 | 00:00:00 | 00:00:00 | |
| DL1XH-west | 2026-09-03 23:59:47 | 51.66569 | 15.28272 | 140° | 40km/h | 18342m | 4.9m/s | 0°C | 0% | 0hPa | 2.6V | 18:12:15 | 01:21:57 | 00:00:00 | |
| DO3MHA-11 | 2026-09-03 23:59:46 | 51.66577 | 15.28262 | 139° | 42km/h | 18337m | 3.9m/s | -54.0°C | 4.1% | 75.4hPa | 2.6V | 00:00:00 | 01:21:56 | 00:00:00 | |
| KRY50SP-1 | 2026-09-03 23:59:45 | 51.66577 | 15.28261 | 139° | 40km/h | 18337m | 4.0m/s | -54.1°C | 1.2% | 75.5hPa | 2.6V | 00:00:00 | 00:00:00 | 00:00:00 | |
| AA1-15 | 2026-09-03 23:59:44 | 51.66592 | 15.28238 | 133° | 42km/h | 18328m | 4.5m/s | -54°C | 0.7% | 0hPa | 2.6V | 18:12:15 | 01:21:54 | 00:00:00 | |
| SP3WXH-11 | 2026-09-03 23:59:43 | 51.66606 | 15.28212 | 130° | 40km/h | 18320m | 4.6m/s | -54.0°C | 1.2% | 75.7hPa | 2.6V | 00:00:00 | 00:00:00 | 00:00:00 | |
| DL1XH1-15 | 2026-09-03 23:59:42 | 51.66625 | 15.28175 | 127° | 40km/h | 18307m | 4m/s | 0°C | 0% | 0hPa | 2.6V | 00:00:00 | 01:21:49 | 00:00:00 | |
| DM0DOS-11 | 2026-09-03 23:59:41 | 51.66646 | 15.28133 | 131° | 47km/h | 18295m | 3.5m/s | -54.1°C | 4.1% | 76hPa | 2.7V | 08:30:00 | 01:21:46 | 00:00:00 | |
| BIOWL1-15 | 2026-09-03 23:59:40 | 51.66619 | 15.28188 | 130° | 38km/h | 18311m | 3.3m/s | -54°C | 0.7% | 75.8hPa | 2.7V | 18:12:15 | 01:21:50 | 00:00:00 | |
| DL1XH-west | 2026-09-03 23:59:36 | 51.66646 | 15.28133 | 131° | 47km/h | 18295m | 3.5m/s | 0°C | 0% | 0hPa | 2.7V | 18:12:15 | 01:21:46 | 00:00:00 | |
| SONCRA | 2026-09-03 23:59:35 | 51.66662 | 15.28106 | 138° | 44km/h | 18286m | 4.3m/s | -54.2°C | 1.2% | 76.1hPa | 2.6V | 00:00:00 | 00:00:00 | 00:00:00 | |
| KRY50SP-1 | 2026-09-03 23:59:34 | 51.66654 | 15.28119 | 136° | 46km/h | 18291m | 5.0m/s | -54.2°C | 1.2% | 76.0hPa | 2.6V | 00:00:00 | 00:00:00 | 00:00:00 | |
| AA1-15 | 2026-09-03 23:59:33 | 51.66671 | 15.28094 | 139° | 44km/h | 18282m | 4m/s | -54.2°C | 0.7% | 0hPa | 2.6V | 18:12:15 | 01:21:43 | 00:00:00 | |
| DM0DOS-11 | 2026-09-03 23:59:31 | 51.66717 | 15.28001 | 118° | 42km/h | 18251m | 5.1m/s | -54.2°C | 4.2% | 76.5hPa | 2.6V | 08:30:00 | 01:21:36 | 00:00:00 | |
| BIOWL1-15 | 2026-09-03 23:59:31 | 51.66701 | 15.28043 | 126° | 40km/h | 18265m | 4.9m/s | 0°C | 0% | 76.3hPa | 2.6V | 18:12:15 | 01:21:39 | 00:00:00 | |
| KRY50SP-1 | 2026-09-03 23:59:28 | 51.66701 | 15.28043 | 127° | 40km/h | 18265m | 4.9m/s | -54.2°C | 1.2% | 76.3hPa | 2.7V | 00:00:00 | 00:00:00 | 00:00:00 | |
| OE3JTB-15 | 2026-09-03 23:59:25 | 51.66722 | 15.27985 | 119° | 44km/h | 18247m | 3.9m/s | -54.2°C | 4.2% | 76.5hPa | 2.7V | 00:00:00 | 00:00:00 | 00:00:00 | |
| DB0NH | 2026-09-03 23:59:24 | 51.66727 | 15.27969 | 119° | 44km/h | 18243m | 3.7m/s | -54.2°C | 4.2% | 76.6hPa | 2.7V | 00:00:00 | 01:21:34 | 08:30:00 | |
| KRY50SP-1 | 2026-09-03 23:59:23 | 51.66727 | 15.27969 | 120° | 46km/h | 18243m | 3.8m/s | -54.3°C | 1.3% | 76.6hPa | 2.6V | 00:00:00 | 00:00:00 | 00:00:00 | |
| S3001 | 2026-09-03 23:59:22 | 51.66745 | 15.27920 | 120° | 47km/h | 18231m | 4.4m/s | -54.2°C | 1.2% | 76.7hPa | 2.6V | 00:00:00 | 00:00:00 | 00:00:00 | |
| DM0DOS-11 | 2026-09-03 23:59:21 | 51.66779 | 15.27840 | 126° | 40km/h | 18209m | 3.7m/s | -54.1°C | 4.2% | 77hPa | 2.6V | 08:30:00 | 01:21:26 | 00:00:00 | |
| BIOWL1-15 | 2026-09-03 23:59:19 | 51.66758 | 15.27885 | 124° | 49km/h | 18222m | 3.7m/s | 0°C | 0% | 76.8hPa | 2.7V | 18:12:15 | 01:21:29 | 00:00:00 | |
| DAC517 | 2026-09-03 23:59:19 | 51.66758 | 15.27885 | 125° | 49km/h | 18222m | 3.7m/s | -54.2°C | 1.3% | 76.8hPa | 2.6V | 00:00:00 | 00:00:00 | 00:00:00 | |
| AA1-15 | 2026-09-03 23:59:18 | 51.66765 | 15.27869 | 125° | 47km/h | 18218m | 4.8m/s | -54.1°C | 0.7% | 0hPa | 2.6V | 18:12:15 | 01:21:28 | 00:00:00 | |
| SONDE2-11 | 2026-09-03 23:59:17 | 51.66772 | 15.27854 | 126° | 44km/h | 18213m | 4.7m/s | -54.1°C | 1.3% | 76.9hPa | 2.6V | 00:00:00 | 00:00:00 | 00:00:00 | |
| EDDB2-11 | 2026-09-03 23:59:16 | 51.66785 | 15.27827 | 125° | 40km/h | 18204m | 4.7m/s | -54.0°C | 1.2% | 77.0hPa | 2.6V | 00:00:00 | 00:00:00 | 00:00:00 | |
| DO3MHA-11 | 2026-09-03 23:59:14 | 51.66790 | 15.27813 | 125° | 40km/h | 18200m | 4.5m/s | -53.9°C | 4.1% | 77.0hPa | 2.6V | 00:00:00 | 01:21:24 | 00:00:00 | |
| SP3WXH-11 | 2026-09-03 23:59:12 | 51.66806 | 15.27773 | 121° | 37km/h | 18187m | 4.4m/s | -53.9°C | 1.2% | 77.2hPa | 2.6V | 00:00:00 | 00:00:00 | 00:00:00 | |
| DM0DOS-11 | 2026-09-03 23:59:11 | 51.66831 | 15.27699 | 121° | 44km/h | 18165m | 5.2m/s | -53.8°C | 4.1% | 77.5hPa | 2.6V | 08:30:00 | 01:21:16 | 00:00:00 | |
| BIOWL1-15 | 2026-09-03 23:59:09 | 51.66816 | 15.27746 | 117° | 40km/h | 18178m | 5.2m/s | 0°C | 0% | 0hPa | 2.7V | 18:12:15 | 01:21:19 | 00:00:00 | |
| KRY50SP-1 | 2026-09-03 23:59:07 | 51.66821 | 15.27730 | 117° | 44km/h | 18174m | 4.0m/s | -53.8°C | 1.2% | 77.4hPa | 2.6V | 00:00:00 | 00:00:00 | 00:00:00 | |
| SONCRA | 2026-09-03 23:59:04 | 51.66850 | 15.27656 | 128° | 42km/h | 18151m | 5.2m/s | -53.7°C | 1.2% | 77.7hPa | 2.6V | 00:00:00 | 00:00:00 | 00:00:00 | |
| OK1SLM-15 | 2026-09-03 23:59:03 | 51.66843 | 15.27670 | 130° | 44km/h | 18156m | 4.2m/s | -53.7°C | 1.3% | 77.6hPa | 2.6V | 00:00:00 | 00:00:00 | 00:00:00 | |
| KRY50SP-1 | 2026-09-03 23:59:02 | 51.66850 | 15.27656 | 130° | 44km/h | 18152m | 5.2m/s | -53.7°C | 1.2% | 77.7hPa | 2.6V | 00:00:00 | 00:00:00 | 00:00:00 | |
| DM0DOS-11 | 2026-09-03 23:59:01 | 51.66896 | 15.27565 | 126° | 44km/h | 18120m | 4.2m/s | -53.8°C | 4% | 78.1hPa | 2.6V | 08:30:00 | 01:21:06 | 00:00:00 | |
| BIOWL1-15 | 2026-09-03 23:58:58 | 51.66883 | 15.27592 | 130° | 38km/h | 18129m | 3.6m/s | 0°C | 0% | 0hPa | 2.7V | 18:12:15 | 01:21:08 | 00:00:00 | |
| KRY50SP-1 | 2026-09-03 23:58:57 | 51.66883 | 15.27592 | 131° | 38km/h | 18129m | 3.6m/s | -53.7°C | 1.2% | 78.0hPa | 2.6V | 00:00:00 | 00:00:00 | 00:00:00 | |
| OE3JTB-15 | 2026-09-03 23:58:56 | 51.66896 | 15.27565 | 127° | 49km/h | 18120m | 4.2m/s | -53.7°C | 4.0% | 78.0hPa | 2.6V | 00:00:00 | 00:00:00 | 00:00:00 | |
| DO3MHA-11 | 2026-09-03 23:58:54 | 51.66909 | 15.27536 | 127° | 46km/h | 18112m | 4.8m/s | -53.8°C | 4.0% | 78.1hPa | 2.6V | 00:00:00 | 01:21:04 | 00:00:00 | |
| DM0DOS-11 | 2026-09-03 23:58:51 | 51.66967 | 15.27424 | 132° | 46km/h | 18075m | 4.2m/s | -54.2°C | 4.1% | 78.6hPa | 2.6V | 08:30:00 | 01:20:56 | 00:00:00 | |
| BIOWL1-15 | 2026-09-03 23:58:47 | 51.66967 | 15.27424 | 132° | 46km/h | 18075m | 4.3m/s | 0°C | 0% | 0hPa | 2.6V | 18:12:15 | 01:20:56 | 00:00:00 | |
| SONDE2-11 | 2026-09-03 23:58:46 | 51.66974 | 15.27410 | 131° | 47km/h | 18070m | 5.1m/s | -54.2°C | 1.3% | 78.7hPa | 2.6V | 00:00:00 | 00:00:00 | 00:00:00 | |
| AA1-15 | 2026-09-03 23:58:44 | 51.66983 | 15.27395 | 130° | 49km/h | 18066m | 3.9m/s | -54.3°C | 0.7% | 0hPa | 2.6V | 18:12:15 | 01:20:54 | 00:00:00 | |
| DO3MHA-11 | 2026-09-03 23:58:44 | 51.66982 | 15.27395 | 131° | 55km/h | 18066m | 3.9m/s | -54.2°C | 4.1% | 78.7hPa | 2.7V | 00:00:00 | 01:20:54 | 00:00:00 | |
| SP6BVK | 2026-09-03 23:58:43 | 51.66982 | 15.27394 | 131° | 49km/h | 18066m | 3.9m/s | -54.3°C | 1.3% | 78.8hPa | 2.7V | 00:00:00 | 00:00:00 | 00:00:00 | |
| DM0DOS-11 | 2026-09-03 23:58:41 | 51.67052 | 15.27261 | 133° | 57km/h | 18028m | 4.8m/s | -54.1°C | 4.1% | 79.2hPa | 2.7V | 08:30:00 | 01:20:46 | 00:00:00 | |
| BIOWL1-15 | 2026-09-03 23:58:36 | 51.67053 | 15.27261 | 134° | 57km/h | 18028m | 4.8m/s | 0°C | 0% | 0hPa | 2.7V | 18:12:15 | 01:20:46 | 00:00:00 | |
| DO3MHA-11 | 2026-09-03 23:58:34 | 51.67072 | 15.27228 | 133° | 57km/h | 18020m | 5.3m/s | -54.1°C | 4.1% | 79.3hPa | 2.6V | 00:00:00 | 01:20:44 | 08:30:00 | |
| AA1-15 | 2026-09-03 23:58:34 | 51.67072 | 15.27228 | 133° | 57km/h | 18019m | 5.3m/s | 0°C | 0% | 0hPa | 2.6V | 18:12:15 | 01:20:44 | 00:00:00 | |
| SONCRA | 2026-09-03 23:58:33 | 51.67091 | 15.27194 | 131° | 53km/h | 18010m | 4.4m/s | -54.2°C | 1.3% | 79.5hPa | 2.7V | 00:00:00 | 00:00:00 | 00:00:00 | |
| EDDB2-12 | 2026-09-03 23:58:32 | 51.67091 | 15.27194 | 131° | 53km/h | 18010m | 4.4m/s | -54.2°C | 1.3% | 79.5hPa | 2.7V | 00:00:00 | 00:00:00 | 00:00:00 | |
| DM0DOS-11 | 2026-09-03 23:58:31 | 51.67151 | 15.27070 | 125° | 60km/h | 17976m | 5.2m/s | -54.7°C | 4.2% | 79.8hPa | 2.7V | 08:30:00 | 01:20:35 | 00:00:00 | |
| BIOWL1-15 | 2026-09-03 23:58:26 | 51.67151 | 15.27070 | 125° | 60km/h | 17976m | 5.2m/s | 0°C | 0% | 0hPa | 2.7V | 18:12:15 | 01:20:35 | 00:00:00 | |
| DO3MHA-11 | 2026-09-03 23:58:24 | 51.67160 | 15.27050 | 126° | 57km/h | 17972m | 4.4m/s | -54.6°C | 4.2% | 79.9hPa | 2.6V | 00:00:00 | 01:20:34 | 00:00:00 | |
| KRY50SP-1 | 2026-09-03 23:58:23 | 51.67169 | 15.27030 | 127° | 60km/h | 17966m | 5.9m/s | -54.6°C | 1.3% | 80.0hPa | 2.6V | 00:00:00 | 00:00:00 | 00:00:00 | |
| SP6BVK | 2026-09-03 23:58:22 | 51.67169 | 15.27030 | 127° | 60km/h | 17966m | 5.9m/s | -54.6°C | 1.3% | 80.0hPa | 2.6V | 00:00:00 | 00:00:00 | 00:00:00 | |
| DM0DOS-11 | 2026-09-03 23:58:20 | 51.67236 | 15.26889 | 124° | 55km/h | 17928m | 4m/s | -54.6°C | 4.3% | 80.4hPa | 2.6V | 08:30:00 | 01:20:25 | 00:00:00 | |
| AA1-15 | 2026-09-03 23:58:20 | 51.67195 | 15.26973 | 129° | 55km/h | 17952m | 5.7m/s | 0°C | 0% | 0hPa | 2.7V | 18:12:15 | 01:20:30 | 00:00:00 | |
| DB0NH | 2026-09-03 23:58:19 | 51.67204 | 15.26956 | 131° | 57km/h | 17948m | 4.9m/s | -54.7°C | 4.3% | 80.2hPa | 2.6V | 00:00:00 | 01:20:29 | 00:00:00 | |
| KRY50SP-1 | 2026-09-03 23:58:17 | 51.67212 | 15.26940 | 131° | 51km/h | 17943m | 4.1m/s | -54.7°C | 1.3% | 80.2hPa | 2.6V | 00:00:00 | 00:00:00 | 00:00:00 | |
| SONDE2-11 | 2026-09-03 23:58:15 | 51.67244 | 15.26870 | 124° | 55km/h | 17924m | 5.3m/s | -54.6°C | 1.3% | 80.5hPa | 2.6V | 00:00:00 | 00:00:00 | 00:00:00 | |
| DO3MHA-11 | 2026-09-03 23:58:14 | 51.67244 | 15.26870 | 125° | 58km/h | 17924m | 5.2m/s | -54.5°C | 4.3% | 80.4hPa | 2.6V | 00:00:00 | 01:20:24 | 00:00:00 | |
| EDDB2-11 | 2026-09-03 23:58:13 | 51.67253 | 15.26852 | 125° | 57km/h | 17919m | 4.5m/s | -54.6°C | 1.3% | 80.5hPa | 2.6V | 00:00:00 | 00:00:00 | 00:00:00 | |
| KRY50SP-1 | 2026-09-03 23:58:11 | 51.67261 | 15.26832 | 126° | 58km/h | 17915m | 4.4m/s | -54.5°C | 1.3% | 80.6hPa | 2.6V | 00:00:00 | 00:00:00 | 00:00:00 | |
| DM0DOS-11 | 2026-09-03 23:58:10 | 51.67316 | 15.26692 | 119° | 53km/h | 17881m | 5m/s | -54.4°C | 4.3% | 81hPa | 2.6V | 08:30:00 | 01:20:15 | 00:00:00 | |
| SP3WXH-11 | 2026-09-03 23:58:10 | 51.67286 | 15.26771 | 121° | 60km/h | 17899m | 3.6m/s | -54.4°C | 1.3% | 80.8hPa | 2.6V | 00:00:00 | 00:00:00 | 00:00:00 | |
| OK1SLM-15 | 2026-09-03 23:58:08 | 51.67286 | 15.26771 | 122° | 60km/h | 17900m | 3.6m/s | -54.4°C | 1.3% | 80.8hPa | 2.6V | 00:00:00 | 00:00:00 | 00:00:00 | |
| KRY50SP-1 | 2026-09-03 23:58:05 | 51.67309 | 15.26711 | 123° | 55km/h | 17886m | 3.4m/s | -54.4°C | 1.3% | 81.0hPa | 2.6V | 00:00:00 | 00:00:00 | 00:00:00 | |
| DO3MHA-11 | 2026-09-03 23:58:04 | 51.67322 | 15.26673 | 117° | 58km/h | 17877m | 5.1m/s | -54.4°C | 4.3% | 81.0hPa | 2.6V | 00:00:00 | 01:20:14 | 00:00:00 | |
| SONCRA | 2026-09-03 23:58:02 | 51.67342 | 15.26615 | 121° | 55km/h | 17862m | 4.8m/s | -54.4°C | 1.3% | 81.3hPa | 2.7V | 00:00:00 | 00:00:00 | 00:00:00 | |
| EDDB2-12 | 2026-09-03 23:58:01 | 51.67342 | 15.26615 | 121° | 55km/h | 17862m | 4.8m/s | -54.4°C | 1.3% | 81.3hPa | 2.7V | 00:00:00 | 00:00:00 | 00:00:00 | |
| DM0DOS-11 | 2026-09-03 23:58:00 | 51.67385 | 15.26485 | 117° | 60km/h | 17834m | 5m/s | -54.2°C | 4.2% | 81.6hPa | 2.7V | 08:30:00 | 01:20:05 | 00:00:00 | |
| DB0ND-19 | 2026-09-03 23:57:53 | 51.67399 | 15.26443 | 115° | 55km/h | 17824m | 5.2m/s | -54.1°C | -1.0% | 81.8hPa | 2.6V | 00:00:00 | 00:00:00 | 00:00:00 | |
| OE3JTB-15 | 2026-09-03 23:57:52 | 51.67405 | 15.26422 | 115° | 55km/h | 17820m | 5.0m/s | -54.1°C | 4.2% | 81.8hPa | 2.6V | 00:00:00 | 00:00:00 | 08:30:00 | |
| DM0DOS-11 | 2026-09-03 23:57:50 | 51.67442 | 15.26284 | 107° | 57km/h | 17784m | 4.5m/s | -54°C | 4.2% | 82.2hPa | 2.7V | 08:30:00 | 01:19:55 | 00:00:00 | |
| S3001 | 2026-09-03 23:57:48 | 51.67427 | 15.26345 | 116° | 51km/h | 17800m | 4.2m/s | -54.1°C | 1.3% | 82.1hPa | 2.7V | 00:00:00 | 00:00:00 | 00:00:00 | |
| OK1SLM-15 | 2026-09-03 23:57:46 | 51.67433 | 15.26325 | 114° | 53km/h | 17795m | 5.1m/s | -54.1°C | 1.3% | 82.2hPa | 2.7V | 00:00:00 | 00:00:00 | 00:00:00 | |
| DO3MHA-11 | 2026-09-03 23:57:44 | 51.67447 | 15.26261 | 107° | 60km/h | 17781m | 4.0m/s | -53.9°C | 4.2% | 82.3hPa | 2.7V | 00:00:00 | 01:19:54 | 00:00:00 | |
| EDDB2-11 | 2026-09-03 23:57:42 | 51.67457 | 15.26215 | 110° | 60km/h | 17771m | 4.6m/s | -54.0°C | 1.3% | 82.5hPa | 2.7V | 00:00:00 | 00:00:00 | 00:00:00 | |
| DM0DOS-11 | 2026-09-03 23:57:40 | 51.67495 | 15.26056 | 113° | 57km/h | 17738m | 4.2m/s | -53.7°C | 4.2% | 82.9hPa | 2.7V | 08:30:00 | 01:19:45 | 00:00:00 | |
| 13BRC | 2026-09-03 23:57:39 | 51.67468 | 15.26169 | 113° | 62km/h | 17762m | 5.1m/s | -53.9°C | 1.3% | 82.6hPa | 2.7V | 00:00:00 | 00:00:00 | 00:00:00 | |
| KRY50SP-1 | 2026-09-03 23:57:38 | 51.67473 | 15.26146 | 111° | 60km/h | 17757m | 5.0m/s | -53.8°C | 1.3% | 82.7hPa | 2.7V | 00:00:00 | 00:00:00 | 00:00:00 | |
| DAC517 | 2026-09-03 23:57:35 | 51.67490 | 15.26077 | 115° | 58km/h | 17743m | 5.4m/s | -53.7°C | 1.3% | 82.8hPa | 2.7V | 00:00:00 | 00:00:00 | 00:00:00 | |
| DO3MHA-11 | 2026-09-03 23:57:34 | 51.67501 | 15.26035 | 113° | 55km/h | 17734m | 4.8m/s | -53.6°C | 4.2% | 82.9hPa | 2.7V | 00:00:00 | 01:19:44 | 00:00:00 | |
| KRY50SP-1 | 2026-09-03 23:57:32 | 51.67506 | 15.26014 | 111° | 55km/h | 17729m | 5.2m/s | -53.6°C | 1.3% | 83.0hPa | 2.6V | 00:00:00 | 00:00:00 | 00:00:00 | |
| SONCRA | 2026-09-03 23:57:31 | 51.67519 | 15.25953 | 110° | 51km/h | 17715m | 5.6m/s | -53.6°C | 1.3% | 83.2hPa | 2.6V | 00:00:00 | 00:00:00 | 00:00:00 | |
| EDDB2-12 | 2026-09-03 23:57:30 | 51.67519 | 15.25953 | 110° | 51km/h | 17715m | 5.6m/s | -53.6°C | 1.3% | 83.2hPa | 2.6V | 00:00:00 | 00:00:00 | 00:00:00 | |
| DM0DOS-11 | 2026-09-03 23:57:26 | 51.67544 | 15.25846 | 111° | 60km/h | 17690m | 5.1m/s | -53.6°C | 4% | 83.5hPa | 2.6V | 08:30:00 | 01:19:35 | 00:00:00 | |
| DB0DAN | 2026-09-03 23:57:25 | 51.67544 | 15.25846 | 111° | 57km/h | 17690m | 5.1m/s | -53.6°C | 1.3% | 83.47hPa | 2.6V | 00:00:00 | 00:00:00 | 00:00:00 | |
| DO3MHA-11 | 2026-09-03 23:57:24 | 51.67549 | 15.25824 | 112° | 53km/h | 17685m | 4.8m/s | -53.5°C | 4.0% | 83.5hPa | 2.6V | 00:00:00 | 01:19:34 | 00:00:00 | |
| DB0ND-19 | 2026-09-03 23:57:22 | 51.67560 | 15.25780 | 110° | 57km/h | 17676m | 5.0m/s | 0°C | -1.0% | -1.0hPa | 2.6V | 00:00:00 | 00:00:00 | 00:00:00 | |
| DM0DOS-11 | 2026-09-03 23:57:20 | 51.67587 | 15.25638 | 100° | 46km/h | 17642m | 5m/s | -53.4°C | 4% | 84.1hPa | 2.6V | 08:30:00 | 01:19:25 | 00:00:00 | |
| DB0NH | 2026-09-03 23:57:18 | 51.67578 | 15.25694 | 109° | 47km/h | 17656m | 5.3m/s | -53.4°C | 4.0% | 83.9hPa | 2.6V | 00:00:00 | 01:19:28 | 00:00:00 | |
| OE3JTB-15 | 2026-09-03 23:57:17 | 51.67582 | 15.25675 | 108° | 51km/h | 17652m | 3.7m/s | -53.4°C | 4.0% | 84.0hPa | 2.6V | 00:00:00 | 00:00:00 | 00:00:00 | |
| DAC517 | 2026-09-03 23:57:16 | 51.67585 | 15.25656 | 105° | 47km/h | 17647m | 5.4m/s | -53.5°C | 1.2% | 84.1hPa | 2.6V | 00:00:00 | 00:00:00 | 00:00:00 | |
| DO3MHA-11 | 2026-09-03 23:57:14 | 51.67589 | 15.25619 | 99° | 49km/h | 17637m | 4.7m/s | -53.4°C | 4.0% | 84.2hPa | 2.6V | 00:00:00 | 01:19:24 | 00:00:00 | |
| SONDE2-11 | 2026-09-03 23:57:13 | 51.67593 | 15.25584 | 102° | 44km/h | 17626m | 4.9m/s | -53.4°C | 1.3% | 84.4hPa | 2.6V | 00:00:00 | 00:00:00 | 00:00:00 | |
| EDDB2-11 | 2026-09-03 23:57:12 | 51.67596 | 15.25565 | 104° | 46km/h | 17622m | 3.9m/s | -53.5°C | 1.3% | 84.4hPa | 2.6V | 00:00:00 | 00:00:00 | 00:00:00 | |
| KRY50SP-1 | 2026-09-03 23:57:08 | 51.67603 | 15.25525 | 107° | 55km/h | 17612m | 4.9m/s | -53.6°C | 1.3% | 84.5hPa | 2.6V | 00:00:00 | 00:00:00 | 00:00:00 | |
| DM0DOS-11 | 2026-09-03 23:57:06 | 51.67621 | 15.25443 | 110° | 51km/h | 17592m | 4.6m/s | -53.8°C | 4% | 84.8hPa | 2.6V | 08:30:00 | 01:19:15 | 00:00:00 | |
| DO3MHA-11 | 2026-09-03 23:57:04 | 51.67625 | 15.25424 | 108° | 44km/h | 17587m | 5.4m/s | -53.8°C | 4.2% | 84.8hPa | 2.6V | 00:00:00 | 01:19:14 | 08:30:00 | |
| OK1SLM-15 | 2026-09-03 23:57:03 | 51.67625 | 15.25424 | 109° | 49km/h | 17587m | 5.4m/s | -53.9°C | 0% | 84.8hPa | 2.6V | 00:00:00 | 00:00:00 | 00:00:00 | |
| SONCRA | 2026-09-03 23:57:00 | 51.67642 | 15.25342 | 110° | 38km/h | 17563m | 3.1m/s | -54.0°C | 1.3% | 85.2hPa | 2.6V | 00:00:00 | 00:00:00 | 00:00:00 | |
| EDDB2-12 | 2026-09-03 23:56:59 | 51.67642 | 15.25342 | 110° | 38km/h | 17563m | 3.1m/s | -54.0°C | 1.3% | 85.2hPa | 2.6V | 00:00:00 | 00:00:00 | 00:00:00 | |
| KRY50SP-1 | 2026-09-03 23:56:58 | 51.67642 | 15.25342 | 112° | 38km/h | 17563m | 3.1m/s | -54.0°C | 1.3% | 85.2hPa | 2.6V | 00:00:00 | 00:00:00 | 00:00:00 | |
| 13BRC | 2026-09-03 23:56:57 | 51.67645 | 15.25327 | 109° | 40km/h | 17559m | 5.2m/s | -54.0°C | 1.3% | 85.2hPa | 2.6V | 00:00:00 | 00:00:00 | 00:00:00 | |
| DAC517 | 2026-09-03 23:56:55 | 51.67651 | 15.25292 | 106° | 47km/h | 17549m | 4.0m/s | -54.0°C | 1.3% | 85.3hPa | 2.6V | 00:00:00 | 00:00:00 | 00:00:00 | |
| DO3MHA-11 | 2026-09-03 23:56:54 | 51.67658 | 15.25254 | 109° | 47km/h | 17540m | 5.1m/s | -53.9°C | 4.2% | 85.5hPa | 2.6V | 00:00:00 | 01:19:04 | 00:00:00 | |
| DM0DOS-11 | 2026-09-03 23:56:53 | 51.67687 | 15.25146 | 113° | 47km/h | 17510m | 5.4m/s | -53.8°C | 4.1% | 85.8hPa | 2.6V | 08:30:00 | 01:18:58 | 00:00:00 | |
| KRY50SP-1 | 2026-09-03 23:56:52 | 51.67663 | 15.25236 | 114° | 49km/h | 17535m | 5.2m/s | -53.9°C | 1.3% | 85.6hPa | 2.7V | 00:00:00 | 00:00:00 | 00:00:00 | |
| SP3BTT-10 | 2026-09-03 23:56:50 | 51.67678 | 15.25182 | 113° | 51km/h | 17519m | 4.9m/s | -53.8°C | 4.2% | 85.7hPa | 2.7V | 00:00:00 | 00:00:00 | 00:00:00 | |
| DB0NH | 2026-09-03 23:56:48 | 51.67687 | 15.25146 | 114° | 53km/h | 17510m | 5.3m/s | -53.7°C | 4.1% | 85.8hPa | 2.7V | 00:00:00 | 01:18:58 | 00:00:00 | |
| KRY50SP-1 | 2026-09-03 23:56:46 | 51.67692 | 15.25129 | 117° | 47km/h | 17505m | 5.4m/s | -53.8°C | 1.3% | 86.0hPa | 2.7V | 00:00:00 | 00:00:00 | 00:00:00 | |
| DO3MHA-11 | 2026-09-03 23:56:44 | 51.67706 | 15.25079 | 113° | 49km/h | 17489m | 4.8m/s | -53.6°C | 4.0% | 86.1hPa | 2.7V | 00:00:00 | 01:18:54 | 00:00:00 | |
| SONDE2-11 | 2026-09-03 23:56:42 | 51.67721 | 15.25029 | 116° | 46km/h | 17474m | 4.5m/s | -53.6°C | 1.3% | 86.4hPa | 2.7V | 00:00:00 | 00:00:00 | 00:00:00 | |
| DM0DOS-11 | 2026-09-03 23:56:41 | 51.67737 | 15.24973 | 111° | 55km/h | 17459m | 4.2m/s | -53.6°C | 4% | 86.5hPa | 2.7V | 08:30:00 | 01:18:48 | 00:00:00 | |
| EDDB2-11 | 2026-09-03 23:56:40 | 51.67726 | 15.25012 | 114° | 47km/h | 17469m | 4.5m/s | -53.6°C | 1.3% | 86.4hPa | 2.7V | 00:00:00 | 00:00:00 | 00:00:00 | |
| SP6BVK | 2026-09-03 23:56:38 | 51.67731 | 15.24993 | 114° | 53km/h | 17464m | 5.7m/s | -53.6°C | 1.3% | 86.5hPa | 2.7V | 00:00:00 | 00:00:00 | 00:00:00 | |
| 13BRC | 2026-09-03 23:56:36 | 51.67742 | 15.24952 | 113° | 55km/h | 17456m | 4.4m/s | -53.6°C | 1.2% | 86.6hPa | 2.7V | 00:00:00 | 00:00:00 | 00:00:00 | |
| DO3MHA-11 | 2026-09-03 23:56:34 | 51.67758 | 15.24894 | 117° | 55km/h | 17440m | 4.5m/s | -53.7°C | 4.0% | 86.8hPa | 2.7V | 00:00:00 | 01:18:44 | 00:00:00 | |
| SONCRA | 2026-09-03 23:56:29 | 51.67795 | 15.24779 | 124° | 58km/h | 17412m | 4.8m/s | -54.1°C | 1.3% | 87.2hPa | 2.7V | 00:00:00 | 00:00:00 | 00:00:00 | |
| EDDB2-12 | 2026-09-03 23:56:28 | 51.67795 | 15.24779 | 124° | 58km/h | 17412m | 4.8m/s | -54.1°C | 1.3% | 87.2hPa | 2.7V | 00:00:00 | 00:00:00 | 00:00:00 | |
| DO3MHA-11 | 2026-09-03 23:56:24 | 51.67827 | 15.24702 | 117° | 53km/h | 17393m | 4.7m/s | -54.0°C | 4.2% | 87.4hPa | 2.7V | 00:00:00 | 01:18:34 | 00:00:00 | |
| DB0NH | 2026-09-03 23:56:18 | 51.67855 | 15.24582 | 112° | 55km/h | 17364m | 4.3m/s | -53.9°C | 4.2% | 87.8hPa | 2.7V | 00:00:00 | 01:18:28 | 00:00:00 | |
| 13BRC | 2026-09-03 23:56:17 | 51.67860 | 15.24562 | 114° | 53km/h | 17360m | 4.0m/s | -54.0°C | 1.3% | 87.9hPa | 2.7V | 00:00:00 | 00:00:00 | 00:00:00 | |
| DO3MHA-11 | 2026-09-03 23:56:14 | 51.67878 | 15.24498 | 118° | 64km/h | 17346m | 4.2m/s | -53.8°C | 4.2% | 88.1hPa | 2.7V | 00:00:00 | 01:18:24 | 00:00:00 | |
| KRY50SP-1 | 2026-09-03 23:56:13 | 51.67878 | 15.24498 | 118° | 64km/h | 17346m | 4.3m/s | -53.9°C | 1.3% | 88.1hPa | 2.7V | 00:00:00 | 00:00:00 | 00:00:00 | |
| SONDE2-11 | 2026-09-03 23:56:10 | 51.67910 | 15.24407 | 118° | 62km/h | 17327m | 4.8m/s | -53.7°C | 1.3% | 88.4hPa | 2.7V | 00:00:00 | 00:00:00 | 00:00:00 | |
| EDDB2-11 | 2026-09-03 23:56:09 | 51.67917 | 15.24384 | 115° | 60km/h | 17322m | 4.6m/s | -53.7°C | 1.4% | 88.5hPa | 2.7V | 00:00:00 | 00:00:00 | 00:00:00 | |
| OK1SLM-15 | 2026-09-03 23:56:08 | 51.67917 | 15.24384 | 117° | 62km/h | 17322m | 4.6m/s | -53.7°C | 0% | 88.4hPa | 2.7V | 00:00:00 | 00:00:00 | 00:00:00 | |
| KRY50SP-1 | 2026-09-03 23:56:07 | 51.67923 | 15.24362 | 115° | 58km/h | 17318m | 4.3m/s | -53.7°C | 1.3% | 88.5hPa | 2.7V | 00:00:00 | 00:00:00 | 00:00:00 | |
| SP3WXH-11 | 2026-09-03 23:56:06 | 51.67938 | 15.24305 | 109° | 46km/h | 17303m | 4.0m/s | -53.7°C | 1.4% | 88.7hPa | 2.7V | 00:00:00 | 00:00:00 | 00:00:00 | |
| OK1SLM-15 | 2026-09-03 23:56:04 | 51.67942 | 15.24287 | 109° | 47km/h | 17298m | 5.4m/s | -53.7°C | 0% | 88.8hPa | 2.7V | 00:00:00 | 00:00:00 | 00:00:00 | |
| OE3JTB-15 | 2026-09-03 23:56:02 | 51.67949 | 15.24249 | 110° | 47km/h | 17289m | 4.2m/s | -53.6°C | 4.2% | 88.8hPa | 2.7V | 00:00:00 | 01:18:12 | 00:00:00 | |
| KRY50SP-1 | 2026-09-03 23:56:01 | 51.67949 | 15.24249 | 110° | 51km/h | 17289m | 4.2m/s | -53.6°C | 1.3% | 88.9hPa | 2.7V | 00:00:00 | 00:00:00 | 00:00:00 | |
| DM0DOS-11 | 2026-09-03 23:56:00 | 51.67986 | 15.24107 | 111° | 53km/h | 17254m | 5.8m/s | -53.4°C | 4.1% | 89.4hPa | 2.7V | 08:30:00 | 01:18:05 | 00:00:00 | |
| SONCRA | 2026-09-03 23:55:58 | 51.67976 | 15.24150 | 111° | 57km/h | 17263m | 5.0m/s | -53.5°C | 1.3% | 89.2hPa | 2.7V | 00:00:00 | 00:00:00 | 00:00:00 | |
| EDDB2-12 | 2026-09-03 23:55:57 | 51.67976 | 15.24150 | 111° | 57km/h | 17263m | 5.0m/s | -53.5°C | 1.3% | 89.2hPa | 2.7V | 00:00:00 | 00:00:00 | 00:00:00 | |
| KRY50SP-1 | 2026-09-03 23:55:56 | 51.67975 | 15.24150 | 113° | 58km/h | 17264m | 5.0m/s | -53.5°C | 1.3% | 89.2hPa | 2.7V | 00:00:00 | 00:00:00 | 00:00:00 | |
| 13BRC | 2026-09-03 23:55:55 | 51.67980 | 15.24128 | 112° | 57km/h | 17259m | 4.2m/s | -53.4°C | 1.3% | 89.3hPa | 2.7V | 00:00:00 | 00:00:00 | 00:00:00 | |
| AM1SDL-15 | 2026-09-03 23:55:54 | 51.67990 | 15.24088 | 111° | 53km/h | 17248m | 4.6m/s | -53.3°C | 4.2% | 89.4hPa | 2.7V | 00:00:00 | 01:18:04 | 00:00:00 | |
| DO3MHA-11 | 2026-09-03 23:55:53 | 51.67995 | 15.24069 | 108° | 46km/h | 17244m | 4.6m/s | -53.2°C | 4.1% | 89.5hPa | 2.7V | 00:00:00 | 01:18:03 | 00:00:00 | |
| OK1SLM-15 | 2026-09-03 23:55:52 | 51.67995 | 15.24069 | 109° | 47km/h | 17244m | 4.7m/s | -53.3°C | 0% | 0hPa | 2.7V | 00:00:00 | 00:00:00 | 00:00:00 | |
| DM0DOS-11 | 2026-09-03 23:55:50 | 51.68020 | 15.23928 | 103° | 49km/h | 17204m | 4.2m/s | -53°C | 4% | 90.1hPa | 2.7V | 08:30:00 | 01:17:55 | 00:00:00 | |
| SP3BTT-10 | 2026-09-03 23:55:50 | 51.68004 | 15.24014 | 107° | 53km/h | 17229m | 4.3m/s | -53.1°C | 4.1% | 89.7hPa | 2.6V | 00:00:00 | 00:00:00 | 00:00:00 | |
| OK1SLM-15 | 2026-09-03 23:55:47 | 51.68011 | 15.23981 | 109° | 42km/h | 17219m | 4.4m/s | -53.1°C | 0% | 0hPa | 2.6V | 00:00:00 | 00:00:00 | 00:00:00 | |
| KRY50SP-1 | 2026-09-03 23:55:45 | 51.68017 | 15.23947 | 105° | 46km/h | 17209m | 5.6m/s | -53.0°C | 1.3% | 90.0hPa | 2.6V | 00:00:00 | 00:00:00 | 00:00:00 | |
| DO3MHA-11 | 2026-09-03 23:55:43 | 51.68027 | 15.23888 | 109° | 47km/h | 17195m | 6.0m/s | -52.9°C | 3.9% | 90.1hPa | 2.6V | 00:00:00 | 01:17:53 | 00:00:00 | |
| DM0DOS-11 | 2026-09-03 23:55:40 | 51.68064 | 15.23744 | 110° | 42km/h | 17156m | 4.3m/s | -52.8°C | 3.9% | 90.7hPa | 2.6V | 08:30:00 | 01:17:45 | 00:00:00 | |
| KRY50SP-1 | 2026-09-03 23:55:39 | 51.68042 | 15.23831 | 114° | 51km/h | 17180m | 5.3m/s | -52.9°C | 1.3% | 90.4hPa | 2.7V | 00:00:00 | 00:00:00 | 00:00:00 | |
| EDDB2-11 | 2026-09-03 23:55:38 | 51.68051 | 15.23794 | 111° | 46km/h | 17171m | 4.2m/s | -52.9°C | 1.3% | 90.5hPa | 2.7V | 00:00:00 | 00:00:00 | 00:00:00 | |
| SP6BVK | 2026-09-03 23:55:37 | 51.68051 | 15.23794 | 113° | 47km/h | 17171m | 4.2m/s | -52.9°C | 1.3% | 90.6hPa | 2.7V | 00:00:00 | 00:00:00 | 00:00:00 | |
| 13BRC | 2026-09-03 23:55:34 | 51.68064 | 15.23744 | 111° | 42km/h | 17156m | 4.3m/s | -52.8°C | 1.3% | 90.7hPa | 2.7V | 00:00:00 | 00:00:00 | 00:00:00 | |
| DO3MHA-11 | 2026-09-03 23:55:33 | 51.68070 | 15.23710 | 105° | 42km/h | 17147m | 4.3m/s | -52.8°C | 3.9% | 90.8hPa | 2.7V | 00:00:00 | 01:17:43 | 08:30:00 | |
| DM0DOS-11 | 2026-09-03 23:55:29 | 51.68095 | 15.23579 | 109° | 37km/h | 17108m | 5.9m/s | -52.7°C | 4% | 91.4hPa | 2.6V | 08:30:00 | 01:17:35 | 00:00:00 | |
| OE3JTB-15 | 2026-09-03 23:55:29 | 51.68083 | 15.23641 | 110° | 33km/h | 17128m | 3.7m/s | -52.6°C | 4.0% | 91.1hPa | 2.6V | 00:00:00 | 00:00:00 | 00:00:00 | |
| KRY50SP-1 | 2026-09-03 23:55:27 | 51.68086 | 15.23625 | 109° | 42km/h | 17123m | 5.5m/s | -52.7°C | 1.3% | 91.2hPa | 2.6V | 00:00:00 | 00:00:00 | 00:00:00 | |
| EDDB2-12 | 2026-09-03 23:55:26 | 51.68092 | 15.23594 | 106° | 37km/h | 17113m | 4.4m/s | -52.7°C | 1.3% | 91.3hPa | 2.6V | 00:00:00 | 00:00:00 | 00:00:00 | |
| DO3MHA-11 | 2026-09-03 23:55:23 | 51.68101 | 15.23552 | 113° | 35km/h | 17099m | 3.9m/s | -52.6°C | 4.0% | 91.5hPa | 2.6V | 00:00:00 | 01:17:33 | 00:00:00 | |
| KRY50SP-1 | 2026-09-03 23:55:21 | 51.68104 | 15.23540 | 110° | 33km/h | 17093m | 5.8m/s | -52.6°C | 1.3% | 91.6hPa | 2.6V | 00:00:00 | 00:00:00 | 00:00:00 | |
| DB0NH | 2026-09-03 23:55:19 | 51.68113 | 15.23501 | 115° | 33km/h | 17079m | 5.9m/s | -52.5°C | 3.9% | 91.8hPa | 2.6V | 00:00:00 | 01:17:29 | 00:00:00 | |
| SP6BVK | 2026-09-03 23:55:18 | 51.68117 | 15.23489 | 117° | 35km/h | 17073m | 4.4m/s | -52.5°C | 1.3% | 91.9hPa | 2.6V | 00:00:00 | 00:00:00 | 00:00:00 | |
| DM0DOS-11 | 2026-09-03 23:55:16 | 51.68127 | 15.23451 | 108° | 35km/h | 17056m | 5.5m/s | -52.5°C | 3.8% | 92.1hPa | 2.6V | 08:30:00 | 01:17:25 | 00:00:00 | |
| OK1SLM-15 | 2026-09-03 23:55:14 | 51.68127 | 15.23451 | 109° | 35km/h | 17057m | 5.5m/s | -52.5°C | 0% | 92.1hPa | 2.6V | 00:00:00 | 00:00:00 | 00:00:00 | |
| DO3MHA-11 | 2026-09-03 23:55:13 | 51.68134 | 15.23424 | 113° | 29km/h | 17047m | 5.9m/s | -52.5°C | 3.8% | 92.2hPa | 2.6V | 00:00:00 | 01:17:23 | 00:00:00 | |
| KRY50SP-1 | 2026-09-03 23:55:10 | 51.68142 | 15.23399 | 122° | 33km/h | 17037m | 4.7m/s | -52.6°C | 1.3% | 92.4hPa | 2.6V | 00:00:00 | 00:00:00 | 00:00:00 | |
| DM0DOS-11 | 2026-09-03 23:55:09 | 51.68168 | 15.23344 | 136° | 27km/h | 17006m | 5.2m/s | -52.7°C | 3.8% | 92.8hPa | 2.6V | 08:30:00 | 01:17:15 | 00:00:00 | |
| SONDE2-11 | 2026-09-03 23:55:08 | 51.68154 | 15.23368 | 127° | 27km/h | 17022m | 3.8m/s | -52.7°C | 1.3% | 92.7hPa | 2.7V | 00:00:00 | 00:00:00 | 00:00:00 | |
| EDDB2-11 | 2026-09-03 23:55:07 | 51.68158 | 15.23360 | 133° | 27km/h | 17017m | 6.0m/s | -52.7°C | 1.2% | 92.7hPa | 2.7V | 00:00:00 | 00:00:00 | 00:00:00 | |
| KRY50SP-1 | 2026-09-03 23:55:05 | 51.68163 | 15.23352 | 137° | 27km/h | 17011m | 4.9m/s | -52.7°C | 1.3% | 92.8hPa | 2.7V | 00:00:00 | 00:00:00 | 00:00:00 | |
| DO3MHA-11 | 2026-09-03 23:55:03 | 51.68177 | 15.23329 | 130° | 35km/h | 16997m | 3.2m/s | -52.7°C | 3.9% | 92.9hPa | 2.7V | 00:00:00 | 01:17:13 | 00:00:00 | |
| EDDB2-12 | 2026-09-03 23:54:55 | 51.68218 | 15.23242 | 134° | 38km/h | 16959m | 4.7m/s | -53.0°C | 1.3% | 93.6hPa | 2.7V | 00:00:00 | 00:00:00 | 00:00:00 | |
| DB0DAN | 2026-09-03 23:54:55 | 51.68218 | 15.23242 | 134° | 38km/h | 16959m | 4.7m/s | -53°C | 1.3% | 93.56hPa | 2.6V | 00:00:00 | 00:00:00 | 00:00:00 | |
| KRY50SP-1 | 2026-09-03 23:54:54 | 51.68218 | 15.23242 | 135° | 40km/h | 16959m | 4.7m/s | -53.0°C | 1.3% | 93.6hPa | 2.7V | 00:00:00 | 00:00:00 | 00:00:00 | |
| DO3MHA-11 | 2026-09-03 23:54:53 | 51.68232 | 15.23221 | 137° | 38km/h | 16950m | 5.9m/s | -53.1°C | 4.0% | 93.6hPa | 2.7V | 00:00:00 | 01:17:03 | 00:00:00 | |
| DAC517 | 2026-09-03 23:54:52 | 51.68232 | 15.23221 | 137° | 37km/h | 16950m | 6.0m/s | -53.1°C | 1.3% | 93.7hPa | 2.7V | 00:00:00 | 00:00:00 | 00:00:00 | |
| OK1SLM-15 | 2026-09-03 23:54:51 | 51.68239 | 15.23210 | 137° | 35km/h | 16945m | 4.4m/s | -53.1°C | 0% | 0hPa | 2.7V | 00:00:00 | 00:00:00 | 00:00:00 | |
| DM0DOS-11 | 2026-09-03 23:54:49 | 51.68294 | 15.23119 | 133° | 38km/h | 16910m | 4.4m/s | -53.1°C | 4% | 94.3hPa | 2.7V | 08:30:00 | 01:16:54 | 00:00:00 | |
| DF8AY | 2026-09-03 23:54:46 | 51.68281 | 15.23143 | 130° | 42km/h | 16919m | 5m/s | -53.1°C | 0.7% | 94.1hPa | 2.6V | 18:12:15 | 01:16:56 | 00:00:00 | |
| BIOWL1-15 | 2026-09-03 23:54:39 | 51.68335 | 15.23067 | 141° | 44km/h | 16887m | 4.6m/s | 0°C | 0% | 94.6hPa | 2.7V | 18:12:15 | 01:16:49 | 00:00:00 | |
| KRY50SP-1 | 2026-09-03 23:54:38 | 51.68335 | 15.23067 | 142° | 44km/h | 16888m | 4.6m/s | -53.1°C | 1.3% | 94.6hPa | 2.7V | 00:00:00 | 00:00:00 | 00:00:00 | |
| SONDE2-11 | 2026-09-03 23:54:37 | 51.68352 | 15.23044 | 138° | 44km/h | 16879m | 4.8m/s | -53.2°C | 1.4% | 94.7hPa | 2.7V | 00:00:00 | 00:00:00 | 00:00:00 | |
| DM0DOS-11 | 2026-09-03 23:54:36 | 51.68380 | 15.23008 | 143° | 49km/h | 16864m | 4.1m/s | -53.2°C | 4.1% | 95hPa | 2.7V | 08:30:00 | 01:16:44 | 00:00:00 | |
| DF8AY | 2026-09-03 23:54:35 | 51.68370 | 15.23020 | 142° | 47km/h | 16869m | 4.5m/s | -53.2°C | 0.8% | 94.9hPa | 2.7V | 18:12:15 | 01:16:45 | 00:00:00 | |
| DO3MHA-11 | 2026-09-03 23:54:33 | 51.68390 | 15.22996 | 143° | 55km/h | 16860m | 4.7m/s | -53.2°C | 4.1% | 95.0hPa | 2.6V | 00:00:00 | 01:16:43 | 00:00:00 | |
| DAC517 | 2026-09-03 23:54:32 | 51.68390 | 15.22996 | 143° | 49km/h | 16860m | 4.8m/s | -53.2°C | 1.4% | 95.0hPa | 2.7V | 00:00:00 | 00:00:00 | 00:00:00 | |
| OE3JTB-15 | 2026-09-03 23:54:31 | 51.68409 | 15.22971 | 140° | 55km/h | 16851m | 3.5m/s | -53.2°C | 4.1% | 95.1hPa | 2.7V | 00:00:00 | 01:16:41 | 00:00:00 | |
| DM0DOS-11 | 2026-09-03 23:54:29 | 51.68490 | 15.22875 | 146° | 51km/h | 16818m | 4.5m/s | -53.1°C | 4.1% | 95.6hPa | 2.7V | 08:30:00 | 01:16:34 | 00:00:00 | |
| BIOWL1-15 | 2026-09-03 23:54:28 | 51.68442 | 15.22928 | 144° | 60km/h | 16836m | 4.9m/s | 0°C | 0% | 95.3hPa | 2.6V | 18:12:15 | 01:16:38 | 00:00:00 | |
| DF8AY | 2026-09-03 23:54:25 | 51.68479 | 15.22887 | 146° | 55km/h | 16823m | 4.9m/s | -53.2°C | 0.7% | 95.5hPa | 2.7V | 18:12:15 | 01:16:35 | 00:00:00 | |
| DF8AY | 2026-09-03 23:54:15 | 51.68582 | 15.22746 | 138° | 68km/h | 16779m | 3.6m/s | -53°C | 0.7% | 96.2hPa | 2.7V | 18:12:15 | 01:16:25 | 00:00:00 | |
| BIOWL1-15 | 2026-09-03 23:54:14 | 51.68639 | 15.22659 | 136° | 55km/h | 16758m | 4.6m/s | 0°C | 0% | 96.5hPa | 2.6V | 18:12:15 | 01:16:20 | 00:00:00 | |
| DO3MHA-11 | 2026-09-03 23:54:13 | 51.68607 | 15.22710 | 138° | 55km/h | 16771m | 4.2m/s | -53.0°C | 4.0% | 96.3hPa | 2.6V | 00:00:00 | 01:16:23 | 00:00:00 | |
| 13BRC | 2026-09-03 23:54:12 | 51.68607 | 15.22710 | 138° | 66km/h | 16771m | 4.3m/s | -53.0°C | 1.3% | 96.4hPa | 2.6V | 00:00:00 | 00:00:00 | 00:00:00 | |
| S3001 | 2026-09-03 23:54:11 | 51.68629 | 15.22675 | 134° | 57km/h | 16762m | 4.1m/s | -53.0°C | 1.3% | 96.5hPa | 2.6V | 00:00:00 | 00:00:00 | 00:00:00 | |
| DM0DOS-11 | 2026-09-03 23:54:09 | 51.68693 | 15.22571 | 135° | 53km/h | 16729m | 4.6m/s | -52.9°C | 3.9% | 96.9hPa | 2.6V | 08:30:00 | 01:16:14 | 00:00:00 | |
| DF8AY | 2026-09-03 23:54:09 | 51.68693 | 15.22571 | 136° | 53km/h | 16729m | 4.6m/s | -52.9°C | 0.7% | 96.9hPa | 2.6V | 18:12:15 | 01:16:14 | 00:00:00 | |
| BIOWL1-15 | 2026-09-03 23:53:59 | 51.68742 | 15.22489 | 134° | 55km/h | 16706m | 4.8m/s | 0°C | 0% | 97.3hPa | 2.6V | 18:12:15 | 01:16:09 | 00:00:00 | |
| DF8AY | 2026-09-03 23:53:54 | 51.68782 | 15.22411 | 125° | 46km/h | 16684m | 5.1m/s | -53.4°C | 0.8% | 97.6hPa | 2.6V | 18:12:15 | 01:16:04 | 00:00:00 | |
| DO3MHA-11 | 2026-09-03 23:53:53 | 51.68788 | 15.22395 | 126° | 51km/h | 16679m | 4.4m/s | -53.3°C | 4.0% | 97.6hPa | 2.6V | 00:00:00 | 01:16:03 | 00:00:00 | |
| 13BRC | 2026-09-03 23:53:52 | 51.68788 | 15.22395 | 126° | 47km/h | 16679m | 4.5m/s | -53.4°C | 1.4% | 97.7hPa | 2.6V | 00:00:00 | 00:00:00 | 00:00:00 | |
| OK1SLM-15 | 2026-09-03 23:53:51 | 51.68795 | 15.22380 | 126° | 47km/h | 16675m | 3.8m/s | -53.4°C | 0% | 0hPa | 2.6V | 00:00:00 | 00:00:00 | 00:00:00 | |
| DAC517 | 2026-09-03 23:53:50 | 51.68802 | 15.22364 | 124° | 47km/h | 16671m | 4.8m/s | -53.4°C | 1.3% | 97.8hPa | 2.6V | 00:00:00 | 00:00:00 | 00:00:00 | |
| DM0DOS-11 | 2026-09-03 23:53:49 | 51.68854 | 15.22240 | 123° | 53km/h | 16638m | 4.5m/s | -53.5°C | 4.1% | 98.3hPa | 2.6V | 08:30:00 | 01:15:54 | 00:00:00 | |
| BIOWL1-15 | 2026-09-03 23:53:48 | 51.68888 | 15.22153 | 117° | 49km/h | 16616m | 4.4m/s | 0°C | 0% | 98.7hPa | 2.6V | 18:12:15 | 01:15:49 | 00:00:00 | |
| DF8AY | 2026-09-03 23:53:43 | 51.68862 | 15.22222 | 124° | 53km/h | 16634m | 4.7m/s | -53.6°C | 0.8% | 98.4hPa | 2.6V | 18:12:15 | 01:15:53 | 00:00:00 | |
| DO3MHA-11 | 2026-09-03 23:53:43 | 51.68862 | 15.22222 | 124° | 53km/h | 16634m | 4.6m/s | -53.5°C | 4.1% | 98.3hPa | 2.6V | 00:00:00 | 01:15:53 | 00:00:00 | |
| KRY50SP-1 | 2026-09-03 23:53:42 | 51.68862 | 15.22222 | 125° | 53km/h | 16634m | 4.7m/s | -53.6°C | 1.4% | 98.4hPa | 2.6V | 00:00:00 | 00:00:00 | 00:00:00 | |
| S3001 | 2026-09-03 23:53:40 | 51.68894 | 15.22135 | 116° | 49km/h | 16612m | 3.4m/s | -54.0°C | 1.4% | 98.7hPa | 2.6V | 00:00:00 | 00:00:00 | 00:00:00 | |
| KRY50SP-1 | 2026-09-03 23:53:37 | 51.68894 | 15.22135 | 118° | 49km/h | 16612m | 3.4m/s | -54.0°C | 1.4% | 98.7hPa | 2.6V | 00:00:00 | 00:00:00 | 00:00:00 | |
| DM0DOS-11 | 2026-09-03 23:53:36 | 51.68922 | 15.22056 | 120° | 60km/h | 16594m | 5.2m/s | -54°C | 4.2% | 99hPa | 2.6V | 08:30:00 | 01:15:44 | 00:00:00 | |
| BIOWL1-15 | 2026-09-03 23:53:35 | 51.68922 | 15.22056 | 120° | 60km/h | 16594m | 5.2m/s | 0°C | 0% | 99hPa | 2.6V | 18:12:15 | 01:15:44 | 00:00:00 | |
| DF8AY | 2026-09-03 23:53:32 | 51.68938 | 15.22011 | 121° | 66km/h | 16585m | 3.7m/s | -54°C | 0.9% | 99.1hPa | 2.7V | 18:12:15 | 01:15:42 | 00:00:00 | |
| BIOWL1-15 | 2026-09-03 23:53:26 | 51.69000 | 15.21825 | 112° | 60km/h | 16549m | 4.9m/s | 0°C | 0% | 99.7hPa | 2.6V | 18:12:15 | 01:15:34 | 00:00:00 | |
| DM0DOS-11 | 2026-09-03 23:53:26 | 51.69000 | 15.21825 | 112° | 60km/h | 16549m | 4.9m/s | -54.1°C | 4.3% | 99.7hPa | 2.6V | 08:30:00 | 01:15:34 | 00:00:00 | |
| DF8AY | 2026-09-03 23:53:22 | 51.69017 | 15.21754 | 114° | 64km/h | 16535m | 5.4m/s | -54.2°C | 0.9% | 99.9hPa | 2.7V | 18:12:15 | 01:15:31 | 00:00:00 | |
| KRY50SP-1 | 2026-09-03 23:53:21 | 51.69011 | 15.21778 | 112° | 64km/h | 16540m | 3.1m/s | -54.2°C | 1.4% | 99.8hPa | 2.6V | 00:00:00 | 00:00:00 | 00:00:00 | |
| DB0NH | 2026-09-03 23:53:19 | 51.69032 | 15.21708 | 120° | 62km/h | 16527m | 3.6m/s | -54.2°C | 4.3% | 100.0hPa | 2.6V | 00:00:00 | 01:15:29 | 00:00:00 | |
| DL2RXE-15 | 2026-09-03 23:53:16 | 51.69048 | 15.21663 | 123° | 66km/h | 16517m | 4.1m/s | -54.3°C | 1.4% | 100.2hPa | 2.6V | 00:00:00 | 00:00:00 | 00:00:00 | |
| DM0DOS-11 | 2026-09-03 23:53:15 | 51.69076 | 15.21598 | 125° | 62km/h | 16504m | 4m/s | -54.3°C | 4.3% | 100.4hPa | 2.6V | 08:30:00 | 01:15:24 | 00:00:00 | |
| BIOWL1-15 | 2026-09-03 23:53:13 | 51.69085 | 15.21577 | 124° | 62km/h | 16500m | 3.5m/s | 0°C | 0% | 0hPa | 2.6V | 18:12:15 | 01:15:23 | 00:00:00 | |
| DF8AY | 2026-09-03 23:53:10 | 51.69134 | 15.21414 | 112° | 62km/h | 16467m | 5.7m/s | -54.1°C | 1% | 100.9hPa | 2.7V | 18:12:15 | 01:15:16 | 00:00:00 | |
| DAC517 | 2026-09-03 23:53:09 | 51.69108 | 15.21509 | 115° | 66km/h | 16487m | 3.7m/s | -54.3°C | 1.5% | 100.7hPa | 2.6V | 00:00:00 | 00:00:00 | 00:00:00 | |
| DM0DOS-11 | 2026-09-03 23:53:05 | 51.69145 | 15.21367 | 111° | 60km/h | 16459m | 3.5m/s | -54.1°C | 4.3% | 101.1hPa | 2.6V | 08:30:00 | 01:15:14 | 00:00:00 | |
| BIOWL1-15 | 2026-09-03 23:53:03 | 51.69151 | 15.21345 | 113° | 58km/h | 16454m | 5.5m/s | 0°C | 0% | 0hPa | 2.6V | 18:12:15 | 01:15:13 | 00:00:00 | |
| DM0DOS-11 | 2026-09-03 23:52:59 | 51.69203 | 15.21146 | 116° | 62km/h | 16415m | 4m/s | -53.9°C | 4.2% | 101.8hPa | 2.6V | 08:30:00 | 01:15:04 | 00:00:00 | |
| DF8AY | 2026-09-03 23:52:56 | 51.69189 | 15.21192 | 113° | 62km/h | 16424m | 5.1m/s | -53.9°C | 0.9% | 101.6hPa | 2.7V | 18:12:15 | 01:15:06 | 00:00:00 | |
| BIOWL1-15 | 2026-09-03 23:52:53 | 51.69210 | 15.21123 | 115° | 62km/h | 16410m | 5.1m/s | 0°C | 0% | 0hPa | 2.6V | 18:12:15 | 01:15:03 | 00:00:00 | |
| EDDB2-12 | 2026-09-03 23:52:51 | 51.69222 | 15.21078 | 114° | 60km/h | 16402m | 3.8m/s | -53.9°C | 1.4% | 102.0hPa | 2.6V | 00:00:00 | 00:00:00 | 00:00:00 | |
| 13BRC | 2026-09-03 23:52:50 | 51.69222 | 15.21078 | 115° | 60km/h | 16402m | 3.8m/s | -53.9°C | 1.4% | 102.0hPa | 2.6V | 00:00:00 | 00:00:00 | 00:00:00 | |
| DB0NH | 2026-09-03 23:52:49 | 51.69235 | 15.21034 | 117° | 62km/h | 16392m | 4.4m/s | -53.8°C | 4.2% | 102.1hPa | 2.6V | 00:00:00 | 01:14:59 | 00:00:00 | |
| DAC517 | 2026-09-03 23:52:48 | 51.69235 | 15.21034 | 117° | 60km/h | 16392m | 4.4m/s | -53.9°C | 1.4% | 102.1hPa | 2.6V | 00:00:00 | 00:00:00 | 00:00:00 | |
| DM0DOS-11 | 2026-09-03 23:52:46 | 51.69269 | 15.20922 | 118° | 62km/h | 16370m | 4.6m/s | -54°C | 4.2% | 102.5hPa | 2.6V | 08:30:00 | 01:14:54 | 00:00:00 | |
| DF8AY | 2026-09-03 23:52:45 | 51.69262 | 15.20944 | 116° | 62km/h | 16374m | 4.7m/s | -53.9°C | 0.9% | 102.4hPa | 2.6V | 18:12:15 | 01:14:55 | 00:00:00 | |
| DO3MHA-11 | 2026-09-03 23:52:43 | 51.69276 | 15.20899 | 120° | 62km/h | 16365m | 4.0m/s | -53.9°C | 4.3% | 102.5hPa | 2.6V | 00:00:00 | 01:14:53 | 00:00:00 | |
| KRY50SP-1 | 2026-09-03 23:52:42 | 51.69284 | 15.20877 | 119° | 62km/h | 16361m | 4.8m/s | -54.0°C | 1.5% | 102.6hPa | 2.6V | 00:00:00 | 00:00:00 | 00:00:00 | |
| S3001 | 2026-09-03 23:52:38 | 51.69321 | 15.20768 | 119° | 60km/h | 16339m | 4.0m/s | -53.9°C | 1.5% | 103.0hPa | 2.6V | 00:00:00 | 00:00:00 | 00:00:00 | |
| DM0DOS-11 | 2026-09-03 23:52:35 | 51.69342 | 15.20701 | 117° | 60km/h | 16325m | 5.1m/s | -53.9°C | 4.3% | 103.2hPa | 2.6V | 08:30:00 | 01:14:44 | 00:00:00 | |
| DF8AY | 2026-09-03 23:52:34 | 51.69342 | 15.20701 | 117° | 60km/h | 16325m | 5.1m/s | -53.9°C | 1% | 103.2hPa | 2.6V | 18:12:15 | 01:14:44 | 00:00:00 | |
| SP3BTT-10 | 2026-09-03 23:52:34 | 51.69342 | 15.20701 | 118° | 62km/h | 16326m | 5.1m/s | -53.8°C | 4.3% | 103.1hPa | 2.6V | 00:00:00 | 00:00:00 | 00:00:00 | |
| DO3MHA-11 | 2026-09-03 23:52:33 | 51.69349 | 15.20680 | 119° | 58km/h | 16321m | 4.6m/s | -53.8°C | 4.3% | 103.2hPa | 2.6V | 00:00:00 | 01:14:43 | 08:30:00 | |
| EDDB2-11 | 2026-09-03 23:52:32 | 51.69357 | 15.20658 | 117° | 58km/h | 16316m | 3.8m/s | -53.9°C | 1.5% | 103.3hPa | 2.6V | 00:00:00 | 00:00:00 | 00:00:00 | |
| KRY50SP-1 | 2026-09-03 23:52:31 | 51.69363 | 15.20636 | 117° | 60km/h | 16312m | 5.0m/s | -53.9°C | 1.5% | 103.4hPa | 2.6V | 00:00:00 | 00:00:00 | 00:00:00 | |
| 13BRC | 2026-09-03 23:52:29 | 51.69370 | 15.20614 | 116° | 60km/h | 16308m | 3.9m/s | -54.0°C | 1.5% | 103.5hPa | 2.6V | 00:00:00 | 00:00:00 | 00:00:00 | |
| DAC517 | 2026-09-03 23:52:28 | 51.69376 | 15.20592 | 117° | 58km/h | 16304m | 3.7m/s | -54.0°C | 1.5% | 103.5hPa | 2.6V | 00:00:00 | 00:00:00 | 00:00:00 | |
| DM0DOS-11 | 2026-09-03 23:52:25 | 51.69415 | 15.20492 | 123° | 64km/h | 16281m | 3.7m/s | -54°C | 4.2% | 103.9hPa | 2.6V | 08:30:00 | 01:14:34 | 00:00:00 | |
| DF8AY | 2026-09-03 23:52:24 | 51.69414 | 15.20492 | 123° | 64km/h | 16281m | 3.7m/s | -54°C | 1% | 103.9hPa | 2.6V | 18:12:15 | 01:14:34 | 00:00:00 | |
| DO3MHA-11 | 2026-09-03 23:52:23 | 51.69423 | 15.20470 | 125° | 69km/h | 16277m | 5.1m/s | -53.9°C | 4.2% | 104.0hPa | 2.6V | 00:00:00 | 01:14:33 | 00:00:00 | |
| EDDB2-12 | 2026-09-03 23:52:20 | 51.69461 | 15.20375 | 119° | 71km/h | 16256m | 5.9m/s | -53.8°C | 1.5% | 104.3hPa | 2.6V | 00:00:00 | 00:00:00 | 00:00:00 | |
| DB0NH | 2026-09-03 23:52:19 | 51.69461 | 15.20375 | 120° | 75km/h | 16256m | 5.9m/s | -53.8°C | 4.2% | 104.3hPa | 2.6V | 00:00:00 | 01:14:29 | 00:00:00 | |
| DL2RXE-15 | 2026-09-03 23:52:16 | 51.69478 | 15.20325 | 119° | 69km/h | 16248m | 4.5m/s | -53.8°C | 1.5% | 104.4hPa | 2.6V | 00:00:00 | 00:00:00 | 00:00:00 | |
| DM0DOS-11 | 2026-09-03 23:52:15 | 51.69504 | 15.20251 | 120° | 71km/h | 16232m | 4.2m/s | -53.9°C | 4.3% | 104.7hPa | 2.6V | 08:30:00 | 01:14:24 | 00:00:00 | |
| DF8AY | 2026-09-03 23:52:13 | 51.69513 | 15.20225 | 120° | 73km/h | 16227m | 6.4m/s | -54°C | 1% | 104.8hPa | 2.6V | 18:12:15 | 01:14:23 | 00:00:00 | |
| DO3MHA-11 | 2026-09-03 23:52:13 | 51.69513 | 15.20225 | 121° | 75km/h | 16228m | 6.3m/s | -54.0°C | 4.3% | 104.7hPa | 2.6V | 00:00:00 | 01:14:23 | 00:00:00 | |
| SP6BVK | 2026-09-03 23:52:11 | 51.69523 | 15.20199 | 121° | 77km/h | 16222m | 5.2m/s | -54.3°C | 1.5% | 104.9hPa | 2.6V | 00:00:00 | 00:00:00 | 00:00:00 | |
| 13BRC | 2026-09-03 23:52:09 | 51.69542 | 15.20145 | 122° | 75km/h | 16213m | 5.1m/s | -54.5°C | 1.6% | 105.0hPa | 2.6V | 00:00:00 | 00:00:00 | 00:00:00 | |
| DAC517 | 2026-09-03 23:52:07 | 51.69562 | 15.20096 | 127° | 71km/h | 16203m | 4.3m/s | -54.5°C | 1.6% | 105.2hPa | 2.6V | 00:00:00 | 00:00:00 | 00:00:00 | |
| DM0DOS-11 | 2026-09-03 23:52:05 | 51.69607 | 15.19996 | 122° | 82km/h | 16182m | 4.2m/s | -54.4°C | 4.4% | 105.5hPa | 2.6V | 08:30:00 | 01:14:14 | 00:00:00 | |
| DF8AY | 2026-09-03 23:52:02 | 51.69627 | 15.19938 | 117° | 80km/h | 16172m | 5.3m/s | -54.4°C | 1% | 105.7hPa | 2.7V | 18:12:15 | 01:14:12 | 00:00:00 | |
| EDDB2-11 | 2026-09-03 23:52:01 | 51.69645 | 15.19879 | 114° | 80km/h | 16163m | 5.6m/s | -54.4°C | 1.5% | 105.8hPa | 2.6V | 00:00:00 | 00:00:00 | 00:00:00 | |
| SP3WXH-11 | 2026-09-03 23:51:57 | 51.69670 | 15.19791 | 114° | 75km/h | 16149m | 4.9m/s | -54.3°C | 1.6% | 106.1hPa | 2.6V | 00:00:00 | 00:00:00 | 00:00:00 | |
| DM0DOS-11 | 2026-09-03 23:51:55 | 51.69693 | 15.19713 | 119° | 68km/h | 16134m | 5.1m/s | -54.2°C | 4.5% | 106.3hPa | 2.6V | 08:30:00 | 01:14:04 | 00:00:00 | |
| DF8AY | 2026-09-03 23:51:51 | 51.69722 | 15.19640 | 122° | 73km/h | 16120m | 5m/s | -54.2°C | 1.1% | 106.6hPa | 2.7V | 18:12:15 | 01:14:01 | 00:00:00 | |
| EDDB2-12 | 2026-09-03 23:51:49 | 51.69749 | 15.19560 | 116° | 75km/h | 16104m | 5.4m/s | -54.1°C | 1.5% | 106.8hPa | 2.7V | 00:00:00 | 00:00:00 | 00:00:00 | |
| DF8AY | 2026-09-03 23:51:41 | 51.69808 | 15.19371 | 115° | 68km/h | 16070m | 4.7m/s | -54°C | 1% | 107.4hPa | 2.7V | 18:12:15 | 01:13:51 | 00:00:00 | |
| OE3JTB-15 | 2026-09-03 23:51:37 | 51.69838 | 15.19278 | 118° | 57km/h | 16050m | 4.3m/s | -53.9°C | 4.3% | 107.7hPa | 2.6V | 00:00:00 | 01:13:47 | 00:00:00 | |
| KRY50SP-1 | 2026-09-03 23:51:36 | 51.69838 | 15.19278 | 119° | 64km/h | 16050m | 4.4m/s | -54.0°C | 1.5% | 107.7hPa | 2.6V | 00:00:00 | 00:00:00 | 00:00:00 | |
| DM0DOS-11 | 2026-09-03 23:51:35 | 51.69858 | 15.19207 | 114° | 66km/h | 16036m | 4.9m/s | -53.9°C | 4.3% | 108hPa | 2.6V | 08:30:00 | 01:13:44 | 00:00:00 | |
| DO3MHA-11 | 2026-09-03 23:51:33 | 51.69865 | 15.19182 | 116° | 60km/h | 16031m | 4.4m/s | -53.9°C | 4.4% | 108.0hPa | 2.6V | 00:00:00 | 01:13:43 | 00:00:00 | |
| SONDE2-11 | 2026-09-03 23:51:31 | 51.69879 | 15.19136 | 115° | 60km/h | 16022m | 6.1m/s | -54.0°C | 1.5% | 108.2hPa | 2.6V | 00:00:00 | 00:00:00 | 00:00:00 | |
| EDDB2-11 | 2026-09-03 23:51:30 | 51.69892 | 15.19092 | 116° | 57km/h | 16012m | 4.0m/s | -53.9°C | 1.5% | 108.3hPa | 2.6V | 00:00:00 | 00:00:00 | 00:00:00 | |
| DF8AY | 2026-09-03 23:51:30 | 51.69892 | 15.19092 | 117° | 58km/h | 16012m | 4m/s | -53.9°C | 1% | 108.3hPa | 2.6V | 18:12:15 | 01:13:39 | 00:00:00 | |
| 13BRC | 2026-09-03 23:51:28 | 51.69892 | 15.19092 | 118° | 58km/h | 16013m | 4.0m/s | -53.9°C | 1.5% | 108.4hPa | 2.6V | 00:00:00 | 00:00:00 | 00:00:00 | |
| DAC517 | 2026-09-03 23:51:27 | 51.69899 | 15.19071 | 121° | 58km/h | 16008m | 5.7m/s | -53.8°C | 1.5% | 108.4hPa | 2.6V | 00:00:00 | 00:00:00 | 00:00:00 | |
| DB0DAN | 2026-09-03 23:51:25 | 51.69921 | 15.19009 | 116° | 55km/h | 15993m | 5m/s | -53.7°C | 1.5% | 108.66hPa | 2.6V | 00:00:00 | 00:00:00 | 00:00:00 | |
| DM0DOS-11 | 2026-09-03 23:51:25 | 51.69927 | 15.18988 | 113° | 57km/h | 15988m | 4m/s | -53.7°C | 4.2% | 108.8hPa | 2.6V | 08:30:00 | 01:13:34 | 00:00:00 | |
| DF8AY | 2026-09-03 23:51:18 | 51.69958 | 15.18865 | 111° | 51km/h | 15961m | 4m/s | -53.5°C | 1% | 109.2hPa | 2.6V | 18:12:15 | 01:13:28 | 00:00:00 | |
| SONCRA | 2026-09-03 23:51:18 | 51.69958 | 15.18865 | 110° | 49km/h | 15961m | 4.0m/s | -53.5°C | 1.5% | 109.2hPa | 2.6V | 00:00:00 | 00:00:00 | 00:00:00 | |
| OK1SLM-15 | 2026-09-03 23:51:17 | 51.69958 | 15.18865 | 112° | 51km/h | 15961m | 4.0m/s | -53.5°C | 0% | 0hPa | 2.6V | 00:00:00 | 00:00:00 | 00:00:00 | |
| DM0DOS-11 | 2026-09-03 23:51:15 | 51.69982 | 15.18794 | 123° | 53km/h | 15945m | 4.2m/s | -53.5°C | 4.2% | 109.5hPa | 2.6V | 08:30:00 | 01:13:24 | 00:00:00 | |
| DF8AY | 2026-09-03 23:51:08 | 51.70025 | 15.18654 | 112° | 53km/h | 15915m | 3.8m/s | -54°C | 1% | 110hPa | 2.7V | 18:12:15 | 01:13:17 | 00:00:00 | |
| KRY50SP-1 | 2026-09-03 23:51:08 | 51.70020 | 15.18673 | 114° | 51km/h | 15919m | 3.9m/s | -54.0°C | 1.6% | 110.0hPa | 2.6V | 00:00:00 | 00:00:00 | 00:00:00 | |
| DAC517 | 2026-09-03 23:51:06 | 51.70025 | 15.18654 | 113° | 53km/h | 15915m | 3.8m/s | -54.0°C | 1.5% | 110.0hPa | 2.6V | 00:00:00 | 00:00:00 | 00:00:00 | |
| DM0DOS-11 | 2026-09-03 23:51:05 | 51.70039 | 15.18592 | 111° | 55km/h | 15902m | 3.7m/s | -54°C | 4.3% | 110.2hPa | 2.6V | 08:30:00 | 01:13:14 | 00:00:00 | |
| DF8AY | 2026-09-03 23:50:57 | 51.70087 | 15.18452 | 118° | 66km/h | 15867m | 5.1m/s | -54.2°C | 1% | 110.8hPa | 2.7V | 18:12:15 | 01:13:07 | 00:00:00 | |
| OK1SLM-15 | 2026-09-03 23:50:56 | 51.70087 | 15.18451 | 119° | 66km/h | 15867m | 5.1m/s | -54.2°C | 0% | 0hPa | 2.6V | 00:00:00 | 00:00:00 | 00:00:00 | |
| DM0DOS-11 | 2026-09-03 23:50:55 | 51.70111 | 15.18380 | 116° | 68km/h | 15851m | 4.8m/s | -54.3°C | 4.4% | 111.1hPa | 2.6V | 08:30:00 | 01:13:04 | 00:00:00 | |
| DF8AY | 2026-09-03 23:50:47 | 51.70164 | 15.18203 | 118° | 69km/h | 15821m | 4.4m/s | -54.1°C | 1% | 111.7hPa | 2.7V | 18:12:15 | 01:12:57 | 00:00:00 | |
| EDDB2-12 | 2026-09-03 23:50:47 | 51.70172 | 15.18178 | 118° | 68km/h | 15817m | 3.5m/s | -54.1°C | 1.6% | 111.7hPa | 2.6V | 00:00:00 | 00:00:00 | 00:00:00 | |
| 13BRC | 2026-09-03 23:50:46 | 51.70164 | 15.18202 | 119° | 69km/h | 15821m | 4.4m/s | -54.1°C | 1.6% | 111.7hPa | 2.6V | 00:00:00 | 00:00:00 | 00:00:00 | |
| DM0DOS-11 | 2026-09-03 23:50:45 | 51.70190 | 15.18129 | 121° | 71km/h | 15809m | 3.7m/s | -54°C | 4.4% | 111.9hPa | 2.6V | 08:30:00 | 01:12:54 | 00:00:00 | |
| DF8AY | 2026-09-03 23:50:36 | 51.70259 | 15.17927 | 121° | 68km/h | 15775m | 5.2m/s | -53.9°C | 1.1% | 112.5hPa | 2.7V | 18:12:15 | 01:12:46 | 00:00:00 | |
| DM0DOS-11 | 2026-09-03 23:50:35 | 51.70276 | 15.17880 | 119° | 66km/h | 15766m | 3.4m/s | -53.9°C | 4.4% | 112.6hPa | 2.6V | 08:30:00 | 01:12:44 | 00:00:00 | |
| KRY50SP-1 | 2026-09-03 23:50:34 | 51.70268 | 15.17904 | 120° | 66km/h | 15770m | 4.7m/s | -53.9°C | 1.5% | 112.5hPa | 2.7V | 00:00:00 | 00:00:00 | 00:00:00 | |
| DF8AY | 2026-09-03 23:50:25 | 51.70419 | 15.17455 | 118° | 62km/h | 15689m | 3.9m/s | -53.7°C | 1% | 114hPa | 2.7V | 18:12:15 | 01:12:26 | 00:00:00 | |
| DM0DOS-11 | 2026-09-03 23:50:25 | 51.70356 | 15.17642 | 116° | 66km/h | 15722m | 4.7m/s | -53.6°C | 4.3% | 113.4hPa | 2.6V | 08:30:00 | 01:12:34 | 00:00:00 | |
| SP3WXH-11 | 2026-09-03 23:50:24 | 51.70356 | 15.17642 | 116° | 66km/h | 15722m | 4.7m/s | -53.6°C | 1.6% | 113.4hPa | 2.6V | 00:00:00 | 00:00:00 | 00:00:00 | |
| KRY50SP-1 | 2026-09-03 23:50:23 | 51.70356 | 15.17642 | 117° | 66km/h | 15723m | 4.7m/s | -53.6°C | 1.6% | 113.4hPa | 2.6V | 00:00:00 | 00:00:00 | 00:00:00 | |
| DO3MHA-11 | 2026-09-03 23:50:22 | 51.70371 | 15.17593 | 116° | 64km/h | 15715m | 3.4m/s | -53.5°C | 4.3% | 113.5hPa | 2.6V | 00:00:00 | 01:12:32 | 00:00:00 | |
| NBG1-10 | 2026-09-03 23:50:20 | 51.70387 | 15.17544 | 121° | 68km/h | 15706m | 3.9m/s | -53.5°C | 4.3% | 113.6hPa | 2.6V | 00:00:00 | 01:12:30 | 00:00:00 | |
| DM0DOS-11 | 2026-09-03 23:50:19 | 51.70434 | 15.17410 | 117° | 64km/h | 15680m | 3.6m/s | -53.7°C | 4.3% | 114.1hPa | 2.6V | 08:30:00 | 01:12:24 | 00:00:00 | |
| DF8AY | 2026-09-03 23:50:10 | 51.70461 | 15.17324 | 119° | 55km/h | 15662m | 4.1m/s | -53.7°C | 1.1% | 114.4hPa | 2.6V | 18:12:15 | 01:12:20 | 00:00:00 | |
| OE3JTB-15 | 2026-09-03 23:50:10 | 51.70461 | 15.17324 | 119° | 60km/h | 15663m | 4.1m/s | -53.6°C | 4.3% | 114.4hPa | 2.6V | 00:00:00 | 01:12:20 | 00:00:00 | |
| DM0DOS-11 | 2026-09-03 23:50:09 | 51.70509 | 15.17209 | 124° | 57km/h | 15637m | 3.8m/s | -53.7°C | 4.2% | 114.9hPa | 2.6V | 08:30:00 | 01:12:14 | 00:00:00 | |
| AA1-15 | 2026-09-03 23:50:01 | 51.70535 | 15.17151 | 127° | 58km/h | 15623m | 3.9m/s | -53.8°C | 1.1% | 115.2hPa | 2.7V | 18:12:15 | 01:12:11 | 00:00:00 | |
| DM0DOS-11 | 2026-09-03 23:49:59 | 51.70598 | 15.17026 | 127° | 60km/h | 15592m | 5.1m/s | -54.2°C | 4.3% | 115.7hPa | 2.6V | 08:30:00 | 01:12:04 | 00:00:00 | |
| DF8AY | 2026-09-03 23:49:59 | 51.70598 | 15.17026 | 128° | 60km/h | 15592m | 5.1m/s | -54.2°C | 1.1% | 115.7hPa | 2.6V | 18:12:15 | 01:12:04 | 00:00:00 | |
| SONDE2-11 | 2026-09-03 23:49:58 | 51.70569 | 15.17082 | 130° | 55km/h | 15606m | 5.0m/s | -53.9°C | 1.6% | 115.4hPa | 2.6V | 00:00:00 | 00:00:00 | 00:00:00 | |
| EDDB2-11 | 2026-09-03 23:49:56 | 51.70579 | 15.17064 | 130° | 58km/h | 15601m | 4.4m/s | -53.9°C | 1.6% | 115.5hPa | 2.6V | 00:00:00 | 00:00:00 | 00:00:00 | |
| SP3WXH-11 | 2026-09-03 23:49:53 | 51.70607 | 15.17006 | 126° | 58km/h | 15588m | 3.8m/s | -54.2°C | 1.6% | 115.8hPa | 2.6V | 00:00:00 | 00:00:00 | 00:00:00 | |
| DO3MHA-11 | 2026-09-03 23:49:51 | 51.70627 | 15.16967 | 131° | 66km/h | 15580m | 4.9m/s | -54.2°C | 4.3% | 115.9hPa | 2.6V | 00:00:00 | 01:12:01 | 00:00:00 | |
| DM0DOS-11 | 2026-09-03 23:49:49 | 51.70702 | 15.16833 | 131° | 66km/h | 15549m | 4.6m/s | -54.4°C | 4.5% | 116.4hPa | 2.6V | 08:30:00 | 01:11:54 | 00:00:00 | |
| AA1-15 | 2026-09-03 23:49:48 | 51.70660 | 15.16910 | 134° | 62km/h | 15567m | 4.7m/s | -54.3°C | 1.1% | 116.1hPa | 2.6V | 18:12:15 | 01:11:58 | 00:00:00 | |
| DF8AY | 2026-09-03 23:49:43 | 51.70713 | 15.16813 | 133° | 68km/h | 15545m | 4m/s | -54.4°C | 1.3% | 116.5hPa | 2.6V | 18:12:15 | 01:11:53 | 00:00:00 | |
| AM1SDL-15 | 2026-09-03 23:49:43 | 51.70713 | 15.16813 | 134° | 69km/h | 15545m | 3.9m/s | -54.4°C | 4.5% | 116.5hPa | 2.7V | 00:00:00 | 01:11:53 | 00:00:00 | |
| DAC517 | 2026-09-03 23:49:42 | 51.70713 | 15.16813 | 134° | 68km/h | 15545m | 4.0m/s | -54.4°C | 1.7% | 116.5hPa | 2.7V | 00:00:00 | 00:00:00 | 00:00:00 | |
| OE3JTB-15 | 2026-09-03 23:49:41 | 51.70736 | 15.16772 | 132° | 71km/h | 15537m | 5.1m/s | -54.4°C | 4.5% | 116.6hPa | 2.7V | 00:00:00 | 00:00:00 | 00:00:00 | |
| DM0DOS-11 | 2026-09-03 23:49:39 | 51.70827 | 15.16584 | 126° | 73km/h | 15503m | 4.5m/s | -54.5°C | 4.5% | 117.3hPa | 2.6V | 08:30:00 | 01:11:43 | 00:00:00 | |
| AA1-15 | 2026-09-03 23:49:35 | 51.70816 | 15.16608 | 126° | 75km/h | 15507m | 3.8m/s | -54.5°C | 1.2% | 117.2hPa | 2.6V | 18:12:15 | 01:11:44 | 00:00:00 | |
| DF8AY | 2026-09-03 23:49:34 | 51.70827 | 15.16584 | 127° | 75km/h | 15503m | 4.5m/s | -54.5°C | 1.2% | 117.3hPa | 2.6V | 18:12:15 | 01:11:43 | 00:00:00 | |
| S3001 | 2026-09-03 23:49:32 | 51.70849 | 15.16537 | 128° | 71km/h | 15495m | 3.9m/s | -54.5°C | 1.7% | 117.4hPa | 2.6V | 00:00:00 | 00:00:00 | 00:00:00 | |
| DB0NH | 2026-09-03 23:49:29 | 51.70871 | 15.16492 | 128° | 71km/h | 15487m | 3.9m/s | -54.4°C | 4.6% | 117.6hPa | 2.6V | 00:00:00 | 01:11:39 | 00:00:00 | |
| DM0DOS-11 | 2026-09-03 23:49:28 | 51.70926 | 15.16378 | 125° | 73km/h | 15465m | 3.9m/s | -54.4°C | 4.5% | 118hPa | 2.6V | 08:30:00 | 01:11:34 | 00:00:00 | |
| AA1-15 | 2026-09-03 23:49:22 | 51.70948 | 15.16328 | 127° | 77km/h | 15456m | 4.2m/s | -54.4°C | 1.1% | 118.2hPa | 2.7V | 18:12:15 | 01:11:32 | 00:00:00 | |
| DO3MHA-11 | 2026-09-03 23:49:19 | 51.70981 | 15.16254 | 124° | 69km/h | 15444m | 4.1m/s | -54.7°C | 4.6% | 118.4hPa | 2.6V | 00:00:00 | 01:11:29 | 00:00:00 | |
| DM0DOS-11 | 2026-09-03 23:49:18 | 51.71030 | 15.16140 | 122° | 66km/h | 15423m | 4.5m/s | -54.7°C | 4.7% | 118.8hPa | 2.6V | 08:30:00 | 01:11:24 | 00:00:00 | |
| DF8AY | 2026-09-03 23:49:11 | 51.71057 | 15.16068 | 122° | 73km/h | 15411m | 4.2m/s | -54.6°C | 1.4% | 119hPa | 2.7V | 18:12:15 | 01:11:21 | 00:00:00 | |
| DB0DAN | 2026-09-03 23:49:10 | 51.71067 | 15.16043 | 123° | 73km/h | 15407m | 3.4m/s | -54.6°C | 1.7% | 119.11hPa | 2.6V | 00:00:00 | 00:00:00 | 00:00:00 | |
| AA1-15 | 2026-09-03 23:49:00 | 51.71167 | 15.15780 | 124° | 75km/h | 15366m | 4.5m/s | -54.4°C | 1.4% | 119.9hPa | 2.6V | 18:12:15 | 01:11:10 | 00:00:00 | |
| AA1-15 | 2026-09-03 23:48:50 | 51.71264 | 15.15537 | 121° | 66km/h | 15326m | 3.2m/s | -54.9°C | 1.4% | 120.6hPa | 2.6V | 18:12:15 | 01:11:00 | 00:00:00 | |
| DF8AY | 2026-09-03 23:48:50 | 51.71272 | 15.15515 | 122° | 64km/h | 15322m | 4.6m/s | -55°C | 1.4% | 120.7hPa | 2.6V | 18:12:15 | 01:10:59 | 00:00:00 | |
| AA1-15 | 2026-09-03 23:48:39 | 51.71373 | 15.15295 | 124° | 75km/h | 15281m | 4m/s | -55°C | 1.4% | 121.5hPa | 2.6V | 18:12:15 | 01:10:49 | 00:00:00 | |
| DF8AY | 2026-09-03 23:48:37 | 51.71395 | 15.15245 | 126° | 75km/h | 15272m | 3.7m/s | -55°C | 1.4% | 121.6hPa | 2.7V | 18:12:15 | 01:10:47 | 00:00:00 | |
| DM0DOS-11 | 2026-09-03 23:48:36 | 51.71426 | 15.15172 | 123° | 69km/h | 15260m | 4m/s | -55°C | 4.6% | 121.8hPa | 2.6V | 08:30:00 | 01:10:44 | 00:00:00 | |
| AA1-15 | 2026-09-03 23:48:29 | 51.71478 | 15.15065 | 130° | 68km/h | 15240m | 4.9m/s | -55.3°C | 1.5% | 122.2hPa | 2.6V | 18:12:15 | 01:10:39 | 00:00:00 | |
| DF8AY | 2026-09-03 23:48:27 | 51.71500 | 15.15021 | 129° | 73km/h | 15232m | 3.1m/s | -55.4°C | 1.6% | 122.4hPa | 2.7V | 18:12:15 | 01:10:37 | 00:00:00 | |
| DM0DOS-11 | 2026-09-03 23:48:26 | 51.71537 | 15.14951 | 128° | 78km/h | 15220m | 3.5m/s | -55.4°C | 4.9% | 122.6hPa | 2.6V | 08:30:00 | 01:10:34 | 00:00:00 | |
| AA1-15 | 2026-09-03 23:48:19 | 51.71603 | 15.14809 | 130° | 62km/h | 15196m | 2.1m/s | -55.4°C | 1.6% | 123.1hPa | 2.6V | 18:12:15 | 01:10:28 | 00:00:00 | |
| DF8AY | 2026-09-03 23:48:17 | 51.71613 | 15.14790 | 131° | 60km/h | 15194m | 3.4m/s | -55.4°C | 1.6% | 123.1hPa | 2.7V | 18:12:15 | 01:10:27 | 00:00:00 | |
| DL2RXE-15 | 2026-09-03 23:48:16 | 51.71613 | 15.14790 | 132° | 60km/h | 15194m | 3.4m/s | -55.4°C | 1.9% | 123.1hPa | 2.6V | 00:00:00 | 00:00:00 | 00:00:00 | |
| DM0DOS-11 | 2026-09-03 23:48:15 | 51.71644 | 15.14731 | 128° | 66km/h | 15181m | 4.3m/s | -55.7°C | 4.9% | 123.3hPa | 2.6V | 08:30:00 | 01:10:24 | 00:00:00 | |
| OE3JTB-15 | 2026-09-03 23:48:14 | 51.71644 | 15.14731 | 129° | 77km/h | 15181m | 4.3m/s | -55.7°C | 4.9% | 123.3hPa | 2.6V | 00:00:00 | 00:00:00 | 08:30:00 | |
| DB0DAN | 2026-09-03 23:48:10 | 51.71684 | 15.14637 | 119° | 71km/h | 15160m | 5.4m/s | -55.6°C | 1.9% | 123.78hPa | 2.6V | 00:00:00 | 00:00:00 | 00:00:00 | |
| DM0DOS-11 | 2026-09-03 23:48:09 | 51.71742 | 15.14469 | 119° | 77km/h | 15129m | 4.8m/s | -55.8°C | 4.9% | 124.4hPa | 2.6V | 08:30:00 | 01:10:14 | 00:00:00 | |
| AA1-15 | 2026-09-03 23:48:07 | 51.71714 | 15.14554 | 119° | 80km/h | 15143m | 4.2m/s | -55.7°C | 1.6% | 124.1hPa | 2.7V | 18:12:15 | 01:10:17 | 00:00:00 | |
| SP6BVK | 2026-09-03 23:48:05 | 51.71723 | 15.14525 | 119° | 80km/h | 15138m | 5.6m/s | -55.7°C | 2.0% | 124.2hPa | 2.6V | 00:00:00 | 00:00:00 | 00:00:00 | |
| DB0NH | 2026-09-03 23:48:04 | 51.71742 | 15.14469 | 120° | 78km/h | 15129m | 4.7m/s | -55.8°C | 4.9% | 124.3hPa | 2.6V | 00:00:00 | 01:10:14 | 00:00:00 | |
| SP3BTT-10 | 2026-09-03 23:48:03 | 51.71752 | 15.14442 | 121° | 77km/h | 15124m | 4.4m/s | -55.9°C | 5.0% | 124.4hPa | 2.6V | 00:00:00 | 00:00:00 | 00:00:00 | |
| DAC517 | 2026-09-03 23:48:01 | 51.71762 | 15.14415 | 122° | 75km/h | 15120m | 3.5m/s | -56.0°C | 2.0% | 124.5hPa | 2.6V | 00:00:00 | 00:00:00 | 00:00:00 | |
| KRY50SP-1 | 2026-09-03 23:47:59 | 51.71790 | 15.14334 | 120° | 78km/h | 15108m | 3.1m/s | -56.1°C | 2.1% | 124.8hPa | 2.6V | 00:00:00 | 00:00:00 | 00:00:00 | |
| DM0DOS-11 | 2026-09-03 23:47:58 | 51.71846 | 15.14198 | 124° | 80km/h | 15086m | 5.2m/s | -56.1°C | 5.1% | 125.2hPa | 2.6V | 08:30:00 | 01:10:04 | 00:00:00 | |
| AA1-15 | 2026-09-03 23:47:57 | 51.71811 | 15.14279 | 123° | 80km/h | 15099m | 4.8m/s | -56.1°C | 1.8% | 124.9hPa | 2.7V | 18:12:15 | 01:10:07 | 00:00:00 | |
| DB0DAN | 2026-09-03 23:47:55 | 51.71834 | 15.14225 | 125° | 78km/h | 15091m | 4.4m/s | -56.1°C | 2.1% | 125.1hPa | 2.6V | 00:00:00 | 00:00:00 | 00:00:00 | |
| SONDE2-11 | 2026-09-03 23:47:54 | 51.71857 | 15.14171 | 123° | 78km/h | 15081m | 4.1m/s | -56.2°C | 2.1% | 125.3hPa | 2.6V | 00:00:00 | 00:00:00 | 00:00:00 | |
| EDDB2-11 | 2026-09-03 23:47:52 | 51.71868 | 15.14144 | 123° | 78km/h | 15077m | 4.1m/s | -56.2°C | 2.1% | 125.4hPa | 2.6V | 00:00:00 | 00:00:00 | 00:00:00 | |
| SP3WXH-11 | 2026-09-03 23:47:49 | 51.71901 | 15.14067 | 123° | 73km/h | 15064m | 4.9m/s | -56.3°C | 2.1% | 125.6hPa | 2.6V | 00:00:00 | 00:00:00 | 00:00:00 | |
| DM0DOS-11 | 2026-09-03 23:47:48 | 51.71949 | 15.13942 | 122° | 75km/h | 15043m | 3.6m/s | -56.4°C | 5.2% | 126.1hPa | 2.6V | 08:30:00 | 01:09:54 | 00:00:00 | |
| AA1-15 | 2026-09-03 23:47:47 | 51.71929 | 15.13992 | 122° | 71km/h | 15051m | 4.7m/s | -56.3°C | 1.8% | 125.9hPa | 2.7V | 18:12:15 | 01:09:56 | 00:00:00 | |
| KRY50SP-1 | 2026-09-03 23:47:46 | 51.71920 | 15.14017 | 122° | 71km/h | 15056m | 3.6m/s | -56.3°C | 2.1% | 125.8hPa | 2.6V | 00:00:00 | 00:00:00 | 00:00:00 | |
| SP6BVK | 2026-09-03 23:47:45 | 51.71939 | 15.13967 | 124° | 73km/h | 15047m | 3.8m/s | -56.4°C | 2.1% | 126.0hPa | 2.6V | 00:00:00 | 00:00:00 | 00:00:00 | |
| DB0DAN | 2026-09-03 23:47:40 | 51.71989 | 15.13833 | 120° | 77km/h | 15025m | 4.6m/s | -56.5°C | 2.1% | 126.45hPa | 2.6V | 00:00:00 | 00:00:00 | 00:00:00 | |
| AM1SDL-15 | 2026-09-03 23:47:39 | 51.71999 | 15.13804 | 119° | 77km/h | 15022m | 3.5m/s | -56.5°C | 5.2% | 126.5hPa | 2.6V | 00:00:00 | 01:09:49 | 00:00:00 | |
| DM0DOS-11 | 2026-09-03 23:47:38 | 51.72043 | 15.13656 | 115° | 78km/h | 14999m | 4.5m/s | -56.4°C | 5.2% | 127hPa | 2.6V | 08:30:00 | 01:09:44 | 00:00:00 | |
| AA1-15 | 2026-09-03 23:47:36 | 51.72026 | 15.13715 | 114° | 80km/h | 15009m | 3.9m/s | -56.4°C | 1.8% | 126.8hPa | 2.7V | 18:12:15 | 01:09:46 | 00:00:00 | |
| DB0NH | 2026-09-03 23:47:34 | 51.72043 | 15.13656 | 116° | 77km/h | 15000m | 4.5m/s | -56.3°C | 5.2% | 126.9hPa | 2.6V | 00:00:00 | 01:09:44 | 00:00:00 | |
| OK1SLM-15 | 2026-09-03 23:47:33 | 51.72043 | 15.13656 | 117° | 78km/h | 15000m | 4.5m/s | 0°C | 0% | 0hPa | 2.6V | 00:00:00 | 00:00:00 | 00:00:00 | |
| KRY50SP-1 | 2026-09-03 23:47:29 | 51.72077 | 15.13545 | 119° | 75km/h | 14982m | 4.8m/s | -56.3°C | 2.1% | 127.3hPa | 2.6V | 00:00:00 | 00:00:00 | 00:00:00 | |
| DM0DOS-11 | 2026-09-03 23:47:28 | 51.72131 | 15.13382 | 117° | 77km/h | 14956m | 5.3m/s | -56.4°C | 5.2% | 127.8hPa | 2.6V | 08:30:00 | 01:09:34 | 00:00:00 | |
| AA1-15 | 2026-09-03 23:47:26 | 51.72122 | 15.13410 | 117° | 77km/h | 14960m | 3.4m/s | -56.4°C | 1.8% | 127.7hPa | 2.6V | 18:12:15 | 01:09:35 | 00:00:00 | |
| DF8AY | 2026-09-03 23:47:25 | 51.72131 | 15.13382 | 117° | 77km/h | 14956m | 5.3m/s | -56.4°C | 1.9% | 127.8hPa | 2.6V | 18:12:15 | 01:09:34 | 00:00:00 | |
| DB0DAN | 2026-09-03 23:47:25 | 51.72122 | 15.13410 | 116° | 73km/h | 14960m | 3.4m/s | -56.4°C | 2.1% | 127.73hPa | 2.6V | 00:00:00 | 00:00:00 | 00:00:00 | |
| BIOWL1-15 | 2026-09-03 23:47:19 | 51.72230 | 15.13077 | 120° | 82km/h | 14910m | 5.3m/s | -56.7°C | 1.9% | 128.8hPa | 2.6V | 18:12:15 | 01:09:23 | 00:00:00 | |
| SP3WXH-11 | 2026-09-03 23:47:18 | 51.72183 | 15.13217 | 116° | 75km/h | 14931m | 4.9m/s | -56.8°C | 2.1% | 128.3hPa | 2.6V | 00:00:00 | 00:00:00 | 00:00:00 | |
| DM0DOS-11 | 2026-09-03 23:47:17 | 51.72219 | 15.13106 | 119° | 78km/h | 14914m | 4m/s | -56.7°C | 5.2% | 128.7hPa | 2.6V | 08:30:00 | 01:09:24 | 00:00:00 | |
| AA1-15 | 2026-09-03 23:47:14 | 51.72220 | 15.13106 | 120° | 80km/h | 14914m | 4m/s | -56.7°C | 1.9% | 128.7hPa | 2.6V | 18:12:15 | 01:09:24 | 00:00:00 | |
| DF8AY | 2026-09-03 23:47:12 | 51.72240 | 15.13048 | 120° | 84km/h | 14905m | 4.2m/s | -56.7°C | 1.9% | 128.8hPa | 2.8V | 18:12:15 | 01:09:22 | 00:00:00 | |
| DB0DAN | 2026-09-03 23:47:10 | 51.72261 | 15.12989 | 120° | 78km/h | 14898m | 4.7m/s | -56.7°C | 2.1% | 129hPa | 2.6V | 00:00:00 | 00:00:00 | 00:00:00 | |
| SONCRA | 2026-09-03 23:47:10 | 51.72272 | 15.12961 | 120° | 77km/h | 14893m | 4.7m/s | -56.7°C | 2.1% | 129.1hPa | 2.6V | 00:00:00 | 00:00:00 | 00:00:00 | |
| EDDB2-12 | 2026-09-03 23:47:09 | 51.72272 | 15.12961 | 120° | 77km/h | 14893m | 4.7m/s | -56.7°C | 2.1% | 129.1hPa | 2.6V | 00:00:00 | 00:00:00 | 00:00:00 | |
| DM0DOS-11 | 2026-09-03 23:47:07 | 51.72322 | 15.12832 | 122° | 77km/h | 14872m | 3.4m/s | -56.6°C | 5.3% | 129.5hPa | 2.6V | 08:30:00 | 01:09:14 | 00:00:00 | |
| AA1-15 | 2026-09-03 23:47:04 | 51.72332 | 15.12806 | 122° | 77km/h | 14868m | 4m/s | -56.6°C | 1.9% | 129.6hPa | 2.7V | 18:12:15 | 01:09:13 | 00:00:00 | |
| DF8AY | 2026-09-03 23:47:02 | 51.72342 | 15.12779 | 122° | 77km/h | 14864m | 4.6m/s | -56.6°C | 1.9% | 129.7hPa | 2.8V | 18:12:15 | 01:09:12 | 00:00:00 | |
| DF8AY | 2026-09-03 23:46:52 | 51.72437 | 15.12513 | 118° | 77km/h | 14822m | 3.9m/s | -56.6°C | 1.9% | 130.5hPa | 2.8V | 18:12:15 | 01:09:02 | 00:00:00 | |
| BIOWL1-15 | 2026-09-03 23:46:52 | 51.72474 | 15.12406 | 121° | 77km/h | 14805m | 4.5m/s | -56.7°C | 1.9% | 130.9hPa | 2.6V | 18:12:15 | 01:08:58 | 00:00:00 | |
| AA1-15 | 2026-09-03 23:46:50 | 51.72455 | 15.12459 | 119° | 75km/h | 14813m | 3.9m/s | -56.7°C | 1.9% | 130.7hPa | 2.6V | 18:12:15 | 01:09:00 | 00:00:00 | |
| SP3WXH-11 | 2026-09-03 23:46:47 | 51.72484 | 15.12380 | 121° | 75km/h | 14800m | 4.1m/s | -56.6°C | 2.1% | 131.0hPa | 2.7V | 00:00:00 | 00:00:00 | 00:00:00 | |
| BIOWL1-15 | 2026-09-03 23:46:43 | 51.72547 | 15.12232 | 124° | 75km/h | 14775m | 4.7m/s | -56.7°C | 1.9% | 131.5hPa | 2.7V | 18:12:15 | 01:08:51 | 00:00:00 | |
| AA1-15 | 2026-09-03 23:46:39 | 51.72567 | 15.12182 | 122° | 73km/h | 14767m | 3.3m/s | -56.7°C | 2% | 131.7hPa | 2.7V | 18:12:15 | 01:08:49 | 00:00:00 | |
| EDDB2-12 | 2026-09-03 23:46:38 | 51.72577 | 15.12156 | 123° | 73km/h | 14763m | 4.0m/s | -56.6°C | 2.2% | 131.8hPa | 2.7V | 00:00:00 | 00:00:00 | 00:00:00 | |
| DM0DOS-11 | 2026-09-03 23:46:37 | 51.72622 | 15.12056 | 125° | 77km/h | 14746m | 4.9m/s | -56.5°C | 5.4% | 132.1hPa | 2.7V | 08:30:00 | 01:08:44 | 00:00:00 | |
| BIOWL1-15 | 2026-09-03 23:46:31 | 51.72654 | 15.11978 | 123° | 77km/h | 14733m | 4.4m/s | -56.4°C | 2% | 132.4hPa | 2.6V | 18:12:15 | 01:08:41 | 00:00:00 | |
| DF8AY | 2026-09-03 23:46:30 | 51.72664 | 15.11952 | 124° | 78km/h | 14729m | 4.3m/s | -56.4°C | 1.9% | 132.4hPa | 2.8V | 18:12:15 | 01:08:40 | 00:00:00 | |
| AA1-15 | 2026-09-03 23:46:29 | 51.72676 | 15.11925 | 123° | 80km/h | 14725m | 3.7m/s | -56.4°C | 2% | 132.6hPa | 2.7V | 18:12:15 | 01:08:39 | 00:00:00 | |
| BIOWL1-15 | 2026-09-03 23:46:20 | 51.72779 | 15.11686 | 127° | 77km/h | 14685m | 5.1m/s | -56.1°C | 2% | 133.3hPa | 2.7V | 18:12:15 | 01:08:30 | 00:00:00 | |
| AA1-15 | 2026-09-03 23:46:17 | 51.72813 | 15.11613 | 126° | 73km/h | 14672m | 4.7m/s | -56°C | 1.9% | 133.7hPa | 2.7V | 18:12:15 | 01:08:27 | 00:00:00 | |
| DF8AY | 2026-09-03 23:46:10 | 51.72895 | 15.11442 | 127° | 80km/h | 14641m | 4.1m/s | -55.8°C | 2% | 134.3hPa | 2.7V | 18:12:15 | 01:08:20 | 00:00:00 | |
| BIOWL1-15 | 2026-09-03 23:46:10 | 51.72908 | 15.11416 | 128° | 80km/h | 14636m | 5.3m/s | -55.8°C | 1.9% | 134.4hPa | 2.7V | 18:12:15 | 01:08:19 | 00:00:00 | |
| DF8AY | 2026-09-03 23:45:59 | 51.73034 | 15.11170 | 128° | 78km/h | 14592m | 4.1m/s | -55.6°C | 1.9% | 135.3hPa | 2.7V | 18:12:15 | 01:08:09 | 00:00:00 | |
| BIOWL1-15 | 2026-09-03 23:45:59 | 51.73072 | 15.11091 | 128° | 86km/h | 14578m | 4.5m/s | -55.7°C | 2% | 135.6hPa | 2.8V | 18:12:15 | 01:08:06 | 00:00:00 | |
| DB0DAN | 2026-09-03 23:45:55 | 51.73086 | 15.11063 | 127° | 84km/h | 14573m | 4.8m/s | -55.7°C | 2.2% | 135.72hPa | 2.7V | 00:00:00 | 00:00:00 | 00:00:00 | |
| DF8AY | 2026-09-03 23:45:49 | 51.73169 | 15.10901 | 131° | 82km/h | 14548m | 4.4m/s | -55.8°C | 2% | 136.3hPa | 2.6V | 18:12:15 | 01:07:59 | 00:00:00 | |
| BIOWL1-15 | 2026-09-03 23:45:45 | 51.73223 | 15.10797 | 128° | 84km/h | 14532m | 3.4m/s | -55.7°C | 2.1% | 136.6hPa | 2.7V | 18:12:15 | 01:07:55 | 00:00:00 | |
| SP3WXH-11 | 2026-09-03 23:45:45 | 51.73223 | 15.10797 | 128° | 84km/h | 14532m | 3.4m/s | -55.7°C | 2.3% | 136.6hPa | 2.8V | 00:00:00 | 00:00:00 | 00:00:00 | |
| KRY50SP-1 | 2026-09-03 23:45:44 | 51.73223 | 15.10797 | 129° | 84km/h | 14532m | 3.4m/s | -55.7°C | 2.3% | 136.6hPa | 2.8V | 00:00:00 | 00:00:00 | 00:00:00 | |
| DB0DAN | 2026-09-03 23:45:40 | 51.73284 | 15.10654 | 125° | 84km/h | 14511m | 4.6m/s | -55.5°C | 2.3% | 137.09hPa | 2.8V | 00:00:00 | 00:00:00 | 00:00:00 | |
| DF8AY | 2026-09-03 23:45:38 | 51.73310 | 15.10598 | 128° | 84km/h | 14502m | 4.9m/s | -55.4°C | 2.1% | 137.3hPa | 2.8V | 18:12:15 | 01:07:48 | 00:00:00 | |
| DM0DOS-11 | 2026-09-03 23:45:38 | 51.73377 | 15.10468 | 130° | 86km/h | 14481m | 3.6m/s | -55.2°C | 5.2% | 137.8hPa | 2.8V | 00:00:00 | 01:07:43 | 00:00:00 | |
| BIOWL1-15 | 2026-09-03 23:45:34 | 51.73363 | 15.10495 | 130° | 84km/h | 14485m | 4.7m/s | -55.3°C | 2.1% | 137.6hPa | 2.8V | 18:12:15 | 01:07:44 | 00:00:00 | |
| DF8AY | 2026-09-03 23:45:28 | 51.73444 | 15.10329 | 127° | 88km/h | 14459m | 3.9m/s | -55.2°C | 2.1% | 138.2hPa | 2.8V | 18:12:15 | 01:07:38 | 00:00:00 | |
| KRY50SP-1 | 2026-09-03 23:45:27 | 51.73443 | 15.10329 | 128° | 88km/h | 14459m | 3.9m/s | -55.2°C | 2.3% | 138.2hPa | 2.7V | 00:00:00 | 00:00:00 | 00:00:00 | |
| DB0DAN | 2026-09-03 23:45:25 | 51.73483 | 15.10249 | 130° | 73km/h | 14445m | 4.5m/s | -55.2°C | 2.3% | 138.5hPa | 2.7V | 00:00:00 | 00:00:00 | 00:00:00 | |
| BIOWL1-15 | 2026-09-03 23:45:23 | 51.73594 | 15.10032 | 131° | 80km/h | 14408m | 3.9m/s | -55.5°C | 2.2% | 139.3hPa | 2.8V | 18:12:15 | 01:07:26 | 00:00:00 | |
| DF8AY | 2026-09-03 23:45:17 | 51.73692 | 15.09818 | 123° | 82km/h | 14375m | 4.6m/s | -55.8°C | 2.3% | 140.1hPa | 2.7V | 18:12:15 | 01:07:18 | 00:00:00 | |
| DM0DOS-11 | 2026-09-03 23:45:16 | 51.73633 | 15.09955 | 125° | 82km/h | 14396m | 3.5m/s | -55.7°C | 5.3% | 139.6hPa | 2.7V | 00:00:00 | 01:07:23 | 00:00:00 | |
| BIOWL1-15 | 2026-09-03 23:45:13 | 51.73633 | 15.09955 | 126° | 82km/h | 14396m | 3.5m/s | -55.7°C | 2.3% | 139.6hPa | 2.7V | 18:12:15 | 01:07:23 | 00:00:00 | |
| DB0DAN | 2026-09-03 23:45:10 | 51.73669 | 15.09873 | 125° | 78km/h | 14383m | 3.5m/s | -55.8°C | 2.3% | 139.88hPa | 2.7V | 00:00:00 | 00:00:00 | 00:00:00 | |
| DM0DOS-11 | 2026-09-03 23:45:08 | 51.73756 | 15.09673 | 126° | 93km/h | 14353m | 5m/s | 0°C | 0% | 0hPa | 2.7V | 00:00:00 | 01:07:13 | 00:00:00 | |
| BIOWL1-15 | 2026-09-03 23:45:03 | 51.73756 | 15.09673 | 127° | 93km/h | 14353m | 5m/s | -55.9°C | 2.3% | 140.5hPa | 2.7V | 18:12:15 | 01:07:13 | 00:00:00 | |
| DF8AY | 2026-09-03 23:45:02 | 51.73770 | 15.09642 | 126° | 93km/h | 14349m | 3.8m/s | -56°C | 2.3% | 140.6hPa | 2.7V | 18:12:15 | 01:07:12 | 00:00:00 | |
| AA1-15 | 2026-09-03 23:45:00 | 51.73799 | 15.09582 | 128° | 93km/h | 14341m | 4.8m/s | -56.1°C | 2.3% | 140.8hPa | 2.8V | 18:12:15 | 01:07:10 | 00:00:00 | |
| DM0DOS-11 | 2026-09-03 23:44:58 | 51.73888 | 15.09380 | 124° | 84km/h | 14309m | 4.4m/s | 0°C | 0% | 0hPa | 2.7V | 00:00:00 | 01:07:03 | 00:00:00 | |
| BIOWL1-15 | 2026-09-03 23:44:52 | 51.73899 | 15.09352 | 123° | 84km/h | 14305m | 5m/s | -56.8°C | 2.4% | 141.6hPa | 2.7V | 18:12:15 | 01:07:02 | 00:00:00 | |
| DF8AY | 2026-09-03 23:44:51 | 51.73911 | 15.09323 | 124° | 86km/h | 14300m | 3.3m/s | -56.9°C | 2.4% | 141.7hPa | 2.7V | 18:12:15 | 01:07:01 | 00:00:00 | |
| OE3JTB-15 | 2026-09-03 23:44:51 | 51.73911 | 15.09323 | 125° | 148km/h | 14301m | 3.3m/s | 0°C | 0% | 0hPa | 2.7V | 00:00:00 | 00:00:00 | 00:00:00 | |
| KRY50SP-1 | 2026-09-03 23:44:49 | 51.73923 | 15.09295 | 127° | 86km/h | 14296m | 5.1m/s | -56.9°C | 2.4% | 141.8hPa | 2.7V | 00:00:00 | 00:00:00 | 00:00:00 | |
| DM0DOS-11 | 2026-09-03 23:44:48 | 51.74017 | 15.09106 | 129° | 82km/h | 14267m | 4.4m/s | 0°C | 0% | 0hPa | 2.7V | 00:00:00 | 01:06:53 | 00:00:00 | |
| SONDE2-11 | 2026-09-03 23:44:47 | 51.73964 | 15.09211 | 128° | 86km/h | 14284m | 4.3m/s | -57.2°C | 2.6% | 142.1hPa | 2.8V | 00:00:00 | 00:00:00 | 00:00:00 | |
| EDDB2-11 | 2026-09-03 23:44:46 | 51.73977 | 15.09184 | 127° | 84km/h | 14280m | 3.4m/s | -57.3°C | 2.6% | 142.2hPa | 2.8V | 00:00:00 | 00:00:00 | 00:00:00 | |
| BIOWL1-15 | 2026-09-03 23:44:41 | 51.74044 | 15.09053 | 129° | 86km/h | 14258m | 3.4m/s | -57.5°C | 2.6% | 142.6hPa | 2.8V | 18:12:15 | 01:06:51 | 00:00:00 | |
| DF8AY | 2026-09-03 23:44:35 | 51.74185 | 15.08734 | 126° | 82km/h | 14212m | 4.5m/s | -57.2°C | 2.6% | 143.6hPa | 2.7V | 18:12:15 | 01:06:40 | 00:00:00 | |
| BIOWL1-15 | 2026-09-03 23:44:30 | 51.74237 | 15.08637 | 136° | 82km/h | 14193m | 4m/s | -57.1°C | 2.6% | 144.1hPa | 2.7V | 18:12:15 | 01:06:36 | 00:00:00 | |
| KRY50SP-1 | 2026-09-03 23:44:27 | 51.74209 | 15.08684 | 132° | 77km/h | 14202m | 4.2m/s | -57.1°C | 2.7% | 143.9hPa | 2.8V | 00:00:00 | 00:00:00 | 00:00:00 | |
| DM0DOS-11 | 2026-09-03 23:44:26 | 51.74281 | 15.08564 | 132° | 86km/h | 14180m | 4.8m/s | 0°C | 0% | 0hPa | 2.8V | 00:00:00 | 01:06:33 | 00:00:00 | |
| BIOWL1-15 | 2026-09-03 23:44:19 | 51.74370 | 15.08403 | 134° | 86km/h | 14154m | 4.6m/s | -56.8°C | 2.6% | 145hPa | 2.7V | 18:12:15 | 01:06:27 | 00:00:00 | |
| DF8AY | 2026-09-03 23:44:18 | 51.74355 | 15.08429 | 133° | 89km/h | 14158m | 3.9m/s | -56.8°C | 2.6% | 144.9hPa | 2.8V | 18:12:15 | 01:06:28 | 00:00:00 | |
| BIOWL1-15 | 2026-09-03 23:44:07 | 51.74517 | 15.08148 | 133° | 89km/h | 14107m | 4.1m/s | -56.4°C | 2.7% | 146.1hPa | 2.7V | 18:12:15 | 01:06:17 | 00:00:00 | |
| BIOWL1-15 | 2026-09-03 23:43:56 | 51.74693 | 15.07847 | 140° | 93km/h | 14056m | 4.7m/s | -56.5°C | 2.8% | 147.3hPa | 2.8V | 18:12:15 | 01:06:06 | 00:00:00 | |
| DF8AY | 2026-09-03 23:43:53 | 51.74829 | 15.07636 | 130° | 97km/h | 14020m | 4.5m/s | -56.6°C | 3.1% | 148.1hPa | 2.8V | 18:12:15 | 01:05:58 | 00:00:00 | |
| BIOWL1-15 | 2026-09-03 23:43:45 | 51.74880 | 15.07546 | 133° | 100km/h | 14006m | 4.9m/s | -56.5°C | 3.2% | 148.4hPa | 2.7V | 18:12:15 | 01:05:55 | 00:00:00 | |
| DF8AY | 2026-09-03 23:43:42 | 51.74931 | 15.07457 | 132° | 97km/h | 13992m | 4.8m/s | -56.4°C | 3.2% | 148.8hPa | 2.8V | 18:12:15 | 01:05:52 | 00:00:00 | |
| BIOWL1-15 | 2026-09-03 23:43:34 | 51.75097 | 15.07176 | 135° | 95km/h | 13948m | 4.6m/s | -56.7°C | 3.7% | 149.8hPa | 2.7V | 18:12:15 | 01:05:42 | 00:00:00 | |
| BIOWL1-15 | 2026-09-03 23:43:24 | 51.75234 | 15.06944 | 132° | 95km/h | 13916m | 4.6m/s | -57°C | 4.2% | 150.5hPa | 2.7V | 18:12:15 | 01:05:34 | 00:00:00 | |
| DF8AY | 2026-09-03 23:43:15 | 51.75384 | 15.06692 | 134° | 99km/h | 13879m | 4.5m/s | -57.8°C | 4.7% | 151.4hPa | 2.8V | 18:12:15 | 01:05:25 | 00:00:00 | |
| BIOWL1-15 | 2026-09-03 23:43:13 | 51.75419 | 15.06634 | 133° | 100km/h | 13871m | 3.8m/s | -57.9°C | 5% | 151.6hPa | 2.8V | 18:12:15 | 01:05:23 | 00:00:00 | |
| 13BRC | 2026-09-03 23:43:12 | 51.75418 | 15.06634 | 133° | 100km/h | 13872m | 3.8m/s | -57.9°C | 3.9% | 151.6hPa | 2.7V | 00:00:00 | 00:00:00 | 00:00:00 | |
| DB0DAN | 2026-09-03 23:43:10 | 51.75471 | 15.06537 | 131° | 106km/h | 13858m | 4.5m/s | -58.1°C | 4.1% | 151.94hPa | 2.7V | 00:00:00 | 00:00:00 | 00:00:00 | |
| DF8AY | 2026-09-03 23:43:05 | 51.75566 | 15.06364 | 130° | 113km/h | 13835m | 4.4m/s | -58.4°C | 5.7% | 152.5hPa | 2.7V | 18:12:15 | 01:05:15 | 00:00:00 | |
| BIOWL1-15 | 2026-09-03 23:43:04 | 51.75622 | 15.06258 | 130° | 113km/h | 13823m | 3.7m/s | -58.4°C | 5.8% | 152.8hPa | 2.7V | 18:12:15 | 01:05:12 | 00:00:00 | |
| AA1-15 | 2026-09-03 23:43:03 | 51.75604 | 15.06293 | 131° | 115km/h | 13827m | 4.6m/s | -58.4°C | 5.8% | 152.7hPa | 2.7V | 18:12:15 | 01:05:13 | 00:00:00 | |
| EDDB2-12 | 2026-09-03 23:43:01 | 51.75641 | 15.06222 | 129° | 115km/h | 13819m | 5.0m/s | -58.5°C | 4.5% | 152.9hPa | 2.7V | 00:00:00 | 00:00:00 | 00:00:00 | |
| SP3BTT-10 | 2026-09-03 23:43:00 | 51.75659 | 15.06185 | 129° | 111km/h | 13814m | 4.2m/s | -58.6°C | 8.3% | 153.0hPa | 2.7V | 00:00:00 | 00:00:00 | 00:00:00 | |
| KRY50SP-1 | 2026-09-03 23:42:58 | 51.75677 | 15.06149 | 129° | 115km/h | 13811m | 2.6m/s | -58.7°C | 4.7% | 153.1hPa | 2.7V | 00:00:00 | 00:00:00 | 00:00:00 | |
| SP6BVK | 2026-09-03 23:42:57 | 51.75695 | 15.06112 | 129° | 113km/h | 13808m | 4.7m/s | -58.7°C | 4.8% | 153.2hPa | 2.7V | 00:00:00 | 00:00:00 | 00:00:00 | |
| DB0DAN | 2026-09-03 23:42:55 | 51.75746 | 15.06005 | 127° | 104km/h | 13795m | 5.1m/s | -58.9°C | 5% | 153.53hPa | 2.7V | 00:00:00 | 00:00:00 | 00:00:00 | |
| DF8AY | 2026-09-03 23:42:54 | 51.75763 | 15.05969 | 127° | 111km/h | 13790m | 3.8m/s | -59°C | 6.6% | 153.7hPa | 2.8V | 18:12:15 | 01:05:04 | 00:00:00 | |
| BIOWL1-15 | 2026-09-03 23:42:52 | 51.75796 | 15.05898 | 128° | 110km/h | 13782m | 5.2m/s | -59.1°C | 6.9% | 153.8hPa | 2.8V | 18:12:15 | 01:05:02 | 00:00:00 | |
| S3001 | 2026-09-03 23:42:48 | 51.75867 | 15.05758 | 130° | 110km/h | 13764m | 5.0m/s | -59.4°C | 5.7% | 154.2hPa | 2.7V | 00:00:00 | 00:00:00 | 00:00:00 | |
| BIOWL9-15 | 2026-09-03 23:42:46 | 51.75904 | 15.05692 | 132° | 106km/h | 13755m | 3.4m/s | -59.5°C | 5.8% | 154.5hPa | 2.7V | 00:00:00 | 00:00:00 | 00:00:00 | |
| DF8AY | 2026-09-03 23:42:44 | 51.75939 | 15.05626 | 128° | 106km/h | 13746m | 4.1m/s | -59.5°C | 7.8% | 154.7hPa | 2.7V | 18:12:15 | 01:04:54 | 00:00:00 | |
| BIOWL1-15 | 2026-09-03 23:42:42 | 51.75969 | 15.05557 | 124° | 104km/h | 13739m | 4.4m/s | -59.5°C | 7.9% | 154.8hPa | 2.7V | 18:12:15 | 01:04:52 | 00:00:00 | |
| DF8AY | 2026-09-03 23:42:33 | 51.76114 | 15.05280 | 136° | 99km/h | 13698m | 4.7m/s | -59.7°C | 9.2% | 155.8hPa | 2.8V | 18:12:15 | 01:04:43 | 00:00:00 | |
| BIOWL1-15 | 2026-09-03 23:42:32 | 51.76150 | 15.05221 | 133° | 102km/h | 13690m | 4.8m/s | -59.7°C | 9.4% | 156.1hPa | 2.7V | 18:12:15 | 01:04:41 | 00:00:00 | |
| AA1-15 | 2026-09-03 23:42:24 | 51.76274 | 15.05014 | 139° | 104km/h | 13659m | 6.4m/s | -59.7°C | 10.7% | 156.8hPa | 2.8V | 18:12:15 | 01:04:34 | 00:00:00 | |
| DF8AY | 2026-09-03 23:42:23 | 51.76295 | 15.04986 | 140° | 110km/h | 13653m | 4.5m/s | -59.6°C | 10.9% | 157hPa | 2.7V | 18:12:15 | 01:04:33 | 00:00:00 | |
| BIOWL1-15 | 2026-09-03 23:42:21 | 51.76337 | 15.04929 | 141° | 108km/h | 13644m | 7.2m/s | -59.6°C | 11.1% | 157.2hPa | 2.7V | 18:12:15 | 01:04:31 | 00:00:00 | |
| DF8AY | 2026-09-03 23:42:13 | 51.76488 | 15.04704 | 138° | 102km/h | 13603m | 5.1m/s | -59.4°C | 12.5% | 0hPa | 2.8V | 18:12:15 | 01:04:23 | 00:00:00 | |
| BIOWL1-15 | 2026-09-03 23:42:10 | 51.76549 | 15.04615 | 137° | 115km/h | 13588m | 5.1m/s | -59.3°C | 13.2% | 158.6hPa | 2.7V | 18:12:15 | 01:04:20 | 00:00:00 | |
| DF8AY | 2026-09-03 23:42:03 | 51.76699 | 15.04408 | 140° | 108km/h | 13554m | 4.9m/s | -59.7°C | 14.6% | 0hPa | 2.7V | 18:12:15 | 01:04:13 | 00:00:00 | |
| BIOWL1-15 | 2026-09-03 23:41:59 | 51.76786 | 15.04294 | 140° | 117km/h | 13536m | 6.8m/s | -59.9°C | 15.5% | 159.9hPa | 2.7V | 18:12:15 | 01:04:09 | 00:00:00 | |
| EDDB2-12 | 2026-09-03 23:41:59 | 51.76809 | 15.04263 | 138° | 119km/h | 13531m | 5.3m/s | -59.9°C | 11.2% | 160.0hPa | 2.8V | 00:00:00 | 00:00:00 | 00:00:00 | |
| KRY50SP-1 | 2026-09-03 23:41:57 | 51.76808 | 15.04262 | 139° | 119km/h | 13531m | 5.3m/s | -59.9°C | 11.2% | 160.0hPa | 2.8V | 00:00:00 | 00:00:00 | 00:00:00 | |
| DB0DAN | 2026-09-03 23:41:55 | 51.76878 | 15.04166 | 139° | 115km/h | 13517m | 3.9m/s | -60.2°C | 12.1% | 160.44hPa | 2.8V | 00:00:00 | 00:00:00 | 00:00:00 | |
| DF8AY | 2026-09-03 23:41:52 | 51.76948 | 15.04068 | 140° | 124km/h | 13504m | 3.8m/s | -60.7°C | 17% | 0hPa | 2.7V | 18:12:15 | 01:04:02 | 00:00:00 | |
| BIOWL1-15 | 2026-09-03 23:41:48 | 51.77073 | 15.03914 | 143° | 128km/h | 13481m | 3.9m/s | -60.8°C | 17.1% | 161.4hPa | 2.7V | 18:12:15 | 01:03:57 | 00:00:00 | |
| S3001 | 2026-09-03 23:41:46 | 51.77098 | 15.03882 | 142° | 128km/h | 13478m | 4.0m/s | -60.9°C | 12.7% | 161.4hPa | 2.7V | 00:00:00 | 00:00:00 | 00:00:00 | |
| DF8AY | 2026-09-03 23:41:42 | 51.77200 | 15.03743 | 137° | 135km/h | 13460m | 4.2m/s | -61.1°C | 0% | 0hPa | 2.7V | 18:12:15 | 01:03:52 | 00:00:00 | |
| BIOWL1-15 | 2026-09-03 23:41:39 | 51.77435 | 15.03374 | 135° | 130km/h | 13416m | 5m/s | -61.1°C | 17.5% | 163hPa | 2.8V | 18:12:15 | 01:03:42 | 00:00:00 | |
| DF8AY | 2026-09-03 23:41:32 | 51.77458 | 15.03336 | 134° | 131km/h | 13412m | 3.3m/s | -61.1°C | 0% | 0hPa | 2.7V | 18:12:15 | 01:03:41 | 00:00:00 | |
| DF8AY | 2026-09-03 23:41:20 | 51.77706 | 15.02923 | 132° | 126km/h | 13367m | 5m/s | -60.9°C | 0% | 0hPa | 2.8V | 18:12:15 | 01:03:30 | 00:00:00 | |
| KRY50SP-1 | 2026-09-03 23:41:19 | 51.77706 | 15.02923 | 133° | 126km/h | 13368m | 5.0m/s | -60.9°C | 13.1% | 164.3hPa | 2.7V | 00:00:00 | 00:00:00 | 00:00:00 | |
| DAC517 | 2026-09-03 23:41:18 | 51.77727 | 15.02885 | 133° | 126km/h | 13363m | 3.2m/s | -60.8°C | 13.1% | 164.4hPa | 2.7V | 00:00:00 | 00:00:00 | 00:00:00 | |
| NBG1-10 | 2026-09-03 23:41:16 | 51.77792 | 15.02773 | 135° | 120km/h | 13351m | 3.8m/s | -60.7°C | 18.4% | 164.7hPa | 2.7V | 00:00:00 | 01:03:26 | 00:00:00 | |
| S3001 | 2026-09-03 23:41:15 | 51.77814 | 15.02737 | 133° | 124km/h | 13347m | 4.8m/s | -60.7°C | 12.8% | 164.8hPa | 2.8V | 00:00:00 | 00:00:00 | 00:00:00 | |
| KRY50SP-1 | 2026-09-03 23:41:14 | 51.77813 | 15.02736 | 135° | 124km/h | 13347m | 4.8m/s | -60.7°C | 12.8% | 164.8hPa | 2.8V | 00:00:00 | 00:00:00 | 00:00:00 | |
| SP6BVK | 2026-09-03 23:41:13 | 51.77835 | 15.02700 | 134° | 126km/h | 13342m | 4.7m/s | -60.7°C | 12.9% | 165.0hPa | 2.8V | 00:00:00 | 00:00:00 | 00:00:00 | |
| DB0DAN | 2026-09-03 23:41:10 | 51.77921 | 15.02555 | 135° | 115km/h | 13325m | 2.7m/s | -60.6°C | 13.1% | 165.45hPa | 2.8V | 00:00:00 | 00:00:00 | 00:00:00 | |
| AA1-15 | 2026-09-03 23:41:05 | 51.78026 | 15.02381 | 135° | 120km/h | 13305m | 3.6m/s | -60.6°C | 17.6% | 165.9hPa | 2.8V | 18:12:15 | 01:03:15 | 00:00:00 | |
| BIOWL1-15 | 2026-09-03 23:40:56 | 51.78239 | 15.02035 | 135° | 115km/h | 13263m | 5.6m/s | -60.7°C | 17.9% | 167.1hPa | 2.7V | 18:12:15 | 01:03:05 | 00:00:00 | |
| DB0DAN | 2026-09-03 23:40:55 | 51.78239 | 15.02035 | 135° | 110km/h | 13263m | 5.6m/s | -60.7°C | 13.4% | 167.07hPa | 2.7V | 00:00:00 | 00:00:00 | 00:00:00 | |
| AA1-15 | 2026-09-03 23:40:50 | 51.78340 | 15.01866 | 134° | 119km/h | 13242m | 5.6m/s | -60.5°C | 18.2% | 167.6hPa | 2.7V | 18:12:15 | 01:03:00 | 00:00:00 | |
| 13BRC | 2026-09-03 23:40:47 | 51.78408 | 15.01761 | 139° | 126km/h | 13229m | 3.8m/s | -60.5°C | 13.7% | 168.0hPa | 2.7V | 00:00:00 | 00:00:00 | 00:00:00 | |
| KRY50SP-1 | 2026-09-03 23:40:45 | 51.78431 | 15.01727 | 139° | 124km/h | 13224m | 6.2m/s | -60.5°C | 13.7% | 168.1hPa | 2.7V | 00:00:00 | 00:00:00 | 00:00:00 | |
| S3001 | 2026-09-03 23:40:44 | 51.78499 | 15.01629 | 137° | 120km/h | 13211m | 3.6m/s | -60.5°C | 14.3% | 168.4hPa | 2.7V | 00:00:00 | 00:00:00 | 00:00:00 | |
| NBG1-10 | 2026-09-03 23:40:43 | 51.78499 | 15.01629 | 138° | 139km/h | 13211m | 3.5m/s | -60.4°C | 19.9% | 168.4hPa | 2.7V | 00:00:00 | 01:02:53 | 00:00:00 | |
| DB0DAN | 2026-09-03 23:40:40 | 51.78569 | 15.01521 | 135° | 128km/h | 13196m | 3.9m/s | -60.4°C | 14.6% | 168.85hPa | 2.7V | 00:00:00 | 00:00:00 | 00:00:00 | |
| DF8AY | 2026-09-03 23:40:35 | 51.78682 | 15.01328 | 133° | 128km/h | 13171m | 4.6m/s | -60.3°C | 0% | 0hPa | 2.7V | 18:12:15 | 01:02:45 | 00:00:00 | |
| BIOWL1-15 | 2026-09-03 23:40:34 | 51.78772 | 15.01188 | 140° | 126km/h | 13153m | 5.1m/s | -60.4°C | 21% | 0hPa | 2.8V | 18:12:15 | 01:02:41 | 00:00:00 | |
| DB0NH | 2026-09-03 23:40:32 | 51.78748 | 15.01222 | 138° | 142km/h | 13158m | 3.8m/s | -60.2°C | 20.0% | 169.8hPa | 2.7V | 00:00:00 | 01:02:42 | 00:00:00 | |
| DB0DAN | 2026-09-03 23:40:25 | 51.78935 | 15.00979 | 140° | 131km/h | 13120m | 6.1m/s | -60.9°C | 17.7% | 171.01hPa | 2.7V | 00:00:00 | 00:00:00 | 00:00:00 | |
| BIOWL1-15 | 2026-09-03 23:40:22 | 51.79013 | 15.00865 | 136° | 142km/h | 13103m | 5.5m/s | -60.9°C | 25.3% | 0hPa | 2.8V | 18:12:15 | 01:02:32 | 00:00:00 | |
| DF8AY | 2026-09-03 23:40:22 | 51.79039 | 15.00825 | 136° | 144km/h | 13097m | 6m/s | -61°C | 0% | 0hPa | 2.7V | 18:12:15 | 01:02:31 | 00:00:00 | |
| BIOWL1-15 | 2026-09-03 23:40:11 | 51.79306 | 15.00430 | 137° | 150km/h | 13045m | 7.1m/s | -61.7°C | 30.8% | 0hPa | 2.8V | 18:12:15 | 01:02:21 | 00:00:00 | |
| DF8AY | 2026-09-03 23:40:09 | 51.79568 | 15.00045 | 139° | 159km/h | 12995m | 4.6m/s | -61.9°C | 0% | 0hPa | 2.8V | 18:12:15 | 01:02:12 | 00:00:00 | |
| BIOWL1-15 | 2026-09-03 23:40:01 | 51.79599 | 15.00002 | 138° | 161km/h | 12991m | 3.6m/s | -61.9°C | 35.8% | 0hPa | 2.8V | 18:12:15 | 01:02:11 | 00:00:00 | |
| DF8AY | 2026-09-03 23:39:51 | 51.79988 | 14.99378 | 135° | 159km/h | 12922m | 6.5m/s | 0°C | 0% | 0hPa | 2.8V | 18:12:15 | 01:01:57 | 00:00:00 | |
| BIOWL1-15 | 2026-09-03 23:39:51 | 51.79960 | 14.99424 | 135° | 157km/h | 12927m | 3.6m/s | 0°C | 0% | 0hPa | 2.7V | 18:12:15 | 01:01:58 | 00:00:00 | |
| BIOWL1-15 | 2026-09-03 23:39:40 | 51.80175 | 14.98993 | 125° | 133km/h | 12869m | 9.7m/s | 0°C | 0% | 0hPa | 2.7V | 18:12:15 | 01:01:49 | 00:00:00 | |
| KRY50SP-1 | 2026-09-03 23:39:39 | 51.80175 | 14.98993 | 126° | 133km/h | 12869m | 9.7m/s | -62.4°C | 40.5% | 177.9hPa | 2.7V | 00:00:00 | 00:00:00 | 00:00:00 | |
| EDDB2-11 | 2026-09-03 23:39:37 | 51.80261 | 14.98820 | 132° | 141km/h | 12837m | 6.3m/s | -62.4°C | 43.4% | 178.9hPa | 2.7V | 00:00:00 | 00:00:00 | 00:00:00 | |
| DAC517 | 2026-09-03 23:39:34 | 51.80261 | 14.98820 | 134° | 141km/h | 12837m | 6.3m/s | -62.4°C | 43.4% | 178.9hPa | 2.7V | 00:00:00 | 00:00:00 | 00:00:00 | |
| SP3WXH-11 | 2026-09-03 23:39:33 | 51.80335 | 14.98694 | 134° | 139km/h | 12817m | 2.8m/s | -62.7°C | 47.8% | 179.5hPa | 2.7V | 00:00:00 | 00:00:00 | 00:00:00 | |
| DM0DOS-11 | 2026-09-03 23:39:31 | 51.80453 | 14.98496 | 131° | 126km/h | 12788m | 4.4m/s | 0°C | 0% | 0hPa | 2.7V | 00:00:00 | 01:01:37 | 00:00:00 | |
| SP6BVK | 2026-09-03 23:39:31 | 51.80360 | 14.98653 | 135° | 141km/h | 12813m | 7.4m/s | -62.8°C | 48.1% | 179.5hPa | 2.7V | 00:00:00 | 00:00:00 | 00:00:00 | |
| KRY50SP-1 | 2026-09-03 23:39:27 | 51.80431 | 14.98534 | 134° | 131km/h | 12794m | 7.9m/s | -62.9°C | 49.5% | 180.1hPa | 2.7V | 00:00:00 | 00:00:00 | 00:00:00 | |
| EDDB2-12 | 2026-09-03 23:39:24 | 51.80534 | 14.98344 | 129° | 119km/h | 12763m | 11.7m/s | -63.1°C | 49.4% | 181.1hPa | 2.7V | 00:00:00 | 00:00:00 | 00:00:00 | |
| KRY50SP-1 | 2026-09-03 23:39:23 | 51.80534 | 14.98344 | 131° | 119km/h | 12763m | 11.7m/s | -63.1°C | 49.4% | 181.1hPa | 2.7V | 00:00:00 | 00:00:00 | 00:00:00 | |
| DL2RXE-15 | 2026-09-03 23:39:20 | 51.80599 | 14.98235 | 137° | 128km/h | 12737m | 6.5m/s | -63.3°C | 53.7% | 181.9hPa | 2.7V | 00:00:00 | 00:00:00 | 00:00:00 | |
| KRY50SP-1 | 2026-09-03 23:39:18 | 51.80646 | 14.98164 | 137° | 128km/h | 12721m | 7.0m/s | -63.4°C | 55.9% | 182.3hPa | 2.7V | 00:00:00 | 00:00:00 | 00:00:00 | |
| DAC517 | 2026-09-03 23:39:13 | 51.80743 | 14.98029 | 144° | 124km/h | 12699m | 5.2m/s | -63.3°C | 55.9% | 183.1hPa | 2.7V | 00:00:00 | 00:00:00 | 00:00:00 | |
| DB0DAN | 2026-09-03 23:39:10 | 51.80839 | 14.97911 | 143° | 111km/h | 12674m | 3.2m/s | -63.2°C | 57.2% | 183.8hPa | 2.7V | 00:00:00 | 00:00:00 | 00:00:00 | |
| BIOWL1-15 | 2026-09-03 23:39:05 | 51.81055 | 14.97635 | 139° | 137km/h | 12618m | 5.4m/s | 0°C | 0% | 0hPa | 2.7V | 18:12:15 | 01:01:12 | 00:00:00 | |
| BIOWL1-15 | 2026-09-03 23:38:52 | 51.81353 | 14.97273 | 142° | 144km/h | 12560m | 2.9m/s | 0°C | 0% | 0hPa | 2.7V | 18:12:15 | 01:01:01 | 00:00:00 | |
| AA1-15 | 2026-09-03 23:38:50 | 51.81382 | 14.97237 | 142° | 146km/h | 12557m | 3.8m/s | -62.8°C | 61.8% | 187.3hPa | 2.7V | 18:12:15 | 01:01:00 | 00:00:00 | |
| SP6BVK | 2026-09-03 23:38:50 | 51.81382 | 14.97236 | 143° | 146km/h | 12557m | 3.8m/s | -62.8°C | 56.8% | 187.3hPa | 2.7V | 00:00:00 | 00:00:00 | 00:00:00 | |
| KRY50SP-1 | 2026-09-03 23:38:48 | 51.81441 | 14.97164 | 145° | 148km/h | 12546m | 5.7m/s | -62.7°C | 56.9% | 187.6hPa | 2.7V | 00:00:00 | 00:00:00 | 00:00:00 | |
| 13BRC | 2026-09-03 23:38:43 | 51.81591 | 14.96998 | 146° | 137km/h | 12518m | 5.5m/s | -62.6°C | 57.6% | 188.4hPa | 2.7V | 00:00:00 | 00:00:00 | 00:00:00 | |
| KRY50SP-1 | 2026-09-03 23:38:42 | 51.81591 | 14.96998 | 146° | 137km/h | 12518m | 5.5m/s | -62.6°C | 57.6% | 188.4hPa | 2.7V | 00:00:00 | 00:00:00 | 00:00:00 | |
| S3001 | 2026-09-03 23:38:40 | 51.81705 | 14.96861 | 144° | 142km/h | 12498m | 4.9m/s | -62.6°C | 59.5% | 189.0hPa | 2.7V | 00:00:00 | 00:00:00 | 00:00:00 | |
| DB0NH | 2026-09-03 23:38:39 | 51.81705 | 14.96861 | 145° | 161km/h | 12498m | 4.9m/s | -62.6°C | 70.7% | 189.0hPa | 2.7V | 00:00:00 | 01:00:49 | 00:00:00 | |
| KRY50SP-1 | 2026-09-03 23:38:36 | 51.81765 | 14.96796 | 149° | 146km/h | 12486m | 5.6m/s | -62.6°C | 58.4% | 189.4hPa | 2.7V | 00:00:00 | 00:00:00 | 00:00:00 | |
| SONDE2-11 | 2026-09-03 23:38:35 | 51.81861 | 14.96699 | 146° | 150km/h | 12463m | 6.7m/s | -62.6°C | 57.7% | 190.1hPa | 2.7V | 00:00:00 | 00:00:00 | 00:00:00 | |
| AA1-15 | 2026-09-03 23:38:16 | 51.82476 | 14.96045 | 151° | 168km/h | 12346m | 4.3m/s | -62.3°C | 61.3% | 193.8hPa | 2.7V | 18:12:15 | 01:00:26 | 00:00:00 | |
| AA1-15 | 2026-09-03 23:38:04 | 51.82916 | 14.95621 | 149° | 179km/h | 12286m | 4.4m/s | -62°C | 59.7% | 195.6hPa | 2.7V | 18:12:15 | 01:00:14 | 00:00:00 | |
| AA1-15 | 2026-09-03 23:37:54 | 51.83295 | 14.95244 | 150° | 175km/h | 12239m | 5.7m/s | -61.6°C | 58.5% | 197.2hPa | 2.8V | 18:12:15 | 01:00:04 | 00:00:00 | |
| SONCRA | 2026-09-03 23:37:51 | 51.83448 | 14.95108 | 151° | 173km/h | 12219m | 5.6m/s | -61.5°C | 52.9% | 197.8hPa | 2.8V | 00:00:00 | 00:00:00 | 00:00:00 | |
| EDDB2-12 | 2026-09-03 23:37:50 | 51.83448 | 14.95108 | 151° | 173km/h | 12219m | 5.6m/s | -61.5°C | 52.9% | 197.8hPa | 2.8V | 00:00:00 | 00:00:00 | 00:00:00 | |
| AA1-15 | 2026-09-03 23:37:44 | 51.83679 | 14.94892 | 150° | 177km/h | 12191m | 5.4m/s | -61.3°C | 56.5% | 198.7hPa | 2.8V | 18:12:15 | 00:59:54 | 00:00:00 | |
| SP3BTT-10 | 2026-09-03 23:37:44 | 51.83679 | 14.94892 | 151° | 173km/h | 12191m | 5.3m/s | -61.2°C | 61.2% | 198.6hPa | 2.7V | 00:00:00 | 00:00:00 | 00:00:00 | |
| OK1SLM-15 | 2026-09-03 23:37:42 | 51.83718 | 14.94856 | 152° | 177km/h | 12187m | 4.3m/s | 0°C | 0% | 0hPa | 2.7V | 00:00:00 | 00:00:00 | 00:00:00 | |
| 13BRC | 2026-09-03 23:37:41 | 51.83756 | 14.94821 | 151° | 175km/h | 12182m | 4.4m/s | -61.2°C | 51.2% | 199.0hPa | 2.7V | 00:00:00 | 00:00:00 | 00:00:00 | |
| DB0NH | 2026-09-03 23:37:39 | 51.83870 | 14.94711 | 149° | 172km/h | 12168m | 5.3m/s | -61.1°C | 61.2% | 199.4hPa | 2.7V | 00:00:00 | 00:59:49 | 00:00:00 | |
| S3001 | 2026-09-03 23:37:38 | 51.83945 | 14.94636 | 148° | 172km/h | 12159m | 4.2m/s | -61.1°C | 51.5% | 199.7hPa | 2.7V | 00:00:00 | 00:00:00 | 00:00:00 | |
| AM1SDL-15 | 2026-09-03 23:37:36 | 51.83982 | 14.94599 | 149° | 173km/h | 12155m | 4.8m/s | 0°C | 0% | 0hPa | 2.7V | 00:00:00 | 00:59:46 | 00:00:00 | |
| SONDE2-11 | 2026-09-03 23:37:33 | 51.84130 | 14.94453 | 149° | 175km/h | 12138m | 4.3m/s | -60.9°C | 51.1% | 200.4hPa | 2.7V | 00:00:00 | 00:00:00 | 00:00:00 | |
| EDDB2-11 | 2026-09-03 23:37:32 | 51.84168 | 14.94417 | 149° | 175km/h | 12134m | 4.5m/s | -60.9°C | 51.3% | 200.5hPa | 2.7V | 00:00:00 | 00:00:00 | 00:00:00 | |
| DAC517 | 2026-09-03 23:37:30 | 51.84207 | 14.94382 | 151° | 175km/h | 12129m | 5.0m/s | -60.9°C | 51.6% | 200.7hPa | 2.7V | 00:00:00 | 00:00:00 | 00:00:00 | |
| SP3WXH-11 | 2026-09-03 23:37:29 | 51.84284 | 14.94311 | 150° | 173km/h | 12121m | 3.7m/s | -60.9°C | 51.7% | 201.0hPa | 2.7V | 00:00:00 | 00:00:00 | 00:00:00 | |
| OE3JTB-15 | 2026-09-03 23:37:28 | 51.84284 | 14.94311 | 151° | 172km/h | 12121m | 3.6m/s | 0°C | 0% | 0hPa | 2.7V | 00:00:00 | 00:00:00 | 00:00:00 | |
| KRY50SP-1 | 2026-09-03 23:37:27 | 51.84283 | 14.94311 | 151° | 173km/h | 12121m | 3.7m/s | -60.9°C | 51.8% | 201.0hPa | 2.7V | 00:00:00 | 00:00:00 | 00:00:00 | |
| AM1SDL-15 | 2026-09-03 23:37:24 | 51.84435 | 14.94169 | 150° | 172km/h | 12104m | 4.9m/s | 0°C | 0% | 0hPa | 2.7V | 00:00:00 | 00:59:34 | 00:00:00 | |
| KRY50SP-1 | 2026-09-03 23:37:22 | 51.84471 | 14.94134 | 150° | 168km/h | 12099m | 3.7m/s | -60.7°C | 53.1% | 201.7hPa | 2.7V | 00:00:00 | 00:00:00 | 00:00:00 | |
| 13BRC | 2026-09-03 23:37:20 | 51.84544 | 14.94063 | 150° | 172km/h | 12091m | 4.8m/s | -60.6°C | 52.6% | 201.9hPa | 2.7V | 00:00:00 | 00:00:00 | 00:00:00 | |
| SONCRA | 2026-09-03 23:37:19 | 51.84618 | 14.93989 | 147° | 172km/h | 12083m | 5.2m/s | -60.5°C | 51.9% | 202.2hPa | 2.7V | 00:00:00 | 00:00:00 | 00:00:00 | |
| KRY50SP-1 | 2026-09-03 23:37:18 | 51.84655 | 14.93951 | 149° | 172km/h | 12077m | 6.1m/s | -60.5°C | 52.4% | 202.4hPa | 2.7V | 00:00:00 | 00:00:00 | 00:00:00 | |
| KRY50SP-1 | 2026-09-03 23:37:13 | 51.84843 | 14.93768 | 151° | 173km/h | 12054m | 5.4m/s | -60.3°C | 52.3% | 203.0hPa | 2.7V | 00:00:00 | 00:00:00 | 00:00:00 | |
| AM1SDL-15 | 2026-09-03 23:37:10 | 51.84955 | 14.93664 | 151° | 172km/h | 12041m | 5.5m/s | 0°C | 0% | 0hPa | 2.7V | 00:00:00 | 00:59:20 | 00:00:00 | |
| DB0NH | 2026-09-03 23:37:09 | 51.84992 | 14.93630 | 151° | 172km/h | 12035m | 4.9m/s | -60.1°C | 61.3% | 203.7hPa | 2.7V | 00:00:00 | 00:59:19 | 00:00:00 | |
| SP6BVK | 2026-09-03 23:37:07 | 51.85031 | 14.93595 | 152° | 175km/h | 12031m | 4.4m/s | -60.1°C | 51.5% | 203.9hPa | 2.7V | 00:00:00 | 00:00:00 | 00:00:00 | |
| KRY50SP-1 | 2026-09-03 23:37:06 | 51.85069 | 14.93560 | 152° | 173km/h | 12026m | 5.3m/s | -60.1°C | 51.6% | 204.0hPa | 2.7V | 00:00:00 | 00:00:00 | 00:00:00 | |
| SONDE2-11 | 2026-09-03 23:37:01 | 51.85295 | 14.93349 | 148° | 166km/h | 11997m | 3.7m/s | -59.9°C | 51.7% | 204.9hPa | 2.7V | 00:00:00 | 00:00:00 | 00:00:00 | |
| EDDB2-11 | 2026-09-03 23:37:00 | 51.85331 | 14.93314 | 148° | 166km/h | 11993m | 4.8m/s | -59.8°C | 51.1% | 205.1hPa | 2.7V | 00:00:00 | 00:00:00 | 00:00:00 | |
| SP3WXH-11 | 2026-09-03 23:36:58 | 51.85440 | 14.93203 | 148° | 172km/h | 11978m | 4.3m/s | -59.7°C | 50.7% | 205.6hPa | 2.7V | 00:00:00 | 00:00:00 | 00:00:00 | |
| SONCRA | 2026-09-03 23:36:49 | 51.85777 | 14.92875 | 146° | 170km/h | 11937m | 4.5m/s | -59.3°C | 51.2% | 206.9hPa | 2.7V | 00:00:00 | 00:00:00 | 00:00:00 | |
| EDDB2-12 | 2026-09-03 23:36:48 | 51.85777 | 14.92875 | 146° | 170km/h | 11937m | 4.5m/s | -59.3°C | 51.2% | 206.9hPa | 2.7V | 00:00:00 | 00:00:00 | 00:00:00 | |
| SP6BVK | 2026-09-03 23:36:47 | 51.85777 | 14.92875 | 148° | 170km/h | 11937m | 4.5m/s | -59.3°C | 51.2% | 206.9hPa | 2.7V | 00:00:00 | 00:00:00 | 00:00:00 | |
| KRY50SP-1 | 2026-09-03 23:36:45 | 51.85849 | 14.92799 | 148° | 170km/h | 11928m | 3.9m/s | -59.3°C | 51.4% | 207.2hPa | 2.7V | 00:00:00 | 00:00:00 | 00:00:00 | |
| KRY50SP-1 | 2026-09-03 23:36:40 | 51.86027 | 14.92614 | 149° | 168km/h | 11907m | 5.1m/s | -59.1°C | 51.0% | 207.9hPa | 2.7V | 00:00:00 | 00:00:00 | 00:00:00 | |
| DB0NH | 2026-09-03 23:36:39 | 51.86101 | 14.92542 | 150° | 170km/h | 11898m | 3.3m/s | -58.9°C | 60.7% | 208.2hPa | 2.7V | 00:00:00 | 00:58:49 | 00:00:00 | |
| KRY50SP-1 | 2026-09-03 23:36:35 | 51.86214 | 14.92434 | 150° | 172km/h | 11885m | 4.0m/s | -58.9°C | 51.8% | 208.6hPa | 2.7V | 00:00:00 | 00:00:00 | 00:00:00 | |
| EDDB2-11 | 2026-09-03 23:36:30 | 51.86469 | 14.92177 | 147° | 168km/h | 11853m | 4.6m/s | -58.6°C | 52.0% | 209.7hPa | 2.7V | 00:00:00 | 00:00:00 | 00:00:00 | |
| SP3BTT-10 | 2026-09-03 23:36:29 | 51.86469 | 14.92177 | 148° | 168km/h | 11853m | 4.6m/s | -58.6°C | 61.1% | 209.6hPa | 2.7V | 00:00:00 | 00:00:00 | 00:00:00 | |
| DAC517 | 2026-09-03 23:36:28 | 51.86469 | 14.92177 | 149° | 168km/h | 11853m | 4.6m/s | -58.6°C | 52.0% | 209.7hPa | 2.7V | 00:00:00 | 00:00:00 | 00:00:00 | |
| SP6BVK | 2026-09-03 23:36:27 | 51.86540 | 14.92103 | 148° | 168km/h | 11844m | 5.7m/s | -58.5°C | 51.5% | 210.0hPa | 2.7V | 00:00:00 | 00:00:00 | 00:00:00 | |
| KRY50SP-1 | 2026-09-03 23:36:24 | 51.86612 | 14.92027 | 148° | 170km/h | 11835m | 4.3m/s | -58.5°C | 51.8% | 210.3hPa | 2.7V | 00:00:00 | 00:00:00 | 00:00:00 | |
| 13BRC | 2026-09-03 23:36:20 | 51.86797 | 14.91840 | 149° | 170km/h | 11813m | 3.1m/s | -58.3°C | 52.8% | 211.0hPa | 2.7V | 00:00:00 | 00:00:00 | 00:00:00 | |
| KRY50SP-1 | 2026-09-03 23:36:18 | 51.86834 | 14.91803 | 149° | 170km/h | 11809m | 5.3m/s | -58.2°C | 52.4% | 211.1hPa | 2.7V | 00:00:00 | 00:00:00 | 00:00:00 | |
| AA1-15 | 2026-09-03 23:36:00 | 51.87512 | 14.91092 | 147° | 166km/h | 11722m | 3.6m/s | -57.5°C | 57.2% | 214.1hPa | 2.7V | 18:12:15 | 00:58:10 | 00:00:00 | |
| AA1-15 | 2026-09-03 23:35:50 | 51.87869 | 14.90704 | 145° | 172km/h | 11678m | 3.8m/s | -57.1°C | 57.8% | 215.5hPa | 2.8V | 18:12:15 | 00:58:00 | 00:00:00 | |
| EDDB2-12 | 2026-09-03 23:35:46 | 51.88007 | 14.90552 | 146° | 162km/h | 11661m | 4.9m/s | -57.0°C | 53.8% | 216.2hPa | 2.8V | 00:00:00 | 00:00:00 | 00:00:00 | |
| AA1-15 | 2026-09-03 23:35:39 | 51.88252 | 14.90280 | 144° | 172km/h | 11629m | 5.8m/s | -56.7°C | 58.1% | 217.2hPa | 2.8V | 18:12:15 | 00:57:49 | 00:00:00 | |
| AA1-15 | 2026-09-03 23:35:29 | 51.88605 | 14.89891 | 145° | 168km/h | 11585m | 4.9m/s | -56.4°C | 57.2% | 218.7hPa | 2.7V | 18:12:15 | 00:57:39 | 00:00:00 | |
| AA1-15 | 2026-09-03 23:35:18 | 51.88986 | 14.89430 | 147° | 172km/h | 11536m | 5.1m/s | -55.9°C | 57.4% | 220.4hPa | 2.8V | 18:12:15 | 00:57:28 | 00:00:00 | |
| AA1-15 | 2026-09-03 23:35:07 | 51.89362 | 14.88971 | 143° | 177km/h | 11475m | 3.8m/s | -55.4°C | 58.3% | 222.5hPa | 2.8V | 18:12:15 | 00:57:17 | 00:00:00 | |
| AA1-15 | 2026-09-03 23:34:58 | 51.89744 | 14.88521 | 143° | 170km/h | 11410m | 5m/s | -54.8°C | 58.9% | 224.7hPa | 2.7V | 18:12:15 | 00:57:06 | 00:00:00 | |
| AA1-15 | 2026-09-03 23:34:46 | 51.90086 | 14.88105 | 143° | 166km/h | 11353m | 5.1m/s | -54.3°C | 59.6% | 226.8hPa | 2.7V | 18:12:15 | 00:56:56 | 00:00:00 | |
| AA1-15 | 2026-09-03 23:34:35 | 51.90461 | 14.87637 | 144° | 173km/h | 11288m | 4.7m/s | -53.7°C | 60.2% | 229.1hPa | 2.7V | 18:12:15 | 00:56:45 | 00:00:00 | |
| AA1-15 | 2026-09-03 23:34:24 | 51.90869 | 14.87105 | 142° | 172km/h | 11229m | 5.4m/s | -53.1°C | 59.7% | 231.2hPa | 2.7V | 18:12:15 | 00:56:33 | 00:00:00 | |
| AA1-15 | 2026-09-03 23:34:13 | 51.91205 | 14.86677 | 141° | 172km/h | 11182m | 5.7m/s | -52.7°C | 59.5% | 232.9hPa | 2.7V | 18:12:15 | 00:56:23 | 00:00:00 | |
| KRY50SP-1 | 2026-09-03 23:34:12 | 51.91205 | 14.86677 | 142° | 172km/h | 11182m | 5.7m/s | -52.7°C | 54.8% | 232.9hPa | 2.8V | 00:00:00 | 00:00:00 | 00:00:00 | |
| DB0DAN | 2026-09-03 23:34:10 | 51.91305 | 14.86544 | 141° | 161km/h | 11168m | 5.3m/s | -52.6°C | 55.3% | 233.38hPa | 2.8V | 00:00:00 | 00:00:00 | 00:00:00 | |
| AA1-15 | 2026-09-03 23:34:03 | 51.91538 | 14.86244 | 145° | 170km/h | 11135m | 4.5m/s | -52.3°C | 59.2% | 234.6hPa | 2.7V | 18:12:15 | 00:56:13 | 00:00:00 | |
| AA1-15 | 2026-09-03 23:33:53 | 51.91872 | 14.85823 | 140° | 170km/h | 11091m | 4.2m/s | -51.9°C | 58.9% | 236.2hPa | 2.7V | 18:12:15 | 00:56:03 | 00:00:00 | |
| SP3WXH-11 | 2026-09-03 23:33:51 | 51.91939 | 14.85735 | 141° | 168km/h | 11083m | 4.1m/s | -51.8°C | 55.1% | 236.5hPa | 2.8V | 00:00:00 | 00:00:00 | 00:00:00 | |
| AA1-15 | 2026-09-03 23:33:42 | 51.92235 | 14.85346 | 140° | 162km/h | 11043m | 5.1m/s | -51.5°C | 58.1% | 237.9hPa | 2.8V | 18:12:15 | 00:55:52 | 00:00:00 | |
| AA1-15 | 2026-09-03 23:33:32 | 51.92568 | 14.84925 | 138° | 172km/h | 11000m | 3.3m/s | -51.1°C | 58% | 239.4hPa | 2.8V | 18:12:15 | 00:55:42 | 00:00:00 | |
| S3001 | 2026-09-03 23:33:29 | 51.92662 | 14.84791 | 140° | 157km/h | 10987m | 4.1m/s | -50.9°C | 53.5% | 240.0hPa | 2.8V | 00:00:00 | 00:00:00 | 00:00:00 | |
| DB0DAN | 2026-09-03 23:33:25 | 51.92787 | 14.84633 | 142° | 157km/h | 10968m | 3.5m/s | -50.8°C | 54.6% | 240.68hPa | 2.8V | 00:00:00 | 00:00:00 | 00:00:00 | |
| AA1-15 | 2026-09-03 23:33:22 | 51.92888 | 14.84505 | 141° | 173km/h | 10954m | 5m/s | -50.7°C | 57.8% | 241.2hPa | 2.8V | 18:12:15 | 00:55:32 | 00:00:00 | |
| AA1-15 | 2026-09-03 23:33:11 | 51.93244 | 14.84031 | 139° | 170km/h | 10900m | 5m/s | -50.2°C | 58.2% | 243.2hPa | 2.8V | 18:12:15 | 00:55:21 | 00:00:00 | |
| DB0DAN | 2026-09-03 23:33:10 | 51.93276 | 14.83985 | 139° | 161km/h | 10896m | 3.7m/s | -50.2°C | 54.8% | 243.3hPa | 2.8V | 00:00:00 | 00:00:00 | 00:00:00 | |
| AA1-15 | 2026-09-03 23:33:01 | 51.93570 | 14.83595 | 140° | 164km/h | 10854m | 4.7m/s | -49.8°C | 58.6% | 244.9hPa | 2.8V | 18:12:15 | 00:55:11 | 00:00:00 | |
| AA1-15 | 2026-09-03 23:32:50 | 51.93912 | 14.83107 | 139° | 161km/h | 10794m | 3.9m/s | -49.2°C | 59.8% | 247.1hPa | 2.8V | 18:12:15 | 00:55:00 | 00:00:00 | |
| SP3WXH-11 | 2026-09-03 23:32:49 | 51.93942 | 14.83063 | 138° | 161km/h | 10789m | 6.4m/s | -49.2°C | 55.1% | 247.3hPa | 2.8V | 00:00:00 | 00:00:00 | 00:00:00 | |
| KRY50SP-1 | 2026-09-03 23:32:47 | 51.93972 | 14.83019 | 139° | 161km/h | 10783m | 6.8m/s | -49.1°C | 54.9% | 247.5hPa | 2.8V | 00:00:00 | 00:00:00 | 00:00:00 | |
| KRY50SP-1 | 2026-09-03 23:32:43 | 51.94124 | 14.82797 | 140° | 162km/h | 10757m | 5.3m/s | -48.9°C | 54.5% | 248.5hPa | 2.8V | 00:00:00 | 00:00:00 | 00:00:00 | |
| DB0DAN | 2026-09-03 23:32:40 | 51.94218 | 14.82668 | 139° | 157km/h | 10743m | 5m/s | -48.8°C | 54.9% | 249.01hPa | 2.8V | 00:00:00 | 00:00:00 | 00:00:00 | |
| AA1-15 | 2026-09-03 23:32:39 | 51.94250 | 14.82623 | 138° | 168km/h | 10738m | 4.5m/s | -48.8°C | 59.4% | 249.2hPa | 2.8V | 18:12:15 | 00:54:49 | 00:00:00 | |
| AA1-15 | 2026-09-03 23:32:28 | 51.94580 | 14.82116 | 137° | 162km/h | 10692m | 3.1m/s | -48.4°C | 59.1% | 251hPa | 2.8V | 18:12:15 | 00:54:38 | 00:00:00 | |
| DB0DAN | 2026-09-03 23:32:25 | 51.94671 | 14.81982 | 138° | 153km/h | 10680m | 3.5m/s | -48.3°C | 55.3% | 251.44hPa | 2.9V | 00:00:00 | 00:00:00 | 00:00:00 | |
| AA1-15 | 2026-09-03 23:32:16 | 51.94938 | 14.81575 | 136° | 164km/h | 10644m | 4.1m/s | -48°C | 59.7% | 252.8hPa | 2.8V | 18:12:15 | 00:54:26 | 00:00:00 | |
| AA1-15 | 2026-09-03 23:32:06 | 51.95233 | 14.81128 | 137° | 155km/h | 10602m | 3.8m/s | -47.6°C | 59.9% | 254.4hPa | 2.8V | 18:12:15 | 00:54:16 | 00:00:00 | |
| AA1-15 | 2026-09-03 23:31:55 | 51.95548 | 14.80630 | 136° | 157km/h | 10557m | 3.9m/s | -47.2°C | 59.6% | 256.1hPa | 2.8V | 18:12:15 | 00:54:05 | 00:00:00 | |
| DB0DAN | 2026-09-03 23:31:55 | 51.95548 | 14.80630 | 136° | 150km/h | 10557m | 3.9m/s | -47.2°C | 56% | 256.1hPa | 2.8V | 00:00:00 | 00:00:00 | 00:00:00 | |
| AA1-15 | 2026-09-03 23:31:45 | 51.95827 | 14.80170 | 134° | 161km/h | 10515m | 5.2m/s | -46.8°C | 58.9% | 257.8hPa | 2.9V | 18:12:15 | 00:53:55 | 00:00:00 | |
| DB0DAN | 2026-09-03 23:31:40 | 51.95972 | 14.79934 | 135° | 153km/h | 10495m | 4.6m/s | -46.6°C | 55.9% | 258.53hPa | 2.8V | 00:00:00 | 00:00:00 | 00:00:00 | |
| AA1-15 | 2026-09-03 23:31:35 | 51.96111 | 14.79709 | 135° | 153km/h | 10475m | 4.8m/s | -46.4°C | 59.9% | 259.3hPa | 2.9V | 18:12:15 | 00:53:45 | 00:00:00 | |
| KRY50SP-1 | 2026-09-03 23:31:34 | 51.96111 | 14.79709 | 135° | 153km/h | 10475m | 4.8m/s | -46.4°C | 56.6% | 259.3hPa | 2.9V | 00:00:00 | 00:00:00 | 00:00:00 | |
| 13BRC | 2026-09-03 23:31:32 | 51.96165 | 14.79617 | 135° | 157km/h | 10467m | 3.7m/s | -46.3°C | 56.9% | 259.6hPa | 2.9V | 00:00:00 | 00:00:00 | 00:00:00 | |
| KRY50SP-1 | 2026-09-03 23:31:30 | 51.96251 | 14.79479 | 137° | 162km/h | 10455m | 4.5m/s | -46.2°C | 56.4% | 260.1hPa | 2.9V | 00:00:00 | 00:00:00 | 00:00:00 | |
| DL2RXE-15 | 2026-09-03 23:31:28 | 51.96280 | 14.79432 | 136° | 161km/h | 10450m | 5.2m/s | -46.2°C | 56.4% | 260.2hPa | 2.9V | 00:00:00 | 00:00:00 | 00:00:00 | |
| DB0DAN | 2026-09-03 23:31:25 | 51.96396 | 14.79247 | 135° | 153km/h | 10434m | 3.4m/s | -46°C | 56% | 260.88hPa | 2.9V | 00:00:00 | 00:00:00 | 00:00:00 | |
| AA1-15 | 2026-09-03 23:31:24 | 51.96425 | 14.79200 | 135° | 162km/h | 10429m | 5.5m/s | -46°C | 59.3% | 261.1hPa | 2.9V | 18:12:15 | 00:53:34 | 00:00:00 | |
| AA1-15 | 2026-09-03 23:31:13 | 51.96733 | 14.78687 | 135° | 150km/h | 10383m | 5.8m/s | -45.5°C | 56.9% | 262.9hPa | 2.9V | 18:12:15 | 00:53:23 | 00:00:00 | |
| KRY50SP-1 | 2026-09-03 23:31:12 | 51.96733 | 14.78687 | 136° | 150km/h | 10383m | 5.8m/s | -45.5°C | 54.0% | 262.9hPa | 2.8V | 00:00:00 | 00:00:00 | 00:00:00 | |
| DB0DAN | 2026-09-03 23:31:10 | 51.96812 | 14.78557 | 135° | 142km/h | 10370m | 3.6m/s | -45.4°C | 55.6% | 263.41hPa | 2.8V | 00:00:00 | 00:00:00 | 00:00:00 | |
| AA1-15 | 2026-09-03 23:31:02 | 51.97034 | 14.78198 | 137° | 159km/h | 10332m | 6.3m/s | -45.1°C | 57.7% | 264.9hPa | 2.9V | 18:12:15 | 00:53:12 | 00:00:00 | |
| AA1-15 | 2026-09-03 23:30:51 | 51.97344 | 14.77717 | 136° | 151km/h | 10281m | 3.7m/s | -44.6°C | 58.9% | 267hPa | 2.9V | 18:12:15 | 00:53:01 | 00:00:00 | |
| SONDE2-11 | 2026-09-03 23:30:49 | 51.97425 | 14.77584 | 134° | 150km/h | 10269m | 4.4m/s | -44.5°C | 56.0% | 267.5hPa | 2.8V | 00:00:00 | 00:00:00 | 00:00:00 | |
| EDDB2-11 | 2026-09-03 23:30:48 | 51.97425 | 14.77584 | 134° | 150km/h | 10269m | 4.4m/s | -44.5°C | 56.0% | 267.5hPa | 2.8V | 00:00:00 | 00:00:00 | 00:00:00 | |
| SP3WXH-11 | 2026-09-03 23:30:45 | 51.97508 | 14.77451 | 136° | 155km/h | 10257m | 4.5m/s | -44.4°C | 56.3% | 267.9hPa | 2.8V | 00:00:00 | 00:00:00 | 00:00:00 | |
| AA1-15 | 2026-09-03 23:30:41 | 51.97622 | 14.77277 | 136° | 155km/h | 10242m | 4.1m/s | -44.2°C | 60.3% | 268.6hPa | 2.8V | 18:12:15 | 00:52:51 | 00:00:00 | |
| AA1-15 | 2026-09-03 23:30:30 | 51.97919 | 14.76785 | 136° | 151km/h | 10199m | 3.8m/s | -43.9°C | 60.2% | 270.2hPa | 2.9V | 18:12:15 | 00:52:40 | 00:00:00 | |
| AA1-15 | 2026-09-03 23:30:20 | 51.98194 | 14.76322 | 135° | 159km/h | 10159m | 5m/s | -43.6°C | 60.3% | 271.8hPa | 2.9V | 18:12:15 | 00:52:30 | 00:00:00 | |
| AA1-15 | 2026-09-03 23:30:09 | 51.98499 | 14.75836 | 136° | 155km/h | 10110m | 6.1m/s | -43.1°C | 59.6% | 273.8hPa | 2.9V | 18:12:15 | 00:52:19 | 00:00:00 | |
| AA1-15 | 2026-09-03 23:29:58 | 51.98804 | 14.75334 | 133° | 155km/h | 10059m | 6.2m/s | -42.7°C | 59.7% | 275.8hPa | 2.8V | 18:12:15 | 00:52:08 | 00:00:00 | |
| AA1-15 | 2026-09-03 23:29:45 | 51.99170 | 14.74746 | 135° | 155km/h | 9999m | 5.6m/s | -42.2°C | 58.5% | 278.4hPa | 2.9V | 18:12:15 | 00:51:55 | 00:00:00 | |
| AA1-15 | 2026-09-03 23:29:35 | 51.99446 | 14.74281 | 132° | 159km/h | 9958m | 4.4m/s | -41.8°C | 56.9% | 280.1hPa | 2.8V | 18:12:15 | 00:51:45 | 00:00:00 | |
| KRY50SP-1 | 2026-09-03 23:29:35 | 51.99446 | 14.74281 | 133° | 159km/h | 9958m | 4.4m/s | -41.8°C | 55.8% | 280.1hPa | 2.9V | 00:00:00 | 00:00:00 | 00:00:00 | |
| SONCRA | 2026-09-03 23:29:34 | 51.99500 | 14.74187 | 133° | 153km/h | 9949m | 4.3m/s | -41.7°C | 57.1% | 280.4hPa | 2.9V | 00:00:00 | 00:00:00 | 00:00:00 | |
| KRY50SP-1 | 2026-09-03 23:29:30 | 51.99585 | 14.74053 | 139° | 159km/h | 9937m | 3.7m/s | -41.6°C | 56.2% | 280.9hPa | 2.9V | 00:00:00 | 00:00:00 | 00:00:00 | |
| DB0DAN | 2026-09-03 23:29:25 | 51.99730 | 14.73826 | 134° | 150km/h | 9912m | 7.3m/s | -41.4°C | 55.6% | 281.98hPa | 2.9V | 00:00:00 | 00:00:00 | 00:00:00 | |
| AA1-15 | 2026-09-03 23:29:23 | 51.99785 | 14.73734 | 135° | 155km/h | 9899m | 6.3m/s | -41.3°C | 57.8% | 282.5hPa | 2.9V | 18:12:15 | 00:51:33 | 00:00:00 | |
| S3001 | 2026-09-03 23:29:21 | 51.99840 | 14.73645 | 135° | 151km/h | 9886m | 5.4m/s | -41.1°C | 55.2% | 283.1hPa | 2.8V | 00:00:00 | 00:00:00 | 00:00:00 | |
| KRY50SP-1 | 2026-09-03 23:29:20 | 51.99868 | 14.73602 | 136° | 150km/h | 9880m | 7.2m/s | -41.1°C | 54.8% | 283.3hPa | 2.8V | 00:00:00 | 00:00:00 | 00:00:00 | |
| DL2RXE-15 | 2026-09-03 23:29:17 | 51.99945 | 14.73469 | 134° | 146km/h | 9863m | 7.0m/s | -40.9°C | 55.3% | 283.9hPa | 2.8V | 00:00:00 | 00:00:00 | 00:00:00 | |
| SONDE2-11 | 2026-09-03 23:29:16 | 51.99998 | 14.73381 | 134° | 151km/h | 9853m | 2.9m/s | -40.8°C | 56.5% | 284.4hPa | 2.8V | 00:00:00 | 00:00:00 | 00:00:00 | |
| KRY50SP-1 | 2026-09-03 23:29:15 | 51.99998 | 14.73381 | 136° | 151km/h | 9854m | 2.9m/s | -40.8°C | 56.5% | 284.4hPa | 2.8V | 00:00:00 | 00:00:00 | 00:00:00 | |
| DAC517 | 2026-09-03 23:29:14 | 51.99998 | 14.73381 | 136° | 151km/h | 9854m | 2.9m/s | -40.8°C | 56.5% | 284.4hPa | 2.8V | 00:00:00 | 00:00:00 | 00:00:00 | |
| DB0DAN | 2026-09-03 23:29:10 | 52.00136 | 14.73159 | 135° | 146km/h | 9828m | 7.2m/s | -40.6°C | 55.2% | 285.44hPa | 2.8V | 00:00:00 | 00:00:00 | 00:00:00 | |
| AA1-15 | 2026-09-03 23:29:09 | 52.00163 | 14.73114 | 135° | 155km/h | 9823m | 3.5m/s | -40.6°C | 57.6% | 285.7hPa | 2.8V | 18:12:15 | 00:51:19 | 00:00:00 | |
| AA1-15 | 2026-09-03 23:28:59 | 52.00446 | 14.72663 | 135° | 151km/h | 9769m | 5.7m/s | -40.2°C | 56.4% | 287.9hPa | 2.9V | 18:12:15 | 00:51:09 | 00:00:00 | |
| KRY50SP-1 | 2026-09-03 23:28:58 | 52.00473 | 14.72619 | 135° | 150km/h | 9765m | 3.5m/s | -40.1°C | 55.4% | 288.1hPa | 2.9V | 00:00:00 | 00:00:00 | 00:00:00 | |
| DB0DAN | 2026-09-03 23:28:55 | 52.00552 | 14.72484 | 134° | 148km/h | 9750m | 3.8m/s | -40°C | 55.4% | 288.67hPa | 2.9V | 00:00:00 | 00:00:00 | 00:00:00 | |
| AA1-15 | 2026-09-03 23:28:48 | 52.00736 | 14.72159 | 133° | 151km/h | 9715m | 4.4m/s | -39.7°C | 58.8% | 290.2hPa | 2.9V | 18:12:15 | 00:50:58 | 00:00:00 | |
| SONDE2-11 | 2026-09-03 23:28:45 | 52.00842 | 14.71975 | 134° | 157km/h | 9693m | 5.4m/s | -39.6°C | 57.0% | 291.1hPa | 2.9V | 00:00:00 | 00:00:00 | 00:00:00 | |
| EDDB2-11 | 2026-09-03 23:28:44 | 52.00870 | 14.71929 | 134° | 159km/h | 9688m | 5.2m/s | -39.6°C | 56.8% | 291.3hPa | 2.9V | 00:00:00 | 00:00:00 | 00:00:00 | |
| DB0DAN | 2026-09-03 23:28:40 | 52.00953 | 14.71791 | 133° | 146km/h | 9673m | 4.4m/s | -39.4°C | 57.6% | 291.94hPa | 2.9V | 00:00:00 | 00:00:00 | 00:00:00 | |
| KRY50SP-1 | 2026-09-03 23:28:40 | 52.00953 | 14.71791 | 134° | 153km/h | 9673m | 4.4m/s | -39.4°C | 57.6% | 291.9hPa | 2.9V | 00:00:00 | 00:00:00 | 00:00:00 | |
| EDDB2-12 | 2026-09-03 23:28:32 | 52.01194 | 14.71356 | 131° | 162km/h | 9633m | 4.8m/s | -39.1°C | 56.3% | 293.7hPa | 2.9V | 00:00:00 | 00:00:00 | 00:00:00 | |
| DL2RXE-15 | 2026-09-03 23:28:31 | 52.01193 | 14.71356 | 133° | 162km/h | 9633m | 4.8m/s | -39.1°C | 56.3% | 293.7hPa | 2.9V | 00:00:00 | 00:00:00 | 00:00:00 | |
| 13BRC | 2026-09-03 23:28:28 | 52.01275 | 14.71210 | 133° | 155km/h | 9622m | 4.7m/s | -39.0°C | 56.2% | 294.2hPa | 2.9V | 00:00:00 | 00:00:00 | 00:00:00 | |
| DB0DAN | 2026-09-03 23:28:25 | 52.01352 | 14.71069 | 131° | 146km/h | 9609m | 5.1m/s | -38.9°C | 56% | 294.66hPa | 2.9V | 00:00:00 | 00:00:00 | 00:00:00 | |
| KRY50SP-1 | 2026-09-03 23:28:22 | 52.01405 | 14.70975 | 133° | 157km/h | 9601m | 4.2m/s | -38.8°C | 55.8% | 295.0hPa | 2.8V | 00:00:00 | 00:00:00 | 00:00:00 | |
| S3001 | 2026-09-03 23:28:19 | 52.01510 | 14.70782 | 131° | 159km/h | 9583m | 4.7m/s | -38.7°C | 56.3% | 295.8hPa | 2.8V | 00:00:00 | 00:00:00 | 00:00:00 | |
| KRY50SP-1 | 2026-09-03 23:28:16 | 52.01564 | 14.70683 | 133° | 161km/h | 9576m | 4.0m/s | -38.6°C | 56.6% | 296.1hPa | 2.8V | 00:00:00 | 00:00:00 | 00:00:00 | |
| SP6BVK | 2026-09-03 23:28:13 | 52.01669 | 14.70491 | 132° | 157km/h | 9559m | 4.8m/s | -38.5°C | 57.5% | 296.9hPa | 2.8V | 00:00:00 | 00:00:00 | 00:00:00 | |
| DB0DAN | 2026-09-03 23:28:10 | 52.01747 | 14.70346 | 131° | 146km/h | 9547m | 5.2m/s | -38.4°C | 57.3% | 297.32hPa | 2.8V | 00:00:00 | 00:00:00 | 00:00:00 | |
| 13BRC | 2026-09-03 23:28:07 | 52.01823 | 14.70204 | 132° | 155km/h | 9535m | 4.5m/s | -38.3°C | 57.9% | 298.0hPa | 2.9V | 00:00:00 | 00:00:00 | 00:00:00 | |
| KRY50SP-1 | 2026-09-03 23:28:04 | 52.01875 | 14.70106 | 131° | 157km/h | 9528m | 3.7m/s | -38.2°C | 58.0% | 298.2hPa | 2.9V | 00:00:00 | 00:00:00 | 00:00:00 | |
| EDDB2-12 | 2026-09-03 23:28:01 | 52.02006 | 14.69868 | 133° | 153km/h | 9506m | 3.3m/s | -38.1°C | 57.8% | 299.1hPa | 2.9V | 00:00:00 | 00:00:00 | 00:00:00 | |
| KRY50SP-1 | 2026-09-03 23:28:00 | 52.02006 | 14.69868 | 135° | 153km/h | 9506m | 3.3m/s | -38.1°C | 57.8% | 299.1hPa | 2.9V | 00:00:00 | 00:00:00 | 00:00:00 | |
| DB0DAN | 2026-09-03 23:27:55 | 52.02135 | 14.69633 | 130° | 150km/h | 9485m | 3.9m/s | -37.9°C | 58.9% | 299.98hPa | 2.9V | 00:00:00 | 00:00:00 | 00:00:00 | |
| S3001 | 2026-09-03 23:27:48 | 52.02311 | 14.69277 | 130° | 155km/h | 9456m | 4.5m/s | -37.7°C | 62.4% | 301.3hPa | 2.9V | 00:00:00 | 00:00:00 | 00:00:00 | |
| KRY50SP-1 | 2026-09-03 23:27:47 | 52.02311 | 14.69277 | 132° | 157km/h | 9456m | 4.5m/s | -37.7°C | 62.4% | 301.3hPa | 2.9V | 00:00:00 | 00:00:00 | 00:00:00 | |
| 13BRC | 2026-09-03 23:27:46 | 52.02338 | 14.69229 | 133° | 157km/h | 9452m | 4.4m/s | -37.7°C | 62.7% | 301.5hPa | 2.9V | 00:00:00 | 00:00:00 | 00:00:00 | |
| DB0DAN | 2026-09-03 23:27:40 | 52.02515 | 14.68900 | 130° | 150km/h | 9421m | 3.7m/s | -37.5°C | 64.1% | 302.77hPa | 2.9V | 00:00:00 | 00:00:00 | 00:00:00 | |
| SP3WXH-11 | 2026-09-03 23:27:39 | 52.02540 | 14.68851 | 129° | 159km/h | 9417m | 4.7m/s | -37.5°C | 63.5% | 303.0hPa | 2.9V | 00:00:00 | 00:00:00 | 00:00:00 | |
| KRY50SP-1 | 2026-09-03 23:27:35 | 52.02617 | 14.68696 | 130° | 162km/h | 9404m | 4.0m/s | -37.3°C | 63.4% | 303.6hPa | 2.9V | 00:00:00 | 00:00:00 | 00:00:00 | |
| SP6BVK | 2026-09-03 23:27:31 | 52.02717 | 14.68489 | 128° | 157km/h | 9388m | 4.2m/s | -37.2°C | 64.2% | 304.3hPa | 2.9V | 00:00:00 | 00:00:00 | 00:00:00 | |
| EDDB2-12 | 2026-09-03 23:27:30 | 52.02790 | 14.68345 | 131° | 148km/h | 9375m | 3.5m/s | -37.1°C | 63.9% | 304.8hPa | 2.9V | 00:00:00 | 00:00:00 | 00:00:00 | |
| DL2RXE-15 | 2026-09-03 23:27:29 | 52.02790 | 14.68345 | 133° | 150km/h | 9375m | 3.5m/s | -37.1°C | 63.9% | 304.8hPa | 2.9V | 00:00:00 | 00:00:00 | 00:00:00 | |
| DAC517 | 2026-09-03 23:27:28 | 52.02790 | 14.68345 | 133° | 150km/h | 9375m | 3.5m/s | -37.1°C | 63.9% | 304.8hPa | 2.9V | 00:00:00 | 00:00:00 | 00:00:00 | |
| DB0DAN | 2026-09-03 23:27:25 | 52.02893 | 14.68159 | 130° | 150km/h | 9358m | 4m/s | -37°C | 64.8% | 305.62hPa | 2.9V | 00:00:00 | 00:00:00 | 00:00:00 | |
| AA1-15 | 2026-09-03 23:27:24 | 52.02919 | 14.68109 | 129° | 159km/h | 9354m | 3.4m/s | -36.9°C | 66.3% | 305.8hPa | 2.9V | 18:12:15 | 00:49:34 | 00:00:00 | |
| AA1-15 | 2026-09-03 23:27:11 | 52.03240 | 14.67465 | 128° | 155km/h | 9301m | 4.9m/s | -36.5°C | 66.5% | 308.1hPa | 2.8V | 18:12:15 | 00:49:21 | 00:00:00 | |
| DB0DAN | 2026-09-03 23:27:10 | 52.03264 | 14.67414 | 128° | 151km/h | 9297m | 3.1m/s | -36.5°C | 66% | 308.18hPa | 2.8V | 00:00:00 | 00:00:00 | 00:00:00 | |
| DAC517 | 2026-09-03 23:27:09 | 52.03289 | 14.67362 | 128° | 162km/h | 9294m | 3.2m/s | -36.5°C | 65.7% | 308.4hPa | 2.9V | 00:00:00 | 00:00:00 | 00:00:00 | |
| SP3WXH-11 | 2026-09-03 23:27:08 | 52.03314 | 14.67309 | 127° | 161km/h | 9290m | 5.0m/s | -36.4°C | 65.6% | 308.6hPa | 2.9V | 00:00:00 | 00:00:00 | 00:00:00 | |
| KRY50SP-1 | 2026-09-03 23:27:07 | 52.03314 | 14.67309 | 128° | 161km/h | 9290m | 5.0m/s | -36.4°C | 65.6% | 308.6hPa | 2.9V | 00:00:00 | 00:00:00 | 00:00:00 | |
| 13BRC | 2026-09-03 23:27:05 | 52.03362 | 14.67205 | 128° | 157km/h | 9281m | 3.3m/s | -36.4°C | 66.7% | 309.0hPa | 2.9V | 00:00:00 | 00:00:00 | 00:00:00 | |
| EDDB2-12 | 2026-09-03 23:26:59 | 52.03551 | 14.66803 | 127° | 155km/h | 9243m | 5.8m/s | -36.1°C | 67.7% | 310.6hPa | 2.9V | 00:00:00 | 00:00:00 | 00:00:00 | |
| SONCRA | 2026-09-03 23:26:58 | 52.03551 | 14.66803 | 127° | 155km/h | 9243m | 5.8m/s | -36.1°C | 67.7% | 310.6hPa | 2.9V | 00:00:00 | 00:00:00 | 00:00:00 | |
| DB0DAN | 2026-09-03 23:26:55 | 52.03628 | 14.66650 | 130° | 155km/h | 9227m | 6.2m/s | -35.9°C | 65.2% | 311.34hPa | 2.9V | 00:00:00 | 00:00:00 | 00:00:00 | |
| AA1-15 | 2026-09-03 23:26:50 | 52.03756 | 14.66413 | 131° | 148km/h | 9198m | 5m/s | -35.7°C | 65.9% | 312.6hPa | 2.9V | 18:12:15 | 00:49:00 | 00:00:00 | |
| S3001 | 2026-09-03 23:26:46 | 52.03878 | 14.66175 | 129° | 155km/h | 9177m | 3.8m/s | -35.6°C | 64.7% | 313.6hPa | 2.9V | 00:00:00 | 00:00:00 | 00:00:00 | |
| KRY50SP-1 | 2026-09-03 23:26:45 | 52.03878 | 14.66175 | 130° | 157km/h | 9177m | 3.8m/s | -35.6°C | 64.7% | 313.6hPa | 2.9V | 00:00:00 | 00:00:00 | 00:00:00 | |
| DB0DAN | 2026-09-03 23:26:40 | 52.03999 | 14.65924 | 128° | 146km/h | 9153m | 4.8m/s | -35.3°C | 64.1% | 314.71hPa | 2.9V | 00:00:00 | 00:00:00 | 00:00:00 | |
| AA1-15 | 2026-09-03 23:26:37 | 52.04069 | 14.65776 | 128° | 150km/h | 9139m | 4m/s | -35.3°C | 67.2% | 315.4hPa | 2.8V | 18:12:15 | 00:48:47 | 00:00:00 | |
| AA1-15 | 2026-09-03 23:26:27 | 52.04321 | 14.65303 | 131° | 150km/h | 9096m | 5.1m/s | -35°C | 69.2% | 317.3hPa | 2.9V | 18:12:15 | 00:48:37 | 00:00:00 | |
| DB0DAN | 2026-09-03 23:26:25 | 52.04370 | 14.65210 | 130° | 141km/h | 9087m | 4.7m/s | -34.9°C | 68.2% | 317.66hPa | 2.9V | 00:00:00 | 00:00:00 | 00:00:00 | |
| AA1-15 | 2026-09-03 23:26:16 | 52.04581 | 14.64788 | 131° | 144km/h | 9051m | 3.9m/s | -34.6°C | 69.8% | 319.3hPa | 2.9V | 18:12:15 | 00:48:26 | 00:00:00 | |
| S3001 | 2026-09-03 23:26:15 | 52.04631 | 14.64699 | 132° | 148km/h | 9043m | 4.1m/s | -34.5°C | 68.9% | 319.7hPa | 2.9V | 00:00:00 | 00:00:00 | 00:00:00 | |
| KRY50SP-1 | 2026-09-03 23:26:12 | 52.04656 | 14.64653 | 134° | 150km/h | 9039m | 4.5m/s | -34.5°C | 69.0% | 319.9hPa | 2.9V | 00:00:00 | 00:00:00 | 00:00:00 | |
| DB0DAN | 2026-09-03 23:26:10 | 52.04731 | 14.64518 | 130° | 137km/h | 9025m | 5.8m/s | -34.4°C | 69.6% | 320.56hPa | 2.9V | 00:00:00 | 00:00:00 | 00:00:00 | |
| AA1-15 | 2026-09-03 23:26:06 | 52.04821 | 14.64334 | 128° | 150km/h | 9008m | 4.1m/s | -34.3°C | 70.1% | 321.3hPa | 2.9V | 18:12:15 | 00:48:16 | 00:00:00 | |
| SP3WXH-11 | 2026-09-03 23:26:06 | 52.04845 | 14.64286 | 128° | 151km/h | 9004m | 4.0m/s | 0°C | -1.0% | -1.0hPa | 2.8V | 00:00:00 | 00:00:00 | 00:00:00 | |
| SONCRA | 2026-09-03 23:25:56 | 52.05060 | 14.63858 | 128° | 144km/h | 8954m | 4.3m/s | -33.9°C | 72.3% | 323.8hPa | 2.8V | 00:00:00 | 00:00:00 | 00:00:00 | |
| DB0DAN | 2026-09-03 23:25:55 | 52.05083 | 14.63811 | 129° | 139km/h | 8949m | 5.8m/s | -33.8°C | 72.4% | 324hPa | 2.8V | 00:00:00 | 00:00:00 | 00:00:00 | |
| AA1-15 | 2026-09-03 23:25:54 | 52.05107 | 14.63765 | 130° | 148km/h | 8944m | 4.6m/s | -33.8°C | 73.4% | 324.3hPa | 2.9V | 18:12:15 | 00:48:04 | 00:00:00 | |
| AA1-15 | 2026-09-03 23:25:43 | 52.05366 | 14.63245 | 130° | 142km/h | 8892m | 4.8m/s | -33.4°C | 74.8% | 326.7hPa | 2.9V | 18:12:15 | 00:47:53 | 00:00:00 | |
| DB0DAN | 2026-09-03 23:25:40 | 52.05436 | 14.63114 | 131° | 137km/h | 8879m | 4.9m/s | -33.3°C | 75.3% | 327.38hPa | 2.8V | 00:00:00 | 00:00:00 | 00:00:00 | |
| AA1-15 | 2026-09-03 23:25:31 | 52.05647 | 14.62687 | 127° | 144km/h | 8836m | 5m/s | -33°C | 74.8% | 329.3hPa | 2.8V | 18:12:15 | 00:47:41 | 00:00:00 | |
| KRY50SP-1 | 2026-09-03 23:25:31 | 52.05647 | 14.62687 | 128° | 144km/h | 8836m | 5.0m/s | -33.0°C | 76.0% | 329.3hPa | 2.9V | 00:00:00 | 00:00:00 | 00:00:00 | |
| SP6BVK | 2026-09-03 23:25:27 | 52.05714 | 14.62556 | 134° | 137km/h | 8822m | 5.4m/s | -32.9°C | 74.8% | 330.0hPa | 2.9V | 00:00:00 | 00:00:00 | 00:00:00 | |
| DB0DAN | 2026-09-03 23:25:25 | 52.05788 | 14.62432 | 133° | 139km/h | 8809m | 4.3m/s | -32.8°C | 75.1% | 330.51hPa | 2.9V | 00:00:00 | 00:00:00 | 00:00:00 | |
| AA1-15 | 2026-09-03 23:25:20 | 52.05906 | 14.62198 | 126° | 148km/h | 8783m | 4.8m/s | -32.6°C | 74.5% | 331.7hPa | 2.9V | 18:12:15 | 00:47:30 | 00:00:00 | |
| KRY50SP-1 | 2026-09-03 23:25:19 | 52.05927 | 14.62148 | 126° | 150km/h | 8777m | 7.6m/s | -32.5°C | 72.4% | 332.1hPa | 2.8V | 00:00:00 | 00:00:00 | 00:00:00 | |
| KRY50SP-1 | 2026-09-03 23:25:13 | 52.06041 | 14.61908 | 132° | 142km/h | 8748m | 5.6m/s | -32.3°C | 75.5% | 333.4hPa | 2.8V | 00:00:00 | 00:00:00 | 00:00:00 | |
| DB0DAN | 2026-09-03 23:25:10 | 52.06139 | 14.61743 | 134° | 135km/h | 8730m | 4.9m/s | -32.2°C | 76.2% | 334.18hPa | 2.8V | 00:00:00 | 00:00:00 | 00:00:00 | |
| KRY50SP-1 | 2026-09-03 23:25:08 | 52.06187 | 14.61656 | 131° | 144km/h | 8722m | 4.1m/s | -32.1°C | 75.9% | 334.6hPa | 2.8V | 00:00:00 | 00:00:00 | 00:00:00 | |
| SONDE2-11 | 2026-09-03 23:25:07 | 52.06210 | 14.61610 | 128° | 144km/h | 8717m | 5.3m/s | -32.1°C | 75.2% | 334.9hPa | 2.8V | 00:00:00 | 00:00:00 | 00:00:00 | |
| DAC517 | 2026-09-03 23:25:06 | 52.06210 | 14.61610 | 129° | 146km/h | 8717m | 5.3m/s | -32.1°C | 75.2% | 334.9hPa | 2.8V | 00:00:00 | 00:00:00 | 00:00:00 | |
| KRY50SP-1 | 2026-09-03 23:25:02 | 52.06321 | 14.61376 | 131° | 141km/h | 8692m | 4.9m/s | -31.9°C | 75.6% | 336.0hPa | 2.8V | 00:00:00 | 00:00:00 | 00:00:00 | |
| 13BRC | 2026-09-03 23:24:59 | 52.06367 | 14.61287 | 132° | 142km/h | 8683m | 3.5m/s | -31.8°C | 75.5% | 336.5hPa | 2.8V | 00:00:00 | 00:00:00 | 00:00:00 | |
| DB0DAN | 2026-09-03 23:24:55 | 52.06485 | 14.61067 | 129° | 137km/h | 8660m | 3.2m/s | -31.7°C | 76.7% | 337.65hPa | 2.8V | 00:00:00 | 00:00:00 | 00:00:00 | |
| SONCRA | 2026-09-03 23:24:54 | 52.06507 | 14.61022 | 127° | 141km/h | 8656m | 5.1m/s | -31.6°C | 76.1% | 337.8hPa | 2.8V | 00:00:00 | 00:00:00 | 00:00:00 | |
| AA1-15 | 2026-09-03 23:24:40 | 52.06813 | 14.60406 | 130° | 133km/h | 8591m | 4m/s | -31.1°C | 74.9% | 340.9hPa | 2.8V | 18:12:15 | 00:46:50 | 00:00:00 | |
| AA1-15 | 2026-09-03 23:24:30 | 52.07058 | 14.59928 | 123° | 135km/h | 8540m | 7.3m/s | -30.7°C | 74.9% | 343.3hPa | 2.9V | 18:12:15 | 00:46:39 | 00:00:00 | |
| AA1-15 | 2026-09-03 23:24:18 | 52.07277 | 14.59447 | 131° | 133km/h | 8480m | 4.3m/s | -30.1°C | 71.2% | 346.3hPa | 2.9V | 18:12:15 | 00:46:28 | 00:00:00 | |
| AA1-15 | 2026-09-03 23:24:07 | 52.07500 | 14.58964 | 128° | 130km/h | 8420m | 8.3m/s | -29.7°C | 76.3% | 349.2hPa | 2.9V | 18:12:15 | 00:46:17 | 00:00:00 | |
| AA1-15 | 2026-09-03 23:23:57 | 52.07702 | 14.58550 | 128° | 124km/h | 8362m | 4.3m/s | -29.3°C | 77.7% | 352.1hPa | 2.9V | 18:12:15 | 00:46:07 | 00:00:00 | |
| AA1-15 | 2026-09-03 23:23:46 | 52.07935 | 14.58066 | 126° | 131km/h | 8311m | 4.2m/s | -28.9°C | 78.7% | 354.6hPa | 2.9V | 18:12:15 | 00:45:56 | 00:00:00 | |
| AA1-15 | 2026-09-03 23:23:36 | 52.08120 | 14.57632 | 124° | 137km/h | 8265m | 4.6m/s | -28.6°C | 77.6% | 357hPa | 2.9V | 18:12:15 | 00:45:46 | 00:00:00 | |
| AA1-15 | 2026-09-03 23:23:26 | 52.08344 | 14.57170 | 128° | 130km/h | 8209m | 6.2m/s | -28.1°C | 80.5% | 359.6hPa | 2.8V | 18:12:15 | 00:45:35 | 00:00:00 | |
| AA1-15 | 2026-09-03 23:23:15 | 52.08540 | 14.56739 | 126° | 131km/h | 8151m | 4.7m/s | -27.7°C | 79.8% | 362.6hPa | 2.9V | 18:12:15 | 00:45:25 | 00:00:00 | |
| AA1-15 | 2026-09-03 23:23:05 | 52.08733 | 14.56317 | 125° | 131km/h | 8108m | 3.3m/s | -27.4°C | 78.3% | 364.8hPa | 2.9V | 18:12:15 | 00:45:15 | 00:00:00 | |
| SP6BVK | 2026-09-03 23:23:04 | 52.08752 | 14.56271 | 125° | 135km/h | 8104m | 5.4m/s | -27.3°C | 80.6% | 365.0hPa | 2.9V | 00:00:00 | 00:00:00 | 00:00:00 | |
| KRY50SP-1 | 2026-09-03 23:23:03 | 52.08771 | 14.56225 | 125° | 137km/h | 8099m | 4.5m/s | -27.3°C | 80.9% | 365.2hPa | 2.9V | 00:00:00 | 00:00:00 | 00:00:00 | |
| EDDB2-11 | 2026-09-03 23:23:02 | 52.08790 | 14.56178 | 123° | 137km/h | 8095m | 3.3m/s | -27.3°C | 81.2% | 365.4hPa | 2.9V | 00:00:00 | 00:00:00 | 00:00:00 | |
| DAC517 | 2026-09-03 23:23:01 | 52.08790 | 14.56178 | 124° | 139km/h | 8095m | 3.3m/s | -27.3°C | 81.2% | 365.4hPa | 2.9V | 00:00:00 | 00:00:00 | 00:00:00 | |
| KRY50SP-1 | 2026-09-03 23:22:57 | 52.08863 | 14.55999 | 127° | 122km/h | 8074m | 6.6m/s | -27.1°C | 81.5% | 366.5hPa | 2.9V | 00:00:00 | 00:00:00 | 00:00:00 | |
| DB0DAN | 2026-09-03 23:22:55 | 52.08921 | 14.55879 | 130° | 119km/h | 8055m | 5.4m/s | -26.9°C | 81.3% | 367.37hPa | 2.9V | 00:00:00 | 00:00:00 | 00:00:00 | |
| AA1-15 | 2026-09-03 23:22:54 | 52.08941 | 14.55840 | 131° | 122km/h | 8049m | 5.4m/s | -26.9°C | 80.4% | 367.7hPa | 2.9V | 18:12:15 | 00:45:04 | 00:00:00 | |
| SONCRA | 2026-09-03 23:22:50 | 52.09018 | 14.55684 | 124° | 124km/h | 8026m | 6.0m/s | -26.8°C | 84.1% | 368.9hPa | 2.9V | 00:00:00 | 00:00:00 | 00:00:00 | |
| AA1-15 | 2026-09-03 23:22:44 | 52.09128 | 14.55418 | 123° | 126km/h | 7988m | 10m/s | -26.5°C | 81.9% | 370.9hPa | 2.9V | 18:12:15 | 00:44:54 | 00:00:00 | |
| SP6BVK | 2026-09-03 23:22:43 | 52.09145 | 14.55375 | 124° | 122km/h | 7980m | 7.0m/s | -26.4°C | 83.0% | 371.3hPa | 2.8V | 00:00:00 | 00:00:00 | 00:00:00 | |
| DB0DAN | 2026-09-03 23:22:40 | 52.09199 | 14.55249 | 125° | 120km/h | 7962m | 5.2m/s | -26.3°C | 82.9% | 372.25hPa | 2.8V | 00:00:00 | 00:00:00 | 00:00:00 | |
| AA1-15 | 2026-09-03 23:22:33 | 52.09348 | 14.54914 | 125° | 130km/h | 7917m | 4.9m/s | -25.9°C | 79.6% | 374.6hPa | 2.9V | 18:12:15 | 00:44:42 | 00:00:00 | |
| EDDB2-11 | 2026-09-03 23:22:32 | 52.09367 | 14.54870 | 124° | 130km/h | 7913m | 4.3m/s | -25.9°C | 82.5% | 374.9hPa | 2.9V | 00:00:00 | 00:00:00 | 00:00:00 | |
| 13BRC | 2026-09-03 23:22:30 | 52.09367 | 14.54870 | 125° | 131km/h | 7913m | 4.3m/s | -25.9°C | 82.5% | 374.9hPa | 2.9V | 00:00:00 | 00:00:00 | 00:00:00 | |
| KRY50SP-1 | 2026-09-03 23:22:28 | 52.09404 | 14.54782 | 126° | 128km/h | 7904m | 5.7m/s | -25.8°C | 82.5% | 375.2hPa | 2.9V | 00:00:00 | 00:00:00 | 00:00:00 | |
| DB0DAN | 2026-09-03 23:22:25 | 52.09476 | 14.54618 | 125° | 115km/h | 7886m | 4.9m/s | -25.7°C | 82.1% | 376.2hPa | 2.9V | 00:00:00 | 00:00:00 | 00:00:00 | |
| AA1-15 | 2026-09-03 23:22:23 | 52.09528 | 14.54492 | 122° | 120km/h | 7871m | 5.8m/s | -25.5°C | 80.8% | 377hPa | 2.9V | 18:12:15 | 00:44:32 | 00:00:00 | |
| AA1-15 | 2026-09-03 23:22:11 | 52.09720 | 14.54019 | 128° | 124km/h | 7818m | 3.7m/s | -25.1°C | 78.2% | 379.8hPa | 2.9V | 18:12:15 | 00:44:21 | 00:00:00 | |
| DB0DAN | 2026-09-03 23:22:10 | 52.09739 | 14.53979 | 129° | 117km/h | 7813m | 6.4m/s | -25.1°C | 80.1% | 380.05hPa | 2.9V | 00:00:00 | 00:00:00 | 00:00:00 | |
| AA1-15 | 2026-09-03 23:22:01 | 52.09915 | 14.53588 | 128° | 135km/h | 7770m | 3.8m/s | -24.9°C | 80.1% | 382.3hPa | 2.8V | 18:12:15 | 00:44:11 | 00:00:00 | |
| EDDB2-11 | 2026-09-03 23:22:00 | 52.09936 | 14.53546 | 127° | 130km/h | 7765m | 5.6m/s | -24.9°C | 82.9% | 382.6hPa | 2.8V | 00:00:00 | 00:00:00 | 00:00:00 | |
| DAC517 | 2026-09-03 23:21:58 | 52.09974 | 14.53464 | 127° | 120km/h | 7753m | 8.7m/s | -24.8°C | 82.1% | 383.1hPa | 2.8V | 00:00:00 | 00:00:00 | 00:00:00 | |
| DB0DAN | 2026-09-03 23:21:55 | 52.10023 | 14.53345 | 122° | 104km/h | 7733m | 4.9m/s | -24.6°C | 83.1% | 384.31hPa | 2.8V | 00:00:00 | 00:00:00 | 00:00:00 | |
| AA1-15 | 2026-09-03 23:21:51 | 52.10107 | 14.53154 | 126° | 126km/h | 7707m | 7.3m/s | -24.4°C | 81.1% | 385.6hPa | 2.9V | 18:12:15 | 00:44:00 | 00:00:00 | |
| SONCRA | 2026-09-03 23:21:48 | 52.10145 | 14.53068 | 125° | 130km/h | 7693m | 7.1m/s | -24.3°C | -1.0% | -1.0hPa | 2.9V | 00:00:00 | 00:00:00 | 00:00:00 | |
| DL2RXE-15 | 2026-09-03 23:21:44 | 52.10200 | 14.52940 | 126° | 124km/h | 7674m | 7.7m/s | -24.1°C | 81.7% | 387.3hPa | 2.9V | 00:00:00 | 00:00:00 | 00:00:00 | |
| KRY50SP-1 | 2026-09-03 23:21:43 | 52.10218 | 14.52899 | 129° | 122km/h | 7667m | 7.0m/s | -24.1°C | 81.5% | 387.7hPa | 2.9V | 00:00:00 | 00:00:00 | 00:00:00 | |
| DB0DAN | 2026-09-03 23:21:40 | 52.10292 | 14.52743 | 125° | 117km/h | 7643m | 6.6m/s | -23.9°C | 81.8% | 388.92hPa | 2.9V | 00:00:00 | 00:00:00 | 00:00:00 | |
| AA1-15 | 2026-09-03 23:21:39 | 52.10309 | 14.52702 | 124° | 124km/h | 7637m | 4.4m/s | -23.9°C | 81.3% | 389.2hPa | 2.8V | 18:12:15 | 00:43:49 | 00:00:00 | |
| AA1-15 | 2026-09-03 23:21:29 | 52.10483 | 14.52294 | 127° | 119km/h | 7590m | 4.4m/s | -23.5°C | 78.5% | 391.8hPa | 2.9V | 18:12:15 | 00:43:39 | 00:00:00 | |
| DB0DAN | 2026-09-03 23:21:25 | 52.10557 | 14.52133 | 127° | 115km/h | 7572m | 5.3m/s | -23.3°C | 80.5% | 392.79hPa | 2.8V | 00:00:00 | 00:00:00 | 00:00:00 | |
| AA1-15 | 2026-09-03 23:21:18 | 52.10676 | 14.51840 | 121° | 126km/h | 7542m | 3.2m/s | -23.2°C | 79.1% | 394.4hPa | 2.9V | 18:12:15 | 00:43:28 | 00:00:00 | |
| EDDB2-12 | 2026-09-03 23:21:17 | 52.10693 | 14.51795 | 122° | 128km/h | 7538m | 5.8m/s | -23.1°C | 81.4% | 394.6hPa | 2.9V | 00:00:00 | 00:00:00 | 00:00:00 | |
| DAC517 | 2026-09-03 23:21:16 | 52.10693 | 14.51795 | 124° | 128km/h | 7538m | 5.8m/s | -23.1°C | 81.4% | 394.6hPa | 2.9V | 00:00:00 | 00:00:00 | 00:00:00 | |
| KRY50SP-1 | 2026-09-03 23:21:15 | 52.10711 | 14.51751 | 126° | 130km/h | 7532m | 6.8m/s | -23.1°C | 0% | 394.9hPa | 2.9V | 00:00:00 | 00:00:00 | 00:00:00 | |
| DB0DAN | 2026-09-03 23:21:10 | 52.10829 | 14.51515 | 130° | 111km/h | 7495m | 5.7m/s | -22.9°C | 84.4% | 396.91hPa | 2.9V | 00:00:00 | 00:00:00 | 00:00:00 | |
| AA1-15 | 2026-09-03 23:21:08 | 52.10867 | 14.51442 | 131° | 119km/h | 7485m | 3m/s | -22.8°C | 81.1% | 397.5hPa | 2.9V | 18:12:15 | 00:43:18 | 00:00:00 | |
| AA1-15 | 2026-09-03 23:20:57 | 52.11064 | 14.50982 | 121° | 124km/h | 7414m | 5m/s | -22.4°C | 83.8% | 401.3hPa | 2.9V | 18:12:15 | 00:43:07 | 00:00:00 | |
| DB0DAN | 2026-09-03 23:20:55 | 52.11097 | 14.50894 | 122° | 119km/h | 7401m | 6.6m/s | -22.3°C | 85.8% | 401.89hPa | 2.9V | 00:00:00 | 00:00:00 | 00:00:00 | |
| AA1-15 | 2026-09-03 23:20:47 | 52.11234 | 14.50562 | 125° | 115km/h | 7356m | 5.5m/s | -22.2°C | 85.8% | 404.3hPa | 2.9V | 18:12:15 | 00:42:57 | 00:00:00 | |
| EDDB2-12 | 2026-09-03 23:20:46 | 52.11250 | 14.50523 | 123° | 115km/h | 7351m | 3.9m/s | -22.1°C | 91.6% | 404.6hPa | 2.9V | 00:00:00 | 00:00:00 | 00:00:00 | |
| DB0DAN | 2026-09-03 23:20:40 | 52.11346 | 14.50273 | 126° | 119km/h | 7325m | 4.1m/s | -21.9°C | 91.3% | 406.09hPa | 2.9V | 00:00:00 | 00:00:00 | 00:00:00 | |
| AA1-15 | 2026-09-03 23:20:35 | 52.11443 | 14.50063 | 124° | 126km/h | 7297m | 5.3m/s | -21.7°C | 85% | 407.6hPa | 2.9V | 18:12:15 | 00:42:45 | 00:00:00 | |
| DL2RXE-15 | 2026-09-03 23:20:35 | 52.11443 | 14.50063 | 125° | 126km/h | 7298m | 5.3m/s | -21.7°C | 86.9% | 407.6hPa | 2.8V | 00:00:00 | 00:00:00 | 00:00:00 | |
| DAC517 | 2026-09-03 23:20:34 | 52.11443 | 14.50063 | 125° | 126km/h | 7298m | 5.3m/s | -21.7°C | 86.9% | 407.6hPa | 2.8V | 00:00:00 | 00:00:00 | 00:00:00 | |
| S3001 | 2026-09-03 23:20:33 | 52.11478 | 14.49978 | 123° | 122km/h | 7285m | 5.9m/s | -21.6°C | 85.9% | 408.3hPa | 2.8V | 00:00:00 | 00:00:00 | 00:00:00 | |
| DB0DAN | 2026-09-03 23:20:25 | 52.11619 | 14.49643 | 124° | 111km/h | 7245m | 5.6m/s | -21.3°C | 84.2% | 410.61hPa | 2.8V | 00:00:00 | 00:00:00 | 00:00:00 | |
| AA1-15 | 2026-09-03 23:20:24 | 52.11636 | 14.49604 | 125° | 113km/h | 7241m | 3.9m/s | 0°C | 0% | 410.9hPa | 2.9V | 18:12:15 | 00:42:34 | 00:00:00 | |
| AA1-15 | 2026-09-03 23:20:13 | 52.11823 | 14.49160 | 124° | 119km/h | 7180m | 5.5m/s | 0°C | 0% | 414.3hPa | 2.9V | 18:12:15 | 00:42:23 | 00:00:00 | |
| DB0DAN | 2026-09-03 23:20:10 | 52.11878 | 14.49039 | 127° | 119km/h | 7162m | 4.6m/s | -20.8°C | 88.5% | 415.2hPa | 2.9V | 00:00:00 | 00:00:00 | 00:00:00 | |
| AA1-15 | 2026-09-03 23:20:02 | 52.12013 | 14.48706 | 123° | 117km/h | 7123m | 5.1m/s | 0°C | 0% | 0hPa | 2.9V | 18:12:15 | 00:42:12 | 00:00:00 | |
| SONDE2-11 | 2026-09-03 23:19:57 | 52.12117 | 14.48474 | 125° | 120km/h | 7097m | 4.6m/s | -20.2°C | 88.1% | 418.8hPa | 2.9V | 00:00:00 | 00:00:00 | 00:00:00 | |
| EDDB2-11 | 2026-09-03 23:19:56 | 52.12117 | 14.48474 | 125° | 120km/h | 7097m | 4.6m/s | -20.2°C | 88.1% | 418.8hPa | 2.9V | 00:00:00 | 00:00:00 | 00:00:00 | |
| DB0DAN | 2026-09-03 23:19:55 | 52.12134 | 14.48432 | 123° | 119km/h | 7093m | 4.4m/s | -20.2°C | 87.9% | 419.17hPa | 2.9V | 00:00:00 | 00:00:00 | 00:00:00 | |
| AA1-15 | 2026-09-03 23:19:52 | 52.12184 | 14.48302 | 121° | 120km/h | 7082m | 3.1m/s | 0°C | 0% | 0hPa | 2.9V | 18:12:15 | 00:42:02 | 00:00:00 | |
| AA1-15 | 2026-09-03 23:19:41 | 52.12367 | 14.47875 | 122° | 120km/h | 7029m | 5.4m/s | 0°C | 0% | 0hPa | 2.8V | 18:12:15 | 00:41:51 | 00:00:00 | |
| DB0DAN | 2026-09-03 23:19:40 | 52.12383 | 14.47832 | 121° | 115km/h | 7023m | 5.9m/s | -19.6°C | 86.5% | 423.02hPa | 2.9V | 00:00:00 | 00:00:00 | 00:00:00 | |
| KRY50SP-1 | 2026-09-03 23:19:35 | 52.12445 | 14.47662 | 122° | 124km/h | 7000m | 6.2m/s | -19.4°C | 0% | 0hPa | 2.8V | 00:00:00 | 00:00:00 | 00:00:00 | |
| DAC517 | 2026-09-03 23:19:33 | 52.12478 | 14.47573 | 122° | 126km/h | 6990m | 7.4m/s | -19.3°C | 86.4% | 424.9hPa | 2.8V | 00:00:00 | 00:00:00 | 00:00:00 | |
| SP6BVK | 2026-09-03 23:19:32 | 52.12495 | 14.47528 | 121° | 124km/h | 6984m | 5.0m/s | 0°C | 0% | 425.2hPa | 2.8V | 00:00:00 | 00:00:00 | 00:00:00 | |
| S3001 | 2026-09-03 23:19:31 | 52.12527 | 14.47442 | 121° | 120km/h | 6975m | 7.5m/s | -19.2°C | 86.1% | 425.8hPa | 2.8V | 00:00:00 | 00:00:00 | 00:00:00 | |
| DB0DAN | 2026-09-03 23:19:25 | 52.12622 | 14.47203 | 123° | 106km/h | 6943m | 5.4m/s | -18.9°C | 84.3% | 427.62hPa | 2.8V | 00:00:00 | 00:00:00 | 00:00:00 | |
| SP3BTT-10 | 2026-09-03 23:19:24 | 52.12638 | 14.47164 | 124° | 115km/h | 6937m | 6.2m/s | -18.8°C | 86.7% | 427.8hPa | 2.9V | 00:00:00 | 00:00:00 | 00:00:00 | |
| 13BRC | 2026-09-03 23:19:23 | 52.12638 | 14.47164 | 125° | 115km/h | 6937m | 6.3m/s | -18.8°C | 84.0% | 427.9hPa | 2.9V | 00:00:00 | 00:00:00 | 00:00:00 | |
| KRY50SP-1 | 2026-09-03 23:19:18 | 52.12742 | 14.46922 | 124° | 120km/h | 6902m | 6.2m/s | -18.6°C | 0% | 0hPa | 2.9V | 00:00:00 | 00:00:00 | 00:00:00 | |
| EDDB2-12 | 2026-09-03 23:19:13 | 52.12818 | 14.46711 | 119° | 120km/h | 6873m | 7.1m/s | -18.4°C | 82.7% | 431.6hPa | 2.9V | 00:00:00 | 00:00:00 | 00:00:00 | |
| DB0DAN | 2026-09-03 23:19:10 | 52.12868 | 14.46581 | 123° | 122km/h | 6855m | 7.1m/s | -18.3°C | 81.5% | 432.74hPa | 2.9V | 00:00:00 | 00:00:00 | 00:00:00 | |
| 13BRC | 2026-09-03 23:19:03 | 52.12989 | 14.46300 | 129° | 110km/h | 6817m | 5.2m/s | -18.0°C | 83.5% | 435.0hPa | 2.9V | 00:00:00 | 00:00:00 | 00:00:00 | |
| S3001 | 2026-09-03 23:19:00 | 52.13038 | 14.46191 | 123° | 110km/h | 6803m | 4.2m/s | -17.9°C | 84.1% | 435.7hPa | 2.9V | 00:00:00 | 00:00:00 | 00:00:00 | |
| KRY50SP-1 | 2026-09-03 23:18:58 | 52.13068 | 14.46113 | 122° | 113km/h | 6794m | 5.0m/s | -17.8°C | 0% | 0hPa | 2.9V | 00:00:00 | 00:00:00 | 00:00:00 | |
| DB0DAN | 2026-09-03 23:18:55 | 52.13118 | 14.45995 | 128° | 110km/h | 6774m | 7.5m/s | -17.6°C | 82.9% | 437.33hPa | 2.9V | 00:00:00 | 00:00:00 | 00:00:00 | |
| SONDE2-11 | 2026-09-03 23:18:55 | 52.13136 | 14.45958 | 129° | 115km/h | 6767m | 7.0m/s | -17.6°C | 82.8% | 437.7hPa | 2.9V | 00:00:00 | 00:00:00 | 00:00:00 | |
| EDDB2-11 | 2026-09-03 23:18:54 | 52.13136 | 14.45958 | 129° | 115km/h | 6767m | 7.0m/s | -17.6°C | 82.8% | 437.7hPa | 2.9V | 00:00:00 | 00:00:00 | 00:00:00 | |
| KRY50SP-1 | 2026-09-03 23:18:52 | 52.13155 | 14.45921 | 129° | 115km/h | 6760m | 6.8m/s | -17.5°C | 0% | 0hPa | 2.9V | 00:00:00 | 00:00:00 | 00:00:00 | |
| DL2RXE-15 | 2026-09-03 23:18:50 | 52.13208 | 14.45799 | 124° | 126km/h | 6740m | 5.2m/s | -17.4°C | 80.6% | 439.3hPa | 2.9V | 00:00:00 | 00:00:00 | 00:00:00 | |
| SP6BVK | 2026-09-03 23:18:49 | 52.13208 | 14.45799 | 124° | 126km/h | 6740m | 5.2m/s | 0°C | 0% | 0hPa | 2.9V | 00:00:00 | 00:00:00 | 00:00:00 | |
| KRY50SP-1 | 2026-09-03 23:18:46 | 52.13260 | 14.45668 | 124° | 126km/h | 6726m | 5.3m/s | -17.2°C | 0% | 0hPa | 2.9V | 00:00:00 | 00:00:00 | 00:00:00 | |
| DB0DAN | 2026-09-03 23:18:40 | 52.13382 | 14.45414 | 131° | 97km/h | 6681m | 6.8m/s | -16.9°C | 77.2% | 442.78hPa | 2.9V | 00:00:00 | 00:00:00 | 00:00:00 | |
| AA1-15 | 2026-09-03 23:18:32 | 52.13510 | 14.45117 | 125° | 117km/h | 6637m | 6.2m/s | 0°C | 0% | 0hPa | 2.9V | 18:12:15 | 00:40:42 | 00:00:00 | |
| S3001 | 2026-09-03 23:18:29 | 52.13557 | 14.45001 | 122° | 108km/h | 6621m | 5.0m/s | -16.8°C | 84.0% | 446.4hPa | 2.8V | 00:00:00 | 00:00:00 | 00:00:00 | |
| SP6BVK | 2026-09-03 23:18:28 | 52.13557 | 14.45001 | 123° | 110km/h | 6621m | 5.0m/s | 0°C | 0% | 0hPa | 2.8V | 00:00:00 | 00:00:00 | 00:00:00 | |
| DB0DAN | 2026-09-03 23:18:25 | 52.13620 | 14.44853 | 129° | 110km/h | 6598m | 2.3m/s | -16.8°C | 91.8% | 447.71hPa | 2.8V | 00:00:00 | 00:00:00 | 00:00:00 | |
| AA1-15 | 2026-09-03 23:18:20 | 52.13710 | 14.44682 | 130° | 106km/h | 6574m | 5.7m/s | 0°C | 0% | 0hPa | 2.9V | 18:12:15 | 00:40:30 | 00:00:00 | |
| AA1-15 | 2026-09-03 23:18:10 | 52.13889 | 14.44308 | 124° | 117km/h | 6515m | 6.8m/s | 0°C | 0% | 0hPa | 2.9V | 18:12:15 | 00:40:20 | 00:00:00 | |
| DB0DAN | 2026-09-03 23:18:10 | 52.13889 | 14.44308 | 124° | 111km/h | 6515m | 6.8m/s | -16.6°C | 99.3% | 452.68hPa | 2.9V | 00:00:00 | 00:00:00 | 00:00:00 | |
| DAC517 | 2026-09-03 23:18:09 | 52.13888 | 14.44308 | 125° | 117km/h | 6515m | 6.8m/s | -16.6°C | 99.3% | 452.7hPa | 2.9V | 00:00:00 | 00:00:00 | 00:00:00 | |
| SP6BVK | 2026-09-03 23:18:07 | 52.13919 | 14.44230 | 121° | 106km/h | 6501m | 7.2m/s | 0°C | 0% | 0hPa | 2.9V | 00:00:00 | 00:00:00 | 00:00:00 | |
| S3001 | 2026-09-03 23:17:58 | 52.14056 | 14.43850 | 124° | 106km/h | 6444m | 4.5m/s | -16.0°C | 97.0% | 456.9hPa | 2.9V | 00:00:00 | 00:00:00 | 00:00:00 | |
| DB0DAN | 2026-09-03 23:17:55 | 52.14103 | 14.43738 | 122° | 108km/h | 6426m | 7m/s | -15.9°C | 94.7% | 458.05hPa | 2.9V | 00:00:00 | 00:00:00 | 00:00:00 | |
| AA1-15 | 2026-09-03 23:17:46 | 52.14238 | 14.43407 | 119° | 100km/h | 6376m | 6.2m/s | 0°C | 0% | 0hPa | 2.8V | 18:12:15 | 00:39:56 | 00:00:00 | |
| DB0DAN | 2026-09-03 23:17:40 | 52.14326 | 14.43168 | 121° | 115km/h | 6347m | 5.8m/s | -15.1°C | 90.4% | 462.83hPa | 2.9V | 00:00:00 | 00:00:00 | 00:00:00 | |
| 13BRC | 2026-09-03 23:17:39 | 52.14326 | 14.43168 | 122° | 120km/h | 6347m | 5.8m/s | -15.1°C | 90.4% | 462.8hPa | 2.8V | 00:00:00 | 00:00:00 | 00:00:00 | |
| DL2RXE-15 | 2026-09-03 23:17:31 | 52.14445 | 14.42869 | 127° | 102km/h | 6304m | 4.9m/s | -14.8°C | 0% | 0hPa | 2.8V | 00:00:00 | 00:00:00 | 00:00:00 | |
| DAC517 | 2026-09-03 23:17:28 | 52.14490 | 14.42762 | 123° | 110km/h | 6292m | 5.5m/s | -14.7°C | 91.2% | 466.2hPa | 2.8V | 00:00:00 | 00:00:00 | 00:00:00 | |
| DB0DAN | 2026-09-03 23:17:25 | 52.14553 | 14.42611 | 125° | 100km/h | 6267m | 6.4m/s | -14.5°C | 89.2% | 467.74hPa | 2.8V | 00:00:00 | 00:00:00 | 00:00:00 | |
| SP3BTT-10 | 2026-09-03 23:17:25 | 52.14553 | 14.42611 | 125° | 100km/h | 6267m | 6.4m/s | -14.5°C | 91.5% | 467.7hPa | 2.9V | 00:00:00 | 00:00:00 | 00:00:00 | |
| EDDB2-11 | 2026-09-03 23:17:21 | 52.14606 | 14.42473 | 122° | 100km/h | 6243m | 7.0m/s | -14.4°C | 88.1% | 469.2hPa | 2.9V | 00:00:00 | 00:00:00 | 00:00:00 | |
| 13BRC | 2026-09-03 23:17:20 | 52.14620 | 14.42437 | 125° | 104km/h | 6237m | 5.9m/s | -14.4°C | 88.2% | 469.6hPa | 2.9V | 00:00:00 | 00:00:00 | 00:00:00 | |
| DB0DAN | 2026-09-03 23:17:10 | 52.14773 | 14.42073 | 124° | 99km/h | 6173m | 5.9m/s | -14°C | 93.3% | 473.58hPa | 2.9V | 00:00:00 | 00:00:00 | 00:00:00 | |
| EDDB2-12 | 2026-09-03 23:17:09 | 52.14802 | 14.42002 | 122° | 104km/h | 6162m | 5.5m/s | -14.0°C | 93.6% | 474.2hPa | 2.9V | 00:00:00 | 00:00:00 | 00:00:00 | |
| DAC517 | 2026-09-03 23:17:06 | 52.14816 | 14.41964 | 121° | 108km/h | 6157m | 4.7m/s | -13.9°C | 93.3% | 474.6hPa | 2.9V | 00:00:00 | 00:00:00 | 00:00:00 | |
| S3001 | 2026-09-03 23:16:56 | 52.14976 | 14.41530 | 123° | 108km/h | 6099m | 5.4m/s | -13.5°C | 93.2% | 478.2hPa | 2.9V | 00:00:00 | 00:00:00 | 00:00:00 | |
| DB0DAN | 2026-09-03 23:16:55 | 52.14976 | 14.41530 | 124° | 104km/h | 6099m | 5.4m/s | -13.5°C | 93.2% | 478.17hPa | 2.9V | 00:00:00 | 00:00:00 | 00:00:00 | |
| SP3BTT-10 | 2026-09-03 23:16:55 | 52.14976 | 14.41530 | 124° | 106km/h | 6099m | 5.3m/s | -13.4°C | 95.5% | 478.1hPa | 2.9V | 00:00:00 | 00:00:00 | 00:00:00 | |
| KRY50SP-1 | 2026-09-03 23:16:50 | 52.15047 | 14.41341 | 123° | 106km/h | 6067m | 6.6m/s | 0°C | 0% | 0hPa | 2.9V | 00:00:00 | 00:00:00 | 00:00:00 | |
| DAC517 | 2026-09-03 23:16:45 | 52.15100 | 14.41195 | 120° | 102km/h | 6045m | 5.1m/s | -13.2°C | 90.7% | 481.6hPa | 2.9V | 00:00:00 | 00:00:00 | 00:00:00 | |
| DB0DAN | 2026-09-03 23:16:40 | 52.15185 | 14.40979 | 126° | 102km/h | 6019m | 5.3m/s | -13°C | 91.3% | 483.37hPa | 2.9V | 00:00:00 | 00:00:00 | 00:00:00 | |
| EDDB2-12 | 2026-09-03 23:16:38 | 52.15232 | 14.40866 | 122° | 111km/h | 6006m | 6.5m/s | -12.9°C | 90.2% | 484.3hPa | 2.9V | 00:00:00 | 00:00:00 | 00:00:00 | |
| DL2RXE-15 | 2026-09-03 23:16:29 | 52.15330 | 14.40609 | 129° | 100km/h | 5970m | 4.0m/s | -12.7°C | 0% | 0hPa | 2.9V | 00:00:00 | 00:00:00 | 00:00:00 | |
| DB0DAN | 2026-09-03 23:16:25 | 52.15408 | 14.40433 | 124° | 106km/h | 5947m | 5.7m/s | -12.6°C | 89.1% | 488.01hPa | 2.9V | 00:00:00 | 00:00:00 | 00:00:00 | |
| S3001 | 2026-09-03 23:16:25 | 52.15423 | 14.40395 | 124° | 111km/h | 5941m | 6.4m/s | -12.5°C | 89.0% | 488.3hPa | 2.9V | 00:00:00 | 00:00:00 | 00:00:00 | |
| EDDB2-11 | 2026-09-03 23:16:19 | 52.15497 | 14.40216 | 122° | 99km/h | 5919m | 4.8m/s | -12.5°C | 93.5% | 489.8hPa | 2.9V | 00:00:00 | 00:00:00 | 00:00:00 | |
| 13BRC | 2026-09-03 23:16:17 | 52.15511 | 14.40181 | 124° | 100km/h | 5914m | 6.1m/s | -12.5°C | 93.7% | 490.1hPa | 2.9V | 00:00:00 | 00:00:00 | 00:00:00 | |
| DB0DAN | 2026-09-03 23:16:10 | 52.15625 | 14.39884 | 119° | 108km/h | 5875m | 4.2m/s | -12.4°C | 92.2% | 492.52hPa | 2.9V | 00:00:00 | 00:00:00 | 00:00:00 | |
| SP3BTT-10 | 2026-09-03 23:16:09 | 52.15638 | 14.39844 | 119° | 104km/h | 5870m | 4.8m/s | -12.3°C | 94.1% | 492.8hPa | 2.9V | 00:00:00 | 00:00:00 | 00:00:00 | |
| EDDB2-12 | 2026-09-03 23:16:07 | 52.15678 | 14.39728 | 119° | 106km/h | 5858m | 5.7m/s | -12.2°C | 91.0% | 493.6hPa | 2.9V | 00:00:00 | 00:00:00 | 00:00:00 | |
| DAC517 | 2026-09-03 23:16:05 | 52.15692 | 14.39689 | 122° | 108km/h | 5852m | 6.9m/s | -12.2°C | 89.7% | 493.9hPa | 2.9V | 00:00:00 | 00:00:00 | 00:00:00 | |
| S3001 | 2026-09-03 23:15:54 | 52.15851 | 14.39262 | 121° | 100km/h | 5785m | 5.7m/s | -11.9°C | 85.5% | 498.4hPa | 2.9V | 00:00:00 | 00:00:00 | 00:00:00 | |
| EDDB2-11 | 2026-09-03 23:15:48 | 52.15925 | 14.39074 | 122° | 102km/h | 5756m | 5.5m/s | -11.9°C | 89.5% | 500.2hPa | 2.9V | 00:00:00 | 00:00:00 | 00:00:00 | |
| DAC517 | 2026-09-03 23:15:43 | 52.15984 | 14.38936 | 125° | 104km/h | 5730m | 6.0m/s | -11.8°C | 90.6% | 501.8hPa | 2.9V | 00:00:00 | 00:00:00 | 00:00:00 | |
| DB0DAN | 2026-09-03 23:15:40 | 52.16037 | 14.38792 | 121° | 93km/h | 5711m | 6.6m/s | -11.8°C | 90.9% | 503.24hPa | 2.9V | 00:00:00 | 00:00:00 | 00:00:00 | |
| SP3BTT-10 | 2026-09-03 23:15:39 | 52.16051 | 14.38757 | 123° | 95km/h | 5705m | 6.0m/s | -11.7°C | 94.1% | 503.5hPa | 2.9V | 00:00:00 | 00:00:00 | 00:00:00 | |
| 13BRC | 2026-09-03 23:15:36 | 52.16092 | 14.38649 | 119° | 106km/h | 5687m | 6.5m/s | -11.8°C | 92.0% | 504.7hPa | 2.9V | 00:00:00 | 00:00:00 | 00:00:00 | |
| DL2RXE-15 | 2026-09-03 23:15:32 | 52.16138 | 14.38500 | 121° | 100km/h | 5663m | 6.6m/s | -11.6°C | 0% | 0hPa | 2.9V | 00:00:00 | 00:00:00 | 00:00:00 | |
| DB0DAN | 2026-09-03 23:15:25 | 52.16237 | 14.38257 | 124° | 100km/h | 5621m | 6.7m/s | -11.3°C | 90.2% | 509.13hPa | 2.9V | 00:00:00 | 00:00:00 | 00:00:00 | |
| AA1-15 | 2026-09-03 23:15:18 | 52.16335 | 14.38030 | 121° | 84km/h | 5576m | 7.4m/s | 0°C | 0% | 0hPa | 2.9V | 18:12:15 | 00:37:28 | 00:00:00 | |
| EDDB2-11 | 2026-09-03 23:15:17 | 52.16345 | 14.38002 | 121° | 80km/h | 5569m | 4.8m/s | -10.9°C | 88.7% | 512.6hPa | 2.9V | 00:00:00 | 00:00:00 | 00:00:00 | |
| 13BRC | 2026-09-03 23:15:14 | 52.16367 | 14.37941 | 122° | 91km/h | 5560m | 3.4m/s | -10.9°C | 87.8% | 513.2hPa | 2.9V | 00:00:00 | 00:00:00 | 00:00:00 | |
| DB0DAN | 2026-09-03 23:15:10 | 52.16435 | 14.37773 | 128° | 88km/h | 5533m | 5.9m/s | -10.8°C | 87.3% | 514.87hPa | 2.9V | 00:00:00 | 00:00:00 | 00:00:00 | |
| AA1-15 | 2026-09-03 23:14:56 | 52.16598 | 14.37340 | 130° | 89km/h | 5444m | 5.1m/s | 0°C | 0% | 0hPa | 2.9V | 18:12:15 | 00:37:06 | 00:00:00 | |
| DB0DAN | 2026-09-03 23:14:55 | 52.16613 | 14.37311 | 131° | 89km/h | 5439m | 4.4m/s | -10.4°C | 91.7% | 521.27hPa | 2.9V | 00:00:00 | 00:00:00 | 00:00:00 | |
| AA1-15 | 2026-09-03 23:14:45 | 52.16736 | 14.37004 | 130° | 84km/h | 5386m | 5.8m/s | 0°C | 0% | 0hPa | 2.9V | 18:12:15 | 00:36:55 | 00:00:00 | |
| DB0DAN | 2026-09-03 23:14:40 | 52.16802 | 14.36860 | 121° | 93km/h | 5357m | 5.7m/s | -9.8°C | 95.1% | 526.73hPa | 2.9V | 00:00:00 | 00:00:00 | 00:00:00 | |
| AA1-15 | 2026-09-03 23:14:34 | 52.16873 | 14.36666 | 123° | 82km/h | 5320m | 7.7m/s | 0°C | 0% | 0hPa | 2.9V | 18:12:15 | 00:36:44 | 00:00:00 | |
| EDDB2-12 | 2026-09-03 23:14:33 | 52.16884 | 14.36639 | 126° | 78km/h | 5314m | 4.4m/s | -9.5°C | 95.5% | 529.7hPa | 2.9V | 00:00:00 | 00:00:00 | 00:00:00 | |
| 13BRC | 2026-09-03 23:14:32 | 52.16884 | 14.36639 | 127° | 80km/h | 5314m | 4.4m/s | -9.5°C | 95.5% | 529.7hPa | 2.9V | 00:00:00 | 00:00:00 | 00:00:00 | |
| DB0DAN | 2026-09-03 23:14:25 | 52.16972 | 14.36402 | 120° | 89km/h | 5271m | 6.5m/s | -9.1°C | 92.7% | 532.61hPa | 2.9V | 00:00:00 | 00:00:00 | 00:00:00 | |
| SP3BTT-10 | 2026-09-03 23:14:23 | 52.16997 | 14.36334 | 124° | 89km/h | 5261m | 5.8m/s | -8.9°C | 94.1% | 533.4hPa | 2.9V | 00:00:00 | 00:00:00 | 00:00:00 | |
| DAC517 | 2026-09-03 23:14:18 | 52.17049 | 14.36210 | 128° | 86km/h | 5238m | 6.2m/s | -8.8°C | 90.7% | 535.0hPa | 2.9V | 00:00:00 | 00:00:00 | 00:00:00 | |
| EDDB2-11 | 2026-09-03 23:14:15 | 52.17099 | 14.36095 | 120° | 80km/h | 5215m | 5.0m/s | -8.6°C | 90.0% | 536.6hPa | 2.9V | 00:00:00 | 00:00:00 | 00:00:00 | |
| 13BRC | 2026-09-03 23:14:11 | 52.17134 | 14.36008 | 125° | 89km/h | 5196m | 5.9m/s | -8.4°C | 88.9% | 537.9hPa | 2.9V | 00:00:00 | 00:00:00 | 00:00:00 | |
| DL2RXE-15 | 2026-09-03 23:14:08 | 52.17173 | 14.35913 | 125° | 91km/h | 5180m | 7.2m/s | 0°C | 0% | 539.0hPa | 2.9V | 00:00:00 | 00:00:00 | 00:00:00 | |
| EDDB2-12 | 2026-09-03 23:14:02 | 52.17263 | 14.35699 | 118° | 88km/h | 5141m | 5.1m/s | -8.2°C | 92.5% | 541.7hPa | 2.9V | 00:00:00 | 00:00:00 | 00:00:00 | |
| S3001 | 2026-09-03 23:13:49 | 52.17404 | 14.35282 | 120° | 100km/h | 5071m | 4.2m/s | -7.7°C | 91.0% | 546.8hPa | 2.9V | 00:00:00 | 00:00:00 | 00:00:00 | |
| DL2RXE-15 | 2026-09-03 23:13:48 | 52.17417 | 14.35247 | 124° | 99km/h | 5066m | 4.9m/s | -7.7°C | 0% | 0hPa | 2.9V | 00:00:00 | 00:00:00 | 00:00:00 | |
| EDDB2-11 | 2026-09-03 23:13:44 | 52.17475 | 14.35091 | 122° | 80km/h | 5036m | 6.9m/s | -7.4°C | 89.0% | 549.1hPa | 2.9V | 00:00:00 | 00:00:00 | 00:00:00 | |
| DB0DAN | 2026-09-03 23:13:40 | 52.17511 | 14.35003 | 121° | 84km/h | 5021m | 3.4m/s | -7.4°C | 90.5% | 550.26hPa | 2.9V | 00:00:00 | 00:00:00 | 00:00:00 | |
| DAC517 | 2026-09-03 23:13:37 | 52.17532 | 14.34940 | 118° | 89km/h | 5013m | 4.4m/s | -7.4°C | 91.1% | 550.8hPa | 2.9V | 00:00:00 | 00:00:00 | 00:00:00 | |
| EDDB2-12 | 2026-09-03 23:13:31 | 52.17603 | 14.34702 | 112° | 89km/h | 4972m | 6.0m/s | -7.2°C | 88.9% | 553.6hPa | 2.9V | 00:00:00 | 00:00:00 | 00:00:00 | |
| 13BRC | 2026-09-03 23:13:30 | 52.17603 | 14.34702 | 114° | 91km/h | 4972m | 6.0m/s | -7.2°C | 88.9% | 553.6hPa | 2.9V | 00:00:00 | 00:00:00 | 00:00:00 | |
| DB0DAN | 2026-09-03 23:13:25 | 52.17662 | 14.34499 | 114° | 80km/h | 4936m | 5.7m/s | -6.9°C | 85.6% | 556.2hPa | 2.9V | 00:00:00 | 00:00:00 | 00:00:00 | |
| S3001 | 2026-09-03 23:13:18 | 52.17716 | 14.34286 | 110° | 88km/h | 4900m | 5.3m/s | -6.7°C | 83.5% | 558.9hPa | 2.9V | 00:00:00 | 00:00:00 | 00:00:00 | |
| DAC517 | 2026-09-03 23:13:17 | 52.17716 | 14.34286 | 111° | 89km/h | 4900m | 5.3m/s | -6.7°C | 83.5% | 558.9hPa | 2.9V | 00:00:00 | 00:00:00 | 00:00:00 | |
| SONDE2-11 | 2026-09-03 23:13:13 | 52.17757 | 14.34112 | 107° | 82km/h | 4871m | 5.7m/s | -6.5°C | 84.0% | 561.0hPa | 2.9V | 00:00:00 | 00:00:00 | 00:00:00 | |
| DL2RXE-15 | 2026-09-03 23:13:12 | 52.17757 | 14.34112 | 109° | 84km/h | 4871m | 5.7m/s | 0°C | 0% | 561.1hPa | 2.9V | 00:00:00 | 00:00:00 | 00:00:00 | |
| DB0DAN | 2026-09-03 23:13:10 | 52.17779 | 14.34018 | 116° | 80km/h | 4852m | 6.7m/s | -6.5°C | 83.8% | 562.35hPa | 2.9V | 00:00:00 | 00:00:00 | 00:00:00 | |
| 13BRC | 2026-09-03 23:13:09 | 52.17780 | 14.34018 | 117° | 84km/h | 4852m | 6.7m/s | -6.5°C | 83.7% | 562.4hPa | 2.9V | 00:00:00 | 00:00:00 | 00:00:00 | |
| EDDB2-12 | 2026-09-03 23:13:00 | 52.17861 | 14.33698 | 110° | 75km/h | 4797m | 4.0m/s | -6.3°C | 86.7% | 566.3hPa | 2.9V | 00:00:00 | 00:00:00 | 00:00:00 | |
| DAC517 | 2026-09-03 23:12:58 | 52.17874 | 14.33639 | 109° | 80km/h | 4784m | 7.0m/s | -6.2°C | 85.9% | 567.2hPa | 2.9V | 00:00:00 | 00:00:00 | 00:00:00 | |
| DB0DAN | 2026-09-03 23:12:55 | 52.17896 | 14.33531 | 110° | 97km/h | 4767m | 4.9m/s | -6.2°C | 84.8% | 568.38hPa | 2.9V | 00:00:00 | 00:00:00 | 00:00:00 | |
| S3001 | 2026-09-03 23:12:47 | 52.17946 | 14.33252 | 103° | 80km/h | 4727m | 6.2m/s | -6.1°C | 86.2% | 571.2hPa | 2.9V | 00:00:00 | 00:00:00 | 00:00:00 | |
| EDDB2-11 | 2026-09-03 23:12:42 | 52.17997 | 14.33055 | 114° | 91km/h | 4696m | 3.7m/s | -6.1°C | 89.2% | 573.5hPa | 2.9V | 00:00:00 | 00:00:00 | 00:00:00 | |
| SP3BTT-10 | 2026-09-03 23:12:37 | 52.18026 | 14.32922 | 106° | 82km/h | 4677m | 5.2m/s | -6.1°C | 94.7% | 574.8hPa | 2.9V | 00:00:00 | 00:00:00 | 00:00:00 | |
| DAC517 | 2026-09-03 23:12:36 | 52.18026 | 14.32922 | 107° | 82km/h | 4677m | 5.3m/s | -6.1°C | 93.3% | 574.8hPa | 2.9V | 00:00:00 | 00:00:00 | 00:00:00 | |
| EDDB2-12 | 2026-09-03 23:12:29 | 52.18073 | 14.32639 | 104° | 84km/h | 4629m | 5.1m/s | -6.0°C | 83.9% | 578.5hPa | 2.9V | 00:00:00 | 00:00:00 | 00:00:00 | |
| DB0DAN | 2026-09-03 23:12:25 | 52.18099 | 14.32503 | 107° | 88km/h | 4607m | 6.1m/s | -6.1°C | 81.4% | 580.04hPa | 2.9V | 00:00:00 | 00:00:00 | 00:00:00 | |
| DL2RXE-15 | 2026-09-03 23:12:23 | 52.18106 | 14.32467 | 106° | 91km/h | 4601m | 5.9m/s | 0°C | 0% | 580.5hPa | 3V | 00:00:00 | 00:00:00 | 00:00:00 | |
| S3001 | 2026-09-03 23:12:16 | 52.18151 | 14.32162 | 103° | 77km/h | 4552m | 5.6m/s | -5.9°C | 74.0% | 584.1hPa | 3V | 00:00:00 | 00:00:00 | 00:00:00 | |
| DB0DAN | 2026-09-03 23:12:10 | 52.18173 | 14.31996 | 100° | 78km/h | 4526m | 5.8m/s | -5.8°C | 57% | 586.1hPa | 3V | 00:00:00 | 00:00:00 | 00:00:00 | |
| 13BRC | 2026-09-03 23:12:08 | 52.18177 | 14.31963 | 104° | 80km/h | 4520m | 5.6m/s | -5.7°C | 52.8% | 586.4hPa | 2.9V | 00:00:00 | 00:00:00 | 00:00:00 | |
| SP3BTT-10 | 2026-09-03 23:12:07 | 52.18188 | 14.31897 | 108° | 84km/h | 4510m | 4.5m/s | -5.6°C | 44.6% | 587.3hPa | 2.9V | 00:00:00 | 00:00:00 | 00:00:00 | |
| DL2RXE-15 | 2026-09-03 23:12:03 | 52.18206 | 14.31793 | 103° | 86km/h | 4494m | 5.2m/s | -5.5°C | 0% | 0hPa | 2.9V | 00:00:00 | 00:00:00 | 00:00:00 | |
| EDDB2-12 | 2026-09-03 23:11:58 | 52.18237 | 14.31564 | 101° | 82km/h | 4456m | 5.6m/s | -5.3°C | 28.8% | 591.3hPa | 2.9V | 00:00:00 | 00:00:00 | 00:00:00 | |
| DB0DAN | 2026-09-03 23:11:55 | 52.18244 | 14.31502 | 103° | 68km/h | 4444m | 6m/s | -5.2°C | 25.1% | 592.23hPa | 2.9V | 00:00:00 | 00:00:00 | 00:00:00 | |
| 13BRC | 2026-09-03 23:11:48 | 52.18271 | 14.31330 | 98° | 82km/h | 4411m | 5.9m/s | -4.9°C | 20.4% | 594.7hPa | 3V | 00:00:00 | 00:00:00 | 00:00:00 | |
| DB0DAN | 2026-09-03 23:11:40 | 52.18303 | 14.31025 | 103° | 73km/h | 4360m | 5.6m/s | -4.5°C | 17.5% | 598.65hPa | 3V | 00:00:00 | 00:00:00 | 00:00:00 | |
| EDDB2-11 | 2026-09-03 23:11:40 | 52.18308 | 14.30993 | 104° | 80km/h | 4354m | 6.4m/s | -4.5°C | 16.6% | 599.1hPa | 3.0V | 00:00:00 | 00:00:00 | 00:00:00 | |
| SP3BTT-10 | 2026-09-03 23:11:37 | 52.18318 | 14.30926 | 102° | 75km/h | 4344m | 5.2m/s | -4.4°C | 16.5% | 599.7hPa | 3.0V | 00:00:00 | 00:00:00 | 00:00:00 | |
| DAC517 | 2026-09-03 23:11:34 | 52.18325 | 14.30858 | 99° | 78km/h | 4333m | 4.8m/s | -4.4°C | 15.7% | 600.7hPa | 3V | 00:00:00 | 00:00:00 | 00:00:00 | |
| 13BRC | 2026-09-03 23:11:28 | 52.18346 | 14.30644 | 104° | 73km/h | 4292m | 7.0m/s | -4.1°C | 14.3% | 603.8hPa | 3V | 00:00:00 | 00:00:00 | 00:00:00 | |
| DB0DAN | 2026-09-03 23:11:25 | 52.18361 | 14.30549 | 103° | 80km/h | 4276m | 6.5m/s | -4°C | 14.1% | 605.02hPa | 3V | 00:00:00 | 00:00:00 | 00:00:00 | |
| DL2RXE-15 | 2026-09-03 23:11:18 | 52.18380 | 14.30353 | 100° | 80km/h | 4243m | 6.2m/s | -3.8°C | 0% | 0hPa | 3V | 00:00:00 | 00:00:00 | 00:00:00 | |
| DAC517 | 2026-09-03 23:11:16 | 52.18390 | 14.30229 | 101° | 71km/h | 4220m | 5.6m/s | -3.7°C | 14.9% | 609.4hPa | 3V | 00:00:00 | 00:00:00 | 00:00:00 | |
| DB0DAN | 2026-09-03 23:11:10 | 52.18412 | 14.30070 | 100° | 77km/h | 4193m | 4.5m/s | -3.6°C | 15.3% | 611.53hPa | 3V | 00:00:00 | 00:00:00 | 00:00:00 | |
| EDDB2-11 | 2026-09-03 23:11:09 | 52.18418 | 14.30007 | 99° | 73km/h | 4182m | 5.5m/s | -3.5°C | 15.3% | 612.4hPa | 2.9V | 00:00:00 | 00:00:00 | 00:00:00 | |
| 13BRC | 2026-09-03 23:11:06 | 52.18422 | 14.29978 | 102° | 73km/h | 4177m | 5.7m/s | -3.5°C | 15.2% | 612.7hPa | 2.9V | 00:00:00 | 00:00:00 | 00:00:00 | |
| EDDB2-12 | 2026-09-03 23:10:56 | 52.18457 | 14.29649 | 95° | 73km/h | 4115m | 5.0m/s | -3.2°C | 12.2% | 617.4hPa | 2.9V | 00:00:00 | 00:00:00 | 00:00:00 | |
| DB0DAN | 2026-09-03 23:10:55 | 52.18459 | 14.29620 | 96° | 66km/h | 4110m | 5.3m/s | -3.2°C | 12% | 617.79hPa | 2.9V | 00:00:00 | 00:00:00 | 00:00:00 | |
| DAC517 | 2026-09-03 23:10:54 | 52.18459 | 14.29620 | 97° | 69km/h | 4110m | 5.3m/s | -3.2°C | 12.0% | 617.8hPa | 3V | 00:00:00 | 00:00:00 | 00:00:00 | |
| SP3BTT-10 | 2026-09-03 23:10:52 | 52.18470 | 14.29539 | 109° | 71km/h | 4095m | 5.4m/s | -3.0°C | 11.7% | 618.9hPa | 3V | 00:00:00 | 00:00:00 | 00:00:00 | |
| DL2RXE-15 | 2026-09-03 23:10:50 | 52.18476 | 14.29510 | 109° | 77km/h | 4089m | 5.2m/s | 0°C | 0% | 619.4hPa | 3V | 00:00:00 | 00:00:00 | 00:00:00 | |
| 13BRC | 2026-09-03 23:10:46 | 52.18496 | 14.29380 | 102° | 78km/h | 4068m | 5.0m/s | -2.9°C | 11.4% | 621.1hPa | 3V | 00:00:00 | 00:00:00 | 00:00:00 | |
| DB0DAN | 2026-09-03 23:10:40 | 52.18521 | 14.29179 | 101° | 66km/h | 4027m | 5.7m/s | -2.7°C | 11.7% | 624.15hPa | 3V | 00:00:00 | 00:00:00 | 00:00:00 | |
| DL2RXE-15 | 2026-09-03 23:10:29 | 52.18560 | 14.28869 | 100° | 69km/h | 3969m | 6.2m/s | 0°C | 0% | 0hPa | 3V | 00:00:00 | 00:00:00 | 00:00:00 | |
| DB0DAN | 2026-09-03 23:10:25 | 52.18580 | 14.28739 | 105° | 64km/h | 3941m | 5.2m/s | -2.1°C | 14.8% | 631.12hPa | 3V | 00:00:00 | 00:00:00 | 00:00:00 | |
| EDDB2-12 | 2026-09-03 23:10:25 | 52.18584 | 14.28712 | 103° | 66km/h | 3935m | 6.0m/s | -2.1°C | 13.0% | 631.6hPa | 3V | 00:00:00 | 00:00:00 | 00:00:00 | |
| SP3BTT-10 | 2026-09-03 23:10:22 | 52.18591 | 14.28660 | 105° | 69km/h | 3924m | 5.8m/s | -2.0°C | 11.4% | 632.4hPa | 3V | 00:00:00 | 00:00:00 | 00:00:00 | |
| DB0DAN | 2026-09-03 23:10:10 | 52.18638 | 14.28310 | 98° | 71km/h | 3859m | 7.4m/s | -1.6°C | 10.2% | 637.8hPa | 3V | 00:00:00 | 00:00:00 | 00:00:00 | |
| DL2RXE-15 | 2026-09-03 23:10:09 | 52.18638 | 14.28310 | 99° | 75km/h | 3859m | 7.4m/s | -1.6°C | 0% | 0hPa | 3V | 00:00:00 | 00:00:00 | 00:00:00 | |
| SONDE2-11 | 2026-09-03 23:10:07 | 52.18655 | 14.28198 | 109° | 73km/h | 3835m | 5.0m/s | -1.5°C | 10.3% | 639.6hPa | 3V | 00:00:00 | 00:00:00 | 00:00:00 | |
| EDDB2-11 | 2026-09-03 23:10:06 | 52.18655 | 14.28198 | 109° | 73km/h | 3835m | 5.0m/s | -1.5°C | 10.3% | 639.6hPa | 3V | 00:00:00 | 00:00:00 | 00:00:00 | |
| 13BRC | 2026-09-03 23:10:04 | 52.18661 | 14.28169 | 109° | 77km/h | 3830m | 5.3m/s | -1.5°C | 10.7% | 640.0hPa | 3V | 00:00:00 | 00:00:00 | 00:00:00 | |
| DB0DAN | 2026-09-03 23:09:55 | 52.18710 | 14.27884 | 102° | 64km/h | 3776m | 4.9m/s | -1.4°C | 13.9% | 644.4hPa | 3V | 00:00:00 | 00:00:00 | 00:00:00 | |
| EDDB2-12 | 2026-09-03 23:09:54 | 52.18719 | 14.27830 | 106° | 69km/h | 3763m | 6.8m/s | -1.3°C | 13.4% | 645.3hPa | 3.0V | 00:00:00 | 00:00:00 | 00:00:00 | |
| SP3BTT-10 | 2026-09-03 23:09:52 | 52.18724 | 14.27802 | 108° | 69km/h | 3758m | 4.5m/s | -1.2°C | 14.1% | 645.8hPa | 3.0V | 00:00:00 | 00:00:00 | 08:30:00 | |
| DAC517 | 2026-09-03 23:09:49 | 52.18739 | 14.27719 | 108° | 66km/h | 3740m | 5.2m/s | -1.1°C | 14.8% | 647.4hPa | 3V | 00:00:00 | 00:00:00 | 00:00:00 | |
| 13BRC | 2026-09-03 23:09:43 | 52.18765 | 14.27586 | 103° | 68km/h | 3712m | 5.5m/s | -1.0°C | 15.5% | 649.5hPa | 3V | 00:00:00 | 00:00:00 | 00:00:00 | |
| DB0DAN | 2026-09-03 23:09:40 | 52.18781 | 14.27479 | 106° | 69km/h | 3692m | 5.1m/s | -0.9°C | 15.3% | 651.24hPa | 3V | 00:00:00 | 00:00:00 | 00:00:00 | |
| SONDE2-11 | 2026-09-03 23:09:36 | 52.18806 | 14.27331 | 111° | 64km/h | 3664m | 5.1m/s | -0.8°C | 15.9% | 653.5hPa | 3V | 00:00:00 | 00:00:00 | 00:00:00 | |
| EDDB2-11 | 2026-09-03 23:09:35 | 52.18806 | 14.27331 | 111° | 64km/h | 3664m | 5.1m/s | -0.8°C | 15.9% | 653.5hPa | 3V | 00:00:00 | 00:00:00 | 00:00:00 | |
| DAC517 | 2026-09-03 23:09:28 | 52.18840 | 14.27200 | 103° | 55km/h | 3627m | 4.7m/s | -0.6°C | 0% | 656.6hPa | 3V | 00:00:00 | 00:00:00 | 00:00:00 | |
| 13BRC | 2026-09-03 23:09:22 | 52.18862 | 14.27065 | 112° | 66km/h | 3593m | 4.6m/s | -0.5°C | 18.9% | 659.5hPa | 3V | 00:00:00 | 00:00:00 | 00:00:00 | |
| DL2RXE-15 | 2026-09-03 23:09:20 | 52.18874 | 14.27013 | 110° | 69km/h | 3583m | 5.2m/s | 0°C | 0% | 0hPa | 3V | 00:00:00 | 00:00:00 | 00:00:00 | |
| DB0DAN | 2026-09-03 23:09:10 | 52.18922 | 14.26715 | 103° | 62km/h | 3524m | 5.1m/s | -0.1°C | 19.8% | 665hPa | 3V | 00:00:00 | 00:00:00 | 00:00:00 | |
| SP3BTT-10 | 2026-09-03 23:09:07 | 52.18936 | 14.26630 | 104° | 68km/h | 3510m | 5.1m/s | 0°C | 0% | 0hPa | 3V | 00:00:00 | 00:00:00 | 00:00:00 | |
| SONDE2-11 | 2026-09-03 23:09:05 | 52.18946 | 14.26546 | 102° | 62km/h | 3492m | 5.2m/s | 0.1°C | 19.8% | 667.8hPa | 3V | 00:00:00 | 00:00:00 | 00:00:00 | |
| EDDB2-11 | 2026-09-03 23:09:04 | 52.18946 | 14.26546 | 102° | 62km/h | 3492m | 5.2m/s | 0.1°C | 19.8% | 667.8hPa | 3V | 00:00:00 | 00:00:00 | 00:00:00 | |
| 13BRC | 2026-09-03 23:09:02 | 52.18950 | 14.26521 | 107° | 60km/h | 3487m | 5.6m/s | 0.1°C | 19.8% | 668.2hPa | 3V | 00:00:00 | 00:00:00 | 00:00:00 | |
| DL2RXE-15 | 2026-09-03 23:08:58 | 52.18970 | 14.26416 | 103° | 73km/h | 3463m | 6.2m/s | 0°C | 0% | 0hPa | 3V | 00:00:00 | 00:00:00 | 00:00:00 | |
| DB0DAN | 2026-09-03 23:08:55 | 52.18981 | 14.26300 | 102° | 64km/h | 3441m | 5.6m/s | 0.4°C | 19.3% | 672.06hPa | 3V | 00:00:00 | 00:00:00 | 00:00:00 | |
| EDDB2-12 | 2026-09-03 23:08:52 | 52.18998 | 14.26198 | 103° | 60km/h | 3417m | 6.9m/s | 0.6°C | 18.5% | 674.1hPa | 3V | 00:00:00 | 00:00:00 | 00:00:00 | |
| DAC517 | 2026-09-03 23:08:48 | 52.19008 | 14.26119 | 106° | 69km/h | 3401m | 5.0m/s | 0.8°C | 0% | 675.5hPa | 3V | 00:00:00 | 00:00:00 | 00:00:00 | |
| DB0DAN | 2026-09-03 23:08:40 | 52.19043 | 14.25908 | 104° | 69km/h | 3359m | 5.3m/s | 1.2°C | 15.8% | 678.92hPa | 3V | 00:00:00 | 00:00:00 | 00:00:00 | |
| SP3BTT-10 | 2026-09-03 23:08:37 | 52.19061 | 14.25825 | 112° | 64km/h | 3343m | 6.4m/s | 0°C | 0% | 0hPa | 3V | 00:00:00 | 00:00:00 | 00:00:00 | |
| SONDE2-11 | 2026-09-03 23:08:34 | 52.19081 | 14.25715 | 104° | 73km/h | 3320m | 7.2m/s | 1.5°C | 13.2% | 682.3hPa | 3V | 00:00:00 | 00:00:00 | 00:00:00 | |
| EDDB2-11 | 2026-09-03 23:08:33 | 52.19081 | 14.25715 | 104° | 73km/h | 3320m | 7.2m/s | 1.5°C | 13.2% | 682.3hPa | 3V | 00:00:00 | 00:00:00 | 00:00:00 | |
| DB0DAN | 2026-09-03 23:08:25 | 52.19126 | 14.25510 | 112° | 68km/h | 3271m | 5.9m/s | 1.6°C | 13% | 686.53hPa | 3V | 00:00:00 | 00:00:00 | 00:00:00 | |
| 13BRC | 2026-09-03 23:08:20 | 52.19147 | 14.25405 | 111° | 60km/h | 3249m | 5.3m/s | 1.6°C | 16.2% | 688.2hPa | 3V | 00:00:00 | 00:00:00 | 00:00:00 | |
| DL2RXE-15 | 2026-09-03 23:08:18 | 52.19165 | 14.25333 | 113° | 68km/h | 3232m | 4.9m/s | 0°C | 0% | 0hPa | 3V | 00:00:00 | 00:00:00 | 00:00:00 | |
| DB0DAN | 2026-09-03 23:08:10 | 52.19210 | 14.25146 | 119° | 60km/h | 3187m | 4.9m/s | 1.7°C | 23.8% | 693.49hPa | 3V | 00:00:00 | 00:00:00 | 00:00:00 | |
| DB0DAN | 2026-09-03 23:08:10 | 52.19218 | 14.25123 | 117° | 60km/h | 3183m | 4.2m/s | 1.7°C | 24.4% | 694.14hPa | 3V | 00:00:00 | 00:00:00 | 00:00:00 | |
| SP3BTT-10 | 2026-09-03 23:08:07 | 52.19230 | 14.25078 | 112° | 58km/h | 3173m | 5.9m/s | 0°C | 0% | 0hPa | 3V | 00:00:00 | 00:00:00 | 00:00:00 | |
| DAC517 | 2026-09-03 23:08:05 | 52.19235 | 14.25056 | 110° | 55km/h | 3167m | 5.5m/s | 0°C | 0% | 0hPa | 3V | 00:00:00 | 00:00:00 | 00:00:00 | |
| SONDE2-11 | 2026-09-03 23:08:03 | 52.19252 | 14.24964 | 109° | 64km/h | 3146m | 5.7m/s | 2.0°C | 23.4% | 697.1hPa | 3V | 00:00:00 | 00:00:00 | 00:00:00 | |
| EDDB2-11 | 2026-09-03 23:08:02 | 52.19252 | 14.24964 | 109° | 64km/h | 3146m | 5.7m/s | 2.0°C | 23.4% | 697.1hPa | 3V | 00:00:00 | 00:00:00 | 00:00:00 | |
| EDDB2-12 | 2026-09-03 23:07:49 | 52.19301 | 14.24626 | 108° | 66km/h | 3071m | 4.8m/s | 2.4°C | 23.6% | 703.6hPa | 3V | 00:00:00 | 00:00:00 | 00:00:00 | |
| DL2RXE-15 | 2026-09-03 23:07:46 | 52.19311 | 14.24572 | 106° | 69km/h | 3061m | 6.0m/s | 0°C | 0% | 0hPa | 3V | 00:00:00 | 00:00:00 | 00:00:00 | |
| DAC517 | 2026-09-03 23:07:44 | 52.19319 | 14.24519 | 104° | 62km/h | 3050m | 5.4m/s | 0°C | 0% | 0hPa | 3V | 00:00:00 | 00:00:00 | 00:00:00 | |
| 13BRC | 2026-09-03 23:07:39 | 52.19343 | 14.24394 | 107° | 66km/h | 3021m | 6.5m/s | 2.6°C | 22.0% | 707.9hPa | 3V | 00:00:00 | 00:00:00 | 00:00:00 | |
| EDDB2-11 | 2026-09-03 23:07:31 | 52.19378 | 14.24175 | 93° | 60km/h | 2973m | 6.0m/s | 2.9°C | 22.2% | 712.3hPa | 3V | 00:00:00 | 00:00:00 | 00:00:00 | |
| DL2RXE-15 | 2026-09-03 23:07:26 | 52.19386 | 14.24083 | 106° | 57km/h | 2951m | 5.4m/s | 0°C | 0% | 0hPa | 3V | 00:00:00 | 00:00:00 | 00:00:00 | |
| SP3BTT-10 | 2026-09-03 23:07:21 | 52.19414 | 14.23942 | 108° | 57km/h | 2918m | 6.3m/s | 0°C | 0% | 0hPa | 3V | 00:00:00 | 00:00:00 | 00:00:00 | |
| 13BRC | 2026-09-03 23:07:18 | 52.19424 | 14.23895 | 109° | 64km/h | 2906m | 5.5m/s | 3.2°C | 23.3% | 718.4hPa | 3V | 00:00:00 | 00:00:00 | 00:00:00 | |
| DB0DAN | 2026-09-03 23:07:10 | 52.19463 | 14.23665 | 106° | 66km/h | 2854m | 4.9m/s | 2.9°C | 32.4% | 722.75hPa | 3V | 00:00:00 | 00:00:00 | 00:00:00 | |
| EDDB2-11 | 2026-09-03 23:07:00 | 52.19476 | 14.23436 | 107° | 51km/h | 2788m | 5.1m/s | 3.4°C | 33.9% | 728.7hPa | 3V | 00:00:00 | 00:00:00 | 00:00:00 | |
| 13BRC | 2026-09-03 23:06:57 | 52.19482 | 14.23394 | 103° | 53km/h | 2779m | 5.2m/s | 3.4°C | 34.9% | 729.6hPa | 3V | 00:00:00 | 00:00:00 | 00:00:00 | |
| DB0DAN | 2026-09-03 23:06:55 | 52.19489 | 14.23328 | 98° | 55km/h | 2764m | 4.9m/s | 3.5°C | 38% | 730.88hPa | 3V | 00:00:00 | 00:00:00 | 00:00:00 | |
| EDDB2-12 | 2026-09-03 23:06:47 | 52.19508 | 14.23154 | 100° | 55km/h | 2720m | 5.2m/s | 3.8°C | 44.6% | 734.9hPa | 3V | 00:00:00 | 00:00:00 | 00:00:00 | |
| DL2RXE-15 | 2026-09-03 23:06:45 | 52.19510 | 14.23131 | 105° | 55km/h | 2715m | 5.9m/s | 0°C | 0% | 0hPa | 3V | 00:00:00 | 00:00:00 | 00:00:00 | |
| DB0DAN | 2026-09-03 23:06:40 | 52.19525 | 14.23003 | 100° | 51km/h | 2680m | 5.7m/s | 3.7°C | 61.1% | 738.46hPa | 3V | 00:00:00 | 00:00:00 | 00:00:00 | |
| 13BRC | 2026-09-03 23:06:37 | 52.19529 | 14.22960 | 94° | 51km/h | 2669m | 6.3m/s | 3.8°C | 65.3% | 739.5hPa | 3V | 00:00:00 | 00:00:00 | 00:00:00 | |
| EDDB2-11 | 2026-09-03 23:06:29 | 52.19528 | 14.22757 | 84° | 49km/h | 2618m | 6.2m/s | 4.1°C | 71.6% | 744.1hPa | 3V | 00:00:00 | 00:00:00 | 00:00:00 | |
| DB0DAN | 2026-09-03 23:06:25 | 52.19525 | 14.22673 | 91° | 46km/h | 2595m | 6.2m/s | 4.2°C | 73.8% | 746.3hPa | 3V | 00:00:00 | 00:00:00 | 00:00:00 | |
| SP3BTT-10 | 2026-09-03 23:06:21 | 52.19525 | 14.22596 | 90° | 58km/h | 2572m | 4.2m/s | 0°C | 0% | 0hPa | 3V | 00:00:00 | 00:00:00 | 00:00:00 | |
| EDDB2-12 | 2026-09-03 23:06:16 | 52.19524 | 14.22505 | 77° | 42km/h | 2541m | 5.4m/s | 4.6°C | 70.3% | 751.2hPa | 3V | 00:00:00 | 00:00:00 | 00:00:00 | |
| DB0DAN | 2026-09-03 23:06:10 | 52.19518 | 14.22395 | 92° | 51km/h | 2504m | 6.3m/s | 4.5°C | 75.2% | 754.61hPa | 3V | 00:00:00 | 00:00:00 | 00:00:00 | |
| DAC517 | 2026-09-03 23:06:08 | 52.19513 | 14.22325 | 78° | 57km/h | 2487m | 5.5m/s | 0°C | 0% | 0hPa | 3V | 00:00:00 | 00:00:00 | 00:00:00 | |
| EDDB2-11 | 2026-09-03 23:05:58 | 52.19492 | 14.22133 | 84° | 55km/h | 2438m | 7.6m/s | 4.4°C | 68.1% | 761.0hPa | 3V | 00:00:00 | 00:00:00 | 00:00:00 | |
| DB0DAN | 2026-09-03 23:05:55 | 52.19492 | 14.22057 | 90° | 62km/h | 2419m | 7.2m/s | 4.6°C | 67.3% | 762.77hPa | 3V | 00:00:00 | 00:00:00 | 00:00:00 | |
| EDDB2-12 | 2026-09-03 23:05:45 | 52.19485 | 14.21799 | 82° | 66km/h | 2361m | 5.4m/s | 5.2°C | 62.9% | 768.2hPa | 3V | 00:00:00 | 00:00:00 | 00:00:00 | |
| DAC517 | 2026-09-03 23:05:37 | 52.19478 | 14.21627 | 91° | 55km/h | 2318m | 6.8m/s | 0°C | 0% | 0hPa | 3V | 00:00:00 | 00:00:00 | 00:00:00 | |
| SP3BTT-10 | 2026-09-03 23:05:36 | 52.19479 | 14.21579 | 90° | 64km/h | 2306m | 5.6m/s | 0°C | 0% | 0hPa | 3V | 00:00:00 | 00:00:00 | 00:00:00 | |
| 13BRC | 2026-09-03 23:05:34 | 52.19478 | 14.21554 | 89° | 60km/h | 2300m | 7.2m/s | 5.7°C | 62.0% | 773.9hPa | 3V | 00:00:00 | 00:00:00 | 00:00:00 | |
| DB0DAN | 2026-09-03 23:05:25 | 52.19484 | 14.21301 | 89° | 62km/h | 2245m | 4.8m/s | 5.5°C | 79.9% | 779.09hPa | 3V | 00:00:00 | 00:00:00 | 00:00:00 | |
| EDDB2-12 | 2026-09-03 23:05:14 | 52.19495 | 14.20996 | 91° | 73km/h | 2182m | 4.6m/s | 5.5°C | 93.3% | 785.2hPa | 3V | 00:00:00 | 00:00:00 | 00:00:00 | |
| EDDB2-11 | 2026-09-03 23:04:56 | 52.19496 | 14.20507 | 82° | 71km/h | 2077m | 4.9m/s | 6.3°C | 86.4% | 795.1hPa | 3V | 00:00:00 | 00:00:00 | 00:00:00 | |
| DB0DAN | 2026-09-03 23:04:55 | 52.19494 | 14.20476 | 85° | 73km/h | 2073m | 4.5m/s | 6.4°C | 0% | 795.57hPa | 3V | 00:00:00 | 00:00:00 | 00:00:00 | |
| 13BRC | 2026-09-03 23:04:54 | 52.19494 | 14.20476 | 86° | 77km/h | 2073m | 4.5m/s | 0°C | 0% | 795.6hPa | 3V | 00:00:00 | 00:00:00 | 00:00:00 | |
| EDDB2-12 | 2026-09-03 23:04:43 | 52.19494 | 14.20131 | 96° | 71km/h | 2004m | 5.1m/s | 6.9°C | 80.2% | 802.3hPa | 3V | 00:00:00 | 00:00:00 | 00:00:00 | |
| DB0DAN | 2026-09-03 23:04:40 | 52.19499 | 14.20035 | 91° | 77km/h | 1988m | 5m/s | 6.9°C | 0% | 0hPa | 3V | 00:00:00 | 00:00:00 | 00:00:00 | |
| SP3BTT-10 | 2026-09-03 23:04:36 | 52.19499 | 14.19908 | 92° | 75km/h | 1963m | 6.8m/s | 0°C | 0% | 0hPa | 3V | 00:00:00 | 00:00:00 | 00:00:00 | |
| 13BRC | 2026-09-03 23:04:33 | 52.19501 | 14.19845 | 97° | 75km/h | 1953m | 4.0m/s | 0°C | 0% | 807.4hPa | 3V | 00:00:00 | 00:00:00 | 00:00:00 | |
| DB0DAN | 2026-09-03 23:04:25 | 52.19521 | 14.19578 | 97° | 68km/h | 1898m | 5.8m/s | 7.2°C | 0% | 0hPa | 3V | 00:00:00 | 00:00:00 | 00:00:00 | |
| DAC517 | 2026-09-03 23:04:23 | 52.19523 | 14.19549 | 100° | 71km/h | 1891m | 7.7m/s | 0°C | 0% | 0hPa | 3V | 00:00:00 | 00:00:00 | 00:00:00 | |
| 13BRC | 2026-09-03 23:04:12 | 52.19560 | 14.19253 | 103° | 60km/h | 1829m | 5.7m/s | 0°C | 0% | 819.5hPa | 3V | 00:00:00 | 00:00:00 | 00:00:00 | |
| DB0DAN | 2026-09-03 23:04:10 | 52.19568 | 14.19175 | 99° | 66km/h | 1812m | 4.9m/s | 0°C | 0% | 0hPa | 3V | 00:00:00 | 00:00:00 | 00:00:00 | |
| EDDB2-11 | 2026-09-03 23:03:54 | 52.19636 | 14.18750 | 106° | 69km/h | 1725m | 5.8m/s | 8.5°C | 74.9% | 830.0hPa | 3V | 00:00:00 | 00:00:00 | 00:00:00 | |
| SONDE2-11 | 2026-09-03 23:03:54 | 52.19636 | 14.18750 | 106° | 69km/h | 1725m | 5.8m/s | 8.5°C | 74.9% | 830.0hPa | 3V | 00:00:00 | 00:00:00 | 00:00:00 | |
| 13BRC | 2026-09-03 23:03:52 | 52.19641 | 14.18723 | 106° | 68km/h | 1718m | 7.1m/s | 0°C | 0% | 0hPa | 3V | 00:00:00 | 00:00:00 | 00:00:00 | |
| DB0DAN | 2026-09-03 23:03:40 | 52.19706 | 14.18386 | 105° | 66km/h | 1648m | 4.6m/s | 0°C | 0% | 0hPa | 3V | 00:00:00 | 00:00:00 | 00:00:00 | |
| 13BRC | 2026-09-03 23:03:31 | 52.19740 | 14.18182 | 103° | 60km/h | 1606m | 5.7m/s | 0°C | 0% | 0hPa | 0V | 00:00:00 | 00:00:00 | 00:00:00 | |
| SONDE2-11 | 2026-09-03 23:03:23 | 52.19794 | 14.17969 | 104° | 64km/h | 1556m | 5.4m/s | 9.6°C | 77.9% | 846.8hPa | 0V | 00:00:00 | 00:00:00 | 00:00:00 | |
| EDDB2-11 | 2026-09-03 23:03:23 | 52.19794 | 14.17969 | 104° | 64km/h | 1556m | 5.4m/s | 9.6°C | 77.9% | 846.8hPa | 0V | 00:00:00 | 00:00:00 | 00:00:00 | |
| EDDB2-12 | 2026-09-03 23:03:10 | 52.19876 | 14.17635 | 117° | 64km/h | 1488m | 4.8m/s | 10.0°C | 80.7% | 853.9hPa | 0V | 00:00:00 | 00:00:00 | 00:00:00 | |
| SONDE2-11 | 2026-09-03 23:02:52 | 52.19997 | 14.17128 | 116° | 73km/h | 1392m | 4.6m/s | 11.0°C | 73.7% | 863.9hPa | 0V | 00:00:00 | 00:00:00 | 00:00:00 | |
| EDDB2-11 | 2026-09-03 23:02:52 | 52.19997 | 14.17128 | 116° | 73km/h | 1392m | 4.6m/s | 11.0°C | 73.7% | 863.9hPa | 0V | 00:00:00 | 00:00:00 | 00:00:00 | |
| EDDB2-12 | 2026-09-03 23:02:39 | 52.20091 | 14.16776 | 118° | 58km/h | 1325m | 4.9m/s | 11.3°C | 72.6% | 870.9hPa | 0V | 00:00:00 | 00:00:00 | 00:00:00 | |
| EDDB2-11 | 2026-09-03 23:02:21 | 52.20234 | 14.16320 | 118° | 71km/h | 1242m | 4.3m/s | 11.6°C | 80.2% | 879.5hPa | 0V | 00:00:00 | 00:00:00 | 00:00:00 | |
| SONDE2-11 | 2026-09-03 23:02:21 | 52.20234 | 14.16320 | 118° | 71km/h | 1242m | 4.3m/s | 11.6°C | 80.2% | 879.5hPa | 0V | 00:00:00 | 00:00:00 | 00:00:00 | |
| EDDB2-12 | 2026-09-03 23:02:08 | 52.20320 | 14.16025 | 114° | 62km/h | 1180m | 5.7m/s | 12.0°C | 82.5% | 886.1hPa | 0V | 00:00:00 | 00:00:00 | 00:00:00 | |
| EDDB2-11 | 2026-09-03 23:01:50 | 52.20432 | 14.15590 | 112° | 66km/h | 1088m | 5.6m/s | 12.5°C | 88.8% | 895.9hPa | 0V | 00:00:00 | 00:00:00 | 00:00:00 | |
| SONDE2-11 | 2026-09-03 23:01:50 | 52.20432 | 14.15590 | 112° | 66km/h | 1088m | 5.6m/s | 12.5°C | 88.8% | 895.9hPa | 0V | 00:00:00 | 00:00:00 | 00:00:00 | |
| EDDB2-12 | 2026-09-03 23:01:37 | 52.20508 | 14.15290 | 116° | 60km/h | 1017m | 5.5m/s | 12.8°C | 89.2% | 903.6hPa | 0V | 00:00:00 | 00:00:00 | 00:00:00 | |
| EDDB2-11 | 2026-09-03 23:01:19 | 52.20630 | 14.14895 | 114° | 55km/h | 929m | 4.8m/s | 13.2°C | 97.8% | 913.0hPa | 0V | 00:00:00 | 00:00:00 | 00:00:00 | |
| SONDE2-11 | 2026-09-03 23:01:19 | 52.20630 | 14.14895 | 114° | 55km/h | 929m | 4.8m/s | 13.2°C | 97.8% | 913.0hPa | 0V | 00:00:00 | 00:00:00 | 00:00:00 | |
| EDDB2-12 | 2026-09-03 23:01:06 | 52.20712 | 14.14623 | 110° | 58km/h | 863m | 4.9m/s | 13.8°C | 95.5% | 920.4hPa | 0V | 00:00:00 | 00:00:00 | 00:00:00 | |
| EDDB2-11 | 2026-09-03 23:00:48 | 52.20811 | 14.14208 | 114° | 55km/h | 777m | 4.0m/s | 14.6°C | 91.3% | 929.8hPa | 0V | 00:00:00 | 00:00:00 | 00:00:00 | |
| SONDE2-11 | 2026-09-03 23:00:48 | 52.20811 | 14.14208 | 114° | 55km/h | 777m | 4.0m/s | 14.6°C | 91.3% | 929.8hPa | 0V | 00:00:00 | 00:00:00 | 00:00:00 | |
| EDDB2-12 | 2026-09-03 23:00:35 | 52.20899 | 14.13912 | 117° | 64km/h | 719m | 5.3m/s | 14.8°C | 91.0% | 936.1hPa | 0V | 00:00:00 | 00:00:00 | 00:00:00 | |
| EDDB2-11 | 2026-09-03 23:00:17 | 52.20985 | 14.13479 | 96° | 60km/h | 628m | 6.0m/s | 15.2°C | 90.3% | 946.3hPa | 0V | 00:00:00 | 00:00:00 | 00:00:00 | |
| SONDE2-11 | 2026-09-03 23:00:17 | 52.20987 | 14.13453 | 96° | 64km/h | 623m | 4.9m/s | 15.2°C | 90.2% | 946.8hPa | 0V | 00:00:00 | 00:00:00 | 00:00:00 | |
| EDDB2-12 | 2026-09-03 23:00:04 | 52.21010 | 14.13193 | 88° | 47km/h | 563m | 4.8m/s | 15.6°C | 88.8% | 953.8hPa | 0V | 00:00:00 | 00:00:00 | 00:00:00 | |
| EDDB2-11 | 2026-09-03 22:59:46 | 52.21031 | 14.12824 | 102° | 58km/h | 468m | 4.6m/s | 0°C | -1.0% | -1.0hPa | 0V | 00:00:00 | 00:00:00 | 00:00:00 | |
| SONDE2-11 | 2026-09-03 22:59:46 | 52.21033 | 14.12800 | 89° | 60km/h | 464m | 4.2m/s | 16.3°C | -1.0% | -1.0hPa | 0V | 00:00:00 | 00:00:00 | 00:00:00 | |
| EDDB2-12 | 2026-09-03 22:59:33 | 52.21016 | 14.12528 | 105° | 53km/h | 394m | 4.0m/s | 16.8°C | -1.0% | -1.0hPa | 0V | 00:00:00 | 00:00:00 | 00:00:00 | |
| EDDB2-11 | 2026-09-03 22:59:17 | 52.20977 | 14.12235 | 75° | 27km/h | 298m | 6.9m/s | 0°C | -1.0% | -1.0hPa | 0V | 00:00:00 | 00:00:00 | 00:00:00 | |
| SONDE2-11 | 2026-09-03 22:59:15 | 52.20977 | 14.12235 | 75° | 27km/h | 298m | 6.9m/s | 17.4°C | -1.0% | -1.0hPa | 0V | 00:00:00 | 00:00:00 | 00:00:00 | |
| EDDB2-12 | 2026-09-03 22:59:02 | 52.20962 | 14.12086 | 59° | 7km/h | 224m | 7.3m/s | 0°C | -1.0% | -1.0hPa | 0V | 00:00:00 | 00:00:00 | 00:00:00 |